<
# Wetter Temperatur Luftdruck Luftfeuchtigkeit Sichtweite Windgeschwindigkeit Windrichtung Zeit
1 Clouds 18 1010 42 10000 4.1 180 10:37 08.04.2020
2 Clouds 18 1010 42 10000 4.1 180 10:18 08.04.2020
3 Clouds 18 1010 42 10000 4.1 180 10:18 08.04.2020
4 Clouds 19 1010 42 10000 5.7 160 09:55 08.04.2020
5 Clouds 19 1010 42 10000 5.7 160 09:36 08.04.2020
6 Clouds 20 1010 42 10000 5.7 160 09:18 08.04.2020
7 Clouds 19 1011 63 10000 4.6 180 08:42 08.04.2020
8 Clouds 19 1011 63 10000 4.6 180 08:23 08.04.2020
9 Clouds 19 1011 51 10000 4.6 160 07:44 08.04.2020
10 Clouds 19 1011 51 10000 4.6 160 07:25 08.04.2020
11 Clouds 19 1011 48 10000 3.6 120 06:56 08.04.2020
12 Clouds 19 1012 48 10000 2.6 140 05:56 08.04.2020
13 Clouds 17 1013 59 10000 2.1 40 04:19 08.04.2020
14 Clouds 15 1014 62 10000 3.1 40 02:49 08.04.2020
15 Clouds 14 1014 62 10000 3.1 40 02:20 08.04.2020
16 Clouds 14 1013 71 10000 2.1 30 01:45 08.04.2020
17 Clouds 13 1013 71 10000 2.1 30 01:23 08.04.2020
18 Clouds 12 1013 71 10000 3.1 10 00:41 08.04.2020
19 Clouds 11 1013 71 10000 3.1 10 00:21 08.04.2020
20 Clear 10 1013 76 10000 3.6 10 23:39 07.04.2020
21 Clear 9 1013 76 10000 3.6 10 23:21 07.04.2020
22 Clouds 9 1013 81 10000 3.1 20 22:57 07.04.2020
23 Clear 9 1013 76 10000 4.1 20 22:39 07.04.2020
24 Clear 9 1013 76 10000 4.1 20 22:19 07.04.2020
25 Clear 10 1013 76 10000 4.1 20 21:56 07.04.2020
26 Clear 10 1013 76 10000 4.1 20 21:56 07.04.2020
27 Clouds 9 1013 76 10000 4.1 360 21:38 07.04.2020
28 Clouds 9 1013 76 10000 4.1 360 21:20 07.04.2020
29 Clouds 10 1012 81 10000 5.7 20 20:56 07.04.2020
30 Clouds 10 1012 81 10000 5.7 20 20:38 07.04.2020
31 Clouds 10 1012 81 10000 5.7 20 20:20 07.04.2020
32 Clouds 11 1012 81 10000 2.6 10 19:56 07.04.2020
33 Clouds 11 1012 81 10000 2.6 10 19:56 07.04.2020
34 Clouds 11 1013 87 10000 2.1 40 19:36 07.04.2020
35 Clouds 11 1013 87 10000 2.1 40 19:18 07.04.2020
36 Clouds 12 1013 87 10000 2.1 40 18:54 07.04.2020
37 Clouds 11 1012 76 10000 2.1 70 18:36 07.04.2020
38 Clouds 11 1012 76 10000 2.1 70 18:18 07.04.2020
39 Clouds 11 1013 76 10000 3.6 100 17:43 07.04.2020
40 Clouds 12 1013 76 10000 3.6 90 17:20 07.04.2020
41 Clouds 12 1013 76 10000 4.1 100 16:46 07.04.2020
42 Clouds 12 1013 76 10000 4.1 100 16:27 07.04.2020
43 Clouds 12 1013 82 10000 4.6 100 15:56 07.04.2020
44 Clouds 12 1013 82 10000 4.6 100 15:38 07.04.2020
45 Clouds 13 1013 82 10000 4.1 110 15:19 07.04.2020
46 Clouds 13 1013 82 10000 4.6 100 14:41 07.04.2020
47 Clouds 13 1013 82 10000 4.6 100 14:22 07.04.2020
48 Clouds 13 1013 71 10000 2.6 150 13:56 07.04.2020
49 Clouds 13 1013 62 10000 2.6 180 13:37 07.04.2020
50 Clouds 13 1013 62 10000 2.6 180 13:18 07.04.2020
51 Clouds 13 1013 58 10000 3.6 190 12:54 07.04.2020
52 Clouds 13 1012 54 10000 4.1 190 12:36 07.04.2020
53 Clouds 14 1012 58 10000 4.6 190 12:18 07.04.2020
54 Clouds 14 1012 54 10000 4.6 190 11:42 07.04.2020
55 Clouds 15 1011 41 10000 3.1 190 11:22 07.04.2020
56 Clouds 15 1011 41 10000 3.1 190 10:57 07.04.2020
57 Clouds 15 1011 41 10000 3.1 190 10:37 07.04.2020
58 Clouds 16 1011 54 10000 3.1 180 10:18 07.04.2020
59 Clouds 16 1011 54 10000 3.1 180 09:44 07.04.2020
60 Clouds 16 1011 54 10000 3.1 180 09:18 07.04.2020
61 Clouds 17 1011 51 10000 3.1 170 08:55 07.04.2020
62 Clouds 17 1011 51 10000 3.1 170 08:36 07.04.2020
63 Clouds 17 1012 44 10000 3.6 150 08:18 07.04.2020
64 Clouds 17 1012 44 10000 3.6 150 07:40 07.04.2020
65 Clouds 17 1012 44 10000 3.6 150 07:21 07.04.2020
66 Clouds 17 1012 44 10000 2.6 140 06:51 07.04.2020
67 Clouds 17 1012 44 10000 2.6 140 06:21 07.04.2020
68 Clouds 16 1013 51 10000 3.1 150 05:38 07.04.2020
69 Clouds 15 1013 47 10000 3.1 140 04:46 07.04.2020
70 Clouds 13 1014 35 10000 1.5 0 03:26 07.04.2020
71 Clouds 13 1014 40 10000 2.6 20 02:54 07.04.2020
72 Clouds 12 1014 40 10000 2.1 20 01:50 07.04.2020
73 Clouds 12 1014 43 10000 3.6 10 01:26 07.04.2020
74 Clouds 10 1014 43 10000 6.2 360 00:29 07.04.2020
75 Clouds 9 1015 46 10000 5.7 360 23:56 06.04.2020
76 Clouds 9 1014 46 10000 5.1 20 23:36 06.04.2020
77 Clouds 9 1014 47 10000 4.1 30 23:18 06.04.2020
78 Clouds 9 1014 46 10000 4.6 10 22:40 06.04.2020
79 Clouds 9 1014 46 10000 4.6 10 22:21 06.04.2020
80 Clouds 9 1014 43 10000 6.2 350 21:57 06.04.2020
81 Clouds 9 1014 47 10000 6.2 350 21:39 06.04.2020
82 Clouds 9 1014 46 10000 6.2 350 21:19 06.04.2020
83 Clouds 10 1013 43 10000 5.7 350 20:55 06.04.2020
84 Clouds 10 1013 46 10000 6.2 350 20:37 06.04.2020
85 Clouds 10 1013 46 10000 6.2 350 20:19 06.04.2020
86 Clouds 10 1014 46 10000 5.7 360 19:41 06.04.2020
87 Clouds 10 1014 46 10000 6.7 350 19:23 06.04.2020
88 Clouds 10 1014 46 10000 6.7 350 18:59 06.04.2020
89 Clouds 10 1014 46 10000 6.7 340 18:40 06.04.2020
90 Clear 10 1014 50 10000 7.2 350 18:22 06.04.2020
91 Clear 11 1014 50 10000 7.2 350 17:55 06.04.2020
92 Clear 11 1014 50 10000 7.2 350 17:55 06.04.2020
93 Clouds 11 1014 53 10000 7.7 350 17:36 06.04.2020
94 Clouds 11 1014 46 10000 7.2 350 17:18 06.04.2020
95 Clouds 11 1014 42 10000 6.7 340 16:45 06.04.2020
96 Clouds 11 1014 42 10000 6.7 340 16:27 06.04.2020
97 Clouds 12 1014 45 10000 6.2 340 14:45 06.04.2020
98 Clouds 12 1014 45 10000 6.2 340 14:45 06.04.2020
99 Clouds 12 1014 45 10000 6.2 340 14:45 06.04.2020
100 Clouds 13 1014 66 10000 3.6 320 13:44 06.04.2020
101 Clouds 13 1014 66 10000 3.6 320 13:44 06.04.2020
102 Clouds 13 1014 66 10000 3.6 320 13:44 06.04.2020
103 Clouds 13 1014 66 10000 3.6 320 13:44 06.04.2020
104 Clouds 13 1014 66 10000 3.6 320 13:44 06.04.2020
105 Clouds 13 1014 62 10000 4.1 280 13:21 06.04.2020
106 Clouds 13 1014 62 10000 4.1 280 13:21 06.04.2020
107 Clouds 13 1014 62 10000 4.1 280 13:21 06.04.2020
108 Clouds 13 1014 62 10000 4.1 280 13:21 06.04.2020
109 Clouds 14 1013 51 10000 4.1 220 12:26 06.04.2020
110 Clouds 14 1013 51 10000 5.1 200 12:02 06.04.2020
111 Clouds 15 1012 54 10000 5.7 200 11:40 06.04.2020
112 Clouds 15 1012 54 10000 5.7 200 11:40 06.04.2020
113 Clouds 14 1013 51 10000 5.1 200 11:40 06.04.2020
114 Clouds 16 1012 48 10000 4.1 190 10:53 06.04.2020
115 Clouds 16 1012 48 10000 4.1 190 10:53 06.04.2020
116 Clouds 16 1012 48 10000 4.1 190 10:53 06.04.2020
117 Clouds 15 1012 48 10000 4.1 190 10:53 06.04.2020
118 Clouds 16 1012 48 10000 4.1 190 10:53 06.04.2020
119 Clouds 16 1012 48 10000 4.1 190 10:23 06.04.2020
120 Clouds 16 1012 48 10000 4.1 190 10:23 06.04.2020
121 Clouds 16 1012 48 10000 4.1 190 10:23 06.04.2020
122 Clouds 16 1012 48 10000 4.1 190 10:23 06.04.2020
123 Clouds 16 1012 48 10000 4.1 190 10:23 06.04.2020
124 Clouds 16 1012 55 10000 5.7 160 09:57 06.04.2020
125 Clouds 16 1012 55 10000 5.7 160 09:57 06.04.2020
126 Clouds 16 1012 55 10000 5.7 160 09:57 06.04.2020
127 Clouds 16 1012 55 10000 5.7 160 09:57 06.04.2020
128 Clouds 16 1012 55 10000 5.7 160 09:57 06.04.2020
129 Clouds 17 1012 55 10000 5.7 160 09:26 06.04.2020
130 Clouds 17 1012 55 10000 6.2 160 08:55 06.04.2020
131 Clouds 17 1012 55 10000 6.2 160 08:55 06.04.2020
132 Clouds 17 1012 55 10000 6.2 160 08:36 06.04.2020
133 Clouds 17 1012 55 10000 6.2 160 08:36 06.04.2020
134 Clouds 17 1012 55 10000 6.2 160 08:36 06.04.2020
135 Clouds 17 1012 42 10000 3.6 190 07:56 06.04.2020
136 Clouds 17 1012 42 10000 3.6 190 07:56 06.04.2020
137 Clouds 17 1012 42 10000 3.6 190 07:19 06.04.2020
138 Clouds 17 1013 44 10000 5.1 150 06:26 06.04.2020
139 Clouds 16 1013 38 10000 5.1 140 05:40 06.04.2020
140 Clouds 16 1013 38 10000 5.1 140 05:40 06.04.2020
141 Clouds 14 1015 35 10000 2.1 230 03:29 06.04.2020
142 Clouds 13 1015 32 10000 3.1 300 02:49 06.04.2020
143 Clouds 12 1015 34 10000 5.1 300 01:52 06.04.2020
144 Clouds 10 1014 42 10000 3.6 300 00:51 06.04.2020
145 Clouds 10 1015 53 10000 3.6 300 00:27 06.04.2020
146 Clouds 10 1015 53 10000 3.6 300 00:27 06.04.2020
147 Clouds 8 1015 49 10000 3.1 290 23:50 05.04.2020
148 Clouds 8 1014 52 10000 3.6 290 23:32 05.04.2020
149 Clouds 8 1014 52 10000 3.6 290 23:32 05.04.2020
150 Clouds 8 1014 52 10000 3.6 290 23:32 05.04.2020
151 Clouds 7 1014 45 10000 3.1 280 22:57 05.04.2020
152 Clouds 7 1014 45 10000 3.1 280 22:38 05.04.2020
153 Clouds 7 1013 45 10000 4.1 330 22:38 05.04.2020
154 Clouds 7 1013 45 10000 4.1 330 22:19 05.04.2020
155 Clouds 7 1014 42 10000 3.1 330 21:58 05.04.2020
156 Clouds 8 1014 42 10000 3.1 330 21:39 05.04.2020
157 Clouds 8 1013 45 10000 3.6 340 21:21 05.04.2020
158 Clouds 8 1013 46 10000 3.6 350 20:22 05.04.2020
159 Clouds 8 1013 46 10000 3.6 350 20:22 05.04.2020
160 Clouds 8 1014 45 10000 4.1 350 19:42 05.04.2020
161 Clouds 8 1013 45 10000 3.1 360 19:22 05.04.2020
162 Clouds 8 1014 51 10000 2.6 20 18:47 05.04.2020
163 Clouds 8 1014 46 10000 2.1 10 18:18 05.04.2020
164 Clouds 8 1014 57 10000 3.1 360 17:42 05.04.2020
165 Clouds 8 1014 57 10000 3.1 360 17:42 05.04.2020
166 Clouds 8 1014 57 10000 3.1 360 17:42 05.04.2020
167 Clouds 8 1014 57 10000 3.1 360 17:42 05.04.2020
168 Clouds 8 1014 66 10000 2.6 320 17:21 05.04.2020
169 Clouds 8 1014 66 10000 2.6 320 17:21 05.04.2020
170 Clouds 8 1014 66 10000 2.6 320 17:21 05.04.2020
171 Clouds 8 1014 70 10000 2.1 310 16:47 05.04.2020
172 Clouds 8 1014 70 10000 2.1 310 16:47 05.04.2020
173 Clouds 8 1014 70 10000 2.1 310 16:47 05.04.2020
174 Clouds 8 1014 75 10000 1 320 16:19 05.04.2020
175 Clouds 8 1014 76 10000 1 0 15:45 05.04.2020
176 Clouds 8 1014 76 10000 1 0 15:45 05.04.2020
177 Clouds 8 1014 76 10000 1.5 10 15:25 05.04.2020
178 Clouds 8 1014 76 10000 1.5 40 14:48 05.04.2020
179 Clouds 8 1014 76 10000 1.5 40 14:48 05.04.2020
180 Clouds 8 1014 76 10000 1.5 40 14:48 05.04.2020
181 Clouds 8 1014 76 10000 1.5 40 14:48 05.04.2020
182 Clouds 8 1014 76 10000 1.5 40 14:48 05.04.2020
183 Clouds 8 1013 76 10000 2.6 60 13:59 05.04.2020
184 Clouds 8 1013 76 10000 2.6 60 13:40 05.04.2020
185 Clouds 8 1013 76 10000 2.6 60 13:40 05.04.2020
186 Clouds 8 1013 76 10000 2.6 60 13:40 05.04.2020
187 Clouds 8 1013 76 10000 2.6 60 13:40 05.04.2020
188 Clouds 8 1013 76 10000 2.6 60 13:40 05.04.2020
189 Clouds 9 1012 81 10000 6.2 40 12:00 05.04.2020
190 -273 0 0 0 0 0 12:00 05.04.2020
191 Clouds 9 1012 81 10000 6.2 40 12:00 05.04.2020
192 Clouds 9 1011 81 10000 5.7 50 11:39 05.04.2020
193 Clouds 10 1011 81 10000 5.7 50 11:19 05.04.2020
194 Clouds 11 1010 66 10000 2.6 40 10:47 05.04.2020
195 Clouds 11 1010 66 10000 2.6 40 10:47 05.04.2020
196 Clouds 11 1010 66 10000 2.6 40 10:22 05.04.2020
197 Clouds 11 1010 66 10000 2.6 40 10:22 05.04.2020
198 Rain 11 1010 81 10000 3.1 60 09:53 05.04.2020
199 Rain 11 1010 81 10000 3.1 60 09:26 05.04.2020
200 Rain 11 1010 81 10000 3.1 60 09:26 05.04.2020
201 Rain 11 1010 81 10000 3.1 60 09:26 05.04.2020
202 Rain 11 1010 81 10000 3.1 60 09:26 05.04.2020
203 Rain 11 1010 81 10000 3.1 60 09:26 05.04.2020
204 Clouds 10 1011 81 10000 5.7 60 08:22 05.04.2020
205 Clouds 10 1011 81 10000 5.7 60 08:22 05.04.2020
206 Clouds 12 1010 66 10000 6.2 50 05:47 05.04.2020
207 Rain 13 1010 66 10000 4.1 20 04:29 05.04.2020
208 Clouds 13 1010 62 10000 4.6 20 03:27 05.04.2020
209 Clouds 13 1010 71 10000 4.6 20 02:19 05.04.2020
210 Clouds 13 1010 71 10000 5.7 30 01:42 05.04.2020
211 Clouds 13 1010 81 10000 6.2 20 01:19 05.04.2020
212 Clouds 13 1009 81 10000 6.7 10 00:37 05.04.2020
213 Clouds 12 1009 81 10000 6.7 10 00:18 05.04.2020
214 Clouds 12 1010 81 10000 5.7 360 23:41 04.04.2020
215 Clouds 12 1009 76 10000 5.7 350 23:22 04.04.2020
216 Clouds 11 1009 76 10000 4.1 330 22:57 04.04.2020
217 Clouds 12 1009 76 10000 4.1 330 22:39 04.04.2020
218 Clouds 12 1008 76 10000 2.6 360 22:20 04.04.2020
219 Clouds 12 1008 71 10000 4.1 330 21:57 04.04.2020
220 Clouds 12 1008 71 10000 4.1 330 21:39 04.04.2020
221 Clouds 13 1008 71 10000 2.6 310 21:19 04.04.2020
222 Clouds 13 1008 66 10000 2.6 290 20:55 04.04.2020
223 Clouds 13 1008 71 10000 4.1 270 20:37 04.04.2020
224 Clouds 13 1008 71 10000 4.1 270 20:19 04.04.2020
225 Clouds 14 1009 67 10000 5.1 260 19:54 04.04.2020
226 Rain 14 1008 67 10000 6.2 240 19:36 04.04.2020
227 Rain 14 1008 67 10000 6.2 240 19:18 04.04.2020
228 Clouds 15 1009 59 10000 6.7 240 18:54 04.04.2020
229 Clouds 15 1009 63 10000 6.7 230 18:36 04.04.2020
230 Clouds 15 1009 63 10000 6.7 230 18:18 04.04.2020
231 Clouds 16 1009 59 10000 9.3 220 17:39 04.04.2020
232 Clouds 16 1009 59 10000 9.3 220 17:20 04.04.2020
233 Clouds 16 1009 63 10000 9.3 220 16:46 04.04.2020
234 Clouds 16 1010 63 10000 9.3 210 16:28 04.04.2020
235 Clouds 16 1010 63 10000 10.3 220 15:59 04.04.2020
236 Clouds 16 1010 63 10000 10.3 220 15:39 04.04.2020
237 Clouds 17 1010 63 10000 9.8 230 15:20 04.04.2020
238 Clouds 17 1010 63 10000 9.8 230 15:20 04.04.2020
239 Clouds 16 1010 59 10000 9.3 220 14:56 04.04.2020
240 Clouds 16 1010 59 10000 9.3 220 14:38 04.04.2020
241 Clouds 16 1010 63 10000 9.8 220 14:20 04.04.2020
242 Clouds 17 1011 63 10000 10.3 220 13:54 04.04.2020
243 Clouds 17 1011 63 10000 10.3 220 13:36 04.04.2020
244 Clouds 17 1010 59 10000 11.8 220 13:18 04.04.2020
245 Clouds 17 1010 59 10000 9.3 210 12:43 04.04.2020
246 Clouds 17 1010 59 10000 9.3 210 12:23 04.04.2020
247 Clouds 17 1010 67 10000 10.3 210 11:55 04.04.2020
248 Clouds 17 1009 63 10000 10.8 210 11:36 04.04.2020
249 Clouds 18 1009 63 10000 10.8 210 11:18 04.04.2020
250 Clouds 19 1009 42 10000 6.7 210 10:55 04.04.2020
251 Clouds 19 1009 42 10000 6.7 210 10:37 04.04.2020
252 Clouds 19 1009 42 10000 6.7 210 10:18 04.04.2020
253 Clouds 20 1010 63 10000 7.2 190 09:54 04.04.2020
254 Clouds 20 1010 63 10000 7.2 190 09:36 04.04.2020
255 Clouds 20 1010 63 10000 7.2 190 09:18 04.04.2020
256 Clouds 21 1010 59 10000 7.2 190 08:38 04.04.2020
257 Clouds 21 1010 59 10000 7.2 190 08:19 04.04.2020
258 Clouds 21 1011 56 10000 7.2 200 07:41 04.04.2020
259 Clouds 21 1011 56 10000 7.2 200 07:23 04.04.2020
260 Clouds 21 1012 55 10000 6.2 170 06:47 04.04.2020
261 Clouds 21 1012 55 10000 6.2 170 06:18 04.04.2020
262 Clouds 21 1012 37 10000 5.7 190 05:41 04.04.2020
263 Clouds 20 1012 37 10000 5.7 190 05:23 04.04.2020
264 Clear 19 1014 67 9000 3.6 130 04:27 04.04.2020
265 Clear 17 1016 72 9000 3.6 130 03:49 04.04.2020
266 Clear 16 1016 62 10000 1.5 80 02:50 04.04.2020
267 Clear 16 1016 62 10000 1.5 80 02:32 04.04.2020
268 Clear 15 1016 67 10000 0.5 0 01:53 04.04.2020
269 Clear 15 1016 71 10000 2.1 20 01:25 04.04.2020
270 Clear 13 1017 71 10000 2.1 360 00:48 04.04.2020
271 Clear 13 1017 66 10000 1.5 320 00:29 04.04.2020
272 Clear 11 1017 76 10000 2.1 330 23:39 03.04.2020
273 Clouds 10 1017 76 10000 1.5 310 23:21 03.04.2020
274 Clouds 10 1017 76 10000 1.5 310 22:58 03.04.2020
275 Clouds 10 1017 76 10000 1.5 310 22:39 03.04.2020
276 Clouds 10 1017 76 10000 2.6 320 22:18 03.04.2020
277 Clouds 10 1017 81 10000 2.6 300 21:44 03.04.2020
278 Clouds 11 1016 76 10000 2.1 310 21:25 03.04.2020
279 Clouds 11 1017 81 10000 2.1 300 20:57 03.04.2020
280 Clouds 12 1017 81 10000 1 310 20:38 03.04.2020
281 Clouds 12 1017 81 10000 1 310 20:20 03.04.2020
282 Clouds 12 1017 82 10000 1.5 140 19:57 03.04.2020
283 Clouds 13 1017 87 10000 1.5 160 19:39 03.04.2020
284 Clouds 13 1017 87 10000 1.5 160 19:21 03.04.2020
285 Clouds 13 1017 82 10000 2.6 160 18:59 03.04.2020
286 Clouds 13 1017 82 10000 4.1 160 18:41 03.04.2020
287 Clouds 13 1017 82 10000 4.1 160 18:23 03.04.2020
288 Clouds 14 1018 77 10000 4.6 160 17:57 03.04.2020
289 Clouds 14 1018 76 10000 4.1 170 17:39 03.04.2020
290 Clouds 14 1018 76 10000 4.1 170 17:18 03.04.2020
291 Clouds 14 1019 76 10000 4.6 170 16:45 03.04.2020
292 Rain 14 1018 77 10000 3.6 170 16:22 03.04.2020
293 Rain 14 1019 72 10000 2.6 190 15:58 03.04.2020
294 Rain 14 1019 72 10000 2.6 190 15:40 03.04.2020
295 Clouds 14 1019 67 10000 6.2 180 15:21 03.04.2020
296 Clouds 14 1019 67 10000 6.2 180 14:56 03.04.2020
297 Clouds 14 1017 79 0 1.34 152 14:38 03.04.2020
298 Clouds 15 1019 67 10000 5.7 170 14:20 03.04.2020
299 Clouds 15 1019 67 10000 5.7 170 13:43 03.04.2020
300 Clouds 15 1019 67 10000 5.7 170 13:25 03.04.2020
301 Clouds 15 1019 62 10000 6.7 170 12:56 03.04.2020
302 Clouds 15 1019 67 10000 6.2 170 12:37 03.04.2020
303 Clouds 15 1019 67 10000 6.2 170 12:18 03.04.2020
304 Clouds 15 1018 67 10000 6.7 170 11:54 03.04.2020
305 Clouds 15 1018 67 10000 6.7 170 11:36 03.04.2020
306 Clouds 15 1018 55 10000 5.7 200 11:18 03.04.2020
307 Clouds 16 1018 55 10000 5.7 200 10:54 03.04.2020
308 Clouds 16 1018 55 10000 5.7 200 10:36 03.04.2020
309 Clouds 16 1018 55 10000 5.7 200 10:18 03.04.2020
310 Clouds 17 1018 55 10000 6.2 200 09:40 03.04.2020
311 Clouds 17 1018 55 10000 6.2 200 09:22 03.04.2020
312 Clouds 17 1018 45 10000 4.6 190 08:57 03.04.2020
313 Clouds 17 1018 45 10000 4.6 190 08:39 03.04.2020
314 Clouds 17 1018 45 10000 4.6 190 08:20 03.04.2020
315 Clouds 17 1019 42 10000 4.6 180 07:50 03.04.2020
316 Clouds 17 1019 42 10000 4.6 180 07:31 03.04.2020
317 Clouds 17 1020 38 10000 4.6 190 06:50 03.04.2020
318 Clouds 17 1020 38 10000 4.6 190 06:25 03.04.2020
319 Clouds 16 1021 38 10000 4.6 150 05:40 03.04.2020
320 Clouds 15 1022 43 10000 3.1 140 03:45 03.04.2020
321 Clouds 14 1022 43 10000 3.1 140 03:23 03.04.2020
322 Clouds 13 1022 40 10000 1.5 70 02:29 03.04.2020
323 Clouds 12 1021 40 10000 3.6 340 01:23 03.04.2020
324 Clouds 11 1021 39 10000 3.1 20 00:41 03.04.2020
325 Clouds 9 1021 46 10000 3.1 30 00:20 03.04.2020
326 Clear 9 1020 49 10000 3.6 40 23:42 02.04.2020
327 Clouds 9 1021 43 10000 4.1 20 23:42 02.04.2020
328 Clear 8 1020 49 10000 3.6 40 23:23 02.04.2020
329 Clouds 8 1020 45 10000 4.6 30 22:59 02.04.2020
330 Clouds 7 1020 45 10000 4.6 30 22:41 02.04.2020
331 Clear 8 1019 49 10000 3.6 20 22:21 02.04.2020
332 Clear 8 1019 39 10000 5.1 360 21:55 02.04.2020
333 Clear 8 1019 43 10000 5.7 360 21:36 02.04.2020
334 Clear 8 1019 43 10000 5.7 360 21:36 02.04.2020
335 Clear 8 1019 43 10000 5.7 360 21:18 02.04.2020
336 Clouds 10 1019 43 10000 6.7 350 20:42 02.04.2020
337 Clouds 10 1018 43 10000 8.2 350 20:23 02.04.2020
338 Clouds 9 1018 46 10000 8.7 350 19:55 02.04.2020
339 Clouds 9 1018 43 10000 9.8 350 19:37 02.04.2020
340 Clouds 9 1018 40 10000 8.7 340 19:19 02.04.2020
341 Clouds 9 1017 43 10000 9.8 340 18:42 02.04.2020
342 Clouds 10 1017 43 10000 9.8 340 18:21 02.04.2020
343 Clear 10 1017 37 10000 10.8 340 17:59 02.04.2020
344 Clear 10 1017 37 10000 10.8 340 17:59 02.04.2020
345 Clear 10 1017 37 10000 10.8 340 17:40 02.04.2020
346 Clear 10 1017 37 10000 11.3 340 17:22 02.04.2020
347 Clear 10 1017 37 10000 11.3 340 17:22 02.04.2020
348 Clear 10 1017 40 10000 9.3 330 16:57 02.04.2020
349 Clear 10 1017 40 10000 9.3 330 16:39 02.04.2020
350 Clear 10 1016 40 10000 10.3 340 16:21 02.04.2020
351 Clear 10 1016 40 10000 10.8 340 15:56 02.04.2020
352 Clear 10 1016 40 10000 10.8 340 15:38 02.04.2020
353 Clear 10 1016 40 10000 10.3 340 15:18 02.04.2020
354 Clear 10 1015 40 10000 10.8 330 14:55 02.04.2020
355 Clear 10 1015 40 10000 10.8 330 14:37 02.04.2020
356 Clear 10 1015 40 10000 11.3 340 14:18 02.04.2020
357 Rain 10 1015 40 10000 12.3 340 13:54 02.04.2020
358 Rain 11 1014 37 10000 12.9 340 13:36 02.04.2020
359 Rain 11 1014 37 10000 12.9 340 13:18 02.04.2020
360 Rain 12 1013 34 10000 12.9 330 12:41 02.04.2020
361 Rain 12 1013 34 10000 13.4 330 12:19 02.04.2020
362 Rain 12 1013 34 10000 13.4 330 11:57 02.04.2020
363 Rain 12 1013 34 10000 13.4 330 11:39 02.04.2020
364 Rain 13 1011 32 10000 13.9 330 11:20 02.04.2020
365 Rain 14 1010 35 10000 10.8 340 10:56 02.04.2020
366 Rain 14 1010 35 10000 10.8 340 10:37 02.04.2020
367 Rain 14 1010 35 10000 10.8 340 10:19 02.04.2020
368 Rain 14 1010 35 10000 10.8 340 10:19 02.04.2020
369 Rain 15 1008 35 10000 7.7 320 09:58 02.04.2020
370 Rain 16 1008 35 10000 7.7 320 09:39 02.04.2020
371 Rain 17 1008 31 10000 7.7 320 09:19 02.04.2020
372 Rain 18 1007 32 10000 5.7 320 08:47 02.04.2020
373 Clouds 18 1007 32 10000 5.7 320 08:27 02.04.2020
374 Rain 19 1007 32 10000 7.7 310 07:45 02.04.2020
375 Rain 19 1007 32 10000 7.7 310 07:21 02.04.2020
376 Rain 19 1006 27 10000 8.2 310 06:59 02.04.2020
377 Rain 19 1006 27 10000 8.2 310 06:23 02.04.2020
378 Rain 19 1005 27 10000 8.2 310 05:45 02.04.2020
379 Rain 18 1005 31 10000 7.2 320 04:47 02.04.2020
380 Rain 16 1003 35 10000 11.3 300 02:18 02.04.2020
381 Clouds 15 1002 38 10000 14.4 330 00:54 02.04.2020
382 Clouds 14 1002 35 10000 11.8 310 00:36 02.04.2020
383 Clouds 14 1002 47 10000 11.8 310 00:18 02.04.2020
384 Clouds 13 1000 41 10000 14.4 330 23:38 01.04.2020
385 Clouds 13 1000 41 10000 15.4 320 23:19 01.04.2020
386 Clouds 13 997 47 10000 10.3 330 22:41 01.04.2020
387 Clouds 13 997 47 10000 10.3 330 22:22 01.04.2020
388 Clouds 14 997 47 10000 10.3 330 21:58 01.04.2020
389 Clouds 14 997 47 10000 10.3 330 21:39 01.04.2020
390 Clouds 14 996 51 10000 13.4 320 21:19 01.04.2020
391 Rain 14 995 54 10000 10.3 300 20:56 01.04.2020
392 Rain 14 995 54 10000 10.3 300 20:38 01.04.2020
393 Rain 14 995 87 10000 6.2 270 20:19 01.04.2020
394 Rain 14 994 93 10000 6.2 260 19:57 01.04.2020
395 Rain 14 993 87 10000 5.7 260 19:38 01.04.2020
396 Rain 14 993 87 10000 5.7 260 19:19 01.04.2020
397 Rain 13 993 93 10000 3.6 260 18:42 01.04.2020
398 Rain 13 992 82 10000 3.1 300 18:23 01.04.2020
399 Clouds 12 991 93 16093 6.97 329 17:57 01.04.2020
400 Rain 13 992 87 10000 3.6 330 17:37 01.04.2020
401 Rain 13 992 87 10000 3.6 330 17:19 01.04.2020
402 Rain 13 994 100 16093 2.6 300 16:57 01.04.2020
403 Rain 13 992 87 10000 6.7 330 16:39 01.04.2020
404 Rain 13 992 87 10000 6.7 330 16:20 01.04.2020
405 Rain 12 992 93 10000 6.7 320 15:56 01.04.2020
406 Rain 12 992 93 10000 6.7 320 15:37 01.04.2020
407 Rain 12 992 93 10000 8.2 340 15:18 01.04.2020
408 Rain 12 993 93 10000 4.6 330 14:40 01.04.2020
409 Rain 12 993 93 10000 8.2 320 14:22 01.04.2020
410 Rain 12 993 93 10000 7.2 320 13:59 01.04.2020
411 Rain 12 994 93 7000 7.7 330 13:40 01.04.2020
412 Rain 12 994 93 7000 7.7 330 13:20 01.04.2020
413 Rain 12 995 93 6000 8.2 330 12:59 01.04.2020
414 Rain 12 995 93 6000 8.2 330 12:41 01.04.2020
415 Rain 12 995 93 8000 7.7 330 12:22 01.04.2020
416 Rain 12 996 93 8000 7.7 340 11:57 01.04.2020
417 Rain 12 999 100 3000 3.1 320 11:38 01.04.2020
418 Rain 12 999 100 3000 3.1 320 11:20 01.04.2020
419 Rain 12 1000 100 3000 3.1 330 10:41 01.04.2020
420 Rain 12 1000 100 3000 3.1 330 10:22 01.04.2020
421 Rain 12 1000 100 2500 4.6 350 09:59 01.04.2020
422 Rain 12 1000 100 2500 4.6 350 09:40 01.04.2020
423 Rain 13 1000 100 4500 4.6 350 09:21 01.04.2020
424 Rain 13 1002 100 5000 4.6 10 08:57 01.04.2020
425 Rain 12 1002 100 5000 4.6 10 08:38 01.04.2020
426 Rain 13 1003 100 3000 3.6 360 08:18 01.04.2020
427 Rain 13 1004 100 3500 3.6 360 07:41 01.04.2020
428 Rain 13 1005 100 2500 3.1 360 07:19 01.04.2020
429 Rain 13 1007 93 1700 2.6 340 06:47 01.04.2020
430 Rain 13 1007 93 1700 2.6 340 06:21 01.04.2020
431 Rain 13 1009 93 2000 2.6 310 05:50 01.04.2020
432 Rain 13 1011 93 2500 2.6 350 04:29 01.04.2020
433 Rain 12 1013 93 2500 3.1 360 03:21 01.04.2020
434 Rain 12 1015 93 3000 2.6 330 02:41 01.04.2020
435 Rain 11 1014 93 2500 3.6 360 01:53 01.04.2020
436 Rain 11 1014 100 4500 4.1 340 01:29 01.04.2020
437 Rain 11 1015 93 4500 5.1 350 00:47 01.04.2020
438 Rain 10 1015 93 5000 5.1 360 00:25 01.04.2020
439 Rain 10 1015 93 4000 5.7 350 23:59 31.03.2020
440 Rain 10 1015 93 4000 5.7 350 23:41 31.03.2020
441 Rain 10 1016 93 3500 6.2 340 23:22 31.03.2020
442 Rain 10 1016 93 3500 6.2 340 23:22 31.03.2020
443 Mist 10 1016 93 5000 4.6 340 22:42 31.03.2020
444 Mist 10 1016 93 5000 4.6 340 22:23 31.03.2020
445 Rain 10 1016 87 5000 5.1 350 21:59 31.03.2020
446 Rain 10 1016 87 5000 5.1 350 21:59 31.03.2020
447 Mist 10 1016 87 5000 6.7 340 21:41 31.03.2020
448 Mist 10 1016 87 5000 6.7 340 21:22 31.03.2020
449 Mist 10 1016 87 5000 4.6 330 20:58 31.03.2020
450 Mist 10 1016 87 5000 4.6 330 20:38 31.03.2020
451 Mist 10 1016 87 5000 4.6 330 20:20 31.03.2020
452 Mist 10 1017 87 5000 3.6 360 19:59 31.03.2020
453 Mist 10 1017 87 5000 4.1 350 19:40 31.03.2020
454 Clouds 10 1018 87 6000 4.6 360 19:21 31.03.2020
455 Clouds 10 1018 87 6000 4.6 360 18:55 31.03.2020
456 Clouds 10 1019 87 6000 2.6 350 18:37 31.03.2020
457 Clouds 10 1018 87 6000 3.1 360 18:18 31.03.2020
458 Clouds 10 1018 87 6000 3.1 360 17:54 31.03.2020
459 Clouds 10 1019 87 6000 4.6 10 17:36 31.03.2020
460 Clouds 10 1020 87 6000 4.6 10 17:18 31.03.2020
461 Clouds 10 1020 87 7000 4.6 20 16:38 31.03.2020
462 Clouds 10 1020 87 7000 4.6 20 16:19 31.03.2020
463 Clouds 10 1021 87 7000 3.6 350 15:57 31.03.2020
464 Clouds 10 1021 87 7000 3.6 350 15:38 31.03.2020
465 Clouds 10 1021 87 7000 3.6 350 15:38 31.03.2020
466 Clouds 10 1021 87 7000 4.6 350 15:19 31.03.2020
467 Clouds 11 1021 87 7000 4.1 350 14:56 31.03.2020
468 Clouds 11 1021 87 7000 4.1 350 14:38 31.03.2020
469 Clouds 10 1021 87 7000 4.1 360 14:20 31.03.2020
470 Clouds 10 1021 87 8000 4.1 360 13:42 31.03.2020
471 Clouds 10 1020 87 8000 4.6 10 13:19 31.03.2020
472 Clouds 11 1021 87 10000 5.1 20 12:55 31.03.2020
473 Clouds 11 1020 87 10000 5.1 10 12:37 31.03.2020
474 Clouds 11 1020 87 10000 5.1 10 12:18 31.03.2020
475 Clouds 11 1021 81 10000 4.6 360 11:39 31.03.2020
476 Clouds 11 1021 81 10000 4.6 360 11:20 31.03.2020
477 Clouds 11 1021 81 10000 4.1 360 10:58 31.03.2020
478 Clouds 11 1021 81 10000 4.1 360 10:40 31.03.2020
479 Clouds 12 1020 81 10000 4.1 360 10:21 31.03.2020
480 Clouds 12 1020 71 10000 2.6 10 09:56 31.03.2020
481 Clouds 12 1020 71 10000 2.6 10 09:37 31.03.2020
482 Clouds 13 1020 71 10000 2.6 10 09:19 31.03.2020
483 Clouds 13 1021 71 10000 2.6 360 08:56 31.03.2020
484 Clouds 13 1021 71 10000 2.6 360 08:56 31.03.2020
485 Clouds 13 1021 71 10000 2.6 360 08:38 31.03.2020
486 Clouds 12 1021 71 10000 2.6 360 08:19 31.03.2020
487 Clouds 12 1021 76 10000 1.5 20 07:55 31.03.2020
488 Clouds 12 1021 76 10000 1.5 20 07:37 31.03.2020
489 Clouds 12 1021 76 10000 1.5 20 07:18 31.03.2020
490 Rain 12 1022 71 10000 1.5 360 06:42 31.03.2020
491 Rain 12 1022 66 10000 2.6 20 05:57 31.03.2020
492 Rain 11 1022 66 10000 2.6 20 05:38 31.03.2020
493 Clouds 10 1024 71 10000 2.1 20 03:27 31.03.2020
494 Clouds 10 1024 66 10000 1.5 350 01:52 31.03.2020
495 Clouds 9 1024 71 10000 5.1 10 01:33 31.03.2020
496 Clouds 9 1024 71 10000 5.1 10 01:33 31.03.2020
497 Clouds 9 1024 71 10000 5.7 20 00:46 31.03.2020
498 Clouds 9 1023 70 10000 5.1 10 00:24 31.03.2020
499 Clouds 9 1023 76 10000 4.1 10 23:41 30.03.2020
500 Clouds 9 1023 71 10000 4.6 20 23:20 30.03.2020
501 Clouds 8 1022 70 10000 4.1 10 22:58 30.03.2020
502 Clouds 8 1022 70 10000 4.1 10 22:39 30.03.2020
503 Rain 8 1023 66 10000 4.1 20 22:20 30.03.2020
504 Rain 8 1022 70 10000 4.1 20 21:58 30.03.2020
505 Rain 8 1022 70 10000 4.1 20 21:39 30.03.2020
506 Rain 8 1022 70 10000 4.6 10 21:20 30.03.2020
507 Clouds 8 1022 71 10000 4.6 20 20:59 30.03.2020
508 Clouds 8 1022 71 10000 4.6 20 20:39 30.03.2020
509 Clouds 8 1022 66 10000 4.1 20 20:20 30.03.2020
510 Clouds 8 1022 66 10000 4.1 20 20:20 30.03.2020
511 Clouds 8 1022 66 10000 4.1 20 20:20 30.03.2020
512 Clouds 8 1022 71 10000 4.6 10 19:57 30.03.2020
513 Clouds 8 1022 66 10000 4.6 10 19:39 30.03.2020
514 Clouds 8 1022 66 10000 4.6 10 19:20 30.03.2020
515 Clouds 9 1023 66 10000 4.1 10 18:43 30.03.2020
516 Clouds 9 1023 66 10000 3.6 10 18:25 30.03.2020
517 Clouds 9 1023 71 10000 4.6 10 17:58 30.03.2020
518 Clouds 9 1023 66 10000 4.1 10 17:39 30.03.2020
519 Clouds 9 1023 66 10000 4.1 10 17:39 30.03.2020
520 Clouds 9 1023 66 10000 4.1 10 17:21 30.03.2020
521 Clouds 9 1023 66 10000 3.6 20 16:59 30.03.2020
522 Clouds 9 1023 66 10000 3.6 20 16:40 30.03.2020
523 Clouds 9 1023 66 10000 3.6 30 16:21 30.03.2020
524 Clouds 9 1024 66 10000 4.1 30 15:56 30.03.2020
525 Clouds 9 1024 66 10000 4.1 30 15:56 30.03.2020
526 Clouds 9 1023 66 10000 4.1 30 15:38 30.03.2020
527 Clouds 9 1023 66 10000 4.1 30 15:20 30.03.2020
528 Clouds 9 1024 71 10000 4.6 50 14:58 30.03.2020
529 Clouds 9 1024 71 10000 4.6 50 14:37 30.03.2020
530 Clouds 9 1023 71 10000 4.6 60 14:18 30.03.2020
531 Clouds 9 1023 71 10000 4.1 60 13:57 30.03.2020
532 Clouds 9 1023 71 10000 4.1 60 13:38 30.03.2020
533 Clouds 9 1023 71 10000 3.1 70 13:19 30.03.2020
534 Clouds 9 1023 71 10000 3.6 90 12:45 30.03.2020
535 Clouds 9 1023 66 10000 2.1 90 12:21 30.03.2020
536 Clouds 9 1023 66 10000 2.1 90 12:21 30.03.2020
537 Clouds 10 1022 62 10000 2.6 100 11:58 30.03.2020
538 Clouds 10 1022 62 10000 2.6 100 11:40 30.03.2020
539 Clouds 10 1022 62 10000 3.1 90 11:21 30.03.2020
540 Clouds 10 1022 62 10000 2.6 60 10:55 30.03.2020
541 Clouds 10 1021 62 10000 2.6 60 10:37 30.03.2020
542 Clouds 10 1021 61 10000 2.6 20 10:18 30.03.2020
543 Clouds 10 1021 61 10000 2.6 20 09:40 30.03.2020
544 Clouds 11 1021 61 10000 2.6 20 09:19 30.03.2020
545 Clouds 11 1021 61 10000 3.1 20 08:56 30.03.2020
546 Clouds 11 1021 61 10000 3.1 20 08:36 30.03.2020
547 Clouds 11 1021 61 10000 3.1 20 08:18 30.03.2020
548 Clouds 10 1021 61 10000 2.1 10 07:42 30.03.2020
549 Clouds 10 1021 61 10000 2.1 10 07:20 30.03.2020
550 Clouds 10 1022 61 10000 2.1 350 06:42 30.03.2020
551 Clouds 10 1022 61 10000 2.1 350 06:23 30.03.2020
552 Clouds 10 1023 61 10000 2.1 10 05:43 30.03.2020
553 Clouds 9 1023 66 10000 2.6 10 04:29 30.03.2020
554 Clouds 9 1024 65 10000 2.6 360 03:54 30.03.2020
555 Clouds 8 1024 65 10000 2.6 360 02:44 30.03.2020
556 Clouds 7 1024 70 10000 3.6 10 01:57 30.03.2020
557 Clouds 6 1024 70 10000 4.6 360 00:59 30.03.2020
558 Clouds 6 1024 75 10000 6.2 360 00:28 30.03.2020
559 Clouds 5 1023 75 10000 6.2 10 23:56 29.03.2020
560 Clouds 5 1023 75 10000 6.2 10 23:56 29.03.2020
561 Clouds 5 1023 75 10000 6.2 10 23:37 29.03.2020
562 Rain 4 1023 70 10000 6.2 10 23:18 29.03.2020
563 Rain 5 1022 70 10000 6.7 20 22:40 29.03.2020
564 Rain 4 1022 80 10000 6.2 10 22:20 29.03.2020
565 Rain 4 1022 80 10000 6.2 10 21:59 29.03.2020
566 Rain 4 1022 80 10000 6.2 10 21:38 29.03.2020
567 Rain 4 1022 75 10000 6.2 10 21:20 29.03.2020
568 Rain 4 1022 75 10000 6.2 10 20:55 29.03.2020
569 Rain 4 1021 75 10000 5.1 10 20:37 29.03.2020
570 Rain 4 1021 75 10000 5.1 10 20:19 29.03.2020
571 Rain 4 1021 75 10000 5.1 10 20:19 29.03.2020
572 Rain 4 1021 75 10000 6.2 10 19:57 29.03.2020
573 Rain 4 1021 75 10000 6.2 10 19:57 29.03.2020
574 Rain 4 1021 75 10000 5.7 360 19:39 29.03.2020
575 Rain 4 1021 75 10000 5.7 360 19:39 29.03.2020
576 Rain 4 1021 75 10000 5.7 360 19:21 29.03.2020
577 Rain 5 1021 75 10000 6.2 10 18:57 29.03.2020
578 Rain 5 1021 81 10000 5.7 20 18:38 29.03.2020
579 Rain 5 1021 81 10000 5.7 20 18:19 29.03.2020
580 Rain 5 1021 81 10000 5.7 20 17:55 29.03.2020
581 Rain 5 1021 81 10000 6.2 20 17:37 29.03.2020
582 Rain 5 1021 81 10000 6.2 20 17:18 29.03.2020
583 Rain 4 1022 81 10000 5.7 20 16:56 29.03.2020
584 Rain 5 1021 81 10000 6.2 20 16:38 29.03.2020
585 Rain 4 1021 81 10000 6.2 20 16:18 29.03.2020
586 Rain 5 1022 81 10000 6.2 20 15:41 29.03.2020
587 Rain 5 1021 81 10000 5.7 20 15:23 29.03.2020
588 Rain 5 1021 81 10000 5.7 20 15:23 29.03.2020
589 Rain 5 1022 81 10000 6.2 10 14:58 29.03.2020
590 Rain 5 1022 81 10000 6.2 10 14:40 29.03.2020
591 Rain 5 1021 75 10000 6.2 10 14:20 29.03.2020
592 Rain 5 1021 81 10000 6.2 10 13:57 29.03.2020
593 Rain 5 1021 81 10000 6.2 10 13:39 29.03.2020
594 Rain 5 1021 81 10000 6.2 10 13:39 29.03.2020
595 Rain 5 1021 81 10000 6.2 10 13:20 29.03.2020
596 Rain 4 1020 81 10000 6.2 10 12:55 29.03.2020
597 Rain 4 1020 86 10000 6.7 10 12:37 29.03.2020
598 Rain 4 1020 86 10000 6.7 10 12:19 29.03.2020
599 Rain 4 1020 86 10000 6.7 10 12:19 29.03.2020
600 Rain 4 1020 86 10000 6.7 360 11:55 29.03.2020
601 Rain 4 1019 86 10000 8.2 10 11:37 29.03.2020
602 Rain 4 1019 86 10000 8.2 10 11:18 29.03.2020
603 Rain 4 1019 86 10000 8.2 10 11:18 29.03.2020
604 Rain 4 1018 86 10000 8.7 20 10:38 29.03.2020
605 Rain 4 1018 86 10000 4.1 360 10:19 29.03.2020
606 Rain 4 1018 86 10000 4.1 360 09:41 29.03.2020
607 Rain 4 1018 86 10000 4.1 360 09:22 29.03.2020
608 Rain 4 1018 93 10000 3.1 340 08:56 29.03.2020
609 Rain 4 1018 93 10000 3.1 340 08:38 29.03.2020
610 Rain 4 1018 93 10000 3.1 340 08:19 29.03.2020
611 Rain 3 1017 93 10000 3.6 360 07:42 29.03.2020
612 Rain 3 1017 93 10000 3.6 360 07:21 29.03.2020
613 Rain 2 1019 95 1200 3.1 340 05:58 29.03.2020
614 Rain 1 1020 100 1500 3.6 350 04:55 29.03.2020
615 Rain 2 1020 93 6000 3.6 350 03:33 29.03.2020
616 Rain 2 1020 93 7000 5.1 360 01:52 29.03.2020
617 Rain 2 1020 93 7000 5.1 360 01:24 29.03.2020
618 Rain 2 1020 93 6000 4.1 360 00:58 29.03.2020
619 Rain 2 1019 93 7000 10.8 360 00:33 29.03.2020
620 Rain 3 1019 93 7000 10.8 360 23:57 28.03.2020
621 Rain 3 1018 93 7000 10.8 10 23:39 28.03.2020
622 Rain 4 1018 93 7000 10.8 10 23:20 28.03.2020
623 Rain 5 1018 93 5000 9.8 10 22:41 28.03.2020
624 Rain 5 1018 93 5000 9.8 10 22:22 28.03.2020
625 Rain 6 1018 93 5000 9.8 10 21:57 28.03.2020
626 Rain 6 1017 93 5000 9.3 20 21:39 28.03.2020
627 Rain 6 1017 93 5000 9.3 20 21:19 28.03.2020
628 Rain 6 1017 93 5000 11.3 30 20:55 28.03.2020
629 Rain 6 1017 87 5000 10.3 20 20:37 28.03.2020
630 Rain 6 1017 87 5000 10.3 20 20:18 28.03.2020
631 Rain 7 1016 93 7000 9.8 20 19:55 28.03.2020
632 Rain 7 1016 93 6000 9.8 20 19:36 28.03.2020
633 Rain 7 1016 93 6000 9.8 20 19:18 28.03.2020
634 Rain 7 1015 93 8000 9.3 20 18:39 28.03.2020
635 Rain 7 1016 93 7000 9.8 20 18:20 28.03.2020
636 Rain 7 1017 93 5000 9.3 20 17:41 28.03.2020
637 Rain 7 1017 93 5000 9.3 20 17:22 28.03.2020
638 Rain 8 1016 93 5000 10.3 20 16:59 28.03.2020
639 Rain 8 1016 93 6000 11.8 20 16:38 28.03.2020
640 Rain 8 1016 93 6000 11.8 20 16:18 28.03.2020
641 Rain 8 1016 93 6000 11.8 20 16:18 28.03.2020
642 Rain 8 1016 93 5000 9.8 20 15:40 28.03.2020
643 Rain 8 1016 93 5000 9.8 20 15:20 28.03.2020
644 Rain 8 1017 93 5000 10.8 20 14:58 28.03.2020
645 Rain 8 1017 93 5000 10.8 20 14:40 28.03.2020
646 Rain 8 1016 93 4000 10.3 10 14:21 28.03.2020
647 Rain 9 1016 93 4000 10.3 20 13:43 28.03.2020
648 Rain 9 1015 93 3500 9.3 20 13:23 28.03.2020
649 Rain 10 1014 93 3500 9.3 50 12:41 28.03.2020
650 Rain 10 1014 93 3500 9.3 50 12:22 28.03.2020
651 Rain 11 1014 93 5000 9.3 60 11:55 28.03.2020
652 Rain 11 1013 87 8000 9.8 70 11:37 28.03.2020
653 Rain 11 1013 87 10000 8.7 70 11:18 28.03.2020
654 Rain 12 1012 93 10000 10.3 70 10:39 28.03.2020
655 Rain 12 1012 93 10000 10.3 70 10:20 28.03.2020
656 Rain 13 1012 87 10000 10.3 70 09:43 28.03.2020
657 Rain 13 1011 87 10000 10.3 70 09:24 28.03.2020
658 Clouds 13 1011 87 10000 9.8 60 08:58 28.03.2020
659 Clouds 14 1011 87 10000 9.8 60 08:40 28.03.2020
660 Clouds 14 1011 87 10000 9.8 60 08:21 28.03.2020
661 Clouds 17 1010 82 10000 8.7 60 07:44 28.03.2020
662 Clouds 18 1010 82 10000 8.7 60 07:26 28.03.2020
663 Clouds 19 1009 82 8000 3.6 90 06:36 28.03.2020
664 Clouds 20 1009 93 8000 3.1 150 05:43 28.03.2020
665 Clouds 20 1009 93 8000 3.1 150 05:21 28.03.2020
666 Clouds 21 1009 77 10000 2.1 160 04:41 28.03.2020
667 Clouds 19 1009 77 10000 2.1 120 03:54 28.03.2020
668 Rain 19 1010 77 7000 2.1 140 02:25 28.03.2020
669 Rain 19 1010 63 10000 1 0 01:41 28.03.2020
670 Rain 19 1010 63 10000 1 0 01:18 28.03.2020
671 Rain 19 1010 88 10000 6.7 200 00:37 28.03.2020
672 Clouds 18 1010 93 9000 7.7 210 23:59 27.03.2020
673 Rain 18 1009 93 10000 7.7 190 23:41 27.03.2020
674 Rain 18 1009 93 10000 7.7 190 23:41 27.03.2020
675 Rain 18 1009 93 10000 7.2 190 23:21 27.03.2020
676 Rain 18 1009 93 10000 7.2 190 22:56 27.03.2020
677 Rain 18 1009 93 10000 10.3 200 22:38 27.03.2020
678 Rain 18 1009 93 10000 10.3 200 22:20 27.03.2020
679 Rain 18 1009 93 10000 10.3 200 21:45 27.03.2020
680 Rain 18 1008 88 6000 10.8 210 21:25 27.03.2020
681 Rain 18 1009 88 8000 12.3 210 20:59 27.03.2020
682 Rain 18 1009 88 8000 12.3 210 20:41 27.03.2020
683 Rain 18 1008 88 10000 10.8 210 20:21 27.03.2020
684 Rain 18 1008 88 10000 12.3 210 19:58 27.03.2020
685 Rain 18 1008 88 10000 11.8 200 19:40 27.03.2020
686 Rain 18 1008 88 10000 11.8 200 19:21 27.03.2020
687 Rain 18 1008 88 10000 11.8 210 18:56 27.03.2020
688 Rain 18 1009 88 10000 13.4 210 18:38 27.03.2020
689 Rain 18 1009 88 10000 13.4 210 18:19 27.03.2020
690 Clouds 18 1009 88 10000 12.3 210 17:40 27.03.2020
691 Clouds 18 1010 82 10000 9.8 210 17:20 27.03.2020
692 Clouds 18 1011 82 10000 13.4 210 16:45 27.03.2020
693 Clouds 18 1011 82 10000 13.4 210 16:27 27.03.2020
694 Clouds 18 1011 82 10000 11.8 210 15:59 27.03.2020
695 Clouds 18 1011 88 10000 10.3 200 15:40 27.03.2020
696 Clouds 18 1011 88 10000 10.3 200 15:22 27.03.2020
697 Clouds 18 1013 82 10000 11.3 210 14:46 27.03.2020
698 Clouds 18 1013 82 10000 11.3 210 14:25 27.03.2020
699 Clouds 18 1013 82 10000 11.3 210 14:25 27.03.2020
700 Clouds 18 1012 72 10000 13.9 210 13:56 27.03.2020
701 Clouds 18 1012 82 10000 13.4 210 13:37 27.03.2020
702 Clouds 18 1012 82 10000 13.4 210 13:18 27.03.2020
703 Clouds 18 1012 82 10000 14.9 210 12:51 27.03.2020
704 Clouds 18 1012 82 10000 15.4 210 12:21 27.03.2020
705 Clouds 18 1012 82 10000 15.4 210 11:59 27.03.2020
706 Clouds 18 1013 72 10000 11.8 220 11:41 27.03.2020
707 Clouds 19 1013 72 10000 11.8 220 11:22 27.03.2020
708 Clouds 19 1013 72 10000 9.8 200 10:55 27.03.2020
709 Clouds 19 1013 72 10000 9.3 210 10:36 27.03.2020
710 Clouds 19 1013 72 10000 9.3 210 10:18 27.03.2020
711 Clouds 19 1013 72 10000 10.3 210 09:56 27.03.2020
712 Clouds 19 1013 68 10000 8.7 210 09:37 27.03.2020
713 Clouds 19 1013 63 10000 9.3 210 09:18 27.03.2020
714 Clouds 19 1013 63 10000 9.3 210 08:55 27.03.2020
715 Clouds 19 1013 63 10000 9.3 210 08:37 27.03.2020
716 Clouds 19 1013 63 10000 9.3 210 08:18 27.03.2020
717 Rain 20 1013 60 10000 7.7 220 07:49 27.03.2020
718 Rain 20 1013 60 10000 7.7 220 07:23 27.03.2020
719 Rain 21 1013 60 10000 9.3 210 06:46 27.03.2020
720 Rain 21 1013 60 10000 9.3 210 06:27 27.03.2020
721 Clouds 21 1015 60 10000 7.2 210 04:23 27.03.2020
722 Clouds 16 1017 72 6000 2.1 110 02:25 27.03.2020
723 Clouds 14 1017 76 7000 1 0 01:23 27.03.2020
724 Clouds 14 1018 71 10000 1 70 00:48 27.03.2020
725 Clouds 14 1018 71 10000 1 70 00:23 27.03.2020
726 Clouds 13 1018 62 10000 0.5 100 23:43 26.03.2020
727 Clouds 13 1018 62 10000 0.5 100 23:21 26.03.2020
728 Clouds 12 1019 66 10000 1.5 260 22:58 26.03.2020
729 Clouds 12 1019 71 10000 1.5 260 22:38 26.03.2020
730 Clouds 11 1019 71 10000 1.5 260 22:19 26.03.2020
731 Clouds 12 1019 71 10000 3.1 270 21:56 26.03.2020
732 Clouds 11 1019 71 10000 2.1 280 21:37 26.03.2020
733 Clouds 11 1019 71 10000 2.1 280 21:18 26.03.2020
734 Clouds 11 1019 76 10000 2.6 270 20:56 26.03.2020
735 Clouds 12 1019 76 10000 1.5 260 20:37 26.03.2020
736 Clouds 12 1019 76 10000 1.5 260 20:19 26.03.2020
737 Clouds 12 1019 76 10000 2.6 280 19:54 26.03.2020
738 Clouds 12 1020 76 10000 2.1 290 19:36 26.03.2020
739 Clouds 12 1020 76 10000 2.1 290 19:18 26.03.2020
740 Clouds 12 1020 87 10000 0.5 0 18:41 26.03.2020
741 Clouds 12 1020 87 10000 0.5 0 18:23 26.03.2020
742 Clouds 12 1020 87 10000 1.5 170 17:56 26.03.2020
743 Clouds 13 1020 87 10000 1.5 170 17:37 26.03.2020
744 Clear 13 1020 93 10000 1.5 0 17:18 26.03.2020
745 Clear 13 1020 82 10000 1 0 16:40 26.03.2020
746 Clear 13 1020 82 10000 1 0 16:21 26.03.2020
747 Clear 12 1020 87 10000 3.1 180 15:58 26.03.2020
748 Clear 13 1020 87 10000 2.6 150 15:39 26.03.2020
749 Clear 13 1020 87 10000 2.6 150 15:20 26.03.2020
750 Clear 13 1020 76 10000 1.5 150 14:57 26.03.2020
751 Clear 14 1020 67 10000 2.1 190 14:38 26.03.2020
752 Clear 14 1020 67 10000 2.1 190 14:18 26.03.2020
753 Clear 14 1021 82 10000 2.1 190 13:41 26.03.2020
754 Clear 15 1020 62 10000 3.6 190 13:23 26.03.2020
755 Clear 15 1020 59 10000 4.1 190 12:56 26.03.2020
756 Clear 15 1020 72 10000 5.1 190 12:37 26.03.2020
757 Clear 15 1020 72 10000 4.1 180 12:19 26.03.2020
758 Clear 15 1019 62 10000 4.1 190 11:44 26.03.2020
759 Clear 15 1019 62 10000 4.1 190 11:20 26.03.2020
760 Clear 16 1019 62 10000 5.1 190 10:56 26.03.2020
761 Clear 16 1019 62 10000 5.7 180 10:37 26.03.2020
762 Clear 16 1019 62 10000 5.7 180 10:18 26.03.2020
763 Clear 17 1019 59 10000 6.7 180 09:43 26.03.2020
764 Clear 18 1019 63 10000 4.1 180 09:19 26.03.2020
765 Clear 18 1019 63 10000 4.1 180 09:19 26.03.2020
766 Clear 18 1019 63 10000 4.1 180 08:54 26.03.2020
767 Clear 18 1019 63 10000 4.1 180 08:36 26.03.2020
768 Clear 19 1019 63 10000 4.1 180 08:18 26.03.2020
769 Clear 19 1019 59 10000 4.6 160 07:41 26.03.2020
770 Clear 19 1019 59 10000 4.6 160 07:20 26.03.2020
771 Clear 19 1019 44 10000 3.1 140 06:47 26.03.2020
772 Clear 18 1020 44 10000 3.1 140 05:54 26.03.2020
773 Clear 15 1021 58 10000 3.6 140 03:59 26.03.2020
774 Clear 15 1021 58 10000 3.6 140 03:36 26.03.2020
775 Clear 14 1022 50 10000 3.1 130 02:54 26.03.2020
776 Clouds 13 1022 46 10000 1.5 0 01:50 26.03.2020
777 Clouds 12 1022 50 10000 1.5 100 00:48 26.03.2020
778 Clouds 11 1022 57 10000 1 50 23:56 25.03.2020
779 Clouds 11 1022 57 10000 2.1 40 23:36 25.03.2020
780 Clouds 10 1022 57 10000 2.6 30 23:18 25.03.2020
781 Clouds 9 1022 46 10000 3.1 340 22:39 25.03.2020
782 Clouds 9 1022 46 10000 3.1 340 22:20 25.03.2020
783 Clouds 9 1021 44 10000 3.6 340 21:56 25.03.2020
784 Clouds 9 1021 44 10000 3.6 340 21:37 25.03.2020
785 Clouds 9 1021 57 10000 3.6 340 21:19 25.03.2020
786 Clouds 9 1021 53 10000 3.6 340 20:55 25.03.2020
787 Clouds 9 1020 44 10000 3.6 320 20:37 25.03.2020
788 Clouds 9 1020 44 10000 3.6 320 20:18 25.03.2020
789 Clouds 9 1020 49 10000 3.1 300 19:42 25.03.2020
790 Clouds 9 1021 43 10000 3.1 290 19:22 25.03.2020
791 Clouds 9 1021 46 10000 2.6 270 18:57 25.03.2020
792 Clouds 9 1021 39 10000 4.1 300 18:38 25.03.2020
793 Clouds 10 1021 43 10000 3.6 310 18:20 25.03.2020
794 Clouds 10 1021 43 10000 3.6 310 17:55 25.03.2020
795 Clouds 10 1021 37 10000 4.6 310 17:36 25.03.2020
796 Clouds 10 1021 66 10000 2.6 300 17:18 25.03.2020
797 Clouds 10 1021 62 10000 3.1 270 16:43 25.03.2020
798 Clouds 10 1021 62 10000 3.1 270 16:43 25.03.2020
799 Clouds 11 1021 62 10000 3.1 270 16:23 25.03.2020
800 Clouds 11 1021 66 10000 3.6 280 15:57 25.03.2020
801 Clouds 11 1020 66 10000 4.6 260 15:38 25.03.2020
802 Clouds 11 1020 66 10000 4.6 260 15:19 25.03.2020
803 Clouds 12 1021 62 10000 5.1 250 14:42 25.03.2020
804 Clear 12 1021 62 10000 7.7 240 14:21 25.03.2020
805 Clear 12 1020 62 10000 6.7 210 13:56 25.03.2020
806 Clear 12 1020 62 10000 6.7 210 13:38 25.03.2020
807 Clouds 12 1020 66 10000 5.1 200 13:19 25.03.2020
808 Clouds 12 1020 66 10000 6.7 210 12:37 25.03.2020
809 Clouds 12 1020 62 10000 6.2 200 12:19 25.03.2020
810 Clouds 12 1020 62 10000 5.7 210 11:55 25.03.2020
811 Clouds 12 1020 62 10000 5.7 210 11:36 25.03.2020
812 Clear 12 1018 70 0 2.24 113 11:18 25.03.2020
813 Clouds 12 1020 54 10000 6.7 210 10:55 25.03.2020
814 Clouds 12 1020 50 10000 6.2 210 10:36 25.03.2020
815 Clouds 12 1020 50 10000 6.2 210 10:18 25.03.2020
816 Clouds 13 1019 50 10000 6.7 190 09:42 25.03.2020
817 Clear 14 1019 30 10000 4.6 170 09:22 25.03.2020
818 Clear 14 1019 30 10000 4.6 170 08:56 25.03.2020
819 Clear 14 1019 30 10000 4.6 170 08:38 25.03.2020
820 Clear 14 1019 30 10000 4.6 170 08:38 25.03.2020
821 Clear 14 1019 30 10000 4.6 170 08:19 25.03.2020
822 Clear 15 1019 33 10000 5.1 160 07:41 25.03.2020
823 Clear 15 1019 33 10000 5.1 160 07:20 25.03.2020
824 Clouds 14 1020 32 10000 5.7 150 06:47 25.03.2020
825 Clouds 14 1020 32 10000 5.7 150 06:26 25.03.2020
826 Clouds 14 1020 32 10000 1.5 180 05:53 25.03.2020
827 Clouds 13 1020 32 10000 1.5 180 05:30 25.03.2020
828 Clouds 13 1021 26 10000 2.1 310 04:39 25.03.2020
829 Clouds 13 1021 30 10000 3.1 300 03:36 25.03.2020
830 Clear 11 1021 32 10000 2.6 320 02:31 25.03.2020
831 Clear 10 1021 42 10000 2.1 30 01:21 25.03.2020
832 Clear 9 1021 39 10000 2.1 300 00:48 25.03.2020
833 Clouds 9 1021 45 10000 2.1 30 00:23 25.03.2020
834 Clouds 8 1021 48 10000 2.1 40 23:45 24.03.2020
835 Clouds 8 1021 48 10000 2.1 40 23:26 24.03.2020
836 Clouds 6 1021 52 10000 3.6 50 22:56 24.03.2020
837 Clouds 6 1020 52 10000 3.6 40 22:37 24.03.2020
838 Clouds 5 1020 52 10000 3.6 40 22:19 24.03.2020
839 Clouds 5 1020 52 10000 3.6 40 22:19 24.03.2020
840 Clouds 5 1020 56 10000 3.1 40 21:56 24.03.2020
841 Clouds 5 1019 56 10000 4.1 30 21:37 24.03.2020
842 Clouds 5 1019 56 10000 4.1 30 21:18 24.03.2020
843 Clouds 5 1020 52 10000 4.1 20 20:56 24.03.2020
844 Clouds 6 1019 52 10000 6.2 50 20:38 24.03.2020
845 Clouds 6 1019 52 10000 6.2 50 20:19 24.03.2020
846 Clouds 6 1019 53 10000 5.1 50 19:41 24.03.2020
847 Clouds 6 1018 45 10000 4.6 30 19:19 24.03.2020
848 Clouds 6 1019 48 10000 4.6 350 18:55 24.03.2020
849 Clouds 6 1018 45 10000 4.1 340 18:37 24.03.2020
850 Clouds 6 1019 48 10000 4.1 320 18:18 24.03.2020
851 Clouds 6 1019 48 10000 4.1 320 18:18 24.03.2020
852 Clouds 6 1018 48 10000 7.2 350 17:42 24.03.2020
853 Clouds 6 1018 48 10000 7.2 350 17:23 24.03.2020
854 Clouds 6 1019 48 10000 7.2 340 16:58 24.03.2020
855 Clouds 6 1018 48 10000 7.7 350 16:40 24.03.2020
856 Clouds 6 1018 48 10000 7.7 350 16:22 24.03.2020
857 Clouds 6 1019 48 10000 7.2 350 15:59 24.03.2020
858 Clouds 6 1018 42 10000 7.2 340 15:38 24.03.2020
859 Clouds 6 1018 42 10000 7.2 340 15:20 24.03.2020
860 Clouds 6 1018 42 10000 7.2 340 14:43 24.03.2020
861 -273 0 0 0 0 0 14:21 24.03.2020
862 Clouds 7 1018 42 10000 7.2 360 13:55 24.03.2020
863 Clouds 8 1017 42 10000 7.2 360 13:36 24.03.2020
864 Clouds 8 1017 42 10000 7.2 360 13:18 24.03.2020
865 Clouds 8 1017 34 10000 9.3 340 12:41 24.03.2020
866 Clouds 8 1017 34 10000 9.3 340 12:22 24.03.2020
867 Clouds 9 1016 39 10000 10.3 340 11:40 24.03.2020
868 Clouds 9 1016 39 10000 10.3 340 11:20 24.03.2020
869 Clouds 9 1016 39 10000 10.3 340 11:20 24.03.2020
870 Rain 9 1016 39 10000 9.3 340 10:55 24.03.2020
871 Rain 8 1015 34 10000 10.8 340 10:36 24.03.2020
872 Rain 9 1015 34 10000 10.8 340 10:18 24.03.2020
873 Rain 10 1014 39 10000 9.3 350 09:43 24.03.2020
874 Rain 10 1014 37 10000 11.8 350 09:24 24.03.2020
875 Rain 11 1013 40 10000 11.3 350 08:40 24.03.2020
876 Clouds 11 1013 27 10000 6.7 330 08:21 24.03.2020
877 Clouds 11 1013 40 10000 11.3 360 07:59 24.03.2020
878 Clouds 11 1013 40 10000 11.3 360 07:41 24.03.2020
879 Clouds 12 1013 27 10000 8.7 310 07:21 24.03.2020
880 Clouds 12 1014 34 10000 10.8 360 06:35 24.03.2020
881 Clouds 12 1014 37 10000 10.8 340 05:36 24.03.2020
882 Rain 11 1012 29 16093 6.2 30 04:50 24.03.2020
883 Rain 10 1014 31 10000 10.3 300 03:21 24.03.2020
884 Rain 10 1014 34 10000 13.9 340 02:37 24.03.2020
885 Rain 9 1015 29 16093 8.7 360 00:54 24.03.2020
886 Rain 8 1014 39 10000 12.9 330 00:27 24.03.2020
887 Clouds 8 1014 52 10000 10.8 340 23:55 23.03.2020
888 Clouds 7 1013 52 10000 9.8 340 23:37 23.03.2020
889 Clouds 7 1013 48 10000 9.3 330 23:19 23.03.2020
890 Clouds 6 1013 48 10000 9.3 330 22:43 23.03.2020
891 Clouds 6 1012 52 10000 10.3 330 22:22 23.03.2020
892 Clear 5 1011 48 10000 10.3 330 21:55 23.03.2020
893 Clear 5 1011 48 10000 7.7 340 21:37 23.03.2020
894 Clear 5 1011 48 10000 7.7 340 21:18 23.03.2020
895 Rain 6 1012 52 10000 9.3 340 20:42 23.03.2020
896 Rain 6 1011 61 10000 6.7 350 20:24 23.03.2020
897 Rain 6 1011 81 10000 7.2 20 19:56 23.03.2020
898 Rain 6 1010 75 10000 7.7 30 19:37 23.03.2020
899 Rain 6 1010 75 10000 7.7 30 19:19 23.03.2020
900 Rain 6 1011 75 10000 9.3 10 18:54 23.03.2020
901 Rain 7 1010 66 10000 5.7 10 18:36 23.03.2020
902 Rain 7 1010 57 10000 2.6 20 18:18 23.03.2020
903 Rain 7 1012 65 16093 5.1 10 17:41 23.03.2020
904 Rain 8 1010 61 10000 2.1 160 17:20 23.03.2020
905 Rain 8 1010 61 10000 2.1 160 16:44 23.03.2020
906 Clouds 8 1010 57 10000 3.6 160 16:25 23.03.2020
907 Clouds 9 1011 57 10000 4.6 100 15:59 23.03.2020
908 Clouds 9 1011 57 10000 4.6 100 15:39 23.03.2020
909 Clouds 9 1010 57 10000 4.1 110 15:19 23.03.2020
910 Rain 8 1011 57 10000 4.6 100 14:37 23.03.2020
911 Rain 9 1011 57 10000 4.6 100 14:19 23.03.2020
912 Clouds 9 1011 61 10000 5.1 100 13:57 23.03.2020
913 Clouds 9 1011 57 10000 5.1 100 13:38 23.03.2020
914 Clouds 9 1011 57 10000 5.1 100 13:38 23.03.2020
915 Clouds 9 1011 61 10000 5.1 100 13:38 23.03.2020
916 Clouds 9 1011 57 10000 5.1 100 13:20 23.03.2020
917 Clouds 9 1011 57 10000 5.1 100 12:43 23.03.2020
918 Clouds 9 1011 57 10000 4.6 100 12:43 23.03.2020
919 Clouds 9 1011 57 10000 5.1 100 12:23 23.03.2020
920 Clouds 9 1010 61 10000 5.7 90 11:56 23.03.2020
921 Clouds 9 1010 61 10000 6.2 90 11:38 23.03.2020
922 Clouds 9 1010 61 10000 6.2 90 11:38 23.03.2020
923 Clouds 9 1010 61 10000 5.7 90 11:19 23.03.2020
924 Clouds 9 1010 61 10000 5.7 90 10:56 23.03.2020
925 Clouds 9 1010 66 10000 5.7 100 10:36 23.03.2020
926 Clouds 9 1010 66 10000 5.7 100 10:18 23.03.2020
927 Clouds 10 1010 61 10000 4.6 110 09:42 23.03.2020
928 Clouds 10 1009 61 10000 4.1 120 09:20 23.03.2020
929 Clouds 11 1010 61 10000 3.6 130 08:40 23.03.2020
930 Clouds 11 1009 57 10000 5.7 110 08:20 23.03.2020
931 Clouds 10 1009 57 10000 4.6 140 07:58 23.03.2020
932 Clouds 11 1008 61 10000 1 0 07:37 23.03.2020
933 Clouds 11 1008 61 10000 1 0 07:18 23.03.2020
934 Clouds 11 1008 61 10000 5.7 100 06:48 23.03.2020
935 Clouds 11 1009 61 10000 4.1 70 05:45 23.03.2020
936 Clouds 10 1010 66 10000 4.6 80 04:41 23.03.2020
937 Rain 10 1011 70 10000 4.1 70 03:23 23.03.2020
938 Rain 10 1012 81 10000 7.7 10 01:50 23.03.2020
939 Clouds 10 1011 34 10000 5.7 20 00:52 23.03.2020
940 Rain 10 1011 57 10000 5.1 360 00:33 23.03.2020
941 Rain 11 1010 76 10000 4.6 30 23:46 22.03.2020
942 Rain 11 1010 76 10000 4.6 30 23:25 22.03.2020
943 Clouds 11 1009 76 10000 6.2 60 22:45 22.03.2020
944 Clouds 11 1009 76 10000 6.2 60 22:23 22.03.2020
945 Clouds 11 1009 71 10000 6.2 50 21:55 22.03.2020
946 Clouds 11 1009 76 10000 6.2 50 21:37 22.03.2020
947 Clouds 11 1009 76 10000 6.2 50 21:18 22.03.2020
948 Clouds 12 1008 76 10000 6.2 70 20:46 22.03.2020
949 Clouds 12 1008 71 10000 4.1 50 20:25 22.03.2020
950 Clouds 12 1008 71 10000 4.1 50 20:25 22.03.2020
951 Clouds 12 1008 71 10000 4.6 40 19:58 22.03.2020
952 Clouds 12 1008 76 10000 3.6 50 19:40 22.03.2020
953 Clouds 12 1008 76 10000 3.6 50 19:20 22.03.2020
954 Clouds 12 1008 76 10000 4.6 40 18:59 22.03.2020
955 Clouds 12 1008 76 10000 3.6 60 18:41 22.03.2020
956 Clouds 12 1008 76 10000 3.6 60 18:22 22.03.2020
957 Clouds 12 1008 76 10000 4.6 50 17:58 22.03.2020
958 Clouds 12 1008 76 10000 4.1 50 17:38 22.03.2020
959 Clouds 13 1008 76 10000 4.1 50 17:20 22.03.2020
960 Clouds 13 1008 76 10000 4.1 60 16:57 22.03.2020
961 Clouds 13 1007 76 10000 6.2 50 16:39 22.03.2020
962 Clouds 13 1007 76 10000 6.2 50 16:21 22.03.2020
963 Clouds 14 1008 72 10000 5.7 40 15:44 22.03.2020
964 Clouds 14 1007 72 10000 5.7 30 15:26 22.03.2020
965 Clear 14 1007 67 10000 6.2 10 14:46 22.03.2020
966 Clouds 15 1007 67 10000 7.2 10 14:19 22.03.2020
967 Clouds 16 1006 48 10000 5.1 350 13:55 22.03.2020
968 Clouds 16 1006 45 10000 6.7 340 13:36 22.03.2020
969 Clouds 16 1006 45 10000 6.7 340 13:18 22.03.2020
970 Clouds 17 1005 77 10000 2.1 230 12:43 22.03.2020
971 Clouds 17 1005 77 10000 2.1 230 12:20 22.03.2020
972 Clouds 17 1005 67 10000 5.1 200 11:55 22.03.2020
973 Clouds 18 1004 59 10000 4.6 180 11:36 22.03.2020
974 Clouds 18 1004 59 10000 4.6 180 11:18 22.03.2020
975 Clouds 19 1004 55 10000 6.7 190 10:42 22.03.2020
976 Clouds 20 1004 55 10000 6.7 190 10:23 22.03.2020
977 Clouds 20 1004 67 10000 4.6 170 09:48 22.03.2020
978 Clouds 21 1003 55 10000 9.8 170 09:29 22.03.2020
979 Clouds 22 1002 52 10000 10.3 180 08:54 22.03.2020
980 Clouds 22 1002 55 10000 8.2 200 08:36 22.03.2020
981 Clouds 22 1002 55 10000 8.2 200 08:18 22.03.2020
982 Clouds 23 1002 52 10000 9.3 200 07:41 22.03.2020
983 Clouds 23 1002 52 10000 9.3 200 07:18 22.03.2020
984 Clouds 22 1003 40 10000 10.3 210 05:54 22.03.2020
985 Clouds 22 1005 59 10000 9.8 200 04:39 22.03.2020
986 Clouds 20 1006 46 10000 11.3 190 02:43 22.03.2020
987 Clouds 17 1007 51 10000 2.1 230 01:19 22.03.2020
988 Clouds 16 1008 54 10000 3.1 250 00:34 22.03.2020
989 Clouds 14 1009 58 10000 3.1 270 23:57 21.03.2020
990 Clouds 13 1008 62 10000 0.5 0 23:38 21.03.2020
991 Clouds 12 1008 62 10000 0.5 0 23:18 21.03.2020
992 Clouds 12 1009 66 10000 2.6 320 22:38 21.03.2020
993 Clouds 11 1009 66 10000 2.6 320 22:20 21.03.2020
994 Clouds 12 1009 62 10000 1.5 250 21:59 21.03.2020
995 Clouds 11 1009 54 10000 1 0 21:39 21.03.2020
996 Clouds 11 1009 54 10000 1 0 21:21 21.03.2020
997 Clouds 11 1009 62 10000 1.5 300 20:45 21.03.2020
998 Clouds 11 1009 62 10000 3.1 210 20:23 21.03.2020
999 Clouds 12 1010 62 10000 4.1 210 19:57 21.03.2020
1000 Clouds 12 1010 87 10000 1.5 130 19:39 21.03.2020
1001 Clouds 12 1009 62 10000 3.1 200 19:20 21.03.2020
1002 Clouds 12 1010 66 10000 3.1 200 18:54 21.03.2020
1003 Clouds 13 1010 71 10000 3.6 190 18:36 21.03.2020
1004 Clouds 13 1011 67 10000 4.6 180 18:18 21.03.2020
1005 Clouds 13 1011 76 10000 3.1 190 17:42 21.03.2020
1006 Clouds 13 1011 76 10000 3.1 190 17:23 21.03.2020
1007 Clouds 13 1011 62 10000 1 0 16:57 21.03.2020
1008 Clouds 13 1011 58 10000 1.5 180 16:38 21.03.2020
1009 Clouds 13 1011 58 10000 1.5 180 16:18 21.03.2020
1010 Clouds 13 1011 58 10000 1.5 180 16:18 21.03.2020
1011 Clouds 14 1011 54 10000 2.1 270 15:42 21.03.2020
1012 Clouds 14 1011 54 10000 2.1 270 15:23 21.03.2020
1013 Clouds 14 1012 54 10000 2.1 220 14:58 21.03.2020
1014 Clouds 15 1012 54 10000 2.1 220 14:40 21.03.2020
1015 Clear 15 1011 51 10000 3.1 240 14:20 21.03.2020
1016 Clear 15 1012 51 10000 3.1 210 13:59 21.03.2020
1017 Clear 15 1011 51 10000 4.1 210 13:40 21.03.2020
1018 Clear 15 1011 51 10000 4.1 210 13:22 21.03.2020
1019 Clear 15 1011 51 10000 2.6 200 12:59 21.03.2020
1020 Clear 16 1010 45 10000 4.1 200 12:38 21.03.2020
1021 Clear 16 1010 45 10000 4.1 200 12:19 21.03.2020
1022 Clear 16 1010 45 10000 4.1 210 11:56 21.03.2020
1023 Clouds 17 1009 48 10000 4.6 210 11:38 21.03.2020
1024 Clouds 17 1009 39 10000 5.1 160 11:19 21.03.2020
1025 Clouds 17 1009 39 10000 5.1 160 10:57 21.03.2020
1026 Clouds 17 1008 34 10000 4.1 230 10:38 21.03.2020
1027 Clouds 17 1008 34 10000 4.1 230 10:19 21.03.2020
1028 Clouds 19 1008 34 10000 7.2 240 09:56 21.03.2020
1029 Clouds 19 1008 34 10000 7.2 240 09:37 21.03.2020
1030 Clear 20 1008 32 10000 8.2 230 09:19 21.03.2020
1031 Clouds 20 1008 28 10000 6.2 230 08:44 21.03.2020
1032 Clouds 20 1007 28 10000 3.1 140 08:24 21.03.2020
1033 Clouds 20 1007 32 10000 5.1 180 07:47 21.03.2020
1034 Clouds 20 1007 32 10000 2.6 200 07:28 21.03.2020
1035 Clear 19 1008 55 10000 5.7 180 06:48 21.03.2020
1036 Clear 19 1008 55 10000 5.7 180 06:28 21.03.2020
1037 Clear 19 1009 51 10000 5.7 180 05:48 21.03.2020
1038 Clear 18 1010 48 10000 10.8 190 05:18 21.03.2020
1039 Clear 17 1011 47 10000 2.6 180 03:26 21.03.2020
1040 Clouds 16 1012 33 10000 5.1 160 02:34 21.03.2020
1041 Clear 14 1013 47 10000 5.1 180 01:38 21.03.2020
1042 Clouds 14 1013 43 10000 3.1 160 01:18 21.03.2020
1043 Clouds 12 1013 37 10000 0.5 0 00:38 21.03.2020
1044 Clouds 11 1013 37 10000 0.5 0 23:59 20.03.2020
1045 Clouds 10 1013 43 10000 1 0 23:40 20.03.2020
1046 Clouds 9 1013 46 10000 1 250 23:18 20.03.2020
1047 Clouds 8 1013 46 10000 1 250 22:42 20.03.2020
1048 Clear 9 1012 43 10000 1 250 22:24 20.03.2020
1049 Clouds 9 1012 39 10000 3.1 320 21:57 20.03.2020
1050 Clouds 8 1012 39 10000 3.1 320 21:39 20.03.2020
1051 Clear 8 1011 45 10000 3.6 330 21:18 20.03.2020
1052 Clear 9 1011 43 10000 2.6 310 20:57 20.03.2020
1053 Clear 9 1011 45 10000 2.6 310 20:39 20.03.2020
1054 Clear 9 1011 45 10000 2.6 310 20:18 20.03.2020
1055 Clear 8 1011 45 10000 3.1 300 19:46 20.03.2020
1056 Clear 9 1010 43 10000 3.1 300 19:19 20.03.2020
1057 Clear 9 1010 43 10000 2.6 300 18:56 20.03.2020
1058 Clear 9 1010 46 10000 3.1 310 18:37 20.03.2020
1059 Clear 9 1011 46 10000 3.6 320 18:19 20.03.2020
1060 Clear 10 1010 43 10000 5.1 330 17:40 20.03.2020
1061 Clear 9 1010 40 10000 5.1 330 17:22 20.03.2020
1062 Clear 10 1010 40 10000 5.1 330 16:59 20.03.2020
1063 Clear 10 1010 40 10000 5.7 350 16:41 20.03.2020
1064 Clear 10 1010 40 10000 5.7 350 16:20 20.03.2020
1065 Clear 11 1010 34 10000 6.7 340 15:44 20.03.2020
1066 Clear 11 1010 46 10000 7.7 340 15:22 20.03.2020
1067 Clear 11 1009 40 10000 5.1 350 14:58 20.03.2020
1068 Clear 11 1010 34 10000 5.7 350 14:40 20.03.2020
1069 Clear 12 1010 33 10000 5.7 350 14:20 20.03.2020
1070 Clear 12 1010 33 10000 5.7 350 13:48 20.03.2020
1071 Clear 12 1009 37 10000 6.7 360 13:21 20.03.2020
1072 Clouds 13 1009 43 10000 6.2 10 12:57 20.03.2020
1073 Clear 13 1008 41 10000 5.7 10 12:37 20.03.2020
1074 Clear 13 1008 41 10000 6.2 10 12:19 20.03.2020
1075 Clouds 14 1008 41 10000 5.7 20 11:39 20.03.2020
1076 Clouds 14 1008 41 10000 5.7 20 11:20 20.03.2020
1077 Clouds 14 1007 41 10000 6.2 20 10:55 20.03.2020
1078 Clouds 15 1007 38 10000 5.7 10 10:36 20.03.2020
1079 Clouds 15 1007 38 10000 5.7 10 10:18 20.03.2020
1080 Clouds 15 1007 44 10000 2.1 40 09:44 20.03.2020
1081 Clouds 16 1006 41 10000 2.1 80 09:20 20.03.2020
1082 Clouds 17 1005 36 10000 3.6 50 08:44 20.03.2020
1083 Clouds 17 1005 36 10000 3.6 50 08:23 20.03.2020
1084 Clouds 18 1004 36 10000 5.7 150 07:59 20.03.2020
1085 Clouds 18 1003 23 10000 4.1 350 07:39 20.03.2020
1086 Clouds 18 1003 23 10000 4.1 350 07:21 20.03.2020
1087 Clouds 19 1003 22 10000 4.1 340 06:42 20.03.2020
1088 Clouds 18 1002 29 10000 3.6 30 06:18 20.03.2020
1089 Clouds 17 1002 27 10000 5.1 10 04:38 20.03.2020
1090 Rain 16 1001 29 10000 10.3 340 02:50 20.03.2020
1091 Rain 15 1000 23 10000 8.2 330 01:50 20.03.2020
1092 Rain 15 997 44 10000 8.2 350 00:45 20.03.2020
1093 Clouds 15 997 58 10000 6.2 360 00:23 20.03.2020
1094 Clouds 14 996 62 10000 4.6 360 23:42 19.03.2020
1095 Clouds 14 996 62 10000 4.6 360 23:23 19.03.2020
1096 Clouds 15 996 77 10000 7.2 350 22:54 19.03.2020
1097 Clouds 15 995 72 10000 3.6 300 22:36 19.03.2020
1098 Clouds 15 995 72 10000 3.6 300 22:18 19.03.2020
1099 Clouds 15 995 67 10000 12.3 220 21:39 19.03.2020
1100 Clouds 15 995 67 10000 12.3 220 21:20 19.03.2020
1101 Clouds 15 994 72 10000 10.8 220 20:54 19.03.2020
1102 Clouds 15 994 72 10000 11.3 210 20:36 19.03.2020
1103 Clouds 15 994 72 10000 11.3 210 20:36 19.03.2020
1104 Clouds 16 994 72 10000 11.3 210 20:18 19.03.2020
1105 Clouds 16 994 82 10000 9.3 220 19:54 19.03.2020
1106 Clouds 16 995 87 10000 6.7 210 19:36 19.03.2020
1107 Clouds 16 995 93 10000 6.7 200 19:18 19.03.2020
1108 Clouds 15 996 93 10000 6.2 220 18:41 19.03.2020
1109 Clouds 15 998 93 16093 3.82 226 18:22 19.03.2020
1110 Clouds 15 998 93 16093 3.82 226 17:56 19.03.2020
1111 Clouds 15 997 93 10000 5.1 200 17:37 19.03.2020
1112 Clouds 15 998 93 10000 5.1 200 17:18 19.03.2020
1113 Rain 15 997 100 10000 7.7 160 16:43 19.03.2020
1114 Rain 15 997 100 10000 7.7 160 16:22 19.03.2020
1115 Rain 15 999 93 10000 5.1 200 15:44 19.03.2020
1116 Rain 15 1000 93 10000 6.2 180 15:25 19.03.2020
1117 Rain 16 1001 93 7000 6.7 180 14:54 19.03.2020
1118 Rain 16 1002 93 8000 6.2 190 14:36 19.03.2020
1119 Rain 16 1002 93 8000 6.2 190 14:18 19.03.2020
1120 Rain 16 1004 88 10000 7.2 200 13:39 19.03.2020
1121 Rain 17 1004 88 10000 7.2 200 13:18 19.03.2020
1122 Clouds 17 1005 72 10000 8.7 210 12:42 19.03.2020
1123 Clouds 17 1005 72 10000 8.7 210 12:24 19.03.2020
1124 Clouds 17 1005 72 10000 7.7 210 11:59 19.03.2020
1125 Clouds 17 1005 77 10000 10.3 200 11:41 19.03.2020
1126 Clouds 17 1006 77 10000 9.8 210 11:22 19.03.2020
1127 Clouds 17 1006 72 10000 8.2 200 10:44 19.03.2020
1128 Clouds 17 1006 72 10000 8.2 200 10:22 19.03.2020
1129 Clouds 18 1007 72 10000 10.3 200 09:59 19.03.2020
1130 Clouds 18 1007 72 10000 10.3 200 09:40 19.03.2020
1131 Clouds 19 1007 72 10000 8.2 200 09:21 19.03.2020
1132 Clouds 19 1007 72 10000 8.7 180 08:47 19.03.2020
1133 Clouds 20 1007 82 10000 8.7 190 08:23 19.03.2020
1134 Clouds 20 1007 68 10000 8.2 170 07:49 19.03.2020
1135 Clouds 21 1007 63 10000 8.2 180 07:31 19.03.2020
1136 Clouds 21 1007 52 10000 11.8 200 06:55 19.03.2020
1137 Clouds 21 1008 63 10000 7.2 190 06:23 19.03.2020
1138 Clouds 20 1009 37 10000 6.7 180 05:24 19.03.2020
1139 Clouds 19 1011 63 10000 11.8 210 04:46 19.03.2020
1140 Clear 18 1012 67 10000 2.6 110 03:55 19.03.2020
1141 Clear 13 1014 58 10000 2.1 70 01:46 19.03.2020
1142 Clouds 12 1014 54 10000 2.1 30 00:42 19.03.2020
1143 Clear 11 1014 62 10000 1.5 360 00:19 19.03.2020
1144 Clear 10 1014 66 10000 1.5 20 23:43 18.03.2020
1145 Clear 9 1014 66 10000 1.5 20 23:23 18.03.2020
1146 Clear 8 1014 93 7000 1 250 22:43 18.03.2020
1147 Clear 8 1014 66 10000 1.5 50 22:23 18.03.2020
1148 Clear 9 1014 57 10000 1 0 21:57 18.03.2020
1149 Clear 9 1014 61 10000 2.1 30 21:39 18.03.2020
1150 Clear 9 1014 61 10000 2.1 30 21:20 18.03.2020
1151 Clear 9 1014 71 10000 3.6 350 20:55 18.03.2020
1152 Clear 8 1014 71 10000 3.6 350 20:37 18.03.2020
1153 Clouds 9 1014 76 10000 2.1 310 20:19 18.03.2020
1154 Clouds 8 1014 66 10000 2.1 290 19:41 18.03.2020
1155 Clouds 9 1014 66 10000 2.1 290 19:21 18.03.2020
1156 Clouds 9 1014 66 10000 2.1 290 19:21 18.03.2020
1157 Clouds 9 1014 61 10000 3.1 290 18:59 18.03.2020
1158 Clouds 9 1014 53 10000 3.1 280 18:40 18.03.2020
1159 Clouds 10 1014 53 10000 2.6 290 18:19 18.03.2020
1160 Clouds 10 1014 53 10000 2.6 290 18:19 18.03.2020
1161 Clouds 10 1014 53 10000 2.6 290 17:56 18.03.2020
1162 Clouds 9 1014 53 10000 3.1 280 17:38 18.03.2020
1163 Clouds 10 1014 62 10000 3.6 290 17:19 18.03.2020
1164 Clouds 10 1014 76 10000 3.6 230 16:43 18.03.2020
1165 Clouds 10 1014 76 10000 3.6 230 16:21 18.03.2020
1166 Clouds 11 1014 71 10000 1.5 170 15:59 18.03.2020
1167 Clouds 11 1014 71 10000 2.6 170 15:39 18.03.2020
1168 Clouds 12 1014 71 10000 2.6 170 15:20 18.03.2020
1169 Clouds 12 1014 62 10000 3.1 170 14:44 18.03.2020
1170 Clouds 11 1014 66 10000 3.1 170 14:21 18.03.2020
1171 Clouds 13 1014 76 10000 2.6 130 13:42 18.03.2020
1172 Clouds 13 1014 76 10000 2.6 130 13:20 18.03.2020
1173 Clouds 13 1014 76 10000 2.6 130 13:20 18.03.2020
1174 Clouds 12 1014 66 10000 2.6 150 12:59 18.03.2020
1175 Clouds 13 1014 54 10000 4.1 170 12:41 18.03.2020
1176 Clouds 13 1014 41 10000 4.1 190 12:19 18.03.2020
1177 Clouds 14 1014 41 10000 2.1 190 11:39 18.03.2020
1178 Clouds 15 1014 76 10000 2.1 170 11:21 18.03.2020
1179 Clouds 15 1014 41 10000 3.6 190 10:58 18.03.2020
1180 Clouds 15 1013 41 10000 4.6 200 10:39 18.03.2020
1181 Clouds 15 1013 41 10000 4.6 200 10:20 18.03.2020
1182 Clouds 17 1013 34 10000 4.1 180 09:43 18.03.2020
1183 Clouds 17 1012 33 10000 5.1 200 09:25 18.03.2020
1184 Clear 17 1012 39 10000 5.1 190 08:57 18.03.2020
1185 Clouds 18 1011 44 10000 4.1 180 08:39 18.03.2020
1186 Clear 17 1012 39 10000 5.1 190 08:39 18.03.2020
1187 Clouds 18 1011 44 10000 4.1 180 08:20 18.03.2020
1188 Clouds 18 1012 55 10000 4.1 140 07:46 18.03.2020
1189 Clouds 18 1011 48 10000 4.1 160 07:28 18.03.2020
1190 Clouds 17 1011 55 10000 4.6 130 06:44 18.03.2020
1191 Clouds 17 1011 55 10000 4.6 130 06:23 18.03.2020
1192 Clouds 17 1012 47 10000 4.6 150 05:35 18.03.2020
1193 Clouds 16 1012 51 10000 4.1 150 04:27 18.03.2020
1194 Clouds 15 1013 50 10000 3.1 130 02:48 18.03.2020
1195 Clouds 13 1013 43 10000 3.6 300 01:48 18.03.2020
1196 Clouds 12 1013 43 10000 3.6 300 01:27 18.03.2020
1197 Clouds 11 1013 50 10000 3.6 350 00:26 18.03.2020
1198 Clear 10 1014 53 16093 1.5 130 23:57 17.03.2020
1199 Clouds 9 1012 57 10000 2.1 300 23:37 17.03.2020
1200 Clear 8 1014 70 16093 2.6 260 23:18 17.03.2020
1201 Clear 7 1012 65 10000 2.6 310 22:41 17.03.2020
1202 Clear 7 1012 65 10000 2.6 310 22:22 17.03.2020
1203 Clear 6 1012 65 10000 3.6 310 21:40 17.03.2020
1204 Clear 7 1011 65 10000 3.1 310 21:21 17.03.2020
1205 Clear 7 1011 50 10000 3.1 300 20:41 17.03.2020
1206 Clear 7 1010 70 10000 3.1 280 20:23 17.03.2020
1207 Clear 7 1011 61 10000 1.5 260 19:59 17.03.2020
1208 Clouds 7 1010 86 10000 1.5 290 19:40 17.03.2020
1209 Clouds 7 1011 65 10000 2.1 330 19:18 17.03.2020
1210 Clouds 7 1011 65 10000 2.1 330 18:56 17.03.2020
1211 Clear 8 1010 65 10000 3.6 330 18:38 17.03.2020
1212 Clear 8 1010 65 10000 3.6 330 18:38 17.03.2020
1213 Clear 7 1010 70 10000 5.1 330 18:20 17.03.2020
1214 Clear 8 1010 61 10000 5.1 320 17:41 17.03.2020
1215 Clear 8 1010 61 10000 5.1 320 17:41 17.03.2020
1216 Clear 9 1010 61 10000 5.1 320 17:22 17.03.2020
1217 Clear 9 1010 50 10000 3.6 320 16:56 17.03.2020
1218 Clear 11 1009 46 10000 5.1 250 16:38 17.03.2020
1219 Clear 11 1009 46 10000 5.1 250 16:18 17.03.2020
1220 Clear 11 1010 53 10000 5.7 260 15:43 17.03.2020
1221 Clear 11 1010 53 10000 5.7 260 15:21 17.03.2020
1222 Clear 10 1010 57 10000 9.8 240 14:44 17.03.2020
1223 Clear 10 1010 57 10000 9.8 240 14:23 17.03.2020
1224 Clear 10 1010 54 10000 8.7 230 13:56 17.03.2020
1225 Clouds 10 1010 58 10000 10.8 220 13:38 17.03.2020
1226 Clouds 10 1011 57 10000 7.7 220 13:20 17.03.2020
1227 Clouds 10 1011 54 10000 6.7 220 12:42 17.03.2020
1228 Clouds 11 1012 54 10000 7.7 210 12:22 17.03.2020
1229 Clear 10 1011 57 10000 7.2 190 11:48 17.03.2020
1230 Clear 10 1011 57 10000 7.2 190 11:29 17.03.2020
1231 Clear 10 1012 57 10000 6.7 180 10:58 17.03.2020
1232 Clouds 10 1012 57 10000 6.2 180 10:40 17.03.2020
1233 Clouds 11 1012 57 10000 6.2 180 10:22 17.03.2020
1234 Clouds 10 1013 61 10000 6.7 170 09:59 17.03.2020
1235 Clouds 11 1012 62 10000 7.2 170 09:40 17.03.2020
1236 Clouds 11 1012 62 10000 7.2 170 09:19 17.03.2020
1237 Clouds 12 1013 58 10000 7.7 180 08:48 17.03.2020
1238 Clouds 12 1013 53 10000 4.6 190 08:23 17.03.2020
1239 Clouds 12 1013 53 10000 5.7 160 07:57 17.03.2020
1240 Clouds 12 1013 50 10000 3.6 140 07:38 17.03.2020
1241 Clouds 12 1014 43 10000 3.1 160 07:19 17.03.2020
1242 Clear 12 1015 40 16093 6.7 190 06:39 17.03.2020
1243 Clouds 12 1015 37 10000 3.6 130 05:58 17.03.2020
1244 Clouds 10 1017 45 10000 3.1 110 03:58 17.03.2020
1245 Clouds 10 1017 45 10000 3.1 110 03:58 17.03.2020
1246 Clouds 9 1018 48 10000 2.6 100 02:56 17.03.2020
1247 Clouds 8 1019 39 10000 2.6 60 01:49 17.03.2020
1248 Clouds 7 1019 39 10000 2.6 60 01:25 17.03.2020
1249 Clouds 7 1019 39 10000 2.6 50 00:48 17.03.2020
1250 Clouds 5 1018 48 10000 2.6 40 23:51 16.03.2020
1251 Clouds 4 1018 48 10000 2.6 40 23:32 16.03.2020
1252 Clouds 3 1017 41 10000 3.6 30 22:45 16.03.2020
1253 Clouds 3 1017 41 10000 3.6 30 22:26 16.03.2020
1254 Clouds 4 1017 48 10000 5.7 10 21:59 16.03.2020
1255 Clouds 4 1017 48 10000 5.7 10 21:40 16.03.2020
1256 Clouds 4 1017 41 10000 7.2 350 21:22 16.03.2020
1257 Clouds 3 1017 44 10000 6.7 340 20:57 16.03.2020
1258 Clouds 3 1017 44 10000 6.7 340 20:38 16.03.2020
1259 Clear 3 1016 35 10000 7.2 330 20:19 16.03.2020
1260 Clear 4 1016 38 10000 9.8 340 19:42 16.03.2020
1261 Clear 3 1016 38 10000 9.8 340 19:22 16.03.2020
1262 Clear 3 1016 38 10000 11.3 340 18:57 16.03.2020
1263 Clear 4 1016 35 10000 11.3 340 18:37 16.03.2020
1264 Clear 4 1017 35 10000 9.3 340 18:18 16.03.2020
1265 Clear 4 1016 38 10000 8.2 340 17:43 16.03.2020
1266 Clear 4 1016 38 10000 8.2 340 17:24 16.03.2020
1267 Clear 4 1016 41 10000 7.2 350 16:47 16.03.2020
1268 Clear 4 1016 44 10000 6.2 330 16:29 16.03.2020
1269 Clear 4 1016 41 10000 7.7 330 15:58 16.03.2020
1270 Clouds 4 1016 51 10000 3.6 300 15:40 16.03.2020
1271 Clear 4 1016 41 10000 6.7 330 15:20 16.03.2020
1272 Clear 4 1016 41 10000 8.7 330 14:44 16.03.2020
1273 Clear 5 1015 44 10000 9.3 330 14:20 16.03.2020
1274 Clear 5 1015 44 10000 8.2 330 13:44 16.03.2020
1275 Clouds 5 1014 44 10000 9.3 330 13:25 16.03.2020
1276 Clouds 5 1014 44 10000 10.3 330 12:56 16.03.2020
1277 Clouds 5 1013 45 10000 11.8 340 12:37 16.03.2020
1278 Clouds 5 1013 45 10000 11.8 340 12:19 16.03.2020
1279 Clouds 6 1012 39 10000 10.8 340 11:42 16.03.2020
1280 Clouds 6 1012 48 10000 8.7 340 11:20 16.03.2020
1281 Clouds 7 1012 48 10000 8.7 340 10:43 16.03.2020
1282 Clouds 7 1011 45 10000 12.9 330 10:24 16.03.2020
1283 Clouds 8 1010 36 10000 13.9 330 09:47 16.03.2020
1284 Clouds 9 1009 42 10000 11.3 340 09:28 16.03.2020
1285 Clouds 9 1008 42 10000 12.3 330 08:59 16.03.2020
1286 Rain 10 1006 36 10000 12.9 310 08:36 16.03.2020
1287 Rain 10 1006 36 10000 12.9 310 08:18 16.03.2020
1288 Rain 10 1006 37 10000 13.4 330 07:40 16.03.2020
1289 Rain 11 1005 39 10000 15.4 290 07:18 16.03.2020
1290 Rain 12 1004 32 10000 18 320 06:28 16.03.2020
1291 Rain 12 1003 34 10000 13.9 310 05:55 16.03.2020
1292 Rain 13 1002 40 10000 7.2 350 03:54 16.03.2020
1293 Clouds 9 1003 37 10000 5.7 350 01:44 16.03.2020
1294 Clouds 8 1003 70 10000 3.6 40 00:44 16.03.2020
1295 Clouds 7 1003 75 10000 4.6 10 00:25 16.03.2020
1296 Clouds 7 1003 93 10000 3.1 310 23:39 15.03.2020
1297 Clouds 5 1003 75 10000 5.1 330 23:18 15.03.2020
1298 Clouds 5 1003 81 10000 4.1 340 22:41 15.03.2020
1299 Clouds 5 1002 75 10000 4.6 350 22:20 15.03.2020
1300 Clouds 4 1002 75 10000 2.1 320 21:39 15.03.2020
1301 Clouds 5 1002 75 10000 2.6 300 21:21 15.03.2020
1302 Clouds 5 1002 81 10000 2.6 310 20:55 15.03.2020
1303 Clouds 4 1002 80 10000 2.6 280 20:36 15.03.2020
1304 Clouds 5 1002 80 10000 2.6 280 20:18 15.03.2020
1305 Clouds 5 1002 75 10000 3.1 290 19:55 15.03.2020
1306 Clouds 5 1002 81 10000 4.1 280 19:37 15.03.2020
1307 Clouds 5 1002 81 10000 4.1 280 19:18 15.03.2020
1308 Clouds 5 1002 81 10000 3.6 290 18:41 15.03.2020
1309 Clouds 5 1002 81 10000 3.6 290 18:23 15.03.2020
1310 Clouds 6 1002 81 10000 4.1 280 17:58 15.03.2020
1311 Clouds 6 1002 75 10000 3.6 280 17:38 15.03.2020
1312 Clouds 6 1002 75 10000 3.6 280 17:19 15.03.2020
1313 Clouds 7 1002 75 10000 3.6 290 16:55 15.03.2020
1314 Clouds 7 1002 70 10000 3.6 290 16:36 15.03.2020
1315 Clouds 7 1002 70 10000 3.6 290 16:18 15.03.2020
1316 Clouds 7 1003 70 10000 3.1 270 15:41 15.03.2020
1317 Clouds 8 1003 57 10000 3.1 260 15:20 15.03.2020
1318 Clouds 8 1003 53 10000 4.1 260 14:46 15.03.2020
1319 Clouds 9 1003 53 10000 5.7 240 14:26 15.03.2020
1320 Clouds 9 1004 48 10000 2.6 220 13:59 15.03.2020
1321 Clouds 9 1004 66 10000 4.6 190 13:39 15.03.2020
1322 Clouds 9 1004 66 10000 4.6 190 13:20 15.03.2020
1323 Clouds 9 1004 71 10000 5.1 140 12:44 15.03.2020
1324 Clouds 9 1004 66 10000 6.2 130 12:26 15.03.2020
1325 Clouds 9 1004 66 10000 5.7 140 11:59 15.03.2020
1326 Clouds 9 1004 71 10000 5.7 140 11:40 15.03.2020
1327 Clouds 9 1004 71 10000 5.7 140 11:22 15.03.2020
1328 Clouds 9 1004 66 10000 3.6 110 10:56 15.03.2020
1329 Clouds 9 1004 61 10000 3.1 120 10:37 15.03.2020
1330 Clouds 9 1004 61 10000 3.1 120 10:19 15.03.2020
1331 Clouds 10 1004 53 10000 6.2 190 09:40 15.03.2020
1332 Clouds 10 1004 53 10000 6.2 190 09:22 15.03.2020
1333 Clouds 10 1004 50 10000 5.7 180 08:44 15.03.2020
1334 Clouds 11 1004 50 10000 4.1 170 08:21 15.03.2020
1335 Clouds 10 1004 46 10000 4.1 170 07:51 15.03.2020
1336 Clouds 11 1004 46 10000 3.6 160 07:32 15.03.2020
1337 Clouds 10 1005 46 10000 3.6 140 06:54 15.03.2020
1338 Clouds 10 1004 46 10000 4.6 140 06:24 15.03.2020
1339 Clouds 10 1005 37 10000 4.1 300 05:21 15.03.2020
1340 Clouds 9 1006 57 10000 2.6 90 04:43 15.03.2020
1341 Clouds 9 1006 57 10000 4.1 140 04:25 15.03.2020
1342 Clouds 9 1007 57 10000 3.1 100 03:54 15.03.2020
1343 Rain 9 1007 42 10000 4.1 20 02:47 15.03.2020
1344 Clouds 7 1008 52 10000 5.7 360 01:40 15.03.2020
1345 Clouds 6 1007 56 10000 3.6 310 00:47 15.03.2020
1346 Clouds 6 1007 52 10000 6.2 340 00:27 15.03.2020
1347 Clouds 5 1007 60 10000 4.6 340 23:58 14.03.2020
1348 Clouds 5 1007 60 10000 6.2 330 23:37 14.03.2020
1349 Clouds 4 1007 60 10000 6.2 330 23:18 14.03.2020
1350 Clouds 4 1006 65 10000 4.6 330 22:44 14.03.2020
1351 Clouds 4 1006 70 10000 3.6 20 22:26 14.03.2020
1352 Clouds 4 1006 75 10000 3.6 30 21:57 14.03.2020
1353 Clouds 3 1006 75 10000 4.1 40 21:37 14.03.2020
1354 Clouds 3 1006 75 10000 4.1 40 21:18 14.03.2020
1355 Clouds 3 1006 75 10000 3.6 50 20:59 14.03.2020
1356 Clouds 3 1006 75 10000 3.6 50 20:41 14.03.2020
1357 Clouds 3 1005 75 10000 2.6 40 20:20 14.03.2020
1358 Clouds 3 1005 93 10000 2.6 40 19:58 14.03.2020
1359 Clouds 4 1005 93 10000 1 280 19:39 14.03.2020
1360 Clouds 4 1005 93 10000 1 280 19:19 14.03.2020
1361 Clouds 4 1005 93 10000 2.6 260 18:37 14.03.2020
1362 Clouds 3 1005 93 10000 3.1 290 18:19 14.03.2020
1363 Clouds 4 1006 100 12874 3.24 24 17:40 14.03.2020
1364 Clouds 4 1006 100 12874 3.24 24 17:21 14.03.2020
1365 Clouds 4 1006 93 14484 1.26 6 16:57 14.03.2020
1366 Clouds 4 1006 93 16093 1.26 6 16:38 14.03.2020
1367 Clouds 4 1006 93 16093 1.26 6 16:18 14.03.2020
1368 Clouds 4 1005 86 10000 5.1 10 15:28 14.03.2020
1369 Clouds 4 1005 86 10000 5.7 10 14:59 14.03.2020
1370 Clouds 4 1005 86 10000 5.7 10 14:59 14.03.2020
1371 Clouds 4 1004 100 10000 4.6 320 14:39 14.03.2020
1372 Clouds 4 1005 86 10000 5.1 360 14:20 14.03.2020
1373 Clouds 4 1004 93 16093 3.1 340 13:56 14.03.2020
1374 Rain 4 1005 86 10000 5.1 10 13:38 14.03.2020
1375 Rain 4 1004 100 10000 4.6 320 13:19 14.03.2020
1376 Clouds 4 1006 93 16093 3.1 360 12:44 14.03.2020
1377 Clouds 3 1006 93 16093 3.1 360 12:25 14.03.2020
1378 Rain 3 1005 93 8000 8.2 340 11:45 14.03.2020
1379 Rain 3 1005 93 8000 8.2 340 11:25 14.03.2020
1380 Rain 3 1006 93 8000 7.2 350 10:54 14.03.2020
1381 Rain 3 1005 93 7000 7.7 350 10:36 14.03.2020
1382 Rain 3 1005 93 7000 7.7 350 10:18 14.03.2020
1383 Rain 2 1005 93 8000 7.2 350 09:41 14.03.2020
1384 Rain 2 1005 93 8000 7.2 350 09:21 14.03.2020
1385 Rain 2 1006 93 5000 2.6 330 08:47 14.03.2020
1386 Rain 2 1006 93 5000 2.6 330 08:27 14.03.2020
1387 Rain 2 1006 93 10000 6.2 10 07:48 14.03.2020
1388 Rain 2 1006 93 5000 3.6 360 07:23 14.03.2020
1389 Rain 3 1006 93 6000 3.6 360 06:59 14.03.2020
1390 Rain 3 1007 100 4000 3.6 350 06:39 14.03.2020
1391 Rain 5 1008 87 10000 9.3 20 04:58 14.03.2020
1392 Rain 6 1009 87 9000 8.2 30 03:41 14.03.2020
1393 Rain 6 1010 87 7000 6.2 30 03:20 14.03.2020
1394 Rain 7 1011 87 6000 5.1 50 02:19 14.03.2020
1395 Rain 8 1012 93 4828 1.5 20 00:42 14.03.2020
1396 Rain 9 1011 75 12874 3.6 30 23:45 13.03.2020
1397 Rain 9 1011 75 12874 3.6 30 23:26 13.03.2020
1398 Clouds 9 1012 76 10000 7.7 60 22:47 13.03.2020
1399 Clouds 9 1014 81 16093 2.6 100 22:25 13.03.2020
1400 Clouds 9 1013 81 16093 3.1 70 21:43 13.03.2020
1401 Clouds 9 1013 81 16093 3.1 70 21:21 13.03.2020
1402 Clouds 9 1011 81 10000 8.2 60 20:57 13.03.2020
1403 Clouds 9 1011 81 10000 8.2 60 20:38 13.03.2020
1404 Clouds 9 1011 81 10000 8.7 60 20:19 13.03.2020
1405 Clouds 10 1011 81 10000 8.2 60 19:45 13.03.2020
1406 Clouds 10 1011 81 10000 8.2 60 19:27 13.03.2020
1407 Clouds 9 1012 81 10000 7.2 50 18:47 13.03.2020
1408 Clouds 10 1012 81 10000 7.2 50 18:28 13.03.2020
1409 Clouds 11 1011 71 10000 7.2 30 17:57 13.03.2020
1410 Clouds 11 1011 58 10000 4.6 360 17:38 13.03.2020
1411 Clouds 11 1011 58 10000 3.6 340 17:19 13.03.2020
1412 Clouds 11 1010 58 10000 3.6 340 16:42 13.03.2020
1413 Clouds 12 1010 58 10000 3.6 340 16:24 13.03.2020
1414 Clouds 12 1011 62 10000 4.1 310 15:56 13.03.2020
1415 Clouds 12 1010 58 10000 3.1 300 15:37 13.03.2020
1416 Clouds 12 1010 58 10000 3.1 300 15:19 13.03.2020
1417 Clouds 12 1012 58 10000 3.1 270 14:41 13.03.2020
1418 Clouds 13 1011 58 10000 3.1 260 14:22 13.03.2020
1419 Clouds 14 1011 54 10000 3.1 260 13:57 13.03.2020
1420 Clouds 14 1011 51 10000 4.6 240 13:38 13.03.2020
1421 Clouds 14 1011 51 10000 4.6 240 13:19 13.03.2020
1422 Clouds 14 1011 51 10000 5.1 230 12:54 13.03.2020
1423 Clouds 14 1010 51 10000 5.1 230 12:36 13.03.2020
1424 Clouds 14 1011 51 10000 6.7 210 12:18 13.03.2020
1425 Clouds 15 1010 51 10000 6.7 200 11:42 13.03.2020
1426 Clouds 15 1010 48 10000 6.2 190 11:24 13.03.2020
1427 Clouds 15 1010 48 10000 6.2 190 10:48 13.03.2020
1428 Clouds 16 1011 45 10000 6.2 190 10:28 13.03.2020
1429 Clouds 16 1011 42 10000 6.2 190 09:59 13.03.2020
1430 Clouds 17 1010 42 10000 6.7 230 09:41 13.03.2020
1431 Clouds 17 1010 42 10000 6.7 230 09:22 13.03.2020
1432 Clouds 17 1010 39 10000 6.7 200 08:46 13.03.2020
1433 Clouds 17 1010 39 10000 4.6 200 08:23 13.03.2020
1434 Clouds 18 1010 34 10000 9.3 210 07:52 13.03.2020
1435 Clouds 18 1011 42 10000 4.1 200 07:28 13.03.2020
1436 Clouds 18 1012 39 10000 7.7 200 06:53 13.03.2020
1437 Clouds 18 1011 42 10000 4.1 190 06:32 13.03.2020
1438 Clouds 18 1012 42 10000 7.2 200 05:55 13.03.2020
1439 Clouds 17 1014 51 10000 8.2 180 05:24 13.03.2020
1440 Clouds 17 1015 67 10000 4.1 140 04:38 13.03.2020
1441 Clouds 15 1016 58 10000 4.6 180 03:43 13.03.2020
1442 Clouds 13 1019 71 10000 2.6 130 01:47 13.03.2020
1443 Clouds 12 1019 71 10000 1.5 120 01:19 13.03.2020
1444 Clouds 11 1019 71 10000 1.5 130 00:54 13.03.2020
1445 Clouds 11 1019 71 10000 0.5 0 00:28 13.03.2020
1446 Clear 10 1021 75 16093 1.67 209 23:59 12.03.2020
1447 Clouds 9 1019 76 10000 1 240 23:28 12.03.2020
1448 Clouds 8 1019 76 10000 1 0 22:57 12.03.2020
1449 Clouds 8 1019 76 10000 1.5 310 22:39 12.03.2020
1450 Clouds 7 1019 76 10000 1.5 310 22:21 12.03.2020
1451 Clouds 8 1020 76 10000 4.1 330 21:46 12.03.2020
1452 Clouds 8 1020 76 10000 4.1 330 21:28 12.03.2020
1453 Clouds 8 1020 81 10000 4.1 330 20:59 12.03.2020
1454 Clouds 9 1020 76 10000 4.1 340 20:40 12.03.2020
1455 Clouds 9 1020 76 10000 4.1 340 20:19 12.03.2020
1456 Clouds 9 1020 81 10000 3.1 310 19:42 12.03.2020
1457 Clouds 9 1020 81 10000 3.1 310 19:20 12.03.2020
1458 Clouds 9 1020 87 10000 1 140 18:45 12.03.2020
1459 Clear 9 1022 86 16093 2.6 350 18:25 12.03.2020
1460 Clear 9 1022 86 16093 2.6 350 17:57 12.03.2020
1461 Clouds 9 1020 81 10000 2.6 100 17:39 12.03.2020
1462 Clouds 10 1021 81 10000 1.5 100 17:21 12.03.2020
1463 Clouds 10 1021 81 10000 1.5 100 16:58 12.03.2020
1464 Clouds 10 1021 81 10000 3.1 120 16:38 12.03.2020
1465 Clouds 10 1021 81 10000 3.1 120 16:19 12.03.2020
1466 Clouds 11 1021 81 10000 3.6 120 15:45 12.03.2020
1467 Clouds 11 1022 81 10000 3.1 110 15:27 12.03.2020
1468 Clouds 11 1022 81 10000 4.1 110 14:43 12.03.2020
1469 Clouds 11 1022 76 10000 5.7 120 14:24 12.03.2020
1470 Clouds 12 1022 81 10000 5.7 120 13:57 12.03.2020
1471 Clouds 12 1022 76 10000 5.7 120 13:37 12.03.2020
1472 Clouds 12 1022 76 10000 5.7 120 13:19 12.03.2020
1473 Rain 12 1023 71 10000 3.1 110 12:41 12.03.2020
1474 Clouds 12 1022 81 10000 5.7 130 12:22 12.03.2020
1475 Clouds 12 1023 76 10000 6.2 130 11:58 12.03.2020
1476 Clouds 12 1021 71 10000 7.2 130 11:39 12.03.2020
1477 Clouds 12 1021 71 10000 7.2 130 11:20 12.03.2020
1478 Clouds 12 1021 66 10000 7.2 130 10:59 12.03.2020
1479 Clouds 13 1021 58 10000 4.1 130 10:41 12.03.2020
1480 Clouds 12 1021 58 10000 4.1 130 10:22 12.03.2020
1481 Clouds 13 1021 50 10000 4.1 150 09:48 12.03.2020
1482 Clouds 14 1021 43 10000 4.6 150 09:28 12.03.2020
1483 Clouds 14 1021 43 10000 4.6 150 09:28 12.03.2020
1484 Clouds 14 1021 33 10000 4.1 180 08:55 12.03.2020
1485 Clouds 14 1020 64 10000 2.6 160 08:37 12.03.2020
1486 Clouds 15 1020 29 10000 2.6 160 08:18 12.03.2020
1487 Clouds 15 1020 33 10000 3.1 140 07:46 12.03.2020
1488 Clouds 15 1020 33 10000 3.1 140 07:21 12.03.2020
1489 Clouds 14 1020 29 10000 3.6 110 06:18 12.03.2020
1490 Clouds 14 1020 26 10000 1.5 60 05:33 12.03.2020
1491 Clouds 13 1021 26 10000 4.1 310 03:34 12.03.2020
1492 Rain 12 1021 34 10000 7.7 340 01:57 12.03.2020
1493 Rain 11 1020 29 10000 5.1 320 01:21 12.03.2020
1494 Rain 10 1019 39 10000 9.3 340 00:42 12.03.2020
1495 Clouds 10 1019 43 10000 7.7 340 23:57 11.03.2020
1496 Clouds 8 1018 42 10000 7.7 330 23:28 11.03.2020
1497 Clouds 8 1018 45 10000 8.7 330 22:59 11.03.2020
1498 Clouds 7 1017 49 10000 9.3 340 22:39 11.03.2020
1499 Clouds 7 1017 49 10000 9.3 340 22:21 11.03.2020
1500 Clouds 7 1017 49 10000 10.3 340 21:57 11.03.2020
1501 Clouds 7 1016 49 10000 9.8 340 21:39 11.03.2020
1502 Clouds 7 1016 49 10000 9.8 340 21:21 11.03.2020
1503 Clouds 7 1016 49 10000 10.8 330 20:56 11.03.2020
1504 Clouds 7 1014 49 10000 10.3 330 20:37 11.03.2020
1505 Clouds 8 1014 49 10000 10.3 330 20:19 11.03.2020
1506 Clouds 8 1014 45 10000 10.3 330 19:42 11.03.2020
1507 Clouds 9 1013 45 10000 9.3 330 19:24 11.03.2020
1508 Clouds 8 1013 46 10000 9.8 340 18:57 11.03.2020
1509 Clouds 8 1013 43 10000 9.8 330 18:37 11.03.2020
1510 Clouds 8 1013 43 10000 9.8 330 18:18 11.03.2020
1511 Clouds 9 1012 43 10000 10.3 340 17:55 11.03.2020
1512 Clouds 9 1013 43 10000 8.7 330 17:37 11.03.2020
1513 Clouds 10 1011 37 10000 3.6 320 17:18 11.03.2020
1514 Clouds 10 1012 46 10000 9.3 330 16:43 11.03.2020
1515 Clouds 10 1011 46 10000 8.7 330 16:19 11.03.2020
1516 Clouds 10 1010 43 10000 9.3 330 15:43 11.03.2020
1517 Clouds 11 1009 37 10000 10.3 340 15:23 11.03.2020
1518 Clouds 11 1009 46 10000 9.3 350 14:54 11.03.2020
1519 Clouds 11 1009 46 10000 9.3 350 14:36 11.03.2020
1520 Clouds 12 1008 50 10000 10.3 350 14:18 11.03.2020
1521 Clouds 13 1007 44 10000 10.3 350 13:41 11.03.2020
1522 Rain 13 1007 41 10000 9.8 350 13:22 11.03.2020
1523 Rain 14 1006 41 10000 10.3 340 12:56 11.03.2020
1524 Rain 14 1005 44 10000 10.3 350 12:38 11.03.2020
1525 Rain 15 1005 44 10000 10.3 350 12:19 11.03.2020
1526 Rain 16 1004 42 10000 8.2 360 11:41 11.03.2020
1527 Rain 17 1003 48 10000 4.6 180 11:20 11.03.2020
1528 Clouds 17 1002 48 10000 5.7 180 10:47 11.03.2020
1529 Clouds 17 1002 55 10000 4.6 160 10:21 11.03.2020
1530 Clouds 17 1002 55 10000 4.6 160 10:21 11.03.2020
1531 Clouds 18 1002 67 10000 3.1 150 09:59 11.03.2020
1532 Clouds 18 1001 59 10000 2.6 120 09:40 11.03.2020
1533 Clouds 18 1001 59 10000 2.6 120 09:21 11.03.2020
1534 Clouds 18 1001 67 10000 2.6 120 08:43 11.03.2020
1535 Rain 18 1000 51 10000 1.5 120 08:25 11.03.2020
1536 Clouds 19 1000 55 10000 2.6 120 07:47 11.03.2020
1537 Rain 19 1000 52 10000 2.1 0 07:21 11.03.2020
1538 Clouds 20 1000 55 10000 2.6 140 06:50 11.03.2020
1539 Clouds 20 999 37 10000 2.1 150 06:31 11.03.2020
1540 Clouds 20 999 45 10000 3.6 140 05:33 11.03.2020
1541 Clouds 19 999 39 10000 5.1 300 03:26 11.03.2020
1542 Clouds 17 999 51 10000 4.1 350 01:54 11.03.2020
1543 Clouds 17 998 45 10000 6.2 310 01:25 11.03.2020
1544 Clouds 16 998 51 10000 6.7 330 00:44 11.03.2020
1545 Clouds 15 997 58 10000 6.2 320 23:50 10.03.2020
1546 Clouds 15 996 67 10000 5.7 310 23:28 10.03.2020
1547 Mist 15 996 87 10000 1.5 270 22:58 10.03.2020
1548 Mist 15 996 87 10000 1.5 270 22:58 10.03.2020
1549 Mist 14 995 93 10000 1 0 22:37 10.03.2020
1550 Mist 14 995 93 10000 1 0 22:19 10.03.2020
1551 Clouds 14 994 93 10000 1.5 60 21:56 10.03.2020
1552 Clouds 14 993 93 10000 1.5 350 21:38 10.03.2020
1553 Clouds 15 993 93 10000 1.5 350 21:19 10.03.2020
1554 Clouds 14 993 100 10000 1 320 20:54 10.03.2020
1555 Mist 14 993 100 3200 0.5 0 20:36 10.03.2020
1556 Mist 14 993 100 3200 0.5 0 20:18 10.03.2020
1557 Clouds 15 991 72 10000 5.7 210 19:42 10.03.2020
1558 Clouds 15 991 72 10000 5.7 210 19:42 10.03.2020
1559 Clouds 15 991 72 10000 5.7 210 19:23 10.03.2020
1560 Fog 15 991 93 900 1 300 18:58 10.03.2020
1561 Mist 16 991 93 4900 2.1 300 18:40 10.03.2020
1562 Mist 16 991 93 4900 2.1 300 18:21 10.03.2020
1563 Clouds 16 990 77 10000 8.7 190 17:56 10.03.2020
1564 Clouds 16 990 82 10000 9.3 200 17:37 10.03.2020
1565 Clouds 16 990 82 10000 9.3 200 17:19 10.03.2020
1566 Clouds 17 990 88 10000 9.8 210 16:38 10.03.2020
1567 Clouds 17 990 88 10000 9.8 210 16:18 10.03.2020
1568 Clouds 17 991 88 10000 8.2 210 15:44 10.03.2020
1569 Rain 17 991 88 10000 11.3 210 15:20 10.03.2020
1570 Rain 17 992 88 10000 9.3 210 14:59 10.03.2020
1571 Rain 17 992 88 10000 9.3 210 14:40 10.03.2020
1572 Clouds 16 991 93 10000 7.7 200 14:19 10.03.2020
1573 Clouds 17 992 93 10000 5.7 210 13:54 10.03.2020
1574 Clouds 17 992 93 10000 9.3 210 13:36 10.03.2020
1575 Clouds 16 992 93 10000 9.3 210 13:18 10.03.2020
1576 Rain 16 993 100 5000 5.1 190 12:39 10.03.2020
1577 Rain 16 993 100 5000 5.1 190 12:18 10.03.2020
1578 Rain 16 994 100 3500 8.7 160 11:43 10.03.2020
1579 Rain 16 994 100 3500 8.7 160 11:24 10.03.2020
1580 Rain 15 995 100 3300 5.7 120 10:59 10.03.2020
1581 Rain 15 995 100 3300 5.7 120 10:41 10.03.2020
1582 Rain 15 996 100 3200 4.6 120 10:22 10.03.2020
1583 Rain 15 997 100 3000 3.6 130 09:57 10.03.2020
1584 Rain 16 997 100 3500 3.6 150 09:38 10.03.2020
1585 Rain 15 997 100 3500 3.6 150 09:18 10.03.2020
1586 Rain 16 998 93 3000 2.1 190 08:45 10.03.2020
1587 Rain 16 999 100 2500 1 0 08:26 10.03.2020
1588 Rain 16 999 100 4000 2.1 160 07:49 10.03.2020
1589 Rain 16 999 93 4000 2.1 170 07:30 10.03.2020
1590 Rain 16 1001 100 3200 2.1 140 06:44 10.03.2020
1591 Rain 15 1001 93 3000 1.5 170 06:25 10.03.2020
1592 Rain 16 1002 93 4500 1 0 05:41 10.03.2020
1593 Rain 16 1004 93 5000 1 0 04:40 10.03.2020
1594 Rain 15 1005 93 5000 1 0 03:37 10.03.2020
1595 Rain 14 1007 100 3500 2.1 20 02:26 10.03.2020
1596 Rain 14 1009 93 1500 1.5 300 01:22 10.03.2020
1597 Rain 13 1009 100 1500 2.6 70 00:42 10.03.2020
1598 Rain 13 1009 100 1500 2.6 70 00:22 10.03.2020
1599 Mist 13 1009 93 1500 1.5 50 23:40 09.03.2020
1600 Mist 13 1009 93 1500 1.5 50 23:21 09.03.2020
1601 Clouds 13 1012 100 16093 1.5 320 22:41 09.03.2020
1602 Clouds 13 1012 100 16093 1.5 320 22:22 09.03.2020
1603 Mist 13 1012 100 8047 2.63 350 21:57 09.03.2020
1604 Clouds 13 1013 100 11265 1.5 290 21:39 09.03.2020
1605 Rain 13 1013 100 11265 1.5 290 21:20 09.03.2020
1606 Rain 13 1011 100 5000 3.1 10 20:56 09.03.2020
1607 Rain 13 1011 100 3000 3.6 360 20:37 09.03.2020
1608 Rain 13 1011 100 3000 3.6 360 20:19 09.03.2020
1609 Rain 13 1012 100 4500 2.6 20 19:44 09.03.2020
1610 Drizzle 13 1014 100 6437 3.95 356 19:25 09.03.2020
1611 Clouds 13 1013 87 14484 2.6 340 18:58 09.03.2020
1612 Drizzle 13 1013 100 1000 3.1 340 18:38 09.03.2020
1613 Drizzle 13 1013 100 1000 3.1 340 18:19 09.03.2020
1614 Rain 13 1014 100 800 1 0 17:57 09.03.2020
1615 Fog 13 1014 93 800 2.6 10 17:38 09.03.2020
1616 Fog 13 1015 100 900 2.6 10 17:20 09.03.2020
1617 Fog 13 1015 100 900 2.6 10 16:58 09.03.2020
1618 Mist 13 1015 93 5000 3.6 10 16:39 09.03.2020
1619 Mist 13 1015 93 5000 3.6 10 16:21 09.03.2020
1620 -273 0 0 0 0 0 16:21 09.03.2020
1621 Mist 13 1015 93 5000 3.6 10 15:58 09.03.2020
1622 Clouds 14 1015 93 10000 3.6 40 15:38 09.03.2020
1623 Clouds 14 1015 93 10000 3.6 40 15:20 09.03.2020
1624 Clouds 14 1017 82 16093 2.96 4 14:55 09.03.2020
1625 Mist 14 1015 93 4900 2.6 50 14:36 09.03.2020
1626 Mist 14 1015 93 4900 2.6 50 14:18 09.03.2020
1627 Clouds 14 1015 87 10000 2.6 30 13:54 09.03.2020
1628 Clouds 14 1016 93 10000 3.6 30 13:36 09.03.2020
1629 Clouds 14 1016 93 10000 3.6 30 13:18 09.03.2020
1630 Clouds 14 1016 93 10000 3.6 30 13:18 09.03.2020
1631 Clouds 15 1016 93 10000 3.1 50 12:41 09.03.2020
1632 Clouds 15 1016 93 10000 3.1 50 12:21 09.03.2020
1633 Clouds 15 1016 93 10000 3.1 50 12:21 09.03.2020
1634 Rain 16 1016 87 10000 3.1 10 11:41 09.03.2020
1635 Rain 16 1016 87 10000 3.1 10 11:22 09.03.2020
1636 Rain 16 1016 93 10000 5.1 40 10:59 09.03.2020
1637 Rain 16 1016 87 10000 6.7 50 10:40 09.03.2020
1638 Rain 16 1016 87 10000 6.7 50 10:20 09.03.2020
1639 Rain 17 1016 82 10000 4.1 60 09:57 09.03.2020
1640 Clouds 17 1015 82 10000 4.6 50 09:37 09.03.2020
1641 Clouds 18 1015 82 10000 4.6 50 09:19 09.03.2020
1642 Clouds 18 1014 68 10000 4.6 50 08:42 09.03.2020
1643 Clouds 18 1014 68 10000 4.6 50 08:23 09.03.2020
1644 Clouds 19 1014 63 10000 4.1 40 07:41 09.03.2020
1645 Clouds 19 1014 63 10000 4.1 40 07:21 09.03.2020
1646 Clouds 18 1015 63 10000 4.1 30 06:44 09.03.2020
1647 Clouds 18 1015 63 10000 4.1 30 06:25 09.03.2020
1648 Clouds 18 1016 72 10000 4.6 20 05:47 09.03.2020
1649 Clouds 18 1016 63 10000 3.6 10 05:22 09.03.2020
1650 Rain 16 1017 72 10000 5.1 20 04:43 09.03.2020
1651 Rain 16 1018 76 10000 6.7 360 04:22 09.03.2020
1652 Clouds 14 1017 76 10000 6.2 360 02:59 09.03.2020
1653 Clouds 11 1018 71 10000 5.1 360 01:26 09.03.2020
1654 Clouds 11 1017 81 10000 8.2 350 00:38 09.03.2020
1655 Clouds 10 1016 81 10000 7.2 360 00:20 09.03.2020
1656 Clouds 10 1016 81 10000 6.2 10 23:48 08.03.2020
1657 Clouds 10 1016 81 10000 6.2 10 23:22 08.03.2020
1658 Clouds 9 1016 87 10000 6.7 360 22:57 08.03.2020
1659 Clouds 9 1016 87 10000 8.2 360 22:38 08.03.2020
1660 Clouds 9 1016 87 10000 8.2 360 22:20 08.03.2020
1661 Clouds 9 1017 81 10000 7.7 350 21:54 08.03.2020
1662 Clouds 9 1017 81 10000 7.7 350 21:54 08.03.2020
1663 Clouds 9 1016 81 10000 7.7 350 21:36 08.03.2020
1664 Clouds 9 1016 81 10000 7.7 350 21:36 08.03.2020
1665 Clouds 9 1016 81 10000 7.7 350 21:18 08.03.2020
1666 Clouds 9 1016 81 10000 9.3 360 20:39 08.03.2020
1667 Clouds 9 1016 81 10000 9.3 360 20:21 08.03.2020
1668 Clouds 9 1016 81 10000 9.3 360 20:21 08.03.2020
1669 Clouds 9 1015 81 10000 9.8 350 19:56 08.03.2020
1670 Clouds 9 1016 81 10000 9.8 360 19:37 08.03.2020
1671 Clouds 9 1016 81 10000 9.8 360 19:18 08.03.2020
1672 Rain 9 1016 87 10000 7.7 350 18:42 08.03.2020
1673 Clouds 9 1016 81 10000 10.8 340 18:24 08.03.2020
1674 Clouds 9 1016 81 10000 8.7 350 17:56 08.03.2020
1675 Clouds 8 1016 81 10000 8.7 350 17:38 08.03.2020
1676 Clouds 8 1016 81 10000 8.7 350 17:19 08.03.2020
1677 Clouds 8 1016 81 10000 8.7 350 16:46 08.03.2020
1678 Clouds 8 1016 87 10000 9.3 350 16:27 08.03.2020
1679 Clouds 8 1016 87 10000 8.7 350 15:56 08.03.2020
1680 Clouds 8 1016 87 10000 8.7 350 15:38 08.03.2020
1681 Clouds 8 1016 87 10000 8.7 350 15:19 08.03.2020
1682 Clouds 9 1016 87 10000 8.2 360 14:41 08.03.2020
1683 Clouds 9 1016 87 10000 8.2 360 14:21 08.03.2020
1684 Clouds 9 1016 81 10000 8.2 10 13:58 08.03.2020
1685 Clouds 9 1016 81 10000 8.2 10 13:39 08.03.2020
1686 Clouds 9 1016 87 10000 7.7 20 13:19 08.03.2020
1687 Clouds 9 1018 87 16093 5.1 10 12:41 08.03.2020
1688 Clouds 9 1018 87 16093 5.1 10 12:22 08.03.2020
1689 Clouds 9 1016 87 10000 7.7 10 11:55 08.03.2020
1690 Rain 9 1014 93 10000 7.2 360 11:37 08.03.2020
1691 Rain 9 1014 93 10000 7.2 360 11:19 08.03.2020
1692 Rain 9 1014 93 10000 7.2 360 10:41 08.03.2020
1693 Rain 9 1014 93 10000 7.2 360 10:23 08.03.2020
1694 Rain 8 1016 93 10000 6.7 360 09:43 08.03.2020
1695 Rain 8 1016 93 9000 6.7 360 09:25 08.03.2020
1696 Rain 9 1017 81 10000 3.1 360 08:57 08.03.2020
1697 Rain 9 1016 87 6000 3.1 360 08:39 08.03.2020
1698 Rain 8 1016 87 6000 3.1 360 08:19 08.03.2020
1699 Rain 8 1016 87 6000 6.7 360 07:42 08.03.2020
1700 Rain 8 1016 93 4828 3.6 350 07:23 08.03.2020
1701 Rain 8 1016 93 4426 2.1 360 06:42 08.03.2020
1702 Rain 8 1016 93 4426 2.1 360 06:22 08.03.2020
1703 Rain 8 1018 93 6000 3.1 360 05:35 08.03.2020
1704 Rain 7 1018 87 10000 5.1 340 03:52 08.03.2020
1705 Rain 7 1020 93 5000 2.6 360 02:29 08.03.2020
1706 Rain 6 1022 100 6437 2.6 20 01:23 08.03.2020
1707 Rain 6 1020 93 6000 5.1 350 00:49 08.03.2020
1708 Rain 6 1019 93 4426 1.5 360 00:26 08.03.2020
1709 Rain 6 1019 87 10000 4.1 10 23:44 07.03.2020
1710 Rain 6 1019 87 10000 4.1 10 23:23 07.03.2020
1711 Rain 6 1019 93 6437 2.1 360 22:54 07.03.2020
1712 Rain 6 1021 93 11265 3.1 50 22:36 07.03.2020
1713 Clouds 6 1019 93 16093 2.6 10 22:18 07.03.2020
1714 Rain 6 1019 87 10000 6.7 10 21:42 07.03.2020
1715 Rain 6 1019 87 10000 6.7 10 21:19 07.03.2020
1716 Clouds 6 1019 93 14484 2.1 350 20:39 07.03.2020
1717 Clouds 6 1019 93 14484 2.1 350 20:19 07.03.2020
1718 Clouds 6 1019 93 14484 2.1 350 20:19 07.03.2020
1719 Rain 6 1020 87 10000 7.7 350 19:41 07.03.2020
1720 Rain 7 1020 87 10000 7.7 350 19:22 07.03.2020
1721 Rain 6 1020 87 10000 8.2 340 18:47 07.03.2020
1722 Clouds 6 1020 87 10000 7.7 340 18:28 07.03.2020
1723 Clouds 7 1021 87 10000 7.2 350 17:59 07.03.2020
1724 Rain 7 1021 93 10000 7.2 350 17:40 07.03.2020
1725 Rain 7 1021 93 10000 7.2 350 17:40 07.03.2020
1726 Rain 7 1021 93 10000 7.2 350 17:19 07.03.2020
1727 Rain 7 1022 87 7000 6.7 340 16:55 07.03.2020
1728 Rain 7 1022 93 10000 7.7 340 16:36 07.03.2020
1729 Rain 7 1022 93 10000 7.7 340 16:18 07.03.2020
1730 Rain 7 1021 81 8000 6.2 350 15:41 07.03.2020
1731 Rain 7 1021 81 8000 6.2 350 15:22 07.03.2020
1732 Rain 7 1024 87 16093 3.1 50 14:59 07.03.2020
1733 Rain 7 1024 87 16093 2.6 70 14:40 07.03.2020
1734 Rain 7 1024 87 16093 2.6 70 14:22 07.03.2020
1735 Rain 8 1022 81 10000 6.2 20 13:42 07.03.2020
1736 Rain 8 1022 81 10000 6.2 20 13:21 07.03.2020
1737 Rain 8 1023 81 10000 5.1 20 12:55 07.03.2020
1738 Rain 8 1023 75 10000 4.6 30 12:37 07.03.2020
1739 Rain 8 1023 75 10000 4.6 30 12:18 07.03.2020
1740 Rain 8 1023 76 10000 4.6 50 11:42 07.03.2020
1741 Rain 8 1023 76 10000 4.6 50 11:23 07.03.2020
1742 Rain 9 1023 66 10000 4.6 60 10:57 07.03.2020
1743 Rain 9 1022 70 10000 5.1 60 10:37 07.03.2020
1744 Rain 9 1022 70 10000 5.1 60 10:18 07.03.2020
1745 Clouds 9 1022 70 10000 6.2 70 09:40 07.03.2020
1746 Clouds 9 1022 70 10000 6.2 70 09:19 07.03.2020
1747 Clouds 10 1022 70 10000 5.7 60 08:57 07.03.2020
1748 Clouds 10 1022 61 10000 5.7 70 08:39 07.03.2020
1749 Clouds 10 1022 61 10000 5.7 70 08:20 07.03.2020
1750 Rain 11 1022 66 10000 5.1 80 07:44 07.03.2020
1751 Clouds 11 1020 65 0 0.89 154 07:21 07.03.2020
1752 Clouds 10 1022 50 0 0.45 86 06:42 07.03.2020
1753 Clouds 10 1020 66 0 0.89 53 06:23 07.03.2020
1754 Clouds 10 1023 70 10000 4.6 10 05:40 07.03.2020
1755 Clouds 9 1022 70 0 0.89 154 03:47 07.03.2020
1756 Rain 8 1025 75 10000 5.1 20 02:44 07.03.2020
1757 Rain 7 1025 75 10000 5.1 20 01:58 07.03.2020
1758 Rain 7 1024 70 10000 3.1 10 01:18 07.03.2020
1759 Rain 6 1025 75 10000 6.2 20 00:28 07.03.2020
1760 Rain 6 1025 70 10000 4.1 40 23:59 06.03.2020
1761 Rain 6 1024 70 10000 4.6 20 23:40 06.03.2020
1762 Rain 6 1024 70 10000 4.6 20 23:22 06.03.2020
1763 Rain 6 1024 65 10000 5.1 20 22:46 06.03.2020
1764 Rain 6 1023 65 10000 5.1 20 22:20 06.03.2020
1765 Rain 6 1022 65 10000 5.7 10 21:49 06.03.2020
1766 Rain 6 1022 65 10000 4.6 10 21:21 06.03.2020
1767 Clouds 6 1023 48 16093 2.1 360 20:56 06.03.2020
1768 Rain 6 1021 65 10000 4.6 360 20:36 06.03.2020
1769 Rain 6 1022 61 10000 4.1 360 20:18 06.03.2020
1770 Rain 6 1021 65 10000 3.6 360 19:42 06.03.2020
1771 Rain 6 1021 65 10000 3.6 360 19:23 06.03.2020
1772 Rain 7 1022 64 10000 3.6 20 18:42 06.03.2020
1773 Rain 7 1021 64 10000 3.6 360 18:21 06.03.2020
1774 Rain 7 1021 64 10000 3.6 360 18:21 06.03.2020
1775 Rain 7 1021 61 10000 2.6 20 17:57 06.03.2020
1776 Rain 7 1021 52 10000 3.6 360 17:39 06.03.2020
1777 Rain 7 1021 52 10000 3.6 360 17:39 06.03.2020
1778 Rain 7 1021 39 10000 3.1 10 17:20 06.03.2020
1779 Rain 7 1021 39 10000 3.1 10 16:56 06.03.2020
1780 Rain 7 1021 39 10000 3.1 10 16:37 06.03.2020
1781 Rain 7 1020 39 10000 3.6 340 16:18 06.03.2020
1782 Rain 8 1021 36 10000 4.6 320 15:42 06.03.2020
1783 Rain 8 1021 36 10000 4.6 320 15:23 06.03.2020
1784 Clouds 9 1020 37 10000 5.1 10 14:41 06.03.2020
1785 Clouds 9 1020 37 10000 5.1 10 14:23 06.03.2020
1786 Clouds 9 1020 37 10000 5.7 10 13:58 06.03.2020
1787 Clouds 9 1020 37 10000 5.7 10 13:58 06.03.2020
1788 Clouds 9 1020 39 10000 6.2 20 13:40 06.03.2020
1789 Clouds 9 1020 39 10000 6.2 20 13:20 06.03.2020
1790 Clouds 9 1020 34 10000 5.1 340 12:55 06.03.2020
1791 Clouds 9 1019 34 10000 7.2 340 12:36 06.03.2020
1792 Clouds 9 1019 34 10000 6.7 330 12:18 06.03.2020
1793 Clouds 10 1018 53 10000 2.1 190 11:43 06.03.2020
1794 Clouds 10 1018 46 10000 2.1 190 11:21 06.03.2020
1795 Clouds 10 1018 46 10000 2.1 190 11:21 06.03.2020
1796 Clouds 11 1018 43 10000 2.6 190 10:57 06.03.2020
1797 Clouds 10 1018 37 10000 2.6 190 10:36 06.03.2020
1798 Clouds 10 1018 37 10000 2.6 190 10:18 06.03.2020
1799 Clouds 10 1018 37 10000 2.6 190 10:18 06.03.2020
1800 Clouds 12 1017 26 10000 3.1 190 09:42 06.03.2020
1801 Clouds 12 1017 26 10000 3.1 190 09:24 06.03.2020
1802 Clouds 13 1017 28 10000 4.1 170 08:58 06.03.2020
1803 Clouds 13 1017 35 10000 5.1 170 08:39 06.03.2020
1804 Clouds 14 1017 35 10000 5.1 170 08:20 06.03.2020
1805 Clouds 14 1017 28 10000 6.2 160 07:47 06.03.2020
1806 Clear 14 1016 22 10000 2.1 270 07:25 06.03.2020
1807 Clouds 14 1016 37 10000 3.6 110 06:51 06.03.2020
1808 Clear 14 1015 24 10000 2.1 260 06:32 06.03.2020
1809 Clear 14 1016 24 10000 2.6 310 05:41 06.03.2020
1810 Clear 13 1017 27 10000 3.1 20 05:20 06.03.2020
1811 Clear 13 1016 22 10000 3.6 300 04:44 06.03.2020
1812 Clouds 10 1017 29 10000 9.8 330 01:56 06.03.2020
1813 Clear 10 1017 27 10000 6.2 320 01:38 06.03.2020
1814 Clear 9 1017 27 10000 6.2 320 01:18 06.03.2020
1815 Clouds 8 1017 34 10000 11.8 340 00:31 06.03.2020
1816 Clouds 7 1017 33 10000 10.3 330 23:47 05.03.2020
1817 Clouds 6 1015 33 10000 9.8 330 23:29 05.03.2020
1818 Clouds 5 1016 36 10000 11.8 330 22:57 05.03.2020
1819 Clouds 5 1014 39 10000 13.4 340 22:38 05.03.2020
1820 Clouds 5 1014 39 10000 13.4 340 22:19 05.03.2020
1821 Clear 5 1015 30 10000 12.3 340 21:56 05.03.2020
1822 -273 0 0 0 0 0 21:38 05.03.2020
1823 Clear 5 1014 31 10000 11.3 340 21:19 05.03.2020
1824 Clear 5 1014 30 10000 12.9 340 20:55 05.03.2020
1825 Clear 5 1014 31 10000 11.8 340 20:37 05.03.2020
1826 Clouds 5 1014 31 10000 11.8 340 20:18 05.03.2020
1827 Clouds 6 1014 30 10000 10.8 340 19:55 05.03.2020
1828 Clouds 6 1013 30 10000 10.3 340 19:37 05.03.2020
1829 Clouds 6 1013 30 10000 10.3 340 19:18 05.03.2020
1830 Clouds 6 1013 28 10000 9.8 340 18:38 05.03.2020
1831 Clouds 6 1013 28 10000 9.8 340 18:20 05.03.2020
1832 Clouds 6 1013 30 10000 8.2 330 17:59 05.03.2020
1833 Clouds 6 1013 30 10000 8.7 320 17:40 05.03.2020
1834 Clouds 6 1013 30 10000 8.7 320 17:22 05.03.2020
1835 Clouds 6 1013 28 10000 7.2 330 16:54 05.03.2020
1836 Clouds 6 1013 26 10000 7.2 340 16:36 05.03.2020
1837 Clouds 6 1013 26 10000 7.2 340 16:18 05.03.2020
1838 Clouds 7 1013 28 10000 6.7 330 15:44 05.03.2020
1839 Clouds 7 1012 26 10000 7.7 330 15:22 05.03.2020
1840 Clouds 7 1012 28 10000 8.2 330 14:57 05.03.2020
1841 Clouds 7 1012 28 10000 11.8 330 14:39 05.03.2020
1842 Clouds 7 1012 28 10000 11.8 330 14:21 05.03.2020
1843 Clouds 7 1011 28 10000 11.3 320 13:55 05.03.2020
1844 Clouds 7 1011 28 10000 10.8 330 13:36 05.03.2020
1845 Clouds 8 1011 28 10000 10.8 330 13:18 05.03.2020
1846 Clear 8 1011 29 10000 13.4 330 12:40 05.03.2020
1847 Clear 8 1011 29 10000 13.4 330 12:40 05.03.2020
1848 Clear 8 1011 29 10000 13.4 330 12:20 05.03.2020
1849 Clouds 8 1011 24 10000 11.8 330 11:57 05.03.2020
1850 Clouds 9 1009 24 10000 12.3 330 11:37 05.03.2020
1851 Clouds 9 1009 24 10000 12.3 330 11:19 05.03.2020
1852 Clouds 10 1009 21 10000 11.8 320 10:57 05.03.2020
1853 Clouds 10 1009 23 10000 10.8 320 10:39 05.03.2020
1854 Clouds 10 1009 23 10000 10.8 320 10:20 05.03.2020
1855 Clouds 10 1008 21 10000 11.8 320 09:45 05.03.2020
1856 Clouds 10 1007 21 10000 13.4 330 09:45 05.03.2020
1857 Clouds 11 1007 21 10000 13.4 330 09:27 05.03.2020
1858 Clouds 12 1006 18 10000 12.9 320 08:49 05.03.2020
1859 Clouds 12 1005 20 10000 7.7 320 08:31 05.03.2020
1860 Clouds 12 1005 18 10000 15.4 330 07:56 05.03.2020
1861 Clouds 13 1004 17 10000 12.9 310 07:36 05.03.2020
1862 Clouds 12 1004 17 10000 12.9 310 07:18 05.03.2020
1863 Clouds 12 1003 20 10000 11.3 310 06:43 05.03.2020
1864 Rain 12 1003 20 10000 11.3 310 06:19 05.03.2020
1865 Rain 12 1003 25 10000 14.4 330 05:33 05.03.2020
1866 Rain 12 1004 37 10000 8.2 320 04:23 05.03.2020
1867 Rain 12 1004 34 10000 5.7 330 03:58 05.03.2020
1868 Rain 10 1003 43 10000 6.2 320 02:31 05.03.2020
1869 Rain 10 1004 51 10000 6.2 320 01:26 05.03.2020
1870 Rain 9 1004 57 10000 7.7 300 00:44 05.03.2020
1871 Clouds 8 1004 93 10000 2.6 360 23:57 04.03.2020
1872 Mist 8 1002 100 4828 6.36 18 23:39 04.03.2020
1873 Mist 7 1002 100 4828 0.41 13 23:20 04.03.2020
1874 Clouds 7 1003 93 10000 1.5 330 22:55 04.03.2020
1875 Mist 7 1002 100 3017 1.5 290 22:36 04.03.2020
1876 Mist 7 1002 100 3017 1.5 290 22:18 04.03.2020
1877 Mist 7 1003 93 5000 1 0 21:42 04.03.2020
1878 Mist 7 1003 93 5000 1 0 21:42 04.03.2020
1879 Clouds 7 1003 87 10000 3.1 300 21:22 04.03.2020
1880 Mist 8 1004 100 8047 0.41 13 20:59 04.03.2020
1881 Mist 8 1004 100 1408 0.41 13 20:39 04.03.2020
1882 Mist 8 1004 100 1408 1.92 339 20:21 04.03.2020
1883 Rain 8 1003 87 8000 3.1 320 19:43 04.03.2020
1884 Rain 8 1003 93 10000 2.6 310 19:24 04.03.2020
1885 Rain 8 1004 87 10000 3.6 340 18:59 04.03.2020
1886 Mist 8 1004 93 6437 2.06 348 18:41 04.03.2020
1887 Mist 8 1004 93 6437 2.06 348 18:23 04.03.2020
1888 Rain 8 1005 93 7000 4.6 350 17:59 04.03.2020
1889 Rain 8 1006 93 4000 4.1 360 17:38 04.03.2020
1890 Rain 8 1006 100 4828 2.1 330 17:20 04.03.2020
1891 Rain 8 1006 100 4828 2.1 330 16:55 04.03.2020
1892 Rain 8 1007 93 3500 4.6 360 16:36 04.03.2020
1893 Rain 8 1007 93 3500 4.6 360 16:18 04.03.2020
1894 Rain 8 1011 100 6437 1.5 20 15:42 04.03.2020
1895 Rain 8 1011 100 6437 1.5 20 15:23 04.03.2020
1896 Rain 8 1009 93 2400 1 0 14:57 04.03.2020
1897 Rain 8 1012 100 6437 2.1 30 14:38 04.03.2020
1898 Rain 8 1012 100 6437 2.1 30 14:19 04.03.2020
1899 Rain 8 1011 93 2000 1 10 13:58 04.03.2020
1900 Rain 8 1011 93 6437 2.87 204 13:39 04.03.2020
1901 Rain 8 1011 93 6437 2.17 250 13:20 04.03.2020
1902 Rain 8 1012 93 5000 2.6 50 12:55 04.03.2020
1903 Rain 8 1012 93 9656 2.17 250 12:37 04.03.2020
1904 Rain 8 1012 93 9656 2.17 250 12:19 04.03.2020
1905 Clouds 9 1014 87 9000 2.6 40 11:41 04.03.2020
1906 Clouds 9 1014 87 9000 2.6 40 11:23 04.03.2020
1907 Clouds 9 1014 87 9000 1.5 40 10:58 04.03.2020
1908 Clouds 9 1014 87 9000 1.5 10 10:40 04.03.2020
1909 Clouds 9 1014 87 9000 1.5 10 10:19 04.03.2020
1910 Rain 9 1014 87 9000 2.6 360 09:43 04.03.2020
1911 Rain 9 1014 87 10000 2.1 350 09:21 04.03.2020
1912 Rain 10 1015 87 10000 4.1 350 08:48 04.03.2020
1913 Rain 10 1015 87 6000 2.6 320 08:28 04.03.2020
1914 Rain 10 1016 87 10000 3.6 350 07:56 04.03.2020
1915 Rain 10 1016 93 6000 3.1 350 07:38 04.03.2020
1916 Rain 10 1016 93 6000 3.1 350 07:20 04.03.2020
1917 Clouds 10 1016 87 10000 4.6 360 06:43 04.03.2020
1918 Rain 10 1016 93 5000 3.1 350 06:23 04.03.2020
1919 Rain 10 1017 87 4000 2.6 310 05:50 04.03.2020
1920 Rain 10 1019 93 10000 5.1 350 04:30 04.03.2020
1921 Rain 10 1021 93 4500 5.1 360 03:44 04.03.2020
1922 Rain 10 1021 87 8000 2.6 310 03:25 04.03.2020
1923 Rain 9 1021 87 4500 2.1 10 02:55 04.03.2020
1924 Rain 9 1022 81 6000 2.6 350 02:21 04.03.2020
1925 Rain 10 1022 81 9656 3.6 330 01:54 04.03.2020
1926 Clouds 10 1023 76 10000 2.6 350 00:52 04.03.2020
1927 Rain 10 1023 76 10000 5.1 360 00:27 04.03.2020
1928 Clouds 9 1023 76 10000 5.1 20 23:47 03.03.2020
1929 Clouds 10 1023 76 10000 5.1 20 23:28 03.03.2020
1930 Clouds 9 1023 76 10000 5.7 30 22:59 03.03.2020
1931 Clouds 9 1023 76 10000 6.2 20 22:40 03.03.2020
1932 Clouds 9 1023 76 10000 6.2 20 22:20 03.03.2020
1933 Clouds 9 1023 76 10000 6.2 20 22:20 03.03.2020
1934 Clouds 9 1022 76 10000 5.1 20 21:57 03.03.2020
1935 Clouds 9 1023 76 10000 5.1 30 21:38 03.03.2020
1936 Clouds 9 1023 76 10000 5.1 30 21:19 03.03.2020
1937 Clouds 9 1023 76 10000 5.7 40 20:55 03.03.2020
1938 Clouds 9 1024 75 16093 1.5 20 20:36 03.03.2020
1939 Clouds 9 1024 75 16093 1.5 20 20:18 03.03.2020
1940 Rain 10 1023 76 10000 6.2 50 19:54 03.03.2020
1941 Rain 10 1022 76 10000 5.7 50 19:36 03.03.2020
1942 Rain 10 1022 76 10000 5.7 50 19:18 03.03.2020
1943 Rain 10 1023 76 10000 6.7 60 18:42 03.03.2020
1944 Clouds 10 1022 76 10000 7.2 70 18:22 03.03.2020
1945 Rain 10 1022 76 10000 7.7 70 17:59 03.03.2020
1946 Rain 10 1022 76 10000 7.7 70 17:59 03.03.2020
1947 Rain 11 1023 71 10000 7.2 70 17:40 03.03.2020
1948 Rain 11 1023 71 10000 7.2 70 17:21 03.03.2020
1949 Rain 11 1023 76 10000 7.2 80 16:58 03.03.2020
1950 Rain 11 1023 71 10000 7.2 90 16:38 03.03.2020
1951 Rain 11 1023 71 10000 7.2 90 16:38 03.03.2020
1952 Rain 11 1023 71 10000 7.2 90 16:38 03.03.2020
1953 Rain 11 1023 71 10000 7.2 90 16:20 03.03.2020
1954 Rain 11 1023 71 10000 7.2 90 15:57 03.03.2020
1955 Rain 11 1023 71 10000 7.2 90 15:57 03.03.2020
1956 Rain 11 1023 71 10000 7.2 80 15:38 03.03.2020
1957 Rain 11 1023 71 10000 6.7 90 15:18 03.03.2020
1958 Rain 12 1023 76 10000 5.7 100 14:41 03.03.2020
1959 Rain 12 1023 76 10000 5.7 100 14:20 03.03.2020
1960 Rain 12 1023 71 10000 4.6 100 13:57 03.03.2020
1961 Clouds 11 1023 71 10000 5.1 100 13:39 03.03.2020
1962 Clouds 12 1023 71 10000 5.1 100 13:20 03.03.2020
1963 Clouds 12 1023 71 10000 5.7 110 12:47 03.03.2020
1964 Clouds 12 1022 76 10000 5.1 110 12:26 03.03.2020
1965 Clouds 13 1022 50 10000 4.1 200 11:58 03.03.2020
1966 Clouds 12 1022 47 10000 4.6 210 11:37 03.03.2020
1967 Clouds 13 1022 47 10000 4.6 210 11:18 03.03.2020
1968 Clouds 13 1022 47 10000 5.1 210 10:56 03.03.2020
1969 Clouds 13 1021 47 10000 5.1 200 10:37 03.03.2020
1970 Clouds 13 1021 47 10000 5.1 200 10:19 03.03.2020
1971 Clouds 13 1021 47 10000 4.6 200 09:44 03.03.2020
1972 Clouds 14 1020 41 10000 5.1 190 09:22 03.03.2020
1973 Clouds 15 1020 41 10000 5.1 190 08:58 03.03.2020
1974 Clouds 15 1019 38 10000 4.6 200 08:39 03.03.2020
1975 Clouds 15 1019 38 10000 4.6 200 08:20 03.03.2020
1976 Clouds 16 1019 38 10000 4.6 190 07:44 03.03.2020
1977 Clouds 16 1019 38 10000 4.6 190 07:22 03.03.2020
1978 Clouds 17 1019 31 10000 2.1 240 06:49 03.03.2020
1979 Clouds 17 1019 31 10000 2.1 240 06:49 03.03.2020
1980 Clouds 17 1019 31 10000 2.1 240 06:23 03.03.2020
1981 Clouds 16 1019 36 10000 1.5 40 05:47 03.03.2020
1982 Clouds 16 1019 31 10000 4.6 300 05:28 03.03.2020
1983 Clouds 15 1020 29 10000 3.6 320 04:30 03.03.2020
1984 Rain 12 1020 40 10000 5.1 330 01:40 03.03.2020
1985 Rain 11 1020 50 10000 3.6 350 00:49 03.03.2020
1986 Rain 9 1020 50 10000 7.7 350 00:27 03.03.2020
1987 Rain 9 1020 53 10000 7.2 350 23:59 02.03.2020
1988 Rain 7 1019 51 10000 6.7 340 23:41 02.03.2020
1989 Rain 6 1019 62 10000 6.7 340 23:22 02.03.2020
1990 Clouds 6 1018 62 10000 6.7 330 22:55 02.03.2020
1991 Clouds 6 1018 61 10000 8.7 350 22:37 02.03.2020
1992 Clouds 6 1018 66 10000 4.1 50 22:19 02.03.2020
1993 Mist 6 1018 93 3200 1.5 40 21:42 02.03.2020
1994 Mist 6 1018 93 3200 1.5 40 21:24 02.03.2020
1995 Clouds 6 1018 93 10000 2.1 280 20:59 02.03.2020
1996 Clouds 6 1018 93 10000 2.1 280 20:41 02.03.2020
1997 Clouds 6 1017 93 10000 3.1 300 20:21 02.03.2020
1998 Clouds 6 1018 100 16093 2.96 7 19:57 02.03.2020
1999 Clouds 6 1018 100 14484 2.96 7 19:39 02.03.2020
2000 Clouds 6 1018 100 14484 2.96 7 19:20 02.03.2020
2001 Clouds 7 1017 87 10000 2.1 10 18:55 02.03.2020
2002 Clouds 7 1016 87 10000 2.6 30 18:37 02.03.2020
2003 Clouds 7 1016 87 10000 2.6 30 18:18 02.03.2020
2004 Clouds 7 1016 81 10000 2.1 40 17:55 02.03.2020
2005 Clouds 7 1016 81 10000 1.5 20 17:37 02.03.2020
2006 Clouds 8 1016 81 10000 1.5 20 17:18 02.03.2020
2007 Clouds 8 1016 87 10000 2.6 10 16:41 02.03.2020
2008 -273 0 0 0 0 0 16:22 02.03.2020
2009 Clouds 8 1016 93 10000 2.6 20 15:45 02.03.2020
2010 Mist 8 1017 100 8047 1.5 60 15:22 02.03.2020
2011 Mist 8 1017 100 8047 1.5 60 14:57 02.03.2020
2012 Clouds 8 1015 87 10000 3.6 30 14:37 02.03.2020
2013 Clouds 8 1015 87 10000 3.6 30 14:19 02.03.2020
2014 Clouds 8 1015 87 10000 3.6 20 13:44 02.03.2020
2015 Clouds 8 1015 87 10000 3.6 20 13:20 02.03.2020
2016 Clouds 8 1015 87 10000 4.1 10 12:59 02.03.2020
2017 Clouds 8 1014 87 10000 4.1 10 12:40 02.03.2020
2018 Clouds 8 1014 87 10000 4.1 10 12:18 02.03.2020
2019 Mist 8 1016 93 9656 2.1 20 11:38 02.03.2020
2020 Mist 8 1016 93 9656 2.1 20 11:19 02.03.2020
2021 Rain 8 1015 93 10000 3.6 20 10:55 02.03.2020
2022 Rain 8 1014 100 8047 4.29 3 10:37 02.03.2020
2023 Rain 8 1014 100 8047 4.29 3 10:18 02.03.2020
2024 Rain 8 1015 93 10000 4.1 10 09:49 02.03.2020
2025 Rain 8 1015 93 10000 4.1 10 09:49 02.03.2020
2026 Rain 8 1014 93 10000 5.1 360 09:30 02.03.2020
2027 Rain 8 1013 93 10000 5.1 360 08:49 02.03.2020
2028 Rain 7 1014 93 3500 3.1 320 08:23 02.03.2020
2029 Rain 7 1013 93 5000 2.6 350 07:51 02.03.2020
2030 Rain 7 1013 93 2816 3.1 350 07:31 02.03.2020
2031 Rain 7 1014 100 5000 3.6 360 06:50 02.03.2020
2032 Rain 7 1014 93 5000 2.1 340 06:25 02.03.2020
2033 Rain 7 1014 100 2800 3.1 340 05:25 02.03.2020
2034 Rain 7 1016 93 3219 4.1 330 03:28 02.03.2020
2035 Rain 7 1017 93 5000 6.7 360 02:55 02.03.2020
2036 Rain 7 1019 93 3219 4.6 30 02:30 02.03.2020
2037 Rain 7 1018 93 3500 4.1 360 01:36 02.03.2020
2038 Rain 7 1018 93 3500 4.1 360 01:18 02.03.2020
2039 Rain 7 1018 87 7000 7.2 360 00:22 02.03.2020
2040 Rain 7 1017 93 8000 7.7 10 23:42 01.03.2020
2041 Rain 7 1017 93 8000 7.7 10 23:23 01.03.2020
2042 Rain 7 1017 93 8000 7.7 20 22:55 01.03.2020
2043 Rain 7 1019 93 6437 1.5 50 22:36 01.03.2020
2044 Rain 8 1019 93 6437 1.5 50 22:18 01.03.2020
2045 Rain 8 1019 87 16093 4.34 32 21:41 01.03.2020
2046 Rain 8 1019 87 16093 4.34 32 21:23 01.03.2020
2047 Rain 8 1017 81 10000 6.7 30 20:58 01.03.2020
2048 Rain 9 1017 87 10000 6.7 30 20:39 01.03.2020
2049 Rain 9 1017 87 10000 6.7 30 20:21 01.03.2020
2050 Rain 9 1017 87 10000 5.7 20 19:42 01.03.2020
2051 Rain 9 1017 87 10000 5.7 20 19:23 01.03.2020
2052 Rain 9 1017 81 10000 5.7 30 18:58 01.03.2020
2053 Rain 10 1017 76 10000 7.7 60 18:39 01.03.2020
2054 Rain 10 1017 76 10000 7.7 60 18:19 01.03.2020
2055 Rain 10 1017 76 10000 7.7 60 17:57 01.03.2020
2056 Rain 10 1018 76 10000 9.8 70 17:38 01.03.2020
2057 Rain 10 1018 76 10000 9.8 70 17:20 01.03.2020
2058 Clouds 11 1018 76 10000 9.8 70 16:55 01.03.2020
2059 Clouds 11 1017 71 10000 11.3 80 16:37 01.03.2020
2060 Clouds 11 1017 71 10000 11.3 80 16:18 01.03.2020
2061 Clouds 11 1018 71 10000 10.3 70 15:56 01.03.2020
2062 Clouds 12 1018 71 10000 8.2 70 15:37 01.03.2020
2063 Clouds 12 1018 71 10000 8.2 70 15:37 01.03.2020
2064 Clouds 12 1018 71 10000 8.2 70 15:18 01.03.2020
2065 Clouds 12 1018 76 10000 7.7 80 14:55 01.03.2020
2066 Clouds 12 1018 76 10000 6.7 70 14:37 01.03.2020
2067 Clouds 12 1018 76 10000 6.7 70 14:18 01.03.2020
2068 Clouds 12 1018 76 10000 5.7 80 13:44 01.03.2020
2069 Clouds 12 1017 76 10000 4.6 90 13:22 01.03.2020
2070 Clouds 12 1017 81 10000 4.1 110 12:59 01.03.2020
2071 Clouds 12 1017 81 10000 4.1 110 12:41 01.03.2020
2072 Clouds 12 1017 81 10000 4.1 120 12:21 01.03.2020
2073 Clouds 13 1016 67 10000 3.1 170 11:42 01.03.2020
2074 Clouds 13 1016 67 10000 3.1 170 11:24 01.03.2020
2075 Clouds 14 1016 58 10000 3.1 210 10:57 01.03.2020
2076 Clouds 14 1015 58 10000 4.6 200 10:38 01.03.2020
2077 Clouds 14 1015 58 10000 4.6 200 10:20 01.03.2020
2078 Clouds 14 1015 62 10000 3.6 190 09:57 01.03.2020
2079 Clouds 14 1015 51 10000 5.1 190 09:39 01.03.2020
2080 Clouds 15 1015 51 10000 5.1 190 09:21 01.03.2020
2081 Clouds 16 1014 44 10000 3.1 160 08:41 01.03.2020
2082 Clouds 16 1014 44 10000 3.1 160 08:21 01.03.2020
2083 Clouds 16 1014 54 10000 3.6 160 07:43 01.03.2020
2084 Rain 16 1014 54 10000 3.6 160 07:24 01.03.2020
2085 Rain 17 1014 54 10000 3.1 130 06:57 01.03.2020
2086 Rain 17 1014 54 10000 4.1 150 06:37 01.03.2020
2087 Clouds 15 1015 51 10000 2.6 120 04:27 01.03.2020
2088 Clouds 14 1016 50 10000 3.1 350 02:55 01.03.2020
2089 Clouds 12 1016 62 10000 6.2 340 01:54 01.03.2020
2090 Clouds 12 1016 62 10000 2.6 330 01:31 01.03.2020
2091 Clouds 10 1016 62 10000 2.1 350 00:46 01.03.2020
2092 Clouds 10 1015 66 10000 4.1 10 00:22 01.03.2020
2093 Clouds 9 1015 71 10000 3.6 20 23:54 29.02.2020
2094 Clouds 9 1015 81 10000 4.6 10 23:34 29.02.2020
2095 Clouds 7 1015 81 10000 3.6 10 22:45 29.02.2020
2096 Clouds 7 1014 81 10000 4.1 10 22:25 29.02.2020
2097 Clouds 8 1014 76 10000 4.1 20 21:44 29.02.2020
2098 Clouds 8 1014 81 10000 4.6 10 21:26 29.02.2020
2099 Clouds 8 1014 76 10000 4.6 10 20:58 29.02.2020
2100 Clouds 8 1013 81 10000 5.7 360 20:40 29.02.2020
2101 Clouds 8 1013 81 10000 5.7 360 20:19 29.02.2020
2102 Clouds 9 1014 87 10000 5.1 360 19:41 29.02.2020
2103 Clouds 9 1014 87 10000 5.1 360 19:22 29.02.2020
2104 Clouds 9 1013 93 10000 5.1 10 18:57 29.02.2020
2105 Rain 8 1014 93 10000 5.1 10 18:39 29.02.2020
2106 Rain 9 1014 93 10000 5.1 10 18:19 29.02.2020
2107 Rain 9 1014 93 10000 5.7 10 17:55 29.02.2020
2108 Rain 9 1014 93 10000 4.6 10 17:36 29.02.2020
2109 Rain 9 1014 93 10000 4.6 10 17:36 29.02.2020
2110 Rain 9 1014 93 10000 4.6 10 17:18 29.02.2020
2111 Rain 9 1014 93 10000 5.1 30 16:42 29.02.2020
2112 Rain 9 1014 93 10000 5.1 30 16:19 29.02.2020
2113 Rain 9 1015 87 10000 4.6 30 15:43 29.02.2020
2114 Rain 9 1015 87 10000 4.6 30 15:24 29.02.2020
2115 Rain 10 1015 87 10000 4.6 40 14:57 29.02.2020
2116 Rain 10 1015 87 10000 4.6 40 14:38 29.02.2020
2117 Rain 10 1015 87 10000 4.6 40 14:20 29.02.2020
2118 Rain 10 1015 81 10000 5.1 50 13:44 29.02.2020
2119 Rain 11 1015 81 10000 5.1 50 13:25 29.02.2020
2120 Rain 11 1015 81 10000 5.7 60 12:55 29.02.2020
2121 Rain 11 1015 62 14484 1.97 223 12:36 29.02.2020
2122 Clouds 11 1015 81 10000 2.6 70 12:18 29.02.2020
2123 Clouds 11 1015 71 10000 1.5 100 11:44 29.02.2020
2124 Clouds 12 1015 71 10000 1.5 100 11:25 29.02.2020
2125 Clouds 12 1016 62 10000 0.5 90 10:50 29.02.2020
2126 Clouds 12 1016 62 10000 0.5 90 10:29 29.02.2020
2127 Clouds 12 1015 62 10000 1.5 80 09:52 29.02.2020
2128 Clouds 12 1015 62 10000 1.5 70 09:28 29.02.2020
2129 Clouds 12 1015 58 10000 1.5 110 08:58 29.02.2020
2130 Clouds 12 1015 57 10000 3.1 160 08:38 29.02.2020
2131 Clouds 12 1015 57 10000 3.1 160 08:19 29.02.2020
2132 Clouds 13 1016 58 10000 3.6 130 07:46 29.02.2020
2133 Clouds 12 1016 62 10000 3.1 160 07:21 29.02.2020
2134 Clouds 13 1017 62 10000 3.1 120 06:54 29.02.2020
2135 Clouds 12 1016 62 10000 3.6 150 06:27 29.02.2020
2136 Clouds 12 1017 62 10000 3.1 110 05:49 29.02.2020
2137 Clouds 13 1017 66 10000 3.6 140 05:30 29.02.2020
2138 Clouds 12 1018 66 10000 2.1 60 03:53 29.02.2020
2139 Clouds 11 1018 57 10000 2.1 30 03:23 29.02.2020
2140 Clouds 11 1019 57 10000 3.1 340 02:52 29.02.2020
2141 Clouds 9 1020 40 10000 3.1 340 01:55 29.02.2020
2142 Clouds 7 1020 56 10000 3.1 300 00:49 29.02.2020
2143 Clouds 7 1020 41 10000 5.1 330 00:27 29.02.2020
2144 Clouds 6 1019 65 10000 4.6 340 23:40 28.02.2020
2145 Clouds 6 1019 65 10000 4.6 340 23:22 28.02.2020
2146 Clouds 6 1019 65 10000 4.1 10 22:42 28.02.2020
2147 Clouds 6 1019 65 10000 4.1 10 22:22 28.02.2020
2148 Clouds 6 1019 42 10000 3.6 310 21:42 28.02.2020
2149 Clouds 6 1019 42 10000 3.6 310 21:22 28.02.2020
2150 Clouds 6 1019 42 10000 3.6 310 21:22 28.02.2020
2151 Clouds 6 1020 56 10000 3.6 310 20:57 28.02.2020
2152 Clouds 6 1019 52 10000 3.1 290 20:38 28.02.2020
2153 Clouds 6 1019 44 10000 2.1 290 20:20 28.02.2020
2154 Clouds 6 1019 44 10000 2.1 290 19:57 28.02.2020
2155 Rain 6 1019 44 10000 2.6 260 19:38 28.02.2020
2156 Rain 7 1019 44 10000 2.6 260 19:20 28.02.2020
2157 Rain 7 1019 57 10000 3.1 250 18:46 28.02.2020
2158 Rain 7 1020 66 10000 3.6 170 18:25 28.02.2020
2159 Rain 7 1020 70 10000 2.1 140 17:57 28.02.2020
2160 Clouds 8 1021 70 10000 2.6 140 17:38 28.02.2020
2161 Clouds 8 1021 70 10000 2.6 140 17:20 28.02.2020
2162 Clouds 8 1021 70 10000 3.1 130 16:38 28.02.2020
2163 Clouds 8 1021 70 10000 3.1 130 16:20 28.02.2020
2164 Clouds 8 1021 66 10000 3.6 130 15:57 28.02.2020
2165 Clouds 8 1021 61 10000 3.6 140 15:38 28.02.2020
2166 Clouds 8 1021 61 10000 3.6 140 15:18 28.02.2020
2167 Clouds 8 1022 57 10000 4.1 140 14:46 28.02.2020
2168 Clouds 8 1022 57 10000 4.1 140 14:20 28.02.2020
2169 Clouds 8 1022 61 10000 4.1 130 13:59 28.02.2020
2170 Clouds 8 1022 57 10000 4.1 140 13:41 28.02.2020
2171 Clouds 8 1022 57 10000 4.6 130 13:20 28.02.2020
2172 Clouds 8 1022 57 10000 4.1 140 13:20 28.02.2020
2173 Clouds 8 1022 57 10000 4.6 130 12:47 28.02.2020
2174 Clouds 8 1022 55 10000 4.1 180 12:28 28.02.2020
2175 Clouds 9 1022 55 10000 4.6 190 11:59 28.02.2020
2176 Clouds 9 1022 49 10000 5.1 190 11:40 28.02.2020
2177 Clouds 8 1022 49 10000 5.1 190 11:21 28.02.2020
2178 Clouds 9 1022 43 10000 5.7 200 10:54 28.02.2020
2179 Clouds 9 1022 37 10000 5.1 200 10:36 28.02.2020
2180 Clouds 9 1022 37 10000 5.1 200 10:18 28.02.2020
2181 Clouds 9 1022 34 10000 4.1 200 09:40 28.02.2020
2182 Clouds 9 1022 34 10000 4.1 200 09:20 28.02.2020
2183 Clouds 10 1021 37 10000 2.6 180 08:42 28.02.2020
2184 Clouds 10 1021 37 10000 2.6 180 08:20 28.02.2020
2185 Clouds 10 1021 37 10000 4.1 150 07:46 28.02.2020
2186 Clouds 10 1021 37 10000 4.1 150 07:26 28.02.2020
2187 Clouds 10 1021 39 10000 5.1 140 06:52 28.02.2020
2188 Clouds 11 1021 39 10000 6.2 140 06:33 28.02.2020
2189 Clouds 10 1022 45 10000 5.7 150 05:31 28.02.2020
2190 Clouds 10 1022 31 10000 2.6 330 04:32 28.02.2020
2191 Clouds 9 1024 42 10000 2.6 50 03:22 28.02.2020
2192 Clouds 8 1023 42 10000 3.1 50 02:41 28.02.2020
2193 Clouds 7 1024 48 10000 4.1 50 01:48 28.02.2020
2194 Clouds 5 1024 56 10000 6.2 20 00:33 28.02.2020
2195 Clouds 4 1024 56 10000 4.1 20 23:57 27.02.2020
2196 Clouds 4 1023 60 10000 6.2 20 23:38 27.02.2020
2197 Clouds 3 1023 60 10000 6.2 20 23:18 27.02.2020
2198 Clouds 1 1023 60 10000 7.7 20 22:40 27.02.2020
2199 Clouds 1 1023 60 10000 7.7 20 22:22 27.02.2020
2200 Clouds 2 1023 52 10000 5.7 20 21:54 27.02.2020
2201 Clouds 2 1022 56 10000 9.3 350 21:36 27.02.2020
2202 Clouds 2 1022 56 10000 9.3 350 21:18 27.02.2020
2203 Clouds 2 1022 56 10000 5.7 360 20:41 27.02.2020
2204 Clouds 2 1022 56 10000 5.7 360 20:23 27.02.2020
2205 Clouds 2 1022 52 10000 5.1 30 19:58 27.02.2020
2206 Clouds 2 1022 56 10000 5.1 20 19:39 27.02.2020
2207 Clouds 2 1022 56 10000 5.1 20 19:21 27.02.2020
2208 Clouds 2 1022 48 10000 5.7 10 18:57 27.02.2020
2209 Clouds 3 1022 56 10000 6.7 10 18:39 27.02.2020
2210 Clouds 3 1022 56 10000 6.7 10 18:20 27.02.2020
2211 Clouds 3 1022 56 10000 7.7 350 17:56 27.02.2020
2212 Clouds 3 1022 52 10000 7.7 350 17:37 27.02.2020
2213 Clouds 3 1022 52 10000 7.7 350 17:18 27.02.2020
2214 Clouds 3 1022 48 10000 8.2 350 16:42 27.02.2020
2215 Clouds 3 1022 48 10000 8.2 350 16:20 27.02.2020
2216 Clouds 3 1022 44 10000 7.2 330 15:59 27.02.2020
2217 Clouds 3 1021 44 10000 8.2 330 15:39 27.02.2020
2218 Clouds 3 1021 44 10000 8.2 330 15:20 27.02.2020
2219 Clouds 4 1022 44 10000 9.3 340 14:59 27.02.2020
2220 Clouds 4 1021 41 10000 9.8 340 14:39 27.02.2020
2221 Clear 4 1021 41 10000 9.8 340 14:21 27.02.2020
2222 Clouds 4 1022 60 10000 5.1 360 13:43 27.02.2020
2223 Clear 4 1021 45 10000 12.3 340 13:23 27.02.2020
2224 Clear 5 1021 45 10000 10.3 350 12:59 27.02.2020
2225 Clear 5 1021 45 10000 10.3 350 12:59 27.02.2020
2226 Clear 5 1020 38 10000 11.3 340 12:41 27.02.2020
2227 Clear 5 1020 38 10000 11.3 340 12:19 27.02.2020
2228 Clouds 5 1020 39 10000 11.3 350 11:45 27.02.2020
2229 Clouds 6 1019 39 10000 11.8 340 11:23 27.02.2020
2230 Clouds 6 1019 36 10000 11.8 350 10:56 27.02.2020
2231 Clouds 6 1019 39 10000 12.3 350 10:37 27.02.2020
2232 Clouds 7 1019 39 10000 11.8 340 10:18 27.02.2020
2233 Clouds 8 1019 34 10000 10.8 350 09:41 27.02.2020
2234 Clouds 9 1019 34 10000 10.8 350 09:22 27.02.2020
2235 Clouds 9 1017 23 10000 6.7 320 08:44 27.02.2020
2236 Clouds 9 1017 23 10000 6.7 320 08:26 27.02.2020
2237 Clouds 10 1017 29 10000 12.9 340 07:59 27.02.2020
2238 Clouds 10 1016 25 10000 10.8 300 07:39 27.02.2020
2239 Clouds 10 1016 25 10000 10.8 300 07:19 27.02.2020
2240 Clouds 10 1016 25 10000 6.7 320 06:20 27.02.2020
2241 Clouds 10 1018 36 16093 8.2 360 04:24 27.02.2020
2242 Clouds 10 1017 49 10000 11.3 340 02:58 27.02.2020
2243 Rain 8 1017 45 10000 1.5 60 01:28 27.02.2020
2244 Clouds 7 1016 35 10000 9.3 10 00:41 27.02.2020
2245 Clouds 6 1016 35 10000 6.2 20 23:41 26.02.2020
2246 Clouds 5 1016 56 10000 6.2 20 23:21 26.02.2020
2247 Clouds 5 1016 70 10000 4.1 20 22:59 26.02.2020
2248 Clouds 4 1015 70 10000 5.1 30 22:40 26.02.2020
2249 Clouds 4 1015 70 10000 5.1 30 22:22 26.02.2020
2250 Clouds 5 1015 75 10000 5.1 20 21:59 26.02.2020
2251 Clouds 5 1014 70 10000 5.7 30 21:39 26.02.2020
2252 Clouds 5 1014 70 10000 5.7 30 21:19 26.02.2020
2253 Clouds 5 1014 70 10000 6.7 40 20:56 26.02.2020
2254 Clouds 5 1014 70 10000 5.7 30 20:38 26.02.2020
2255 Clouds 6 1014 70 10000 5.7 30 20:38 26.02.2020
2256 Clouds 5 1014 70 10000 5.7 30 20:19 26.02.2020
2257 Rain 6 1014 75 10000 5.1 40 19:55 26.02.2020
2258 Clouds 6 1014 75 10000 5.7 30 19:36 26.02.2020
2259 Clouds 6 1014 75 10000 5.7 30 19:18 26.02.2020
2260 Clouds 6 1014 75 10000 5.1 40 18:56 26.02.2020
2261 Clouds 6 1014 75 10000 5.7 40 18:37 26.02.2020
2262 Clouds 6 1014 75 10000 5.7 40 18:18 26.02.2020
2263 Rain 7 1014 75 10000 6.7 50 17:40 26.02.2020
2264 Rain 7 1014 75 10000 6.7 50 17:19 26.02.2020
2265 Rain 7 1014 75 10000 5.7 50 16:56 26.02.2020
2266 Clouds 7 1014 81 10000 6.2 60 16:38 26.02.2020
2267 Clouds 8 1014 81 10000 6.2 60 16:19 26.02.2020
2268 Clouds 8 1015 76 10000 6.2 50 15:44 26.02.2020
2269 Drizzle 8 1016 75 16093 1.5 60 15:25 26.02.2020
2270 Clouds 8 1015 76 10000 4.6 70 14:43 26.02.2020
2271 Clouds 8 1015 76 10000 4.6 70 14:24 26.02.2020
2272 Rain 8 1015 81 10000 5.1 50 13:57 26.02.2020
2273 Rain 8 1015 81 10000 5.1 50 13:57 26.02.2020
2274 Drizzle 8 1016 87 16093 1.5 50 13:39 26.02.2020
2275 Drizzle 8 1016 87 16093 1.5 50 13:18 26.02.2020
2276 Clouds 9 1016 81 16093 2.1 60 12:39 26.02.2020
2277 Clouds 9 1016 81 16093 2.1 60 12:19 26.02.2020
2278 Clouds 9 1015 81 10000 4.6 70 11:55 26.02.2020
2279 Clouds 9 1014 81 10000 5.1 60 11:37 26.02.2020
2280 Clouds 9 1014 81 10000 5.1 60 11:18 26.02.2020
2281 Clouds 9 1015 75 16093 1.5 40 10:41 26.02.2020
2282 Clouds 9 1015 75 16093 1.5 40 10:22 26.02.2020
2283 Rain 9 1014 81 10000 4.6 60 09:55 26.02.2020
2284 Rain 9 1014 81 10000 4.1 50 09:37 26.02.2020
2285 Rain 9 1014 81 10000 4.1 50 09:18 26.02.2020
2286 Rain 9 1013 81 10000 4.1 50 08:38 26.02.2020
2287 Rain 9 1013 81 10000 4.1 50 08:19 26.02.2020
2288 Rain 9 1013 81 10000 3.6 30 07:48 26.02.2020
2289 Rain 9 1013 81 10000 3.6 30 07:29 26.02.2020
2290 Clouds 9 1014 76 16093 3.6 40 06:53 26.02.2020
2291 Clouds 9 1014 81 16093 3.6 30 06:35 26.02.2020
2292 Rain 9 1013 81 10000 5.1 10 05:54 26.02.2020
2293 Rain 9 1013 81 10000 2.6 10 05:28 26.02.2020
2294 Clouds 8 1016 93 11265 3.6 40 04:36 26.02.2020
2295 Rain 8 1014 87 10000 7.7 10 02:51 26.02.2020
2296 Drizzle 8 1016 81 5000 3.6 20 01:49 26.02.2020
2297 Rain 8 1015 87 10000 4.6 20 00:51 26.02.2020
2298 Rain 8 1014 87 10000 9.3 10 00:27 26.02.2020
2299 Rain 7 1014 87 9000 8.7 10 23:57 25.02.2020
2300 Rain 7 1016 100 4023 5.7 10 23:38 25.02.2020
2301 Rain 7 1016 100 4023 5.7 10 23:20 25.02.2020
2302 Rain 8 1014 93 2213 4.1 330 22:42 25.02.2020
2303 Mist 8 1015 93 6437 3.6 360 22:20 25.02.2020
2304 Mist 8 1015 93 6437 3.6 360 21:58 25.02.2020
2305 Drizzle 8 1015 100 4828 3.6 10 21:37 25.02.2020
2306 Drizzle 8 1015 100 4828 3.6 10 21:18 25.02.2020
2307 Rain 8 1014 93 7000 7.7 10 20:55 25.02.2020
2308 Clouds 8 1013 93 8000 7.7 360 20:36 25.02.2020
2309 Clouds 8 1013 93 8000 7.7 360 20:18 25.02.2020
2310 Mist 8 1015 93 8047 4.1 10 19:42 25.02.2020
2311 Rain 8 1015 93 8047 4.1 10 19:21 25.02.2020
2312 Rain 8 1013 93 7000 6.7 360 18:58 25.02.2020
2313 Rain 8 1014 93 6000 5.7 360 18:38 25.02.2020
2314 Rain 8 1014 93 6000 5.7 360 18:19 25.02.2020
2315 Rain 8 1014 93 4828 3.6 330 17:54 25.02.2020
2316 Rain 8 1014 87 8000 6.2 360 17:36 25.02.2020
2317 Rain 9 1014 87 8000 6.2 360 17:36 25.02.2020
2318 Rain 9 1014 87 8000 6.2 360 17:18 25.02.2020
2319 Rain 9 1015 87 9000 6.2 10 16:42 25.02.2020
2320 Rain 9 1015 87 10000 6.2 10 16:22 25.02.2020
2321 Rain 9 1015 87 10000 5.1 10 15:59 25.02.2020
2322 Rain 9 1015 87 10000 5.7 20 15:41 25.02.2020
2323 Clouds 9 1015 87 10000 5.7 20 15:20 25.02.2020
2324 Rain 10 1018 87 14484 3.6 20 14:58 25.02.2020
2325 Rain 10 1019 81 16093 3.1 20 14:38 25.02.2020
2326 Rain 10 1019 81 16093 3.1 20 14:18 25.02.2020
2327 Clouds 10 1017 76 10000 6.2 20 13:57 25.02.2020
2328 Clouds 10 1017 71 10000 5.7 50 13:38 25.02.2020
2329 Clouds 10 1017 71 10000 5.7 50 13:20 25.02.2020
2330 Clouds 11 1019 70 16093 3.6 30 12:55 25.02.2020
2331 Rain 11 1017 81 10000 3.6 70 12:37 25.02.2020
2332 Rain 11 1017 81 10000 3.6 70 12:18 25.02.2020
2333 Clouds 11 1017 81 10000 3.1 90 11:42 25.02.2020
2334 Clouds 11 1017 81 10000 3.1 90 11:20 25.02.2020
2335 Clouds 12 1018 81 10000 3.1 100 10:59 25.02.2020
2336 Clouds 12 1018 81 10000 3.1 100 10:41 25.02.2020
2337 Clouds 12 1018 81 10000 3.1 100 10:23 25.02.2020
2338 Clouds 12 1018 71 10000 3.1 130 09:42 25.02.2020
2339 Clouds 12 1018 71 10000 3.1 130 09:23 25.02.2020
2340 Clouds 13 1018 66 10000 2.6 120 08:56 25.02.2020
2341 Clouds 13 1017 62 10000 2.1 130 08:38 25.02.2020
2342 Clouds 13 1017 62 10000 2.1 130 08:20 25.02.2020
2343 Clouds 13 1018 66 10000 1.5 80 07:48 25.02.2020
2344 Clouds 13 1019 54 10000 0.5 0 07:20 25.02.2020
2345 Clouds 13 1019 54 10000 0.5 0 06:41 25.02.2020
2346 Clouds 13 1019 54 9000 1 0 05:41 25.02.2020
2347 Clouds 13 1021 57 10000 1 0 03:54 25.02.2020
2348 Clouds 13 1021 46 10000 2.6 50 02:31 25.02.2020
2349 Clouds 11 1021 50 10000 1.5 0 00:55 25.02.2020
2350 Clouds 10 1021 61 10000 2.1 290 00:30 25.02.2020
2351 Clouds 8 1021 66 10000 3.27 9 23:46 24.02.2020
2352 Clouds 7 1021 66 10000 1.5 330 23:28 24.02.2020
2353 Clouds 5 1021 70 10000 2.6 320 22:43 24.02.2020
2354 Clouds 6 1020 70 10000 1.5 270 22:21 24.02.2020
2355 Clouds 6 1020 75 10000 2.6 270 21:58 24.02.2020
2356 Clouds 6 1020 75 10000 2.1 250 21:39 24.02.2020
2357 Clouds 6 1020 75 10000 2.1 250 21:20 24.02.2020
2358 Clouds 6 1020 70 10000 2.1 260 20:59 24.02.2020
2359 Clouds 6 1020 70 10000 2.1 260 20:59 24.02.2020
2360 Clouds 6 1020 75 10000 2.6 260 20:41 24.02.2020
2361 Clouds 6 1020 75 10000 2.6 260 20:20 24.02.2020
2362 Clouds 6 1020 75 10000 3.1 280 19:58 24.02.2020
2363 Clouds 7 1019 66 10000 2.1 290 19:40 24.02.2020
2364 Clouds 7 1019 66 10000 2.1 290 19:22 24.02.2020
2365 Clouds 7 1019 50 10000 3.1 340 18:56 24.02.2020
2366 Clouds 7 1019 43 10000 4.1 340 18:38 24.02.2020
2367 Clouds 7 1019 43 10000 4.1 340 18:19 24.02.2020
2368 Clouds 7 1019 43 10000 4.1 340 18:19 24.02.2020
2369 Clouds 7 1020 70 10000 3.1 330 17:42 24.02.2020
2370 Clouds 7 1020 70 10000 3.1 330 17:21 24.02.2020
2371 Clouds 7 1020 76 10000 3.6 310 16:59 24.02.2020
2372 Clouds 7 1020 76 10000 3.1 330 16:40 24.02.2020
2373 Clouds 7 1020 76 10000 3.1 330 16:21 24.02.2020
2374 Clouds 8 1020 81 10000 1 350 15:59 24.02.2020
2375 Clouds 8 1020 76 10000 0.5 130 15:40 24.02.2020
2376 Clouds 8 1020 76 10000 0.5 130 15:21 24.02.2020
2377 Clouds 8 1020 81 10000 1 110 14:58 24.02.2020
2378 Clouds 8 1020 81 10000 1 130 14:40 24.02.2020
2379 Clouds 8 1020 81 10000 1 130 14:19 24.02.2020
2380 Clouds 9 1020 62 10000 1.5 150 13:57 24.02.2020
2381 Clouds 9 1020 62 10000 2.1 170 13:37 24.02.2020
2382 Clouds 9 1020 62 10000 3.1 180 13:19 24.02.2020
2383 Clouds 10 1020 62 10000 3.1 180 12:56 24.02.2020
2384 Clouds 10 1020 62 10000 4.1 180 12:38 24.02.2020
2385 Clouds 10 1020 62 10000 4.1 180 12:19 24.02.2020
2386 Clouds 11 1020 62 10000 4.1 210 11:44 24.02.2020
2387 Clouds 11 1020 62 10000 4.1 210 11:26 24.02.2020
2388 Clouds 11 1020 58 10000 5.1 200 10:45 24.02.2020
2389 Clouds 12 1020 58 10000 4.6 200 10:26 24.02.2020
2390 Clouds 12 1020 54 10000 5.1 200 09:54 24.02.2020
2391 Clouds 12 1020 54 10000 5.1 200 09:54 24.02.2020
2392 Clouds 13 1019 50 10000 5.1 190 09:36 24.02.2020
2393 Clouds 13 1019 50 10000 5.1 190 09:18 24.02.2020
2394 Clouds 14 1019 50 10000 4.1 180 08:44 24.02.2020
2395 Clouds 14 1019 50 10000 4.1 180 08:24 24.02.2020
2396 Clouds 14 1020 47 10000 5.1 190 07:44 24.02.2020
2397 Clouds 15 1019 47 10000 3.1 190 07:24 24.02.2020
2398 Clouds 15 1020 44 10000 2.6 200 06:36 24.02.2020
2399 Clouds 15 1020 44 10000 2.6 200 06:18 24.02.2020
2400 Clouds 14 1020 43 10000 3.1 130 05:29 24.02.2020
2401 Clouds 14 1022 37 10000 2.1 80 03:54 24.02.2020
2402 Clouds 13 1022 34 10000 2.1 360 02:54 24.02.2020
2403 Clouds 10 1023 40 10000 4.1 350 01:46 24.02.2020
2404 Clouds 9 1023 39 10000 3.1 330 00:59 24.02.2020
2405 Clouds 8 1023 42 10000 4.1 330 00:28 24.02.2020
2406 Clouds 7 1023 39 10000 3.6 330 23:59 23.02.2020
2407 Clouds 7 1023 39 10000 3.6 330 23:41 23.02.2020
2408 Clouds 4 1022 42 10000 3.6 320 23:19 23.02.2020
2409 Clouds 3 1022 45 10000 4.1 320 22:56 23.02.2020
2410 Clouds 3 1022 45 10000 4.6 310 22:37 23.02.2020
2411 Clouds 3 1022 45 10000 4.6 310 22:18 23.02.2020
2412 Clouds 3 1022 41 10000 4.1 310 21:45 23.02.2020
2413 Clouds 4 1021 39 10000 4.1 310 21:20 23.02.2020
2414 Clouds 4 1022 41 10000 3.6 300 20:57 23.02.2020
2415 Clouds 4 1021 39 10000 3.6 300 20:38 23.02.2020
2416 Clouds 4 1021 39 10000 3.6 300 20:20 23.02.2020
2417 Clouds 5 1021 36 10000 5.1 320 19:57 23.02.2020
2418 Clouds 5 1021 39 10000 4.6 320 19:38 23.02.2020
2419 Clouds 5 1021 39 10000 4.6 320 19:18 23.02.2020
2420 Clouds 5 1021 36 10000 6.2 330 18:56 23.02.2020
2421 Clouds 5 1021 36 10000 6.7 330 18:36 23.02.2020
2422 Clouds 5 1021 36 10000 6.7 330 18:18 23.02.2020
2423 Clouds 6 1021 39 10000 6.7 330 17:56 23.02.2020
2424 Clouds 6 1021 36 10000 7.7 330 17:37 23.02.2020
2425 Clouds 6 1021 36 10000 7.7 330 17:18 23.02.2020
2426 Clouds 6 1021 36 10000 8.7 330 16:45 23.02.2020
2427 Clouds 6 1021 39 10000 9.8 340 16:26 23.02.2020
2428 Clouds 7 1021 39 10000 9.8 330 15:58 23.02.2020
2429 Clouds 7 1021 36 10000 9.8 340 15:38 23.02.2020
2430 Clouds 7 1021 36 10000 9.8 340 15:20 23.02.2020
2431 Clouds 7 1021 36 10000 9.3 340 14:57 23.02.2020
2432 Clouds 7 1021 39 10000 10.3 340 14:38 23.02.2020
2433 Clouds 7 1021 39 10000 10.3 340 14:20 23.02.2020
2434 Clouds 8 1021 39 10000 10.3 340 13:57 23.02.2020
2435 Rain 8 1020 34 10000 10.3 340 13:38 23.02.2020
2436 Rain 8 1020 39 10000 9.3 340 13:20 23.02.2020
2437 Rain 8 1019 34 10000 9.3 340 12:42 23.02.2020
2438 Rain 8 1019 34 10000 9.3 340 12:21 23.02.2020
2439 Rain 9 1020 34 10000 9.8 350 11:55 23.02.2020
2440 Rain 9 1019 39 10000 8.2 350 11:37 23.02.2020
2441 Rain 10 1018 37 10000 7.2 350 11:18 23.02.2020
2442 Clouds 10 1018 29 10000 8.7 350 10:42 23.02.2020
2443 Clouds 10 1018 29 10000 8.7 350 10:23 23.02.2020
2444 Clouds 11 1017 29 10000 7.2 340 09:59 23.02.2020
2445 Clouds 12 1017 27 10000 6.7 340 09:39 23.02.2020
2446 Rain 12 1017 27 10000 6.7 340 09:21 23.02.2020
2447 Rain 13 1016 28 10000 7.7 340 08:51 23.02.2020
2448 Rain 14 1016 20 10000 6.2 320 08:30 23.02.2020
2449 Rain 14 1015 30 10000 3.6 360 07:58 23.02.2020
2450 Rain 15 1015 19 10000 5.7 330 07:39 23.02.2020
2451 Rain 15 1014 21 10000 4.6 330 06:39 23.02.2020
2452 Clouds 15 1015 30 10000 7.2 20 05:47 23.02.2020
2453 Clouds 15 1014 26 10000 3.1 20 04:35 23.02.2020
2454 Clouds 15 1014 26 10000 3.1 20 04:35 23.02.2020
2455 Clouds 14 1014 24 10000 6.2 290 03:21 23.02.2020
2456 Clouds 14 1014 28 10000 4.6 270 02:26 23.02.2020
2457 Clouds 12 1014 53 10000 3.1 130 01:24 23.02.2020
2458 Clouds 11 1013 23 10000 1.5 190 00:46 23.02.2020
2459 Clouds 11 1014 37 10000 2.6 220 00:25 23.02.2020
2460 Clouds 10 1013 34 10000 1.5 0 23:45 22.02.2020
2461 Clouds 9 1013 36 10000 1 0 23:27 22.02.2020
2462 Clouds 7 1013 36 10000 1.5 0 22:59 22.02.2020
2463 Clouds 7 1013 45 10000 2.6 270 22:39 22.02.2020
2464 Clouds 7 1013 45 10000 2.6 270 22:18 22.02.2020
2465 Clouds 7 1013 39 10000 3.6 310 21:41 22.02.2020
2466 Clouds 7 1012 39 10000 4.1 310 21:23 22.02.2020
2467 Clouds 8 1012 36 10000 6.7 320 20:46 22.02.2020
2468 Clouds 9 1012 37 10000 7.2 310 20:24 22.02.2020
2469 Clouds 9 1012 37 10000 7.2 310 19:58 22.02.2020
2470 Clouds 9 1012 37 10000 8.2 330 19:39 22.02.2020
2471 Clouds 10 1012 40 10000 7.2 330 19:20 22.02.2020
2472 Clouds 10 1012 50 10000 7.2 340 18:40 22.02.2020
2473 Clouds 11 1012 50 10000 7.2 340 18:22 22.02.2020
2474 Clouds 11 1012 50 10000 6.7 330 17:58 22.02.2020
2475 Clouds 11 1011 58 10000 6.7 340 17:39 22.02.2020
2476 Clouds 11 1011 58 10000 6.7 340 17:39 22.02.2020
2477 Clouds 11 1011 58 10000 6.7 340 17:21 22.02.2020
2478 Clouds 11 1012 58 10000 6.2 340 16:57 22.02.2020
2479 Clouds 11 1011 66 10000 5.1 330 16:39 22.02.2020
2480 Clouds 11 1011 66 10000 5.1 330 16:20 22.02.2020
2481 Clouds 12 1012 76 10000 3.1 330 15:44 22.02.2020
2482 Clouds 12 1010 93 10000 2.6 290 15:25 22.02.2020
2483 Clouds 12 1010 87 10000 4.1 310 14:55 22.02.2020
2484 Clouds 13 1010 77 10000 4.1 240 14:37 22.02.2020
2485 Clouds 13 1010 77 10000 4.1 240 14:18 22.02.2020
2486 Rain 14 1010 77 10000 7.7 230 13:41 22.02.2020
2487 Rain 14 1010 77 10000 7.7 230 13:19 22.02.2020
2488 Rain 14 1011 82 10000 7.2 230 12:46 22.02.2020
2489 -273 0 0 0 0 0 12:24 22.02.2020
2490 Rain 14 1011 82 10000 10.8 200 11:56 22.02.2020
2491 Rain 15 1012 82 10000 9.3 210 11:36 22.02.2020
2492 Rain 15 1012 82 10000 9.3 210 11:18 22.02.2020
2493 Rain 15 1013 87 6437 3.1 190 10:40 22.02.2020
2494 Rain 15 1013 87 6437 3.1 190 10:20 22.02.2020
2495 Rain 16 1014 67 10000 11.3 220 09:58 22.02.2020
2496 Rain 17 1014 63 10000 11.3 220 09:39 22.02.2020
2497 Rain 16 1014 63 10000 11.3 220 09:21 22.02.2020
2498 Clouds 17 1015 59 10000 10.8 220 08:50 22.02.2020
2499 Clouds 17 1015 55 10000 9.8 210 08:28 22.02.2020
2500 Clouds 17 1016 55 10000 11.8 230 07:50 22.02.2020
2501 Clouds 17 1016 52 10000 4.6 220 07:20 22.02.2020
2502 Clouds 17 1016 52 10000 10.8 220 06:48 22.02.2020
2503 Rain 17 1016 52 10000 6.2 200 06:29 22.02.2020
2504 Rain 16 1019 48 10000 9.3 220 04:38 22.02.2020
2505 Rain 16 1021 59 10000 5.7 220 03:33 22.02.2020
2506 Rain 14 1022 87 5000 7.2 150 02:33 22.02.2020
2507 Clouds 12 1023 81 10000 5.7 170 01:46 22.02.2020
2508 Clouds 12 1023 87 7000 2.6 180 01:27 22.02.2020
2509 Clouds 11 1024 87 7000 3.1 140 00:45 22.02.2020
2510 Clouds 10 1025 87 10000 1.5 70 00:27 22.02.2020
2511 Clouds 8 1026 87 10000 1.5 350 23:47 21.02.2020
2512 Rain 8 1026 93 9000 2.1 320 23:24 21.02.2020
2513 Rain 7 1028 93 16093 2.1 280 22:56 21.02.2020
2514 Clouds 7 1026 93 7000 2.6 330 22:38 21.02.2020
2515 Clouds 7 1026 93 7000 2.6 330 22:18 21.02.2020
2516 Rain 8 1027 93 5000 5.1 310 21:42 21.02.2020
2517 Rain 8 1027 93 5000 5.1 310 21:24 21.02.2020
2518 Rain 8 1027 93 5000 5.1 310 21:24 21.02.2020
2519 Rain 8 1027 87 9000 3.1 300 20:50 21.02.2020
2520 Rain 8 1027 87 8000 3.1 310 20:31 21.02.2020
2521 Rain 9 1027 87 10000 1.5 320 19:59 21.02.2020
2522 Rain 9 1028 93 6000 1.5 330 19:38 21.02.2020
2523 Rain 9 1028 93 6000 1.5 330 19:18 21.02.2020
2524 Rain 10 1029 81 6000 2.6 200 18:40 21.02.2020
2525 Rain 10 1029 81 6000 2.6 200 18:22 21.02.2020
2526 Rain 10 1029 76 10000 1 0 17:42 21.02.2020
2527 Clouds 9 1029 87 10000 1 0 17:24 21.02.2020
2528 Clouds 9 1030 87 10000 3.1 140 16:59 21.02.2020
2529 Clouds 9 1030 87 10000 3.1 140 16:41 21.02.2020
2530 Clouds 9 1030 87 10000 3.1 140 16:21 21.02.2020
2531 -273 0 0 0 0 0 15:57 21.02.2020
2532 Clouds 9 1031 81 10000 3.6 160 15:38 21.02.2020
2533 Clouds 9 1031 81 10000 3.6 160 15:18 21.02.2020
2534 Clouds 9 1032 81 10000 3.1 160 14:42 21.02.2020
2535 Clouds 9 1032 81 10000 3.1 160 14:20 21.02.2020
2536 Clouds 10 1033 81 10000 2.6 140 13:45 21.02.2020
2537 Clouds 10 1032 81 10000 3.1 150 13:24 21.02.2020
2538 Clouds 11 1033 76 10000 4.1 160 12:56 21.02.2020
2539 Clouds 11 1032 71 10000 4.6 160 12:37 21.02.2020
2540 Clouds 11 1032 71 10000 4.6 160 12:19 21.02.2020
2541 Clouds 12 1033 66 10000 5.1 160 11:43 21.02.2020
2542 Clouds 12 1033 66 10000 5.1 160 11:23 21.02.2020
2543 Clouds 11 1033 62 10000 5.7 160 10:59 21.02.2020
2544 Clouds 12 1032 58 10000 6.2 180 10:41 21.02.2020
2545 Clouds 12 1034 66 10000 1.5 130 10:19 21.02.2020
2546 Clouds 12 1033 58 10000 5.7 200 09:58 21.02.2020
2547 Clouds 12 1032 54 10000 6.2 190 09:38 21.02.2020
2548 Clouds 12 1032 54 10000 6.2 190 09:38 21.02.2020
2549 Clouds 12 1032 54 10000 7.2 190 09:20 21.02.2020
2550 Clouds 13 1032 54 10000 7.2 190 08:45 21.02.2020
2551 Clouds 13 1032 54 10000 3.1 160 08:22 21.02.2020
2552 Clouds 13 1032 47 10000 4.1 170 07:59 21.02.2020
2553 Clouds 13 1032 47 10000 2.6 140 07:41 21.02.2020
2554 Clouds 13 1032 54 10000 3.1 140 07:19 21.02.2020
2555 Clouds 14 1032 54 10000 3.1 140 06:53 21.02.2020
2556 Clouds 14 1032 43 10000 2.1 140 06:31 21.02.2020
2557 Clouds 13 1033 57 10000 2.6 80 05:50 21.02.2020
2558 Clouds 13 1034 46 10000 3.1 150 04:39 21.02.2020
2559 Clouds 12 1034 46 10000 3.1 150 04:20 21.02.2020
2560 Clouds 12 1035 53 10000 5.1 130 03:42 21.02.2020
2561 Clouds 11 1036 57 10000 3.6 80 02:58 21.02.2020
2562 Clouds 10 1036 57 10000 2.6 60 01:25 21.02.2020
2563 Clouds 9 1036 57 10000 4.1 50 00:46 21.02.2020
2564 Clouds 9 1036 61 10000 4.1 30 00:24 21.02.2020
2565 Clouds 9 1036 61 10000 4.1 30 00:24 21.02.2020
2566 Clouds 8 1036 65 10000 3.6 30 23:46 20.02.2020
2567 Clouds 7 1035 65 10000 4.1 20 23:26 20.02.2020
2568 Clouds 7 1035 65 10000 4.6 10 23:00 20.02.2020
2569 Clouds 7 1034 65 10000 4.6 10 22:39 20.02.2020
2570 Clouds 7 1034 65 10000 4.6 10 22:21 20.02.2020
2571 Clouds 7 1034 65 10000 4.6 10 22:21 20.02.2020
2572 Clouds 7 1034 70 10000 5.1 10 21:57 20.02.2020
2573 Clouds 7 1033 70 10000 5.1 20 21:37 20.02.2020
2574 Clouds 7 1033 70 10000 5.1 20 21:19 20.02.2020
2575 Clouds 8 1033 70 10000 5.7 20 20:56 20.02.2020
2576 Clouds 8 1033 75 10000 5.7 10 20:37 20.02.2020
2577 Clouds 7 1033 75 10000 5.7 10 20:19 20.02.2020
2578 Clouds 7 1033 75 10000 5.1 10 19:58 20.02.2020
2579 Clouds 7 1032 75 10000 4.6 40 19:40 20.02.2020
2580 Clouds 7 1032 75 10000 4.6 40 19:22 20.02.2020
2581 Clouds 8 1032 76 10000 5.7 30 18:40 20.02.2020
2582 Clouds 8 1032 76 10000 5.7 30 18:21 20.02.2020
2583 Clouds 8 1032 76 10000 7.2 50 17:56 20.02.2020
2584 Clouds 9 1032 76 10000 7.2 50 17:38 20.02.2020
2585 Clouds 8 1031 76 10000 7.7 60 17:18 20.02.2020
2586 Clouds 8 1031 76 10000 7.7 60 16:56 20.02.2020
2587 Clouds 8 1033 81 16093 2.1 20 16:37 20.02.2020
2588 Clouds 8 1033 81 16093 2.1 20 16:18 20.02.2020
2589 Clouds 9 1031 76 10000 7.2 60 15:42 20.02.2020
2590 Clouds 9 1031 76 10000 7.2 60 15:22 20.02.2020
2591 Rain 9 1031 76 10000 6.7 50 14:57 20.02.2020
2592 Rain 10 1030 76 10000 6.7 50 14:39 20.02.2020
2593 Rain 10 1030 76 10000 6.7 50 14:39 20.02.2020
2594 Rain 10 1030 76 10000 6.7 50 14:20 20.02.2020
2595 Rain 10 1030 76 12874 3.1 20 13:46 20.02.2020
2596 Rain 10 1030 76 12874 3.1 20 13:21 20.02.2020
2597 Clouds 10 1029 81 10000 6.2 70 12:59 20.02.2020
2598 Clouds 10 1029 76 10000 6.2 70 12:40 20.02.2020
2599 Clouds 10 1029 76 10000 6.2 70 12:20 20.02.2020
2600 Clouds 10 1029 76 10000 7.2 80 11:57 20.02.2020
2601 Clouds 11 1028 76 10000 6.2 90 11:39 20.02.2020
2602 Clouds 10 1028 76 10000 6.2 90 11:19 20.02.2020
2603 Clouds 11 1028 71 10000 4.1 90 10:55 20.02.2020
2604 Clouds 11 1028 62 10000 3.1 80 10:36 20.02.2020
2605 Clouds 11 1028 62 10000 3.1 80 10:18 20.02.2020
2606 Clouds 12 1027 58 10000 2.6 360 09:38 20.02.2020
2607 Clouds 12 1027 58 10000 2.6 360 09:19 20.02.2020
2608 Clouds 12 1027 62 10000 1.5 80 08:41 20.02.2020
2609 Clouds 12 1027 62 10000 1.5 80 08:23 20.02.2020
2610 Clouds 12 1027 58 10000 1.5 80 07:47 20.02.2020
2611 Clouds 13 1026 58 10000 1.5 0 07:27 20.02.2020
2612 Clouds 13 1026 58 10000 1.5 0 07:27 20.02.2020
2613 Clouds 13 1027 62 10000 1.5 60 06:57 20.02.2020
2614 Clouds 13 1026 58 10000 2.1 140 06:38 20.02.2020
2615 Clouds 13 1026 54 10000 2.1 150 05:47 20.02.2020
2616 Clouds 13 1026 54 10000 2.1 150 05:24 20.02.2020
2617 Clouds 12 1027 57 10000 1.5 70 04:47 20.02.2020
2618 Clouds 12 1028 46 10000 2.6 50 03:46 20.02.2020
2619 Clouds 11 1029 53 10000 2.1 10 02:46 20.02.2020
2620 Clouds 9 1029 45 10000 1.5 0 01:25 20.02.2020
2621 Clouds 8 1029 45 10000 2.1 350 00:45 20.02.2020
2622 Clouds 7 1029 52 10000 4.1 350 00:24 20.02.2020
2623 Clouds 6 1029 49 10000 4.1 340 23:46 19.02.2020
2624 Clouds 5 1028 56 10000 4.1 340 23:18 19.02.2020
2625 Clouds 5 1028 56 10000 4.1 360 22:41 19.02.2020
2626 Clouds 5 1028 56 10000 4.1 360 22:23 19.02.2020
2627 Clouds 5 1028 47 10000 4.6 360 21:58 19.02.2020
2628 Clouds 5 1027 47 10000 4.1 350 21:39 19.02.2020
2629 Clouds 5 1027 47 10000 4.1 350 21:19 19.02.2020
2630 Clouds 5 1027 65 10000 4.6 350 20:57 19.02.2020
2631 Clouds 5 1027 70 10000 4.1 330 20:37 19.02.2020
2632 Clouds 5 1027 70 10000 4.1 330 20:19 19.02.2020
2633 Clouds 5 1027 44 10000 3.6 310 19:57 19.02.2020
2634 Clouds 5 1027 56 10000 3.1 310 19:37 19.02.2020
2635 Clouds 5 1027 56 10000 3.1 310 19:19 19.02.2020
2636 Clouds 6 1027 52 10000 3.1 300 18:57 19.02.2020
2637 Clouds 6 1027 44 10000 3.6 10 18:39 19.02.2020
2638 Clouds 6 1027 44 10000 3.6 10 18:20 19.02.2020
2639 Clouds 6 1027 70 10000 2.1 190 17:44 19.02.2020
2640 Clouds 6 1027 70 10000 2.1 190 17:20 19.02.2020
2641 Clouds 6 1027 61 10000 2.1 120 16:57 19.02.2020
2642 Clouds 7 1027 57 10000 1.5 260 16:38 19.02.2020
2643 Clouds 7 1027 57 10000 1.5 260 16:18 19.02.2020
2644 Clouds 7 1027 81 10000 3.1 140 15:43 19.02.2020
2645 Clouds 7 1027 81 10000 3.1 140 15:25 19.02.2020
2646 Clouds 7 1027 81 10000 3.1 140 15:25 19.02.2020
2647 Clouds 6 1027 70 10000 3.1 150 14:58 19.02.2020
2648 Clouds 6 1027 81 10000 4.1 150 14:39 19.02.2020
2649 Clouds 6 1027 81 10000 4.1 150 14:21 19.02.2020
2650 Clouds 7 1027 70 10000 4.1 140 13:42 19.02.2020
2651 Clouds 7 1027 70 10000 4.1 140 13:22 19.02.2020
2652 Clouds 8 1027 66 10000 4.1 140 12:55 19.02.2020
2653 Clouds 8 1026 61 10000 4.1 140 12:37 19.02.2020
2654 Clouds 8 1026 61 10000 4.1 140 12:18 19.02.2020
2655 Clouds 9 1026 39 10000 2.6 200 11:38 19.02.2020
2656 Clouds 9 1026 39 10000 2.6 200 11:20 19.02.2020
2657 Clouds 9 1026 39 10000 2.6 200 10:58 19.02.2020
2658 Clouds 10 1025 39 10000 2.6 170 10:38 19.02.2020
2659 Clouds 10 1025 39 10000 2.1 170 10:20 19.02.2020
2660 Clouds 10 1025 39 10000 2.1 170 09:59 19.02.2020
2661 Clouds 10 1025 39 10000 2.1 160 09:38 19.02.2020
2662 Clouds 11 1025 39 10000 2.1 160 09:19 19.02.2020
2663 Clouds 11 1025 40 10000 3.1 160 08:47 19.02.2020
2664 Clouds 12 1024 43 10000 3.6 150 08:24 19.02.2020
2665 Clouds 12 1025 43 10000 3.6 130 07:47 19.02.2020
2666 Clouds 12 1024 40 10000 4.1 130 07:29 19.02.2020
2667 Clouds 12 1024 32 10000 4.1 100 06:57 19.02.2020
2668 Clouds 12 1024 40 10000 3.1 120 06:34 19.02.2020
2669 Clouds 12 1024 40 10000 4.1 60 04:49 19.02.2020
2670 Clouds 11 1025 39 10000 4.6 30 03:50 19.02.2020
2671 Clouds 10 1025 36 10000 4.1 330 02:35 19.02.2020
2672 Clouds 8 1024 39 10000 4.1 320 01:33 19.02.2020
2673 Clouds 7 1024 39 10000 5.1 330 00:59 19.02.2020
2674 Clouds 7 1024 39 10000 8.7 330 00:36 19.02.2020
2675 Clouds 6 1024 39 10000 9.3 340 23:59 18.02.2020
2676 Clouds 5 1023 39 10000 9.8 340 23:39 18.02.2020
2677 Clouds 4 1023 39 10000 9.8 340 23:19 18.02.2020
2678 Clouds 4 1023 39 10000 9.8 340 23:19 18.02.2020
2679 Clouds 4 1023 39 10000 9.8 340 23:19 18.02.2020
2680 Clouds 4 1023 39 10000 9.8 340 23:19 18.02.2020
2681 Clouds 4 1023 39 10000 8.2 330 22:55 18.02.2020
2682 Clouds 3 1022 36 10000 8.2 330 22:36 18.02.2020
2683 Clouds 4 1022 36 10000 8.2 330 22:18 18.02.2020
2684 Clouds 3 1022 39 10000 7.2 330 21:38 18.02.2020
2685 Clouds 3 1022 39 10000 7.2 330 21:38 18.02.2020
2686 Clouds 3 1022 39 10000 7.2 330 21:38 18.02.2020
2687 Clouds 3 1022 39 10000 7.2 330 21:38 18.02.2020
2688 Clouds 3 1021 36 10000 7.2 330 21:20 18.02.2020
2689 Clouds 4 1021 36 10000 7.2 330 20:59 18.02.2020
2690 Clouds 3 1021 35 10000 6.7 320 20:39 18.02.2020
2691 Clouds 3 1021 35 10000 6.7 320 20:21 18.02.2020
2692 Clouds 3 1021 38 10000 5.7 320 19:57 18.02.2020
2693 Clouds 3 1021 38 10000 5.7 320 19:57 18.02.2020
2694 Clouds 3 1021 38 10000 6.2 330 19:39 18.02.2020
2695 Clouds 3 1021 38 10000 6.2 330 19:19 18.02.2020
2696 Clouds 3 1021 41 10000 4.1 320 18:42 18.02.2020
2697 Clouds 3 1021 41 10000 4.1 320 18:21 18.02.2020
2698 Clouds 4 1020 41 10000 3.6 320 17:58 18.02.2020
2699 Clouds 4 1020 41 10000 5.1 320 17:40 18.02.2020
2700 Clouds 4 1020 41 10000 5.1 320 17:19 18.02.2020
2701 Clouds 4 1019 38 10000 7.2 330 16:40 18.02.2020
2702 Clouds 5 1019 38 10000 7.2 330 16:21 18.02.2020
2703 Clouds 5 1019 36 10000 7.7 330 15:55 18.02.2020
2704 Clouds 5 1019 39 10000 6.2 330 15:36 18.02.2020
2705 Clouds 5 1019 39 10000 6.2 330 15:18 18.02.2020
2706 Clouds 5 1019 38 10000 5.1 320 14:55 18.02.2020
2707 Clouds 6 1019 39 10000 6.2 310 14:36 18.02.2020
2708 Clouds 6 1019 39 10000 6.2 310 14:18 18.02.2020
2709 Clouds 6 1018 36 10000 6.7 330 13:41 18.02.2020
2710 Clouds 6 1018 36 10000 6.7 330 13:21 18.02.2020
2711 Clouds 7 1017 33 10000 7.2 330 12:49 18.02.2020
2712 Clouds 7 1016 36 10000 7.2 330 12:30 18.02.2020
2713 Clouds 7 1016 42 10000 8.2 340 11:59 18.02.2020
2714 Clouds 8 1016 34 10000 9.3 340 11:41 18.02.2020
2715 Clouds 8 1016 34 10000 9.3 340 11:22 18.02.2020
2716 Clouds 9 1015 34 10000 8.2 350 10:45 18.02.2020
2717 Clouds 9 1014 31 10000 8.7 350 10:24 18.02.2020
2718 Clouds 9 1014 31 10000 8.7 350 10:24 18.02.2020
2719 Clouds 10 1014 34 10000 5.1 20 09:58 18.02.2020
2720 Clouds 10 1013 39 10000 4.6 100 09:39 18.02.2020
2721 Clouds 11 1012 37 10000 4.1 110 09:20 18.02.2020
2722 Clouds 11 1012 37 10000 4.1 110 08:58 18.02.2020
2723 Clouds 11 1011 40 10000 3.6 110 08:40 18.02.2020
2724 Clouds 11 1011 40 10000 3.6 110 08:20 18.02.2020
2725 Clouds 12 1011 40 10000 4.6 110 07:52 18.02.2020
2726 Clouds 12 1010 32 10000 4.1 110 07:29 18.02.2020
2727 Clouds 12 1010 43 10000 4.6 60 06:55 18.02.2020
2728 Clouds 12 1010 27 10000 3.1 40 06:32 18.02.2020
2729 Clouds 12 1009 39 10000 3.6 90 05:56 18.02.2020
2730 Clouds 11 1009 32 10000 4.6 130 05:23 18.02.2020
2731 Clouds 11 1010 34 10000 4.1 130 03:58 18.02.2020
2732 Clouds 10 1010 29 10000 3.1 130 02:58 18.02.2020
2733 Clouds 9 1011 34 10000 1.5 340 01:58 18.02.2020
2734 Clouds 8 1009 39 10000 4.1 270 00:46 18.02.2020
2735 Clouds 7 1009 39 10000 4.1 270 00:20 18.02.2020
2736 Clouds 6 1007 48 10000 4.1 260 23:44 17.02.2020
2737 Clouds 5 1007 48 10000 4.1 260 23:25 17.02.2020
2738 Clouds 4 1007 65 10000 3.1 270 22:59 17.02.2020
2739 Clouds 4 1006 65 10000 2.1 300 22:41 17.02.2020
2740 Clouds 4 1006 65 10000 2.1 300 22:20 17.02.2020
2741 Clouds 4 1005 65 10000 2.6 290 21:41 17.02.2020
2742 Clouds 4 1005 65 10000 3.6 270 21:20 17.02.2020
2743 Clouds 4 1004 60 10000 2.6 270 20:59 17.02.2020
2744 Rain 5 1004 65 10000 7.2 340 20:39 17.02.2020
2745 Rain 5 1004 65 10000 7.2 340 20:21 17.02.2020
2746 Rain 5 1004 65 10000 9.8 350 19:56 17.02.2020
2747 Clouds 5 1003 30 10000 8.7 260 19:38 17.02.2020
2748 Clouds 5 1003 30 10000 8.7 260 19:19 17.02.2020
2749 Clouds 6 1002 31 10000 12.9 220 18:37 17.02.2020
2750 Clouds 6 1002 31 10000 12.9 220 18:19 17.02.2020
2751 Clouds 7 1002 29 10000 10.3 220 17:57 17.02.2020
2752 Clouds 7 1002 34 10000 10.3 220 17:37 17.02.2020
2753 Clouds 6 1002 34 10000 10.3 220 17:18 17.02.2020
2754 Clouds 6 1002 34 10000 10.3 220 17:18 17.02.2020
2755 Clouds 7 1003 39 10000 8.2 240 16:54 17.02.2020
2756 Clouds 7 1004 93 16093 3.67 26 16:36 17.02.2020
2757 Clouds 7 1004 93 16093 3.67 26 16:18 17.02.2020
2758 Clouds 7 1003 70 10000 8.7 250 15:42 17.02.2020
2759 Clouds 7 1003 70 10000 8.7 250 15:23 17.02.2020
2760 Clouds 8 1002 31 10000 7.7 250 14:46 17.02.2020
2761 Clouds 8 1002 31 10000 7.7 250 14:46 17.02.2020
2762 Clouds 8 1002 31 10000 9.3 240 14:28 17.02.2020
2763 Clouds 9 1002 27 10000 8.7 240 13:59 17.02.2020
2764 Clouds 9 1002 29 10000 7.7 250 13:40 17.02.2020
2765 Clouds 10 1002 29 10000 7.7 250 13:20 17.02.2020
2766 Clouds 10 1002 29 10000 7.7 240 12:56 17.02.2020
2767 Clouds 10 1003 87 16093 3.1 20 12:37 17.02.2020
2768 Clouds 10 1003 87 16093 3.1 20 12:19 17.02.2020
2769 Clouds 10 1001 37 10000 8.2 220 11:43 17.02.2020
2770 Clouds 11 1001 37 10000 8.2 220 11:25 17.02.2020
2771 Clouds 11 1001 37 10000 9.8 210 10:56 17.02.2020
2772 Clouds 11 1000 35 10000 10.3 210 10:38 17.02.2020
2773 Clouds 11 1000 35 10000 10.3 210 10:19 17.02.2020
2774 Rain 12 1000 35 10000 8.7 210 09:56 17.02.2020
2775 Rain 12 1001 87 16093 5.1 20 09:37 17.02.2020
2776 Rain 13 999 41 10000 5.1 190 09:18 17.02.2020
2777 Rain 13 999 33 10000 8.7 210 08:41 17.02.2020
2778 Rain 13 999 33 10000 8.7 210 08:23 17.02.2020
2779 Rain 14 999 22 10000 8.2 230 07:57 17.02.2020
2780 Rain 14 999 72 10000 2.1 110 07:27 17.02.2020
2781 Clouds 14 998 33 10000 7.7 230 06:56 17.02.2020
2782 Clouds 14 999 76 10000 5.1 240 06:36 17.02.2020
2783 Clouds 14 999 76 10000 5.1 240 06:18 17.02.2020
2784 Clouds 14 999 67 10000 1.5 30 05:39 17.02.2020
2785 Clouds 13 1000 71 10000 1.5 300 04:23 17.02.2020
2786 Mist 13 1001 93 5000 2.6 10 02:44 17.02.2020
2787 Mist 11 1002 100 6437 2.6 30 00:59 17.02.2020
2788 Clouds 11 1002 100 16093 3.1 360 00:37 17.02.2020
2789 Clouds 11 1002 100 16093 3.1 360 00:18 17.02.2020
2790 Mist 10 1001 100 3219 2.1 20 23:41 16.02.2020
2791 Mist 10 1001 100 3219 2.1 20 23:22 16.02.2020
2792 Mist 10 1001 100 1810 3.1 20 22:55 16.02.2020
2793 Fog 10 1001 100 805 2.1 350 22:37 16.02.2020
2794 Fog 10 1001 100 805 2.1 350 22:18 16.02.2020
2795 Mist 10 1000 100 1609 2.1 30 21:43 16.02.2020
2796 Mist 10 1000 100 1609 2.1 30 21:24 16.02.2020
2797 Clouds 10 998 93 6000 3.1 30 20:59 16.02.2020
2798 Mist 10 1000 100 3017 3.83 239 20:40 16.02.2020
2799 Mist 10 1000 100 3017 4.37 219 20:22 16.02.2020
2800 Mist 10 1000 100 2012 2.1 30 19:59 16.02.2020
2801 Mist 10 1001 100 3219 1.5 50 19:40 16.02.2020
2802 Mist 10 1001 100 3219 1.5 50 19:19 16.02.2020
2803 Clouds 10 999 93 7000 3.1 340 18:59 16.02.2020
2804 Clouds 10 999 93 7000 2.6 340 18:41 16.02.2020
2805 Clouds 10 999 93 7000 2.6 340 18:22 16.02.2020
2806 Rain 10 999 93 8000 3.1 360 17:44 16.02.2020
2807 Rain 11 999 93 8000 3.1 360 17:21 16.02.2020
2808 Rain 11 999 93 9656 2.6 290 16:57 16.02.2020
2809 Rain 11 999 93 9656 2.6 290 16:57 16.02.2020
2810 Mist 11 999 100 6437 2.23 311 16:39 16.02.2020
2811 Mist 10 999 100 6437 2.23 311 16:21 16.02.2020
2812 Mist 10 1001 100 8047 2.1 10 15:57 16.02.2020
2813 Rain 10 1002 100 4828 3.1 360 15:38 16.02.2020
2814 Rain 10 1002 100 4828 3.1 360 15:18 16.02.2020
2815 Rain 10 1001 93 3500 3.6 320 14:40 16.02.2020
2816 Rain 10 1001 93 3500 3.6 320 14:22 16.02.2020
2817 Rain 10 1001 100 3219 2.1 350 13:47 16.02.2020
2818 Rain 10 1004 100 2012 3.1 20 13:24 16.02.2020
2819 Rain 10 1002 93 2400 2.1 10 12:56 16.02.2020
2820 Rain 10 1005 100 2816 3.1 20 12:38 16.02.2020
2821 Rain 10 1005 100 2816 3.1 20 12:19 16.02.2020
2822 Rain 10 1003 100 3017 2.6 340 11:39 16.02.2020
2823 Rain 10 1003 100 3017 2.6 340 11:19 16.02.2020
2824 Rain 10 1005 100 4426 2.1 30 10:57 16.02.2020
2825 Rain 10 1004 100 3621 2.6 20 10:39 16.02.2020
2826 Rain 10 1006 87 8047 2.1 20 10:21 16.02.2020
2827 Rain 10 1006 87 8047 2.1 20 09:57 16.02.2020
2828 Rain 10 1005 100 2816 1.5 350 09:37 16.02.2020
2829 Mist 10 1005 100 2816 1.5 350 09:19 16.02.2020
2830 Rain 10 1005 93 2000 3.1 20 08:47 16.02.2020
2831 Rain 10 1005 93 2000 3.1 20 08:22 16.02.2020
2832 Rain 10 1006 93 3000 1.5 350 07:56 16.02.2020
2833 Mist 11 1006 93 3000 1.5 320 07:34 16.02.2020
2834 Clouds 10 1007 81 14484 4.1 50 06:36 16.02.2020
2835 Rain 10 1007 93 3500 2.1 340 05:37 16.02.2020
2836 Rain 9 1010 93 2300 2.6 340 03:58 16.02.2020
2837 Rain 9 1011 93 2213 1.5 320 02:37 16.02.2020
2838 Rain 9 1012 93 3100 1 0 01:57 16.02.2020
2839 Rain 9 1012 87 7000 1.5 30 01:37 16.02.2020
2840 Rain 9 1012 87 7000 1.5 30 01:19 16.02.2020
2841 Rain 9 1013 81 8000 2.6 60 00:41 16.02.2020
2842 Rain 9 1013 81 8000 2.6 60 00:21 16.02.2020
2843 Clouds 9 1014 81 10000 1.5 70 23:42 15.02.2020
2844 Clouds 8 1014 81 10000 1.5 70 23:24 15.02.2020
2845 Clouds 8 1015 81 10000 0.5 0 22:57 15.02.2020
2846 Clouds 8 1015 87 10000 1.5 90 22:39 15.02.2020
2847 Clouds 8 1015 87 10000 1.5 90 22:19 15.02.2020
2848 Clouds 8 1014 87 10000 0.5 0 21:43 15.02.2020
2849 Clouds 8 1014 87 10000 1.5 20 21:24 15.02.2020
2850 Clouds 8 1014 87 10000 1 50 20:56 15.02.2020
2851 Clouds 8 1014 81 10000 1.5 330 20:37 15.02.2020
2852 Clouds 8 1015 76 10000 2.1 310 20:19 15.02.2020
2853 Clouds 8 1015 81 10000 3.1 280 19:41 15.02.2020
2854 Clouds 8 1015 81 10000 3.1 280 19:22 15.02.2020
2855 Clouds 8 1016 81 10000 2.6 290 18:41 15.02.2020
2856 Clouds 8 1017 87 10000 1.5 270 18:21 15.02.2020
2857 Clouds 9 1017 87 10000 1.5 270 17:57 15.02.2020
2858 Clouds 9 1017 93 10000 1.5 360 17:37 15.02.2020
2859 Clouds 9 1017 87 10000 0.5 0 17:19 15.02.2020
2860 Clouds 9 1017 100 10000 1 280 16:41 15.02.2020
2861 Clouds 9 1018 93 10000 2.1 170 16:23 15.02.2020
2862 Clouds 9 1017 93 10000 2.6 130 15:56 15.02.2020
2863 Clouds 9 1018 87 10000 1.5 110 15:38 15.02.2020
2864 Clouds 10 1018 87 10000 1.5 110 15:20 15.02.2020
2865 Clouds 10 1018 87 10000 2.1 90 14:43 15.02.2020
2866 Clouds 11 1019 87 10000 2.6 90 14:18 15.02.2020
2867 Clouds 11 1019 87 10000 1.5 90 13:43 15.02.2020
2868 Clouds 12 1019 87 10000 2.1 70 13:25 15.02.2020
2869 Clouds 12 1019 82 10000 2.6 40 12:59 15.02.2020
2870 Clouds 12 1019 82 10000 1.5 30 12:40 15.02.2020
2871 Clouds 12 1019 82 10000 1.5 30 12:21 15.02.2020
2872 Clouds 12 1019 76 10000 2.1 150 11:47 15.02.2020
2873 Clouds 12 1019 71 10000 2.1 150 11:27 15.02.2020
2874 Clouds 13 1019 82 10000 1.5 120 10:49 15.02.2020
2875 Clouds 14 1019 76 10000 3.1 130 10:30 15.02.2020
2876 Clouds 14 1019 67 10000 2.1 180 09:58 15.02.2020
2877 Clouds 15 1019 58 10000 2.6 190 09:39 15.02.2020
2878 -273 0 0 0 0 0 09:21 15.02.2020
2879 Clouds 15 1019 54 10000 3.1 190 08:43 15.02.2020
2880 Clouds 15 1019 62 10000 1.5 170 08:24 15.02.2020
2881 Clouds 16 1019 54 10000 2.6 180 07:51 15.02.2020
2882 Clouds 15 1019 62 10000 2.1 140 07:31 15.02.2020
2883 Clouds 16 1020 67 10000 2.1 120 06:54 15.02.2020
2884 Clouds 16 1019 67 10000 2.1 150 06:36 15.02.2020
2885 Clouds 16 1020 71 10000 2.1 130 05:41 15.02.2020
2886 Clouds 16 1021 62 10000 2.1 130 04:46 15.02.2020
2887 Clouds 15 1022 66 10000 1 0 03:43 15.02.2020
2888 Clouds 14 1022 71 10000 1 0 02:51 15.02.2020
2889 Clouds 14 1022 44 10000 1.5 320 02:23 15.02.2020
2890 Clouds 13 1022 50 10000 2.1 330 01:40 15.02.2020
2891 Clouds 11 1021 66 10000 2.1 20 00:42 15.02.2020
2892 Clouds 10 1021 66 10000 2.1 20 00:21 15.02.2020
2893 Fog 10 1021 100 6000 0.5 0 23:42 14.02.2020
2894 Clouds 8 1021 66 10000 3.1 30 23:20 14.02.2020
2895 Clouds 8 1021 71 10000 4.1 30 22:44 14.02.2020
2896 Clouds 8 1020 66 10000 4.1 10 22:24 14.02.2020
2897 Clouds 8 1020 71 10000 4.1 20 21:54 14.02.2020
2898 Clouds 8 1019 71 10000 3.6 10 21:36 14.02.2020
2899 Clouds 8 1019 71 10000 3.6 10 21:18 14.02.2020
2900 Clouds 8 1019 66 10000 5.1 10 20:42 14.02.2020
2901 Clouds 8 1019 66 10000 3.1 10 20:19 14.02.2020
2902 Clouds 8 1019 66 10000 3.1 10 19:56 14.02.2020
2903 Clouds 9 1018 71 10000 3.1 350 19:38 14.02.2020
2904 Clouds 9 1019 71 10000 1.5 20 19:18 14.02.2020
2905 Clouds 9 1019 71 10000 1.5 20 18:55 14.02.2020
2906 Clouds 9 1018 71 10000 1.5 60 18:37 14.02.2020
2907 Clouds 9 1018 81 10000 3.1 20 18:18 14.02.2020
2908 Clouds 9 1019 81 10000 4.1 340 17:41 14.02.2020
2909 Clouds 9 1019 81 10000 4.1 340 17:19 14.02.2020
2910 Clouds 9 1019 87 10000 3.6 300 16:57 14.02.2020
2911 Clouds 9 1018 93 10000 2.6 290 16:38 14.02.2020
2912 Clouds 9 1018 93 10000 2.6 290 16:19 14.02.2020
2913 Clouds 9 1018 93 10000 1 350 15:54 14.02.2020
2914 Clouds 10 1018 93 10000 1 90 15:36 14.02.2020
2915 Fog 10 1018 93 10000 1.5 290 15:18 14.02.2020
2916 Clouds 11 1018 87 10000 1 0 14:42 14.02.2020
2917 Clouds 11 1018 87 10000 1 0 14:23 14.02.2020
2918 Clouds 11 1018 87 10000 1.5 10 13:59 14.02.2020
2919 Clouds 11 1018 82 10000 2.1 20 13:39 14.02.2020
2920 Clouds 11 1018 82 10000 2.1 20 13:20 14.02.2020
2921 Clouds 11 1018 82 10000 2.1 20 13:20 14.02.2020
2922 Clouds 11 1018 82 10000 2.1 20 13:20 14.02.2020
2923 Clouds 12 1018 82 10000 1.5 10 12:57 14.02.2020
2924 Clouds 12 1018 87 10000 0.5 0 12:39 14.02.2020
2925 Clouds 12 1018 87 10000 0.5 0 12:20 14.02.2020
2926 Clouds 13 1017 87 10000 1.5 120 11:58 14.02.2020
2927 Rain 13 1017 82 10000 0.5 0 11:40 14.02.2020
2928 Rain 13 1017 82 10000 0.5 0 11:20 14.02.2020
2929 Rain 13 1017 82 10000 0.5 0 10:44 14.02.2020
2930 Clouds 13 1019 76 16093 2.1 200 10:25 14.02.2020
2931 Rain 14 1017 87 12874 1.5 160 09:57 14.02.2020
2932 Rain 14 1017 87 12874 1.5 160 09:57 14.02.2020
2933 Rain 14 1017 71 10000 3.6 0 09:38 14.02.2020
2934 Rain 14 1017 71 10000 3.6 0 09:19 14.02.2020
2935 Clouds 15 1017 67 10000 2.1 160 08:40 14.02.2020
2936 Clouds 15 1017 67 10000 2.1 160 08:22 14.02.2020
2937 Clouds 15 1018 58 10000 1 0 07:51 14.02.2020
2938 Clouds 15 1018 58 10000 1 0 07:33 14.02.2020
2939 Clouds 16 1018 67 10000 2.1 100 06:55 14.02.2020
2940 Clouds 16 1017 62 9000 1 0 06:23 14.02.2020
2941 Clouds 16 1017 76 9000 2.1 150 05:44 14.02.2020
2942 Clouds 16 1018 71 7000 1.5 100 04:22 14.02.2020
2943 Clouds 15 1019 62 9000 2.1 310 03:28 14.02.2020
2944 Rain 13 1020 71 9000 1.5 0 02:29 14.02.2020
2945 Clouds 12 1020 66 10000 2.6 270 01:25 14.02.2020
2946 Mist 11 1020 100 4900 1.5 20 00:42 14.02.2020
2947 Mist 11 1020 100 4900 1.5 20 00:21 14.02.2020
2948 Clouds 10 1020 87 10000 0.5 50 23:43 13.02.2020
2949 Clouds 8 1019 93 10000 0.5 0 23:20 13.02.2020
2950 Mist 8 1019 93 1600 1 0 22:43 13.02.2020
2951 Clouds 8 1018 93 10000 2.6 30 22:20 13.02.2020
2952 Clouds 8 1018 93 10000 1 0 21:59 13.02.2020
2953 Mist 8 1018 100 3200 1.5 240 21:40 13.02.2020
2954 Clear 8 1017 81 10000 2.1 80 21:22 13.02.2020
2955 Fog 8 1017 87 10000 2.1 100 20:56 13.02.2020
2956 Fog 9 1017 100 6000 2.1 110 20:38 13.02.2020
2957 Fog 8 1017 100 6000 2.1 110 20:19 13.02.2020
2958 Fog 9 1017 100 900 2.6 140 19:55 13.02.2020
2959 Fog 9 1017 100 900 2.6 140 19:36 13.02.2020
2960 Fog 9 1017 100 900 2.6 140 19:18 13.02.2020
2961 Mist 10 1016 100 5000 1.5 0 18:42 13.02.2020
2962 Mist 10 1016 100 5000 1.5 0 18:23 13.02.2020
2963 Clouds 10 1016 100 6000 1 140 17:59 13.02.2020
2964 Mist 10 1016 93 5000 1 100 17:40 13.02.2020
2965 Mist 10 1016 93 5000 1 100 17:40 13.02.2020
2966 Mist 10 1016 93 5000 1 70 17:20 13.02.2020
2967 Mist 10 1016 93 5000 1 70 16:58 13.02.2020
2968 Mist 11 1016 93 5000 1 350 16:37 13.02.2020
2969 Mist 11 1016 93 5000 1 350 16:19 13.02.2020
2970 Mist 11 1016 93 5000 2.6 340 15:56 13.02.2020
2971 Mist 11 1015 93 5000 2.1 360 15:37 13.02.2020
2972 Mist 11 1015 93 5000 2.1 360 15:19 13.02.2020
2973 Mist 11 1015 93 4000 2.1 120 14:56 13.02.2020
2974 Mist 12 1015 87 5000 3.1 360 14:37 13.02.2020
2975 Mist 12 1015 87 5000 3.1 360 14:19 13.02.2020
2976 Clouds 13 1015 87 8000 3.6 20 13:44 13.02.2020
2977 Clouds 13 1015 87 8000 3.6 20 13:44 13.02.2020
2978 Clouds 13 1015 82 10000 4.1 30 13:18 13.02.2020
2979 Clouds 13 1015 82 10000 4.1 30 13:18 13.02.2020
2980 Clouds 13 1015 82 10000 4.1 30 12:56 13.02.2020
2981 Clouds 13 1014 76 10000 3.6 350 12:37 13.02.2020
2982 Clouds 13 1014 76 10000 3.6 350 12:19 13.02.2020
2983 Clouds 14 1013 82 10000 1.5 10 11:43 13.02.2020
2984 Clouds 14 1012 87 10000 2.1 10 11:20 13.02.2020
2985 Clouds 15 1012 87 10000 1 0 10:48 13.02.2020
2986 Clouds 15 1012 67 10000 1 350 10:28 13.02.2020
2987 Clouds 15 1011 76 10000 2.6 350 09:55 13.02.2020
2988 Clouds 16 1010 82 10000 1.5 350 09:37 13.02.2020
2989 Clouds 16 1010 82 10000 1.5 350 09:18 13.02.2020
2990 Clouds 17 1010 67 10000 1 0 08:41 13.02.2020
2991 Clouds 18 1010 67 10000 1 0 08:19 13.02.2020
2992 Clouds 18 1010 71 10000 2.6 140 07:40 13.02.2020
2993 Clouds 19 1010 48 10000 1 0 07:22 13.02.2020
2994 Clouds 18 1011 71 10000 1.5 110 06:49 13.02.2020
2995 Clouds 18 1011 66 10000 3.1 140 06:31 13.02.2020
2996 Clouds 16 1011 66 10000 3.6 140 05:38 13.02.2020
2997 Clouds 13 1012 58 10000 2.6 60 04:28 13.02.2020
2998 Rain 12 1014 57 10000 2.6 20 03:57 13.02.2020
2999 Rain 11 1014 71 8000 1.5 0 03:29 13.02.2020
3000 Rain 9 1015 66 10000 3.6 10 02:55 13.02.2020
3001 Rain 9 1016 57 16093 3.1 350 02:20 13.02.2020
3002 Rain 9 1014 75 7000 4.1 360 02:20 13.02.2020
3003 Rain 8 1015 75 3000 6.7 350 01:40 13.02.2020
3004 Rain 8 1015 75 3000 6.7 350 01:40 13.02.2020
3005 Rain 8 1015 75 3000 6.7 350 01:40 13.02.2020
3006 Rain 8 1015 75 3000 6.7 350 01:40 13.02.2020
3007 Rain 11 1015 71 10000 5.7 340 00:45 13.02.2020
3008 Rain 11 1015 71 10000 5.7 340 00:26 13.02.2020
3009 Rain 11 1015 82 10000 5.7 220 23:42 12.02.2020
3010 Rain 11 1015 82 10000 5.7 220 23:23 12.02.2020
3011 Rain 11 1016 77 10000 6.2 210 22:56 12.02.2020
3012 Clouds 11 1015 77 10000 5.1 190 22:38 12.02.2020
3013 Clouds 11 1015 77 10000 5.1 190 22:20 12.02.2020
3014 Clouds 11 1016 77 10000 5.7 200 21:55 12.02.2020
3015 Clouds 11 1016 72 10000 4.1 170 21:36 12.02.2020
3016 Clouds 11 1016 72 10000 4.1 170 21:18 12.02.2020
3017 Clouds 11 1018 72 10000 8.2 220 20:42 12.02.2020
3018 Clouds 11 1018 72 10000 8.2 220 20:24 12.02.2020
3019 Clouds 11 1017 71 10000 8.2 230 19:57 12.02.2020
3020 Rain 11 1017 71 10000 6.7 230 19:38 12.02.2020
3021 Rain 11 1017 71 10000 6.7 230 19:20 12.02.2020
3022 Rain 11 1018 71 10000 8.7 230 18:49 12.02.2020
3023 Clouds 11 1019 71 10000 9.8 230 18:20 12.02.2020
3024 Clouds 11 1019 67 10000 9.3 230 17:58 12.02.2020
3025 Clouds 11 1019 58 10000 9.3 240 17:39 12.02.2020
3026 Clouds 11 1019 58 10000 9.3 240 17:19 12.02.2020
3027 Clouds 11 1019 71 10000 9.3 230 16:56 12.02.2020
3028 Rain 11 1019 62 10000 7.7 220 16:36 12.02.2020
3029 Rain 11 1019 62 10000 7.7 220 16:18 12.02.2020
3030 Rain 11 1019 62 10000 7.7 220 16:18 12.02.2020
3031 Rain 12 1020 62 10000 8.2 230 15:38 12.02.2020
3032 Rain 12 1020 62 10000 8.2 230 15:19 12.02.2020
3033 Clouds 12 1021 50 10000 3.6 270 14:43 12.02.2020
3034 Clouds 12 1021 50 10000 3.6 270 14:43 12.02.2020
3035 Clouds 11 1021 50 10000 3.6 270 14:21 12.02.2020
3036 Clouds 12 1022 50 10000 4.1 270 13:59 12.02.2020
3037 Clouds 12 1021 50 10000 6.2 240 13:40 12.02.2020
3038 Clouds 12 1021 50 10000 6.2 240 13:22 12.02.2020
3039 Clouds 12 1022 54 10000 8.2 230 12:58 12.02.2020
3040 Clouds 12 1022 58 10000 9.3 230 12:39 12.02.2020
3041 Clouds 12 1022 58 10000 9.3 230 12:19 12.02.2020
3042 Clouds 12 1022 58 10000 8.2 230 11:59 12.02.2020
3043 Clouds 12 1022 54 10000 7.2 230 11:41 12.02.2020
3044 Clouds 12 1022 54 10000 7.2 230 11:21 12.02.2020
3045 Clouds 13 1022 54 10000 9.3 230 10:58 12.02.2020
3046 Clouds 13 1022 54 10000 9.3 230 10:58 12.02.2020
3047 Clouds 13 1022 51 10000 9.8 230 10:40 12.02.2020
3048 Clouds 13 1022 51 10000 9.8 230 10:20 12.02.2020
3049 Clouds 14 1022 51 10000 8.7 230 09:56 12.02.2020
3050 Clouds 14 1022 51 10000 7.2 210 09:38 12.02.2020
3051 Clouds 14 1022 51 10000 7.2 210 09:18 12.02.2020
3052 Clouds 15 1022 47 10000 8.7 220 08:55 12.02.2020
3053 Clouds 15 1022 44 10000 4.1 220 08:36 12.02.2020
3054 Clouds 15 1022 44 10000 4.1 220 08:18 12.02.2020
3055 Clouds 16 1022 44 10000 9.8 230 07:42 12.02.2020
3056 Clouds 16 1022 44 10000 6.2 220 07:22 12.02.2020
3057 Clouds 16 1022 44 10000 9.8 210 06:52 12.02.2020
3058 Clouds 15 1023 50 10000 2.6 90 06:20 12.02.2020
3059 Clouds 14 1024 50 10000 2.1 120 05:35 12.02.2020
3060 Clouds 12 1024 57 10000 2.6 90 04:56 12.02.2020
3061 Clouds 12 1025 45 10000 2.1 130 04:38 12.02.2020
3062 Clouds 11 1027 45 10000 1.5 70 03:31 12.02.2020
3063 Clouds 9 1028 48 10000 1.5 80 02:58 12.02.2020
3064 Clouds 8 1027 45 10000 1 0 02:28 12.02.2020
3065 Clouds 7 1028 48 10000 1.5 30 01:42 12.02.2020
3066 Clouds 5 1028 48 10000 2.1 330 00:45 12.02.2020
3067 Clouds 5 1028 48 10000 2.6 320 00:25 12.02.2020
3068 Clouds 4 1028 56 10000 2.6 330 23:55 11.02.2020
3069 Clouds 4 1028 56 10000 2.6 330 23:55 11.02.2020
3070 Clouds 3 1028 55 10000 3.6 340 23:37 11.02.2020
3071 Clouds 2 1028 55 10000 3.6 340 23:18 11.02.2020
3072 Clouds 2 1028 52 10000 3.6 320 22:55 11.02.2020
3073 Clouds 2 1027 56 10000 3.6 20 22:36 11.02.2020
3074 Clouds 2 1027 56 10000 3.6 20 22:18 11.02.2020
3075 Clouds 2 1027 56 10000 3.6 20 21:55 11.02.2020
3076 Clouds 2 1027 52 10000 4.1 10 21:36 11.02.2020
3077 Clouds 2 1027 52 10000 4.1 10 21:18 11.02.2020
3078 Clouds 2 1027 52 10000 4.1 10 21:18 11.02.2020
3079 Clouds 2 1027 52 10000 3.1 10 20:39 11.02.2020
3080 Clouds 2 1027 52 10000 3.1 10 20:39 11.02.2020
3081 Clouds 2 1027 52 10000 3.1 10 20:20 11.02.2020
3082 Clouds 2 1028 52 10000 2.6 350 19:59 11.02.2020
3083 Clouds 3 1028 52 10000 3.6 350 19:41 11.02.2020
3084 Clouds 3 1028 52 10000 3.6 350 19:23 11.02.2020
3085 Clouds 3 1028 52 10000 3.6 320 18:55 11.02.2020
3086 Clouds 3 1028 56 10000 3.1 300 18:37 11.02.2020
3087 Clouds 3 1028 56 10000 3.1 300 18:19 11.02.2020
3088 Clouds 3 1029 52 10000 2.6 310 17:54 11.02.2020
3089 Clouds 3 1028 52 10000 2.6 310 17:36 11.02.2020
3090 Clouds 3 1028 52 10000 2.6 310 17:18 11.02.2020
3091 Clouds 3 1028 52 10000 2.6 310 17:18 11.02.2020
3092 Clouds 3 1029 48 10000 3.6 300 16:55 11.02.2020
3093 Clouds 3 1029 52 10000 3.1 320 16:36 11.02.2020
3094 Clouds 4 1029 52 10000 3.1 320 16:18 11.02.2020
3095 Clouds 4 1029 61 10000 0.5 100 15:43 11.02.2020
3096 Clouds 4 1029 61 10000 0.5 100 15:23 11.02.2020
3097 Clouds 4 1029 61 10000 2.1 120 14:44 11.02.2020
3098 Clouds 4 1029 61 10000 2.1 120 14:20 11.02.2020
3099 Clouds 4 1029 65 10000 2.6 140 13:59 11.02.2020
3100 Clouds 5 1029 65 10000 2.6 130 13:41 11.02.2020
3101 Clouds 5 1029 65 10000 2.6 130 13:21 11.02.2020
3102 Clouds 5 1029 49 10000 4.1 120 12:58 11.02.2020
3103 Clouds 5 1029 39 10000 3.1 290 12:39 11.02.2020
3104 Clouds 6 1029 39 10000 3.1 290 12:20 11.02.2020
3105 Clouds 7 1028 34 10000 2.6 220 11:41 11.02.2020
3106 Clouds 7 1028 34 10000 2.6 220 11:20 11.02.2020
3107 Clouds 8 1028 34 10000 3.6 200 10:57 11.02.2020
3108 Clouds 8 1028 34 10000 4.1 190 10:38 11.02.2020
3109 Clouds 8 1028 34 10000 4.1 190 10:20 11.02.2020
3110 Clouds 9 1028 31 10000 4.1 180 09:56 11.02.2020
3111 Clouds 9 1027 34 10000 4.1 190 09:38 11.02.2020
3112 Clouds 10 1027 34 10000 4.1 190 09:19 11.02.2020
3113 Clouds 10 1027 31 10000 3.6 160 08:44 11.02.2020
3114 Clouds 11 1026 32 10000 2.1 170 08:23 11.02.2020
3115 Clouds 11 1026 34 10000 2.6 110 07:48 11.02.2020
3116 Clouds 11 1025 27 10000 2.1 320 07:26 11.02.2020
3117 Clouds 11 1025 27 10000 2.6 300 06:44 11.02.2020
3118 Clouds 11 1025 27 10000 2.6 300 06:22 11.02.2020
3119 Clouds 11 1025 34 10000 4.6 350 05:58 11.02.2020
3120 Clouds 10 1025 25 10000 4.6 330 05:25 11.02.2020
3121 Clouds 10 1025 27 10000 3.6 330 04:42 11.02.2020
3122 Clouds 9 1026 34 10000 3.6 350 03:26 11.02.2020
3123 Clouds 8 1026 36 10000 3.6 310 02:33 11.02.2020
3124 Clouds 6 1026 45 10000 2.6 320 01:38 11.02.2020
3125 Clouds 5 1025 52 10000 2.6 20 00:42 11.02.2020
3126 Clouds 5 1025 52 10000 2.6 20 00:22 11.02.2020
3127 Clouds 3 1024 56 10000 4.1 20 23:39 10.02.2020
3128 Clouds 2 1024 56 10000 4.1 20 23:20 10.02.2020
3129 Clouds 2 1023 56 10000 5.1 20 22:42 10.02.2020
3130 Clouds 2 1023 56 10000 5.1 20 22:21 10.02.2020
3131 Clouds 2 1022 56 10000 4.6 10 21:57 10.02.2020
3132 Clouds 3 1021 56 10000 4.6 10 21:39 10.02.2020
3133 Clouds 3 1021 56 10000 4.6 10 21:21 10.02.2020
3134 Clouds 3 1021 56 10000 4.6 10 20:54 10.02.2020
3135 Clouds 3 1020 52 10000 5.1 10 20:36 10.02.2020
3136 Clouds 3 1020 52 10000 5.1 10 20:18 10.02.2020
3137 Clouds 3 1021 52 10000 5.7 360 19:56 10.02.2020
3138 Clouds 3 1020 52 10000 5.1 10 19:36 10.02.2020
3139 Clouds 3 1020 52 10000 5.1 10 19:18 10.02.2020
3140 Clouds 3 1020 52 10000 5.7 330 18:55 10.02.2020
3141 Clouds 4 1020 52 10000 8.7 350 18:37 10.02.2020
3142 Clouds 4 1020 52 10000 8.7 350 18:18 10.02.2020
3143 Clouds 5 1018 52 10000 8.2 330 17:39 10.02.2020
3144 Clouds 5 1018 52 10000 8.2 330 17:21 10.02.2020
3145 Clouds 5 1018 48 10000 8.2 330 16:59 10.02.2020
3146 Clouds 5 1018 48 10000 7.2 330 16:40 10.02.2020
3147 Clouds 4 1018 48 10000 7.2 330 16:20 10.02.2020
3148 Clouds 5 1017 52 10000 6.2 330 15:58 10.02.2020
3149 Clouds 5 1017 48 10000 8.2 330 15:39 10.02.2020
3150 Clouds 5 1017 48 10000 8.2 330 15:21 10.02.2020
3151 Clouds 5 1016 42 10000 7.7 340 14:57 10.02.2020
3152 Clouds 5 1016 42 10000 7.7 350 14:39 10.02.2020
3153 Clouds 5 1016 42 10000 7.7 350 14:19 10.02.2020
3154 Clouds 4 1015 52 10000 3.6 360 13:44 10.02.2020
3155 Clouds 5 1015 52 10000 3.6 360 13:26 10.02.2020
3156 Clouds 5 1014 52 10000 3.6 10 12:59 10.02.2020
3157 Clouds 5 1014 52 10000 3.1 10 12:41 10.02.2020
3158 Clouds 5 1014 52 10000 3.1 10 12:22 10.02.2020
3159 Clouds 5 1013 49 10000 3.1 10 11:46 10.02.2020
3160 Clouds 6 1013 37 10000 2.1 30 11:21 10.02.2020
3161 Clouds 6 1012 52 10000 1.5 50 10:58 10.02.2020
3162 Clouds 6 1012 52 10000 2.1 60 10:39 10.02.2020
3163 Clouds 6 1012 52 10000 2.1 60 10:21 10.02.2020
3164 Clouds 8 1012 37 10000 2.1 90 09:42 10.02.2020
3165 Clouds 8 1012 37 10000 2.1 90 09:23 10.02.2020
3166 Clouds 9 1011 45 10000 2.1 140 08:41 10.02.2020
3167 Clouds 9 1011 45 10000 2.1 140 08:22 10.02.2020
3168 Clouds 9 1011 52 10000 2.6 60 07:55 10.02.2020
3169 Clouds 9 1011 49 10000 3.1 120 07:35 10.02.2020
3170 Clouds 10 1012 56 10000 2.6 70 06:53 10.02.2020
3171 Clouds 9 1012 45 10000 2.6 120 05:41 10.02.2020
3172 Clouds 7 1013 42 10000 1.5 130 04:23 10.02.2020
3173 Clouds 7 1014 38 10000 1 0 03:28 10.02.2020
3174 Clouds 6 1015 48 10000 1.5 40 02:53 10.02.2020
3175 Clouds 3 1015 40 10000 2.1 30 01:36 10.02.2020
3176 Clouds 3 1016 44 10000 2.6 360 00:46 10.02.2020
3177 Clouds 2 1016 44 10000 2.6 360 00:27 10.02.2020
3178 Clouds 1 1016 51 10000 4.1 20 23:44 09.02.2020
3179 Clouds 0 1016 51 10000 4.1 20 23:26 09.02.2020
3180 Clouds 0 1016 51 10000 4.6 20 22:58 09.02.2020
3181 Clouds 0 1016 51 10000 5.7 10 22:38 09.02.2020
3182 Clouds 0 1016 51 10000 5.7 10 22:19 09.02.2020
3183 Clouds 0 1015 51 10000 5.7 360 21:41 09.02.2020
3184 Clouds 0 1015 51 10000 5.7 360 21:22 09.02.2020
3185 Clouds 0 1016 55 10000 7.2 350 20:47 09.02.2020
3186 Clouds 0 1015 55 10000 5.7 350 20:23 09.02.2020
3187 Clouds 0 1016 51 10000 5.1 20 19:57 09.02.2020
3188 Clouds 0 1015 51 10000 6.2 350 19:39 09.02.2020
3189 Clouds 0 1015 51 10000 6.2 350 19:20 09.02.2020
3190 Clouds 0 1016 43 10000 6.7 330 18:54 09.02.2020
3191 Clouds 1 1016 47 10000 7.7 340 18:36 09.02.2020
3192 Clouds 0 1016 44 10000 6.7 350 18:18 09.02.2020
3193 Clouds 1 1016 44 10000 6.7 360 17:40 09.02.2020
3194 Clouds 1 1016 44 10000 6.7 360 17:22 09.02.2020
3195 Clouds 1 1016 44 10000 6.7 360 17:21 09.02.2020
3196 Clouds 1 1017 40 10000 6.7 350 16:44 09.02.2020
3197 Clouds 1 1017 40 10000 6.7 350 16:24 09.02.2020
3198 Clouds 1 1017 38 10000 7.7 330 15:59 09.02.2020
3199 Clouds 1 1017 38 10000 7.7 330 15:41 09.02.2020
3200 Clouds 1 1017 38 10000 7.7 330 15:22 09.02.2020
3201 Clouds 2 1017 38 10000 8.2 330 14:57 09.02.2020
3202 Clouds 2 1017 37 10000 7.7 330 14:39 09.02.2020
3203 Clouds 2 1017 37 10000 7.7 330 14:21 09.02.2020
3204 Clouds 2 1016 35 10000 10.3 330 13:44 09.02.2020
3205 Clouds 2 1016 35 10000 10.3 330 13:26 09.02.2020
3206 Clouds 2 1017 35 10000 8.2 330 12:57 09.02.2020
3207 Clouds 2 1016 35 10000 10.3 330 12:38 09.02.2020
3208 Clouds 3 1016 35 10000 10.3 330 12:19 09.02.2020
3209 Clouds 3 1017 35 10000 8.2 330 11:41 09.02.2020
3210 Clouds 3 1017 35 10000 8.2 330 11:22 09.02.2020
3211 Clouds 4 1017 32 10000 8.2 330 10:59 09.02.2020
3212 Clouds 4 1017 32 10000 8.2 330 10:41 09.02.2020
3213 Clouds 4 1017 35 10000 7.2 340 10:21 09.02.2020
3214 Clouds 5 1016 30 10000 7.2 350 09:46 09.02.2020
3215 Clouds 5 1016 30 10000 7.2 350 09:27 09.02.2020
3216 Clouds 6 1015 35 10000 7.2 350 08:54 09.02.2020
3217 Clouds 7 1015 24 10000 4.6 330 08:36 09.02.2020
3218 Clouds 7 1015 24 10000 4.6 330 08:18 09.02.2020
3219 Clouds 7 1015 24 10000 5.1 330 07:44 09.02.2020
3220 Clouds 7 1015 33 10000 8.2 350 06:54 09.02.2020
3221 Clouds 7 1015 24 10000 6.2 300 06:36 09.02.2020
3222 Clouds 7 1015 24 10000 4.6 310 05:45 09.02.2020
3223 Clouds 7 1015 24 10000 4.6 310 05:20 09.02.2020
3224 Clouds 6 1016 30 10000 9.3 330 03:53 09.02.2020
3225 Clear 6 1017 28 16093 6.7 30 02:47 09.02.2020
3226 Clouds 5 1017 29 10000 5.7 310 02:27 09.02.2020
3227 Clouds 4 1017 34 10000 4.6 330 01:35 09.02.2020
3228 Clouds 3 1017 34 10000 5.1 330 00:52 09.02.2020
3229 Clouds 2 1017 40 10000 10.8 330 00:28 09.02.2020
3230 Clouds 1 1017 47 10000 9.8 340 23:45 08.02.2020
3231 Clouds 1 1016 47 10000 10.8 350 23:23 08.02.2020
3232 Clouds 1 1015 51 10000 11.3 350 22:56 08.02.2020
3233 Clouds 1 1014 55 10000 13.4 350 22:38 08.02.2020
3234 Clouds 1 1014 55 10000 13.4 350 22:20 08.02.2020
3235 Clouds 2 1014 51 10000 14.9 350 21:44 08.02.2020
3236 Clouds 2 1013 51 10000 12.9 340 21:25 08.02.2020
3237 Clouds 2 1013 55 10000 11.8 340 20:58 08.02.2020
3238 Clouds 2 1013 44 10000 6.7 340 20:39 08.02.2020
3239 Clouds 2 1013 44 10000 6.7 340 20:19 08.02.2020
3240 Clouds 2 1013 55 10000 7.2 360 19:56 08.02.2020
3241 Clouds 2 1013 51 10000 6.7 10 19:38 08.02.2020
3242 Clouds 2 1013 51 10000 6.7 10 19:19 08.02.2020
3243 Clouds 2 1013 51 10000 7.7 10 18:44 08.02.2020
3244 Clouds 2 1013 51 10000 6.7 10 18:25 08.02.2020
3245 Clouds 3 1013 51 10000 7.2 10 17:59 08.02.2020
3246 Clouds 3 1013 52 10000 8.2 10 17:41 08.02.2020
3247 Clouds 3 1013 52 10000 8.2 10 17:18 08.02.2020
3248 Clouds 4 1013 48 10000 6.7 10 16:40 08.02.2020
3249 Clouds 4 1013 48 10000 6.7 10 16:22 08.02.2020
3250 Rain 4 1013 48 10000 7.7 10 15:57 08.02.2020
3251 Rain 4 1013 48 10000 7.2 360 15:39 08.02.2020
3252 Rain 4 1013 48 10000 7.2 360 15:18 08.02.2020
3253 Rain 4 1013 48 10000 7.2 360 15:18 08.02.2020
3254 Clouds 5 1013 56 10000 6.7 30 14:44 08.02.2020
3255 Clouds 5 1013 56 10000 6.7 30 14:21 08.02.2020
3256 Clouds 6 1013 52 10000 7.2 40 13:57 08.02.2020
3257 Rain 6 1012 56 10000 7.2 40 13:38 08.02.2020
3258 Rain 6 1012 56 10000 7.2 40 13:38 08.02.2020
3259 Rain 6 1012 56 10000 7.2 40 13:20 08.02.2020
3260 Clouds 7 1011 49 10000 8.2 60 12:40 08.02.2020
3261 Clouds 7 1011 49 10000 8.2 60 12:22 08.02.2020
3262 Clouds 7 1011 56 10000 5.7 10 11:56 08.02.2020
3263 Clouds 8 1011 57 10000 7.7 50 11:38 08.02.2020
3264 Clouds 8 1011 57 10000 7.7 50 11:19 08.02.2020
3265 Clouds 9 1011 30 10000 6.7 60 10:42 08.02.2020
3266 Clouds 9 1011 30 10000 6.7 60 10:22 08.02.2020
3267 Clouds 10 1011 32 10000 7.7 330 09:51 08.02.2020
3268 Clouds 10 1010 37 10000 7.2 360 09:27 08.02.2020
3269 Clouds 11 1009 37 10000 6.2 30 08:54 08.02.2020
3270 Clouds 12 1009 34 10000 4.6 30 08:36 08.02.2020
3271 Clouds 12 1009 34 10000 4.6 30 08:18 08.02.2020
3272 Clouds 12 1010 40 10000 5.7 40 07:44 08.02.2020
3273 Clouds 12 1010 34 10000 3.6 20 07:20 08.02.2020
3274 Clear 12 1011 32 16093 6.2 20 06:29 08.02.2020
3275 Clouds 12 1010 37 10000 3.6 60 05:48 08.02.2020
3276 Clouds 11 1010 34 10000 4.6 30 05:30 08.02.2020
3277 Clouds 11 1010 34 10000 4.6 30 05:30 08.02.2020
3278 Clouds 11 1011 43 10000 5.1 50 04:49 08.02.2020
3279 Clouds 10 1013 39 10000 5.7 20 03:52 08.02.2020
3280 Clouds 9 1014 52 10000 3.1 30 02:52 08.02.2020
3281 Clouds 7 1014 45 10000 1 0 01:53 08.02.2020
3282 Clouds 5 1014 52 10000 1 0 01:24 08.02.2020
3283 Clouds 5 1014 60 10000 2.6 20 00:43 08.02.2020
3284 Clouds 3 1014 60 10000 2.6 20 00:22 08.02.2020
3285 Clouds 3 1014 60 10000 2.1 360 23:55 07.02.2020
3286 Clouds 1 1014 55 10000 1.5 330 23:37 07.02.2020
3287 Clouds 1 1015 51 10000 1.5 320 23:18 07.02.2020
3288 Clouds 1 1015 51 10000 1.5 330 22:39 07.02.2020
3289 Clouds 1 1015 51 10000 1.5 330 22:19 07.02.2020
3290 Clouds 1 1015 51 10000 1 270 21:43 07.02.2020
3291 Clouds 1 1015 51 10000 1 270 21:22 07.02.2020
3292 Clouds 1 1016 51 10000 2.1 300 20:58 07.02.2020
3293 Clouds 1 1016 51 10000 0.5 0 20:38 07.02.2020
3294 Clouds 1 1016 51 10000 0.5 0 20:18 07.02.2020
3295 Clouds 1 1016 51 10000 1.5 290 19:42 07.02.2020
3296 Clouds 1 1016 51 10000 1.5 290 19:22 07.02.2020
3297 Clouds 2 1017 51 10000 2.1 310 18:58 07.02.2020
3298 Clouds 2 1017 51 10000 3.1 310 18:40 07.02.2020
3299 Clouds 2 1017 51 10000 3.1 310 18:21 07.02.2020
3300 Clouds 2 1018 55 10000 3.6 310 17:43 07.02.2020
3301 Clouds 2 1018 55 10000 3.6 310 17:22 07.02.2020
3302 Clouds 2 1019 60 10000 3.6 320 16:57 07.02.2020
3303 Clouds 2 1019 60 10000 4.6 350 16:39 07.02.2020
3304 Clouds 2 1019 60 10000 4.6 350 16:20 07.02.2020
3305 Clouds 3 1019 64 10000 4.6 10 15:49 07.02.2020
3306 Clouds 3 1019 65 10000 3.6 360 15:27 07.02.2020
3307 Clouds 4 1020 38 10000 5.1 10 14:54 07.02.2020
3308 Clouds 4 1020 70 10000 2.1 320 14:36 07.02.2020
3309 Clouds 4 1020 70 10000 2.1 320 14:18 07.02.2020
3310 Clouds 4 1020 70 10000 2.1 140 13:40 07.02.2020
3311 Clouds 4 1020 70 10000 2.1 140 13:22 07.02.2020
3312 Clouds 4 1021 70 10000 3.1 120 12:58 07.02.2020
3313 Clouds 4 1021 70 10000 3.1 120 12:40 07.02.2020
3314 Clouds 5 1021 70 10000 3.1 120 12:21 07.02.2020
3315 Clouds 5 1022 70 10000 4.1 140 11:42 07.02.2020
3316 Clouds 5 1022 59 10000 3.6 140 11:22 07.02.2020
3317 Clouds 5 1022 60 10000 3.1 140 10:57 07.02.2020
3318 Clouds 5 1022 64 10000 3.1 150 10:37 07.02.2020
3319 Clouds 5 1022 64 10000 3.1 150 10:19 07.02.2020
3320 Clouds 6 1022 56 10000 3.1 140 09:40 07.02.2020
3321 Clouds 6 1022 56 10000 3.1 140 09:22 07.02.2020
3322 Clouds 6 1023 56 10000 3.6 120 08:45 07.02.2020
3323 Clouds 6 1023 48 10000 3.1 150 08:21 07.02.2020
3324 Clouds 6 1023 48 10000 3.1 150 08:21 07.02.2020
3325 Clouds 6 1024 52 10000 2.6 120 07:53 07.02.2020
3326 Clouds 6 1023 38 10000 3.1 130 07:32 07.02.2020
3327 Clouds 7 1024 44 10000 2.6 120 06:59 07.02.2020
3328 Clouds 7 1024 38 10000 3.1 140 06:39 07.02.2020
3329 Clouds 7 1024 38 10000 3.1 140 06:19 07.02.2020
3330 Clouds 6 1025 38 10000 3.1 130 05:37 07.02.2020
3331 Clouds 5 1027 32 10000 2.1 10 03:43 07.02.2020
3332 Clouds 2 1029 47 10000 2.6 50 01:57 07.02.2020
3333 Clouds 1 1029 40 10000 1.5 0 00:59 07.02.2020
3334 Clouds 0 1030 47 10000 2.6 10 00:28 07.02.2020
3335 Clouds -2 1030 29 10000 3.1 350 23:39 06.02.2020
3336 Clouds -2 1030 29 10000 3.1 350 23:39 06.02.2020
3337 Clouds -2 1030 30 10000 3.1 350 23:19 06.02.2020
3338 Clouds -2 1030 30 10000 2.1 360 22:48 06.02.2020
3339 Clouds -2 1029 30 10000 2.6 20 22:27 06.02.2020
3340 Clouds -2 1029 30 10000 3.6 20 21:59 06.02.2020
3341 Clouds -2 1029 30 10000 3.6 30 21:37 06.02.2020
3342 Clouds -2 1029 30 10000 3.6 30 21:18 06.02.2020
3343 Clouds -2 1029 30 10000 4.1 20 20:55 06.02.2020
3344 Clouds -2 1029 30 10000 4.1 20 20:55 06.02.2020
3345 Clouds -2 1029 30 10000 3.6 30 20:36 06.02.2020
3346 Clouds -2 1029 28 10000 4.6 20 20:18 06.02.2020
3347 Clouds -1 1029 28 10000 4.6 20 19:56 06.02.2020
3348 Clouds -1 1029 47 10000 4.6 30 19:37 06.02.2020
3349 Clouds -1 1029 47 10000 4.6 30 19:19 06.02.2020
3350 Clouds -1 1029 43 10000 4.1 10 18:42 06.02.2020
3351 Clouds -1 1029 43 10000 4.1 10 18:24 06.02.2020
3352 Clouds -1 1029 47 10000 4.6 40 17:59 06.02.2020
3353 Clouds -1 1029 43 10000 5.7 20 17:41 06.02.2020
3354 Clouds -1 1029 43 10000 5.7 20 17:20 06.02.2020
3355 Clouds -1 1029 50 10000 6.7 20 16:43 06.02.2020
3356 Clouds -1 1029 43 10000 5.1 20 16:25 06.02.2020
3357 Clouds 0 1028 43 10000 8.2 10 15:44 06.02.2020
3358 Clouds 0 1028 43 10000 8.2 10 15:24 06.02.2020
3359 Clouds 1 1028 47 10000 7.7 10 14:59 06.02.2020
3360 Clouds 0 1028 43 10000 9.3 10 14:41 06.02.2020
3361 Clouds 0 1028 43 10000 9.3 10 14:23 06.02.2020
3362 Clouds 0 1028 44 10000 8.2 10 13:45 06.02.2020
3363 Clouds 0 1027 44 10000 8.2 360 13:26 06.02.2020
3364 Clouds 1 1027 44 10000 9.8 350 12:45 06.02.2020
3365 Clouds 1 1027 44 10000 11.3 350 12:20 06.02.2020
3366 Clouds 1 1027 40 10000 11.8 350 11:59 06.02.2020
3367 Clouds 1 1026 44 10000 10.8 350 11:41 06.02.2020
3368 Clouds 1 1026 44 10000 10.8 350 11:22 06.02.2020
3369 Clouds 2 1026 37 10000 11.3 340 10:59 06.02.2020
3370 Clouds 2 1026 47 10000 10.8 350 10:41 06.02.2020
3371 Clouds 2 1026 47 10000 10.8 350 10:21 06.02.2020
3372 Clouds 3 1025 38 10000 9.3 360 09:59 06.02.2020
3373 Clouds 3 1024 41 10000 11.3 350 09:40 06.02.2020
3374 Rain 3 1024 41 10000 11.3 350 09:20 06.02.2020
3375 Rain 4 1024 25 10000 12.3 340 08:43 06.02.2020
3376 Rain 4 1024 25 10000 12.3 340 08:23 06.02.2020
3377 Rain 5 1023 32 10000 11.3 360 07:54 06.02.2020
3378 Rain 5 1023 30 10000 12.3 340 07:29 06.02.2020
3379 Rain 6 1022 30 10000 12.3 350 06:47 06.02.2020
3380 Rain 6 1021 18 10000 6.2 340 06:19 06.02.2020
3381 Rain 6 1021 18 10000 6.7 360 05:32 06.02.2020
3382 Rain 6 1021 35 10000 12.9 340 03:47 06.02.2020
3383 Clouds 5 1021 41 10000 12.9 340 02:58 06.02.2020
3384 Clouds 4 1021 29 10000 11.8 340 01:56 06.02.2020
3385 Clouds 3 1020 29 10000 6.7 310 01:24 06.02.2020
3386 Clouds 3 1020 37 10000 13.4 330 00:29 06.02.2020
3387 Clouds 2 1019 40 10000 12.9 330 23:57 05.02.2020
3388 Clouds 2 1019 37 10000 12.3 330 23:39 05.02.2020
3389 Clouds 2 1019 37 10000 12.3 330 23:39 05.02.2020
3390 Clouds 2 1019 37 10000 12.3 330 23:20 05.02.2020
3391 Clouds 2 1019 37 10000 12.9 330 22:41 05.02.2020
3392 Clouds 2 1019 37 10000 12.9 330 22:23 05.02.2020
3393 Clouds 2 1018 34 10000 11.3 330 21:58 05.02.2020
3394 Clouds 2 1018 37 10000 11.3 330 21:40 05.02.2020
3395 Clouds 2 1018 37 10000 11.3 330 21:22 05.02.2020
3396 Clouds 2 1017 44 10000 11.3 340 20:54 05.02.2020
3397 Clouds 2 1017 40 10000 10.8 330 20:36 05.02.2020
3398 Clouds 2 1017 40 10000 10.8 330 20:18 05.02.2020
3399 Rain 3 1017 40 10000 11.3 340 19:54 05.02.2020
3400 Rain 3 1017 44 10000 10.3 340 19:36 05.02.2020
3401 Rain 3 1017 44 10000 10.3 340 19:18 05.02.2020
3402 Clouds 3 1017 44 10000 9.8 350 18:42 05.02.2020
3403 Clouds 3 1017 44 10000 9.8 350 18:20 05.02.2020
3404 Clouds 3 1016 44 10000 11.8 340 17:41 05.02.2020
3405 Clouds 3 1015 48 10000 11.8 350 17:20 05.02.2020
3406 Clouds 3 1015 48 10000 11.8 350 16:59 05.02.2020
3407 Clouds 3 1016 48 10000 11.8 340 16:41 05.02.2020
3408 Clouds 3 1016 48 10000 11.8 340 16:23 05.02.2020
3409 Clouds 4 1016 48 10000 11.3 350 15:57 05.02.2020
3410 Clouds 4 1015 41 10000 11.8 340 15:38 05.02.2020
3411 Clouds 4 1015 41 10000 11.8 340 15:18 05.02.2020
3412 Clouds 4 1015 41 10000 11.8 350 14:42 05.02.2020
3413 Clouds 4 1015 41 10000 11.8 350 14:23 05.02.2020
3414 Clouds 4 1014 45 10000 11.8 350 13:57 05.02.2020
3415 Clouds 5 1014 38 10000 9.8 350 13:38 05.02.2020
3416 Clouds 5 1013 38 10000 13.9 350 13:19 05.02.2020
3417 Clouds 5 1013 39 10000 13.4 340 12:40 05.02.2020
3418 Rain 6 1013 39 10000 13.4 340 12:22 05.02.2020
3419 Rain 7 1012 36 10000 11.3 330 11:42 05.02.2020
3420 Rain 7 1012 36 10000 11.3 330 11:24 05.02.2020
3421 Rain 8 1012 39 10000 10.8 340 10:59 05.02.2020
3422 Clouds 9 1010 39 10000 10.8 340 10:39 05.02.2020
3423 Clouds 9 1010 39 10000 10.8 340 10:39 05.02.2020
3424 Clouds 10 1009 40 10000 10.8 360 10:19 05.02.2020
3425 Clouds 9 1010 39 10000 10.8 340 10:19 05.02.2020
3426 Clouds 11 1009 43 10000 5.1 360 09:44 05.02.2020
3427 Clouds 12 1009 43 10000 5.1 360 09:22 05.02.2020
3428 Clouds 13 1007 32 10000 4.1 190 08:59 05.02.2020
3429 Clouds 14 1007 20 10000 5.1 360 08:40 05.02.2020
3430 Clouds 14 1007 46 10000 4.1 180 08:22 05.02.2020
3431 Clouds 15 1007 20 10000 7.2 180 07:44 05.02.2020
3432 Clouds 14 1007 20 10000 4.1 200 07:26 05.02.2020
3433 Clouds 15 1007 28 10000 3.1 230 06:43 05.02.2020
3434 Clouds 15 1007 28 10000 3.1 230 06:22 05.02.2020
3435 Clouds 15 1007 33 10000 7.7 190 05:49 05.02.2020
3436 Clouds 14 1008 30 10000 8.2 210 05:18 05.02.2020
3437 Clouds 14 1008 26 10000 2.1 260 04:44 05.02.2020
3438 Clouds 13 1009 57 10000 3.6 140 03:36 05.02.2020
3439 Clouds 10 1011 76 10000 3.1 150 02:24 05.02.2020
3440 Clouds 9 1012 75 10000 1.5 180 01:35 05.02.2020
3441 Clouds 7 1012 75 10000 1 0 00:39 05.02.2020
3442 Clouds 4 1013 51 10000 1 0 23:43 04.02.2020
3443 Clouds 2 1013 51 10000 1 0 23:23 04.02.2020
3444 Clouds 2 1013 75 10000 1.5 210 22:59 04.02.2020
3445 Clouds 2 1013 69 10000 1.5 210 22:41 04.02.2020
3446 Clouds 2 1013 69 10000 1.5 210 22:21 04.02.2020
3447 Clouds 2 1014 75 10000 1.5 280 21:59 04.02.2020
3448 Clouds 3 1013 75 10000 1.5 270 21:40 04.02.2020
3449 Clouds 3 1013 75 10000 1.5 270 21:19 04.02.2020
3450 Clouds 3 1013 75 10000 1.5 270 21:19 04.02.2020
3451 Clouds 3 1014 75 10000 2.1 280 20:58 04.02.2020
3452 Clouds 3 1014 80 10000 2.1 280 20:38 04.02.2020
3453 Clouds 3 1014 80 10000 2.1 280 20:20 04.02.2020
3454 Clouds 4 1015 70 10000 2.1 300 19:56 04.02.2020
3455 Clouds 4 1015 75 10000 3.6 320 19:38 04.02.2020
3456 Clouds 4 1015 75 10000 3.6 320 19:19 04.02.2020
3457 Clouds 4 1016 75 10000 3.6 320 18:54 04.02.2020
3458 Clouds 4 1015 80 10000 3.6 320 18:36 04.02.2020
3459 Clouds 5 1017 75 10000 3.1 290 18:18 04.02.2020
3460 Clouds 5 1016 70 10000 3.1 290 17:41 04.02.2020
3461 Clouds 5 1015 87 10000 2.1 10 17:20 04.02.2020
3462 Clouds 5 1015 87 10000 2.1 10 16:54 04.02.2020
3463 Clouds 5 1016 75 10000 2.1 10 16:36 04.02.2020
3464 Clouds 6 1016 75 10000 2.1 10 16:18 04.02.2020
3465 Clouds 6 1017 70 10000 2.1 10 15:55 04.02.2020
3466 Clouds 6 1017 81 10000 1.5 20 15:37 04.02.2020
3467 Clouds 6 1017 81 10000 1.5 20 15:18 04.02.2020
3468 Clouds 7 1018 76 10000 2.6 80 14:41 04.02.2020
3469 Clouds 7 1018 76 10000 2.6 80 14:20 04.02.2020
3470 Clouds 8 1018 70 10000 2.1 110 13:56 04.02.2020
3471 Clouds 8 1018 76 10000 3.1 110 13:38 04.02.2020
3472 Clouds 8 1018 76 10000 3.1 110 13:18 04.02.2020
3473 Clouds 8 1019 70 10000 4.1 120 12:43 04.02.2020
3474 Clouds 8 1019 70 10000 4.6 130 12:24 04.02.2020
3475 Clouds 9 1019 70 10000 4.1 120 11:57 04.02.2020
3476 Clouds 9 1019 70 10000 4.6 120 11:39 04.02.2020
3477 Clouds 9 1019 70 10000 4.6 120 11:19 04.02.2020
3478 Clouds 9 1019 70 10000 5.7 110 10:50 04.02.2020
3479 Clouds 9 1019 66 10000 6.2 110 10:28 04.02.2020
3480 Clouds 10 1019 66 10000 6.7 110 09:58 04.02.2020
3481 Clouds 10 1019 66 10000 6.7 120 09:40 04.02.2020
3482 Clouds 10 1019 66 10000 6.7 120 09:21 04.02.2020
3483 Clouds 10 1020 66 10000 4.6 110 08:49 04.02.2020
3484 Clouds 10 1019 53 10000 3.6 90 08:28 04.02.2020
3485 Clouds 11 1019 46 10000 3.1 60 07:57 04.02.2020
3486 Clouds 11 1019 34 10000 3.1 90 07:37 04.02.2020
3487 Clouds 11 1019 34 10000 3.1 90 07:19 04.02.2020
3488 Clouds 11 1019 46 10000 3.1 40 06:42 04.02.2020
3489 Clouds 11 1020 37 10000 1.5 80 05:37 04.02.2020
3490 Clouds 11 1020 34 10000 3.1 70 04:51 04.02.2020
3491 Clouds 10 1021 49 10000 4.1 50 03:49 04.02.2020
3492 Clouds 10 1021 39 10000 3.6 50 03:30 04.02.2020
3493 Clouds 10 1021 49 10000 4.6 70 02:51 04.02.2020
3494 Clouds 10 1021 45 10000 3.6 50 02:28 04.02.2020
3495 Clouds 9 1021 37 10000 4.1 60 01:48 04.02.2020
3496 Clouds 8 1021 42 10000 2.6 50 01:21 04.02.2020
3497 Clouds 7 1021 45 10000 5.7 30 00:25 04.02.2020
3498 Clouds 7 1021 42 10000 5.7 10 23:57 03.02.2020
3499 Clouds 7 1021 42 10000 5.7 10 23:57 03.02.2020
3500 Clouds 6 1020 49 10000 8.7 350 23:38 03.02.2020
3501 Clouds 6 1020 49 10000 8.7 350 23:19 03.02.2020
3502 Clouds 6 1019 45 10000 6.7 350 22:39 03.02.2020
3503 Clouds 6 1019 45 10000 6.7 350 22:20 03.02.2020
3504 Clear 6 1018 42 10000 6.7 330 21:43 03.02.2020
3505 Clear 6 1018 42 10000 6.7 330 21:20 03.02.2020
3506 Clear 6 1018 45 10000 5.7 320 20:59 03.02.2020
3507 Clear 6 1017 52 10000 5.1 320 20:40 03.02.2020
3508 Clouds 5 1017 52 10000 5.1 320 20:18 03.02.2020
3509 Clouds 5 1018 56 10000 3.6 300 19:56 03.02.2020
3510 Clouds 5 1017 49 10000 4.1 310 19:38 03.02.2020
3511 Clouds 6 1017 49 10000 4.1 310 19:19 03.02.2020
3512 Clouds 5 1017 49 10000 4.1 310 19:19 03.02.2020
3513 Clouds 6 1017 49 10000 4.1 310 19:19 03.02.2020
3514 Clouds 6 1017 93 10000 1 0 18:43 03.02.2020
3515 Clouds 6 1017 49 10000 3.1 340 18:24 03.02.2020
3516 Clouds 6 1017 47 10000 2.6 330 17:59 03.02.2020
3517 Clouds 7 1016 47 10000 4.1 320 17:39 03.02.2020
3518 Clouds 7 1016 43 10000 4.1 320 17:20 03.02.2020
3519 Clouds 7 1016 43 10000 5.1 330 17:20 03.02.2020
3520 Clouds 7 1016 43 10000 4.1 320 17:20 03.02.2020
3521 Clouds 7 1016 43 10000 5.1 330 16:55 03.02.2020
3522 Clouds 8 1016 43 10000 4.1 320 16:37 03.02.2020
3523 Clouds 8 1016 43 10000 4.1 320 16:18 03.02.2020
3524 Clouds 8 1015 57 10000 1.5 290 15:54 03.02.2020
3525 Clouds 8 1015 57 10000 3.6 350 15:36 03.02.2020
3526 Clouds 9 1015 53 10000 2.6 340 15:18 03.02.2020
3527 Clouds 9 1015 53 10000 2.6 340 15:18 03.02.2020
3528 Clouds 9 1015 53 10000 2.1 340 14:39 03.02.2020
3529 Clouds 9 1015 53 10000 2.1 340 14:21 03.02.2020
3530 Clouds 9 1014 61 10000 3.6 340 13:55 03.02.2020
3531 Clouds 9 1014 57 10000 3.1 320 13:37 03.02.2020
3532 Clouds 9 1014 57 10000 3.1 320 13:18 03.02.2020
3533 Clouds 10 1014 57 10000 4.1 270 12:41 03.02.2020
3534 Clouds 10 1014 57 10000 4.1 270 12:22 03.02.2020
3535 Clouds 10 1013 50 10000 2.6 240 11:59 03.02.2020
3536 Clouds 11 1013 50 10000 3.1 280 11:38 03.02.2020
3537 Clouds 11 1013 50 10000 3.1 280 11:19 03.02.2020
3538 Clouds 12 1014 47 10000 3.6 260 10:54 03.02.2020
3539 Clouds 12 1014 47 10000 3.6 260 10:54 03.02.2020
3540 Clouds 12 1013 47 10000 5.7 240 10:36 03.02.2020
3541 Clouds 12 1013 47 10000 5.7 240 10:18 03.02.2020
3542 Clouds 12 1013 47 10000 5.7 240 10:18 03.02.2020
3543 Clouds 13 1013 44 10000 6.7 190 09:38 03.02.2020
3544 Clouds 13 1013 44 10000 6.7 190 09:19 03.02.2020
3545 Clouds 13 1013 43 10000 2.6 230 08:40 03.02.2020
3546 Clouds 14 1013 43 10000 2.6 230 08:22 03.02.2020
3547 Clouds 14 1013 44 10000 4.1 200 07:43 03.02.2020
3548 Clouds 14 1013 44 10000 4.1 200 07:23 03.02.2020
3549 Clouds 14 1014 29 10000 7.2 200 06:57 03.02.2020
3550 Clouds 14 1013 66 10000 3.1 180 06:31 03.02.2020
3551 Clouds 14 1014 44 10000 5.1 170 05:55 03.02.2020
3552 Clouds 14 1014 41 10000 5.1 170 05:33 03.02.2020
3553 Clouds 13 1016 50 10000 2.1 110 04:45 03.02.2020
3554 Clouds 10 1018 43 10000 2.1 80 02:48 03.02.2020
3555 Clouds 10 1018 43 10000 2.1 80 02:48 03.02.2020
3556 Clouds 9 1019 49 10000 1 0 02:28 03.02.2020
3557 Clouds 7 1020 52 10000 2.1 320 00:50 03.02.2020
3558 Clouds 6 1020 52 10000 2.6 330 00:28 03.02.2020
3559 Clouds 6 1020 48 10000 2.6 330 23:56 02.02.2020
3560 Clouds 5 1020 48 10000 3.1 10 23:36 02.02.2020
3561 Clouds 5 1020 51 10000 3.1 10 23:18 02.02.2020
3562 Clouds 5 1020 51 10000 3.1 10 22:40 02.02.2020
3563 Clouds 5 1020 51 10000 3.1 10 22:22 02.02.2020
3564 Clouds 6 1020 51 10000 3.1 10 21:58 02.02.2020
3565 Clouds 6 1020 61 10000 2.6 340 21:39 02.02.2020
3566 Clouds 6 1020 61 10000 2.6 340 21:20 02.02.2020
3567 Drizzle 6 1022 64 16093 3.35 350 20:57 02.02.2020
3568 Clouds 6 1020 51 10000 3.6 20 20:39 02.02.2020
3569 Clouds 6 1020 66 10000 3.6 20 20:20 02.02.2020
3570 Clouds 6 1020 61 10000 3.6 20 19:57 02.02.2020
3571 Rain 6 1020 61 10000 3.1 30 19:39 02.02.2020
3572 Rain 6 1020 61 10000 3.1 30 19:21 02.02.2020
3573 Rain 7 1020 61 10000 2.6 20 18:56 02.02.2020
3574 Clouds 7 1021 61 10000 3.1 10 18:37 02.02.2020
3575 Clouds 7 1021 61 10000 3.1 10 18:37 02.02.2020
3576 Clouds 7 1021 61 10000 3.1 10 18:19 02.02.2020
3577 Clouds 7 1021 66 10000 4.1 20 17:57 02.02.2020
3578 Clouds 7 1021 61 10000 3.6 10 17:37 02.02.2020
3579 Clouds 7 1021 61 10000 3.6 10 17:37 02.02.2020
3580 Clouds 7 1021 61 10000 3.6 10 17:18 02.02.2020
3581 Clouds 7 1021 70 10000 2.6 70 16:57 02.02.2020
3582 Clouds 7 1021 61 10000 1.5 90 16:38 02.02.2020
3583 Clouds 8 1021 61 10000 1.5 90 16:18 02.02.2020
3584 Clouds 8 1021 66 10000 2.1 80 15:56 02.02.2020
3585 Clouds 8 1022 61 10000 1.5 120 15:37 02.02.2020
3586 Clouds 8 1022 61 10000 2.1 110 15:19 02.02.2020
3587 Clouds 8 1022 61 10000 2.1 110 14:44 02.02.2020
3588 Clouds 8 1022 61 10000 2.1 110 14:19 02.02.2020
3589 Clouds 8 1023 61 10000 3.1 120 13:59 02.02.2020
3590 Clouds 8 1022 61 10000 3.6 140 13:41 02.02.2020
3591 Clouds 8 1022 61 10000 3.6 140 13:21 02.02.2020
3592 Clouds 8 1022 61 10000 3.6 140 13:21 02.02.2020
3593 Clouds 8 1023 61 10000 4.6 140 12:57 02.02.2020
3594 Clouds 8 1022 57 10000 4.1 130 12:38 02.02.2020
3595 Clouds 9 1022 57 10000 4.1 130 12:20 02.02.2020
3596 Clouds 9 1022 61 10000 5.1 120 11:43 02.02.2020
3597 Clouds 9 1022 61 10000 5.1 120 11:20 02.02.2020
3598 Clouds 9 1022 53 10000 3.6 110 10:58 02.02.2020
3599 Clouds 10 1022 40 10000 3.1 120 10:39 02.02.2020
3600 Clouds 10 1022 29 10000 3.1 120 10:21 02.02.2020
3601 Clouds 10 1022 37 10000 2.1 120 09:59 02.02.2020
3602 Clouds 11 1021 40 10000 3.1 120 09:39 02.02.2020
3603 Clouds 11 1021 29 10000 3.1 120 09:21 02.02.2020
3604 Clouds 11 1022 40 10000 3.6 130 08:49 02.02.2020
3605 Clouds 12 1021 32 10000 3.6 50 08:30 02.02.2020
3606 Clouds 12 1021 32 10000 3.1 50 07:49 02.02.2020
3607 Clouds 13 1020 24 10000 2.6 20 07:30 02.02.2020
3608 Clouds 13 1020 32 10000 4.1 30 06:57 02.02.2020
3609 Clouds 13 1020 26 10000 3.6 330 06:38 02.02.2020
3610 Clouds 13 1020 26 10000 3.6 330 06:18 02.02.2020
3611 Clouds 12 1020 28 10000 3.1 330 05:20 02.02.2020
3612 Clouds 12 1021 27 10000 4.6 330 04:21 02.02.2020
3613 Clouds 11 1021 29 10000 4.1 310 03:23 02.02.2020
3614 Clouds 10 1021 27 10000 4.6 330 02:20 02.02.2020
3615 Clouds 9 1021 37 10000 7.7 350 01:50 02.02.2020
3616 Clouds 8 1021 28 10000 6.2 300 00:51 02.02.2020
3617 Clouds 7 1021 31 10000 9.3 330 00:29 02.02.2020
3618 Clouds 6 1021 31 10000 7.2 330 23:58 01.02.2020
3619 Clouds 5 1020 36 10000 6.7 330 23:39 01.02.2020
3620 Clouds 4 1020 36 10000 6.7 330 23:21 01.02.2020
3621 Clouds 4 1020 36 10000 8.2 330 22:43 01.02.2020
3622 Clouds 4 1020 36 10000 8.7 330 22:19 01.02.2020
3623 Clouds 4 1020 39 10000 8.7 330 21:42 01.02.2020
3624 Clouds 4 1019 42 10000 8.2 330 21:19 01.02.2020
3625 Clouds 4 1019 42 10000 8.2 330 20:56 01.02.2020
3626 Clouds 4 1019 45 10000 8.7 340 20:38 01.02.2020
3627 Clouds 4 1019 45 10000 8.7 340 20:19 01.02.2020
3628 Clouds 4 1019 48 10000 7.2 350 19:56 01.02.2020
3629 Clouds 4 1019 49 10000 6.7 360 19:37 01.02.2020
3630 Clouds 4 1019 49 10000 6.7 360 19:18 01.02.2020
3631 Clouds 4 1019 45 10000 4.6 350 18:55 01.02.2020
3632 Clouds 4 1018 48 10000 3.6 350 18:37 01.02.2020
3633 Clouds 4 1018 48 10000 3.6 350 18:19 01.02.2020
3634 Clouds 4 1019 42 10000 3.6 360 17:55 01.02.2020
3635 Clouds 4 1018 48 10000 3.1 20 17:36 01.02.2020
3636 Clouds 4 1018 48 10000 3.1 20 17:18 01.02.2020
3637 Clouds 5 1018 48 10000 4.1 360 16:41 01.02.2020
3638 Clouds 5 1018 48 10000 4.1 360 16:21 01.02.2020
3639 Clouds 5 1018 48 10000 4.1 360 16:21 01.02.2020
3640 Clouds 5 1018 48 10000 5.1 340 15:47 01.02.2020
3641 Clouds 5 1017 49 10000 6.7 340 15:29 01.02.2020
3642 Clouds 6 1018 45 10000 7.2 340 15:00 01.02.2020
3643 Clouds 6 1017 45 10000 6.7 350 14:40 01.02.2020
3644 Clouds 6 1017 45 10000 6.7 350 14:20 01.02.2020
3645 Clouds 6 1018 42 10000 6.2 330 13:45 01.02.2020
3646 Clouds 6 1017 42 10000 6.2 330 13:24 01.02.2020
3647 Clouds 6 1017 42 10000 6.2 330 13:24 01.02.2020
3648 Clouds 7 1017 45 10000 6.7 320 12:56 01.02.2020
3649 Clouds 7 1017 42 10000 4.6 320 12:38 01.02.2020
3650 Clouds 7 1017 42 10000 4.6 320 12:20 01.02.2020
3651 Clouds 8 1016 39 10000 6.2 340 11:39 01.02.2020
3652 Clouds 8 1016 39 10000 6.2 340 11:20 01.02.2020
3653 Clouds 8 1016 34 10000 7.7 340 10:58 01.02.2020
3654 Clouds 8 1015 43 10000 7.2 360 10:39 01.02.2020
3655 Clouds 8 1015 43 10000 7.2 360 10:21 01.02.2020
3656 Clouds 9 1015 37 10000 6.2 330 09:58 01.02.2020
3657 Clouds 10 1015 34 10000 6.2 330 09:39 01.02.2020
3658 Clouds 10 1015 34 10000 6.2 330 09:20 01.02.2020
3659 Clouds 12 1014 27 10000 3.6 330 08:46 01.02.2020
3660 Clouds 12 1013 32 10000 4.6 350 07:50 01.02.2020
3661 Clouds 12 1013 28 10000 4.1 300 07:27 01.02.2020
3662 Clouds 12 1013 34 10000 3.1 360 06:58 01.02.2020
3663 Clouds 13 1012 27 10000 4.1 340 06:38 01.02.2020
3664 Clouds 12 1013 37 10000 6.7 350 05:52 01.02.2020
3665 Clouds 12 1013 37 10000 6.7 350 05:52 01.02.2020
3666 Clear 12 1014 23 16093 7.2 20 04:20 01.02.2020
3667 Clouds 11 1014 29 10000 6.2 310 03:23 01.02.2020
3668 Clouds 11 1014 34 10000 9.3 350 02:47 01.02.2020
3669 Clouds 10 1014 29 10000 4.6 320 02:28 01.02.2020
3670 Clouds 9 1015 29 10000 7.2 330 01:55 01.02.2020
3671 Clouds 8 1014 31 10000 4.1 290 01:37 01.02.2020
3672 Clouds 6 1014 36 10000 5.1 340 00:31 01.02.2020
3673 Clouds 5 1014 39 10000 5.7 330 23:59 31.01.2020
3674 Clouds 4 1013 41 10000 5.7 330 23:38 31.01.2020
3675 Clouds 4 1013 41 10000 5.7 330 23:18 31.01.2020
3676 Clouds 4 1014 38 10000 5.7 320 22:54 31.01.2020
3677 Clouds 4 1013 41 10000 6.2 310 22:36 31.01.2020
3678 Clouds 4 1013 41 10000 6.2 310 22:18 31.01.2020
3679 Clouds 4 1012 41 10000 6.2 320 21:39 31.01.2020
3680 Clouds 4 1012 41 10000 6.2 320 21:20 31.01.2020
3681 Clouds 4 1012 41 10000 6.2 320 21:20 31.01.2020
3682 Clouds 4 1012 41 10000 6.2 320 21:20 31.01.2020
3683 Clouds 4 1012 41 10000 6.7 310 20:57 31.01.2020
3684 Clouds 4 1012 41 10000 6.7 310 20:39 31.01.2020
3685 Clouds 4 1011 38 10000 6.7 310 20:20 31.01.2020
3686 Clouds 4 1011 38 10000 6.7 310 19:56 31.01.2020
3687 Clouds 4 1011 41 10000 5.1 310 19:38 31.01.2020
3688 Clouds 4 1011 41 10000 5.1 310 19:38 31.01.2020
3689 Clouds 4 1011 41 10000 6.7 320 19:19 31.01.2020
3690 Clouds 4 1011 41 10000 6.7 320 18:46 31.01.2020
3691 Clouds 4 1011 38 10000 7.7 320 18:27 31.01.2020
3692 Clouds 4 1010 39 10000 8.2 320 17:59 31.01.2020
3693 Clouds 5 1010 41 10000 9.8 330 17:40 31.01.2020
3694 Clouds 5 1010 41 10000 9.8 330 17:21 31.01.2020
3695 Clouds 5 1010 36 10000 8.2 330 16:56 31.01.2020
3696 Clouds 5 1010 41 10000 7.7 340 16:37 31.01.2020
3697 Clouds 5 1010 52 10000 10.8 350 16:18 31.01.2020
3698 Clouds 5 1010 52 10000 10.8 350 15:56 31.01.2020
3699 Clouds 5 1009 45 10000 10.8 350 15:37 31.01.2020
3700 Clouds 5 1009 45 10000 10.8 350 15:19 31.01.2020
3701 Clouds 6 1009 42 10000 12.3 340 14:42 31.01.2020
3702 Clouds 6 1009 42 10000 12.3 340 14:20 31.01.2020
3703 Clouds 6 1009 42 10000 7.7 340 13:50 31.01.2020
3704 Clouds 6 1008 42 10000 8.7 340 13:32 31.01.2020
3705 Clouds 6 1008 42 10000 10.3 340 12:56 31.01.2020
3706 Clouds 6 1008 42 10000 10.3 340 12:56 31.01.2020
3707 Clouds 6 1008 45 10000 8.2 330 12:38 31.01.2020
3708 Clouds 6 1008 45 10000 8.2 330 12:38 31.01.2020
3709 Clouds 7 1008 45 10000 8.2 330 12:20 31.01.2020
3710 Clouds 7 1006 45 10000 11.8 350 11:41 31.01.2020
3711 Clouds 7 1006 45 10000 11.8 350 11:23 31.01.2020
3712 Clouds 7 1007 39 10000 10.8 340 10:58 31.01.2020
3713 Clouds 7 1006 39 10000 10.3 340 10:38 31.01.2020
3714 Clouds 8 1006 39 10000 10.3 340 10:20 31.01.2020
3715 Clouds 8 1005 36 10000 11.3 350 09:55 31.01.2020
3716 Clouds 8 1004 42 10000 11.3 350 09:37 31.01.2020
3717 Clouds 8 1004 42 10000 11.3 350 09:37 31.01.2020
3718 Clouds 8 1004 42 10000 11.3 350 09:18 31.01.2020
3719 Clouds 9 1004 29 10000 6.7 350 08:49 31.01.2020
3720 Clouds 10 1004 29 10000 6.7 350 08:24 31.01.2020
3721 Clouds 10 1003 39 10000 12.9 340 07:52 31.01.2020
3722 Clouds 11 1003 37 10000 11.8 350 07:20 31.01.2020
3723 Clouds 12 1002 27 10000 7.2 330 06:42 31.01.2020
3724 Clouds 11 1002 34 10000 11.3 340 05:58 31.01.2020
3725 Clouds 11 1002 22 10000 7.7 310 05:37 31.01.2020
3726 Squall 11 1003 21 16093 13.9 360 04:47 31.01.2020
3727 Clouds 10 1003 39 10000 10.3 340 02:58 31.01.2020
3728 Clouds 9 1003 42 10000 8.2 310 01:32 31.01.2020
3729 Rain 8 1003 49 10000 10.8 340 00:43 31.01.2020
3730 Rain 8 1003 49 10000 10.8 340 00:24 31.01.2020
3731 Rain 7 1002 49 10000 9.8 340 23:48 30.01.2020
3732 Rain 8 1002 49 10000 9.8 340 23:24 30.01.2020
3733 Rain 7 1001 49 10000 11.3 330 22:56 30.01.2020
3734 Rain 8 1001 45 10000 11.8 330 22:36 30.01.2020
3735 Rain 8 1001 45 10000 11.8 330 22:18 30.01.2020
3736 Rain 8 1001 45 10000 11.3 330 21:43 30.01.2020
3737 Clouds 8 1001 45 10000 11.3 330 21:20 30.01.2020
3738 Rain 8 1001 49 10000 9.3 330 20:59 30.01.2020
3739 Rain 8 1000 49 10000 10.3 340 20:39 30.01.2020
3740 Rain 9 1001 47 10000 8.7 340 20:21 30.01.2020
3741 Rain 9 1001 47 10000 8.7 340 20:21 30.01.2020
3742 Rain 9 1001 47 10000 8.7 340 19:55 30.01.2020
3743 Rain 9 1000 47 10000 8.2 330 19:36 30.01.2020
3744 Rain 9 1000 47 10000 8.2 330 19:18 30.01.2020
3745 Clouds 9 1000 47 10000 9.3 340 18:40 30.01.2020
3746 Clouds 9 1000 47 10000 9.3 340 18:21 30.01.2020
3747 Rain 9 1000 53 10000 8.2 350 17:55 30.01.2020
3748 Clouds 9 1000 53 10000 7.7 350 17:37 30.01.2020
3749 Clouds 9 1000 57 10000 6.7 350 17:18 30.01.2020
3750 Clouds 9 1000 57 10000 6.7 350 16:56 30.01.2020
3751 Clouds 9 1000 50 10000 6.7 340 16:37 30.01.2020
3752 Clouds 9 1000 50 10000 6.7 340 16:19 30.01.2020
3753 Clouds 10 999 50 10000 9.3 340 15:43 30.01.2020
3754 Clouds 10 999 50 10000 9.3 340 15:19 30.01.2020
3755 Clouds 11 1000 46 10000 9.3 330 14:50 30.01.2020
3756 Clouds 11 1000 46 10000 9.3 330 14:50 30.01.2020
3757 Clouds 11 999 40 10000 9.8 320 14:27 30.01.2020
3758 Clouds 11 999 45 10000 9.8 320 14:27 30.01.2020
3759 Clouds 11 999 46 10000 9.8 330 13:56 30.01.2020
3760 Clear 11 999 50 10000 8.7 340 13:36 30.01.2020
3761 Clear 11 999 50 10000 8.7 340 13:18 30.01.2020
3762 Clear 11 998 47 10000 6.7 350 12:42 30.01.2020
3763 Clear 12 998 47 10000 6.7 350 12:24 30.01.2020
3764 Clouds 12 998 58 10000 2.1 0 11:57 30.01.2020
3765 Clear 12 997 47 10000 2.1 230 11:39 30.01.2020
3766 Clear 12 997 47 10000 2.1 230 11:21 30.01.2020
3767 Clear 13 997 47 10000 2.6 260 10:42 30.01.2020
3768 Clouds 13 997 47 10000 4.6 230 10:24 30.01.2020
3769 Clouds 14 997 41 10000 4.1 230 09:49 30.01.2020
3770 Clouds 15 996 41 10000 3.1 200 09:30 30.01.2020
3771 Clouds 15 996 41 10000 5.7 210 08:59 30.01.2020
3772 Clouds 16 996 51 10000 3.6 180 08:40 30.01.2020
3773 Clouds 16 996 51 10000 3.6 180 08:20 30.01.2020
3774 Clouds 16 996 39 10000 6.7 190 07:49 30.01.2020
3775 Clouds 16 996 58 10000 4.6 170 07:29 30.01.2020
3776 Clouds 16 996 54 10000 5.1 170 06:47 30.01.2020
3777 Clouds 16 996 54 10000 5.1 170 06:29 30.01.2020
3778 Clouds 16 996 71 10000 3.6 140 05:44 30.01.2020
3779 Clouds 16 996 71 10000 3.6 140 05:22 30.01.2020
3780 Clouds 15 997 55 10000 6.2 180 03:55 30.01.2020
3781 Clouds 15 998 71 10000 2.1 160 03:37 30.01.2020
3782 Clouds 14 998 82 10000 4.6 180 02:47 30.01.2020
3783 Clouds 10 999 71 10000 1.5 70 00:43 30.01.2020
3784 Clouds 9 999 81 10000 1 0 00:21 30.01.2020
3785 Clouds 8 999 71 10000 3.1 190 23:47 29.01.2020
3786 Clouds 8 999 81 10000 1.5 200 23:47 29.01.2020
3787 Clouds 7 999 71 10000 3.1 190 23:22 29.01.2020
3788 Clouds 7 999 76 10000 2.6 190 22:58 29.01.2020
3789 Clouds 7 999 71 10000 2.6 200 22:39 29.01.2020
3790 Clouds 7 999 71 10000 2.6 200 22:19 29.01.2020
3791 Clouds 7 999 66 10000 1 0 21:58 29.01.2020
3792 Clouds 7 1000 100 16093 2.6 270 21:38 29.01.2020
3793 Clouds 8 999 66 10000 0.5 0 21:19 29.01.2020
3794 Clouds 8 998 76 10000 0.5 0 20:58 29.01.2020
3795 Clouds 8 998 76 10000 1 0 20:38 29.01.2020
3796 Clouds 8 998 76 10000 1 0 20:20 29.01.2020
3797 Clouds 9 999 66 10000 1.5 360 19:56 29.01.2020
3798 Clouds 9 998 71 10000 2.6 350 19:37 29.01.2020
3799 Clouds 9 998 71 10000 2.6 350 19:37 29.01.2020
3800 Clouds 9 998 71 10000 2.6 350 19:37 29.01.2020
3801 Clouds 9 998 71 10000 2.6 350 19:19 29.01.2020
3802 Clouds 10 999 71 10000 4.6 330 18:47 29.01.2020
3803 Clouds 10 999 71 10000 3.1 350 18:20 29.01.2020
3804 Clouds 10 999 76 10000 5.1 350 17:58 29.01.2020
3805 Clouds 10 999 81 10000 4.6 360 17:39 29.01.2020
3806 Clouds 10 999 81 10000 4.6 360 17:39 29.01.2020
3807 Clouds 10 999 81 10000 4.6 360 17:21 29.01.2020
3808 Clouds 11 999 76 10000 3.6 360 16:41 29.01.2020
3809 Clouds 11 999 76 10000 3.6 360 16:23 29.01.2020
3810 Clouds 11 1000 81 10000 4.1 30 15:56 29.01.2020
3811 Clouds 11 1000 81 10000 4.1 30 15:56 29.01.2020
3812 Clouds 11 1000 76 10000 3.6 10 15:37 29.01.2020
3813 Clouds 11 1000 81 10000 3.1 20 15:19 29.01.2020
3814 Clouds 11 1000 81 10000 3.1 20 14:44 29.01.2020
3815 Clouds 11 1000 62 10000 2.6 310 14:21 29.01.2020
3816 Clouds 12 1000 58 10000 3.6 330 13:56 29.01.2020
3817 Clouds 12 1000 58 10000 4.1 340 13:38 29.01.2020
3818 Clouds 12 1000 58 10000 4.1 340 13:19 29.01.2020
3819 Clouds 12 1000 71 10000 4.1 330 12:56 29.01.2020
3820 Clouds 13 1000 67 10000 1 0 12:37 29.01.2020
3821 Clouds 13 1000 67 10000 1 0 12:18 29.01.2020
3822 Clouds 13 1000 67 10000 1.5 330 11:45 29.01.2020
3823 Clouds 13 1000 67 10000 2.1 260 11:21 29.01.2020
3824 Clouds 14 1000 72 10000 3.6 190 10:47 29.01.2020
3825 Clouds 14 999 67 10000 3.1 190 10:26 29.01.2020
3826 Clouds 16 999 67 10000 3.1 190 09:58 29.01.2020
3827 Clouds 16 999 67 10000 3.1 190 09:40 29.01.2020
3828 Clouds 16 999 67 10000 3.1 190 09:20 29.01.2020
3829 Clouds 16 999 67 10000 3.1 190 09:20 29.01.2020
3830 Clouds 17 999 67 10000 4.6 190 08:56 29.01.2020
3831 Clouds 17 999 77 10000 3.6 180 08:37 29.01.2020
3832 Clouds 17 999 77 10000 3.6 180 08:18 29.01.2020
3833 Clouds 17 999 72 10000 5.7 180 07:43 29.01.2020
3834 Clouds 17 999 77 10000 3.6 180 07:23 29.01.2020
3835 Clouds 18 999 77 10000 3.6 170 06:38 29.01.2020
3836 Clouds 18 999 55 10000 2.1 140 06:20 29.01.2020
3837 Clouds 17 999 67 10000 5.1 180 05:54 29.01.2020
3838 Clouds 17 999 82 10000 2.6 140 05:35 29.01.2020
3839 Clouds 17 1000 82 10000 2.6 160 04:39 29.01.2020
3840 Clouds 16 1000 82 10000 2.6 160 04:18 29.01.2020
3841 Clouds 14 1003 71 10000 4.1 280 02:40 29.01.2020
3842 Clouds 12 1003 81 10000 3.6 270 01:34 29.01.2020
3843 Clouds 10 1003 93 10000 4.6 290 00:41 29.01.2020
3844 Clouds 10 1003 93 10000 4.6 290 00:23 29.01.2020
3845 Rain 9 1002 93 10000 5.7 310 23:41 28.01.2020
3846 Rain 9 1002 93 10000 5.7 310 23:20 28.01.2020
3847 Rain 9 1002 93 10000 6.2 330 22:57 28.01.2020
3848 Rain 9 1002 93 10000 6.7 320 22:39 28.01.2020
3849 Rain 9 1002 93 10000 6.7 320 22:20 28.01.2020
3850 Rain 9 1002 93 10000 6.7 320 22:20 28.01.2020
3851 Rain 9 1002 93 10000 9.8 320 21:42 28.01.2020
3852 Rain 9 1002 93 10000 9.8 320 21:20 28.01.2020
3853 Rain 9 1002 93 10000 9.8 320 21:20 28.01.2020
3854 Rain 9 1001 93 3500 3.1 300 20:46 28.01.2020
3855 Rain 9 1001 93 3500 3.1 300 20:28 28.01.2020
3856 Rain 8 1002 93 3500 9.8 320 19:59 28.01.2020
3857 Rain 8 1003 100 6000 9.8 330 19:38 28.01.2020
3858 Rain 8 1003 100 6000 9.8 330 19:20 28.01.2020
3859 Rain 8 1005 100 4426 6.7 320 18:58 28.01.2020
3860 Rain 9 1006 100 6437 4.6 340 18:39 28.01.2020
3861 Rain 9 1006 100 6437 4.6 340 18:21 28.01.2020
3862 Rain 9 1007 100 3500 8.2 330 17:56 28.01.2020
3863 Rain 8 1006 100 3500 10.3 360 17:37 28.01.2020
3864 Rain 8 1006 100 3500 10.3 360 17:19 28.01.2020
3865 Rain 9 1007 93 2816 6.7 330 16:46 28.01.2020
3866 Rain 9 1008 93 5000 10.8 350 16:27 28.01.2020
3867 Rain 8 1010 100 4800 7.7 330 15:59 28.01.2020
3868 Rain 8 1010 100 4500 8.2 330 15:40 28.01.2020
3869 Rain 8 1010 100 4500 8.2 330 15:18 28.01.2020
3870 Rain 8 1012 100 4000 6.2 320 14:45 28.01.2020
3871 Rain 8 1012 100 4426 5.1 310 14:20 28.01.2020
3872 Rain 8 1012 100 4000 6.7 340 13:57 28.01.2020
3873 Rain 8 1013 100 3000 8.2 330 13:38 28.01.2020
3874 Rain 8 1013 100 3000 8.2 330 13:19 28.01.2020
3875 Rain 8 1013 100 3200 9.3 340 12:41 28.01.2020
3876 Rain 8 1013 100 3200 9.3 340 12:22 28.01.2020
3877 Rain 8 1014 93 2600 8.7 340 11:48 28.01.2020
3878 Rain 8 1014 93 2600 8.7 340 11:23 28.01.2020
3879 Rain 8 1014 93 3000 8.2 350 10:58 28.01.2020
3880 Rain 7 1014 100 3000 7.2 330 10:39 28.01.2020
3881 Rain 7 1014 100 3000 7.2 330 10:20 28.01.2020
3882 Rain 7 1015 100 4000 8.2 340 09:43 28.01.2020
3883 Rain 7 1015 100 4000 8.2 340 09:21 28.01.2020
3884 Rain 6 1018 100 4828 4.1 340 08:57 28.01.2020
3885 Rain 6 1015 93 3000 4.6 320 08:39 28.01.2020
3886 Rain 6 1015 93 3000 4.6 320 08:18 28.01.2020
3887 Rain 6 1016 100 3000 3.6 350 07:37 28.01.2020
3888 Rain 6 1016 100 3000 3.6 350 07:37 28.01.2020
3889 Rain 6 1016 93 3500 9.3 340 06:50 28.01.2020
3890 Rain 6 1017 100 4000 1.5 40 06:26 28.01.2020
3891 Rain 6 1016 100 4000 9.3 340 05:54 28.01.2020
3892 Rain 6 1016 93 3500 10.3 340 05:26 28.01.2020
3893 Rain 5 1017 93 3000 10.3 340 04:28 28.01.2020
3894 Rain 5 1019 100 4500 5.7 330 02:58 28.01.2020
3895 Rain 4 1019 93 4500 5.1 340 02:25 28.01.2020
3896 Rain 4 1019 100 7000 9.3 330 01:57 28.01.2020
3897 Rain 4 1019 100 7000 9.3 330 01:57 28.01.2020
3898 Rain 4 1019 93 5000 6.2 330 01:26 28.01.2020
3899 Rain 4 1019 93 4500 5.1 340 00:51 28.01.2020
3900 Rain 4 1019 93 6000 12.3 340 00:29 28.01.2020
3901 Rain 4 1019 93 5000 10.8 330 23:51 27.01.2020
3902 Rain 4 1019 93 5000 12.3 340 23:30 27.01.2020
3903 Rain 3 1018 93 10000 13.4 340 22:56 27.01.2020
3904 Rain 3 1019 93 8000 12.9 340 22:38 27.01.2020
3905 Rain 3 1019 93 8000 12.9 340 22:18 27.01.2020
3906 Rain 3 1019 93 8000 12.9 340 22:18 27.01.2020
3907 Rain 3 1022 93 14484 4.6 330 21:54 27.01.2020
3908 Rain 3 1019 100 2816 5.7 310 21:36 27.01.2020
3909 Rain 2 1020 93 6000 12.3 340 21:18 27.01.2020
3910 Rain 2 1020 93 6000 12.3 340 20:43 27.01.2020
3911 Rain 2 1020 92 6437 5.7 320 20:22 27.01.2020
3912 Rain 2 1020 92 6437 5.7 320 20:22 27.01.2020
3913 Rain 2 1022 100 14484 5.1 330 19:59 27.01.2020
3914 Rain 2 1019 93 8000 10.8 350 19:40 27.01.2020
3915 Rain 2 1019 93 8000 10.8 350 19:22 27.01.2020
3916 Rain 2 1020 93 4500 10.8 350 18:56 27.01.2020
3917 Rain 2 1020 100 4023 6.2 320 18:37 27.01.2020
3918 Rain 2 1020 100 4023 6.2 320 18:37 27.01.2020
3919 Rain 2 1020 100 4023 6.2 320 18:19 27.01.2020
3920 Rain 2 1021 100 16093 4.1 330 17:39 27.01.2020
3921 Rain 2 1021 100 16093 4.1 330 17:21 27.01.2020
3922 Rain 2 1021 100 16093 4.1 330 16:59 27.01.2020
3923 Rain 2 1022 89 4828 5.1 320 16:40 27.01.2020
3924 Rain 2 1022 89 4828 5.1 320 16:22 27.01.2020
3925 Rain 3 1025 89 11265 4.1 340 15:55 27.01.2020
3926 Rain 3 1022 100 6437 4.1 330 15:36 27.01.2020
3927 Rain 3 1022 100 6437 4.1 330 15:36 27.01.2020
3928 Rain 3 1022 100 6437 4.1 330 15:18 27.01.2020
3929 Rain 3 1025 93 14484 4.6 340 14:42 27.01.2020
3930 Rain 4 1025 93 14484 4.6 340 14:22 27.01.2020
3931 Rain 4 1025 93 14484 4.6 340 14:22 27.01.2020
3932 Rain 4 1023 80 10000 7.7 30 13:57 27.01.2020
3933 Rain 4 1024 75 10000 7.7 40 13:37 27.01.2020
3934 Rain 5 1024 75 10000 7.7 40 13:18 27.01.2020
3935 Rain 5 1023 65 10000 7.7 60 12:44 27.01.2020
3936 Rain 5 1022 75 10000 9.8 60 12:23 27.01.2020
3937 Rain 5 1022 75 10000 9.8 60 12:23 27.01.2020
3938 Rain 5 1023 70 10000 6.7 10 11:58 27.01.2020
3939 Clouds 6 1023 65 10000 6.7 10 11:40 27.01.2020
3940 Clouds 6 1023 65 10000 6.7 10 11:20 27.01.2020
3941 Rain 6 1023 70 10000 7.7 10 10:43 27.01.2020
3942 Rain 6 1023 70 10000 7.7 10 10:24 27.01.2020
3943 Clouds 6 1023 65 10000 8.2 10 09:54 27.01.2020
3944 Rain 6 1024 65 10000 7.2 360 09:36 27.01.2020
3945 Rain 6 1024 65 10000 7.2 360 09:18 27.01.2020
3946 Rain 6 1024 71 10000 3.6 10 08:42 27.01.2020
3947 Rain 6 1024 61 10000 3.6 10 08:20 27.01.2020
3948 Clouds 7 1024 65 10000 7.2 10 07:53 27.01.2020
3949 Clouds 7 1024 61 10000 3.1 360 07:33 27.01.2020
3950 Clouds 7 1024 70 10000 7.2 10 06:51 27.01.2020
3951 Clouds 7 1024 61 10000 3.6 10 06:24 27.01.2020
3952 Clouds 7 1025 55 10000 3.6 20 05:22 27.01.2020
3953 Clouds 6 1027 60 10000 2.6 20 03:43 27.01.2020
3954 Clouds 6 1028 60 10000 1.5 0 02:32 27.01.2020
3955 Clouds 5 1027 60 10000 1.5 0 01:29 27.01.2020
3956 Clouds 5 1027 60 10000 2.1 20 00:43 27.01.2020
3957 Clouds 5 1027 60 10000 4.6 20 00:23 27.01.2020
3958 Clouds 5 1027 53 10000 4.1 20 23:59 26.01.2020
3959 Clouds 5 1026 70 10000 3.6 20 23:41 26.01.2020
3960 Clouds 5 1026 70 10000 3.6 20 23:41 26.01.2020
3961 Clouds 4 1026 70 10000 3.6 20 23:18 26.01.2020
3962 Clouds 4 1026 51 10000 4.1 360 22:54 26.01.2020
3963 Clouds 4 1026 51 10000 4.6 10 22:36 26.01.2020
3964 Clouds 4 1026 51 10000 4.6 10 22:18 26.01.2020
3965 Clouds 4 1026 51 10000 5.7 20 21:54 26.01.2020
3966 Clouds 4 1026 65 10000 5.7 30 21:36 26.01.2020
3967 Clouds 4 1026 65 10000 5.7 30 21:18 26.01.2020
3968 Clouds 4 1026 56 10000 5.1 30 20:54 26.01.2020
3969 Clouds 4 1026 56 10000 4.6 360 20:36 26.01.2020
3970 Clouds 4 1026 56 10000 4.6 360 20:18 26.01.2020
3971 Clouds 5 1027 55 10000 4.6 350 19:40 26.01.2020
3972 Clouds 5 1027 55 10000 4.6 350 19:21 26.01.2020
3973 Clouds 4 1027 55 10000 4.6 350 18:59 26.01.2020
3974 Clouds 4 1026 70 10000 4.6 350 18:40 26.01.2020
3975 Clouds 4 1026 70 10000 4.6 360 18:22 26.01.2020
3976 Clouds 4 1026 70 10000 4.6 360 17:58 26.01.2020
3977 Clouds 4 1026 70 10000 4.6 360 17:58 26.01.2020
3978 Clouds 4 1027 70 10000 3.1 330 17:38 26.01.2020
3979 Clouds 4 1027 70 10000 3.6 310 17:18 26.01.2020
3980 Clouds 4 1027 70 10000 3.6 310 16:57 26.01.2020
3981 Clouds 4 1027 70 10000 3.6 320 16:39 26.01.2020
3982 Clouds 4 1027 70 10000 3.6 320 16:20 26.01.2020
3983 Clouds 4 1025 88 0 2.08 354 15:55 26.01.2020
3984 Clouds 4 1025 88 0 2.08 354 15:37 26.01.2020
3985 Clouds 4 1025 88 0 2.08 354 15:18 26.01.2020
3986 Clouds 4 1025 90 0 2.08 354 14:40 26.01.2020
3987 Clouds 5 1024 90 0 1.95 351 14:19 26.01.2020
3988 Clouds 5 1025 88 0 1.95 351 13:43 26.01.2020
3989 Clouds 4 1024 87 0 2.51 358 13:21 26.01.2020
3990 Clouds 5 1025 88 0 2.51 358 12:58 26.01.2020
3991 Clouds 5 1025 87 0 2.51 358 12:40 26.01.2020
3992 Clouds 5 1025 86 0 2.51 358 12:21 26.01.2020
3993 Clouds 5 1025 85 0 2.51 358 11:57 26.01.2020
3994 Clouds 5 1026 65 10000 2.1 360 11:39 26.01.2020
3995 Clouds 5 1026 65 10000 2.1 360 11:19 26.01.2020
3996 Clouds 6 1026 65 10000 2.1 360 10:58 26.01.2020
3997 Clouds 6 1026 65 10000 2.1 360 10:38 26.01.2020
3998 Clouds 6 1026 65 10000 2.1 360 10:20 26.01.2020
3999 Clouds 6 1025 61 10000 2.6 10 09:57 26.01.2020
4000 Clouds 6 1025 65 10000 2.6 20 09:39 26.01.2020
4001 Clouds 6 1025 65 10000 2.6 20 09:39 26.01.2020
4002 Clouds 7 1025 65 10000 2.6 20 09:20 26.01.2020
4003 Clouds 7 1025 65 10000 2.6 20 08:43 26.01.2020
4004 Clouds 7 1025 68 10000 0.5 0 08:22 26.01.2020
4005 Clouds 7 1025 65 10000 1.5 20 07:57 26.01.2020
4006 Clouds 7 1024 70 10000 0.5 0 07:39 26.01.2020
4007 Clouds 7 1024 70 10000 0.5 0 07:21 26.01.2020
4008 Clouds 7 1024 75 10000 0.5 0 06:31 26.01.2020
4009 Clouds 6 1025 75 10000 0.5 0 05:32 26.01.2020
4010 Clouds 6 1025 75 10000 0.5 0 05:32 26.01.2020
4011 Clouds 5 1026 80 16093 1.5 270 04:45 26.01.2020
4012 Clouds 4 1027 93 14484 3.6 37 02:58 26.01.2020
4013 Mist 4 1027 93 9656 2.97 19 01:50 26.01.2020
4014 Rain 3 1027 93 10000 1.5 120 01:25 26.01.2020
4015 Rain 3 1027 93 7000 2.1 70 00:58 26.01.2020
4016 Rain 3 1027 93 10000 3.6 40 00:37 26.01.2020
4017 Rain 3 1027 93 10000 3.6 40 00:19 26.01.2020
4018 Rain 3 1025 97 0 0.45 70 23:37 25.01.2020
4019 Rain 3 1025 96 0 2.74 349 23:18 25.01.2020
4020 Rain 3 1025 95 0 2.74 349 22:40 25.01.2020
4021 Rain 3 1025 95 0 2.74 349 22:19 25.01.2020
4022 Rain 4 1026 93 0 2.74 349 21:57 25.01.2020
4023 Rain 4 1025 92 0 2.74 349 21:39 25.01.2020
4024 Rain 3 1026 87 0 2.74 349 21:20 25.01.2020
4025 Rain 5 1025 84 0 2.74 349 20:45 25.01.2020
4026 Rain 5 1025 72 0 2.74 349 20:26 25.01.2020
4027 Clouds 8 1026 43 0 2.69 8 19:56 25.01.2020
4028 Clouds 6 1025 70 0 2.69 8 19:38 25.01.2020
4029 Clouds 7 1025 66 0 2.69 8 19:19 25.01.2020
4030 Clouds 6 1025 71 0 0.45 354 18:56 25.01.2020
4031 Clouds 7 1025 71 0 2.69 8 18:37 25.01.2020
4032 Clouds 7 1025 66 0 2.69 8 18:19 25.01.2020
4033 Clouds 7 1025 66 0 0.89 55 17:39 25.01.2020
4034 Clouds 7 1025 66 0 3.47 28 17:19 25.01.2020
4035 Clouds 7 1027 49 0 0.45 50 16:56 25.01.2020
4036 Clouds 8 1025 65 0 0.45 107 16:38 25.01.2020
4037 Clouds 8 1026 67 0 0.45 338 16:19 25.01.2020
4038 Clouds 8 1026 68 0 3.47 28 15:46 25.01.2020
4039 Clouds 8 1029 49 0 3.47 28 15:25 25.01.2020
4040 Clouds 8 1025 67 0 3.47 28 14:57 25.01.2020
4041 Clouds 8 1026 66 0 0.45 45 14:39 25.01.2020
4042 Clouds 8 1026 66 0 0.45 68 14:18 25.01.2020
4043 Clouds 8 1026 66 0 0.45 145 13:41 25.01.2020
4044 Clouds 8 1026 66 0 0.89 93 13:22 25.01.2020
4045 Clouds 8 1028 66 10000 5.1 80 12:43 25.01.2020
4046 Clouds 8 1028 66 10000 5.1 80 12:23 25.01.2020
4047 Clouds 8 1028 66 10000 5.1 80 11:45 25.01.2020
4048 Clouds 8 1028 66 10000 5.1 80 11:22 25.01.2020
4049 Clouds 8 1028 61 10000 5.1 90 10:58 25.01.2020
4050 Clouds 8 1027 61 10000 4.1 70 10:40 25.01.2020
4051 Clouds 8 1027 61 10000 4.1 70 10:20 25.01.2020
4052 Clouds 9 1027 57 10000 3.6 70 09:41 25.01.2020
4053 Clouds 9 1027 57 10000 3.6 70 09:22 25.01.2020
4054 Clouds 9 1027 53 10000 3.1 60 08:44 25.01.2020
4055 Clouds 9 1027 40 10000 2.1 100 08:26 25.01.2020
4056 Clouds 10 1026 53 10000 2.1 50 07:49 25.01.2020
4057 Clouds 10 1026 40 10000 2.1 20 06:52 25.01.2020
4058 Clouds 10 1026 40 10000 2.1 20 06:51 25.01.2020
4059 Clouds 10 1026 43 10000 1.5 70 06:28 25.01.2020
4060 Clouds 10 1027 43 10000 1.5 90 05:47 25.01.2020
4061 Clouds 9 1027 42 10000 3.1 30 04:50 25.01.2020
4062 Clouds 9 1028 36 10000 2.1 360 03:51 25.01.2020
4063 Clouds 9 1029 42 10000 3.6 10 02:57 25.01.2020
4064 Clouds 8 1029 45 10000 2.1 30 02:18 25.01.2020
4065 Clouds 8 1028 52 10000 2.1 30 01:43 25.01.2020
4066 Clouds 7 1028 49 10000 4.1 60 00:44 25.01.2020
4067 Clouds 7 1028 49 10000 4.1 60 00:25 25.01.2020
4068 Clouds 7 1028 42 10000 5.1 30 23:57 24.01.2020
4069 Clouds 6 1028 49 10000 5.1 20 23:39 24.01.2020
4070 Clouds 6 1028 49 10000 5.1 20 23:39 24.01.2020
4071 Clouds 6 1027 45 10000 6.2 20 23:21 24.01.2020
4072 Clouds 6 1027 49 10000 8.7 360 22:44 24.01.2020
4073 Clouds 6 1027 49 10000 8.7 360 22:25 24.01.2020
4074 Clouds 6 1026 45 10000 7.2 10 21:43 24.01.2020
4075 Clouds 6 1026 45 10000 7.2 10 21:21 24.01.2020
4076 Clouds 6 1025 45 10000 8.7 360 20:59 24.01.2020
4077 Clouds 6 1025 52 10000 8.2 360 20:40 24.01.2020
4078 Clouds 6 1025 52 10000 8.2 360 20:20 24.01.2020
4079 Clouds 6 1025 52 10000 8.2 10 19:57 24.01.2020
4080 Clouds 6 1025 52 10000 8.2 10 19:57 24.01.2020
4081 Clouds 6 1024 52 10000 7.2 360 19:38 24.01.2020
4082 Clouds 6 1024 52 10000 7.2 360 19:38 24.01.2020
4083 Clouds 6 1024 52 10000 7.2 360 19:20 24.01.2020
4084 Clouds 6 1024 40 10000 9.8 350 18:43 24.01.2020
4085 Clouds 7 1024 40 10000 9.8 350 18:24 24.01.2020
4086 Clouds 7 1025 40 10000 9.8 350 17:54 24.01.2020
4087 Clouds 7 1024 40 10000 9.3 350 17:36 24.01.2020
4088 Clouds 7 1024 43 10000 9.3 350 17:18 24.01.2020
4089 Clouds 8 1024 46 10000 10.3 350 16:39 24.01.2020
4090 Clouds 8 1024 43 10000 10.8 350 16:20 24.01.2020
4091 Rain 8 1024 43 10000 11.3 350 15:43 24.01.2020
4092 Rain 9 1024 43 10000 11.3 350 15:22 24.01.2020
4093 Rain 9 1024 43 10000 10.8 340 14:58 24.01.2020
4094 Clouds 9 1024 43 10000 9.8 340 14:40 24.01.2020
4095 Rain 9 1024 40 10000 9.8 340 14:21 24.01.2020
4096 Clouds 10 1024 46 10000 7.2 330 13:43 24.01.2020
4097 Clouds 10 1024 46 10000 7.2 330 13:23 24.01.2020
4098 Clouds 10 1023 71 10000 4.6 310 12:44 24.01.2020
4099 Clouds 10 1023 71 10000 4.6 310 12:23 24.01.2020
4100 Clouds 11 1023 81 10000 2.6 340 11:57 24.01.2020
4101 Clouds 11 1022 81 10000 1 360 11:39 24.01.2020
4102 Clouds 11 1022 81 10000 1 360 11:18 24.01.2020
4103 Clouds 11 1022 81 10000 1.5 360 10:42 24.01.2020
4104 Clouds 11 1022 81 10000 1.5 360 10:42 24.01.2020
4105 Clouds 11 1022 81 10000 1.5 360 10:42 24.01.2020
4106 Clouds 11 1022 81 10000 1.5 360 10:21 24.01.2020
4107 Clouds 12 1021 81 10000 1.5 350 09:55 24.01.2020
4108 Clouds 12 1021 81 10000 2.1 360 09:37 24.01.2020
4109 Clouds 12 1021 81 10000 2.1 360 09:18 24.01.2020
4110 Clouds 13 1021 71 10000 1.73 63 08:39 24.01.2020
4111 Clouds 13 1021 71 10000 1.93 89 08:19 24.01.2020
4112 Clouds 13 1021 71 10000 1.5 20 07:48 24.01.2020
4113 Clouds 13 1020 71 10000 0.5 150 07:22 24.01.2020
4114 Clouds 13 1022 71 16093 1.5 200 06:45 24.01.2020
4115 Clouds 13 1020 71 10000 1 0 06:24 24.01.2020
4116 Clouds 13 1021 66 10000 0.5 0 05:37 24.01.2020
4117 Clouds 12 1022 76 10000 2.1 40 03:55 24.01.2020
4118 Clouds 11 1022 76 8000 1 0 02:43 24.01.2020
4119 Clouds 11 1022 76 8000 1 0 02:23 24.01.2020
4120 Clouds 10 1024 87 16093 1.9 21 01:39 24.01.2020
4121 Clouds 9 1022 81 8000 1.5 10 00:54 24.01.2020
4122 Clouds 8 1022 81 10000 3.6 20 00:19 24.01.2020
4123 Clouds 8 1022 81 10000 3.1 20 23:45 23.01.2020
4124 Clouds 8 1021 81 10000 2.1 30 23:26 23.01.2020
4125 Clouds 8 1022 93 16093 2.57 350 22:59 23.01.2020
4126 Clouds 8 1020 81 10000 2.1 10 22:37 23.01.2020
4127 Clouds 8 1020 81 10000 2.1 10 22:18 23.01.2020
4128 Clouds 8 1020 81 10000 2.6 20 21:56 23.01.2020
4129 Clouds 8 1021 93 16093 2.57 350 21:38 23.01.2020
4130 Clouds 8 1020 81 10000 1.5 340 21:19 23.01.2020
4131 Clouds 8 1020 81 10000 1.5 340 20:57 23.01.2020
4132 Clouds 8 1019 87 10000 2.1 360 20:38 23.01.2020
4133 Clouds 8 1019 87 10000 2.1 360 20:19 23.01.2020
4134 Clouds 8 1020 81 10000 2.6 350 19:44 23.01.2020
4135 Clouds 8 1020 81 10000 2.6 350 19:24 23.01.2020
4136 Clouds 8 1019 81 10000 3.1 350 18:59 23.01.2020
4137 Clouds 8 1019 87 10000 4.1 360 18:40 23.01.2020
4138 Clouds 8 1019 87 10000 4.1 360 18:20 23.01.2020
4139 Clouds 8 1019 87 10000 4.6 10 17:58 23.01.2020
4140 Clouds 8 1019 87 10000 4.6 360 17:39 23.01.2020
4141 Clouds 8 1019 87 10000 4.6 360 17:19 23.01.2020
4142 Clouds 8 1020 93 16093 2.6 280 16:55 23.01.2020
4143 Clouds 8 1018 81 10000 5.7 350 16:36 23.01.2020
4144 Clouds 8 1018 81 10000 5.7 350 16:18 23.01.2020
4145 Clouds 8 1019 81 10000 6.2 350 15:54 23.01.2020
4146 Clouds 8 1018 81 10000 7.2 350 15:36 23.01.2020
4147 Clouds 8 1018 81 10000 7.2 350 15:18 23.01.2020
4148 Clouds 8 1019 87 8000 6.2 350 14:54 23.01.2020
4149 Rain 8 1018 87 8000 6.2 350 14:36 23.01.2020
4150 Rain 8 1018 87 8000 6.2 350 14:18 23.01.2020
4151 Clouds 8 1018 87 10000 5.1 350 13:38 23.01.2020
4152 Clouds 8 1018 87 10000 5.1 350 13:19 23.01.2020
4153 Clouds 8 1018 87 10000 5.7 340 12:47 23.01.2020
4154 Clouds 8 1018 87 10000 5.1 350 12:25 23.01.2020
4155 Clouds 8 1018 87 10000 5.1 350 12:25 23.01.2020
4156 Clouds 8 1018 87 10000 5.1 350 12:25 23.01.2020
4157 Clouds 7 1018 81 9000 4.1 340 11:59 23.01.2020
4158 Clouds 7 1018 87 9000 5.1 350 11:38 23.01.2020
4159 Clouds 7 1018 87 9000 5.1 350 11:19 23.01.2020
4160 Rain 7 1017 93 5000 4.6 10 10:45 23.01.2020
4161 Rain 7 1017 93 5000 4.6 10 10:23 23.01.2020
4162 Rain 7 1018 93 3500 4.6 350 09:59 23.01.2020
4163 Rain 7 1018 93 1400 2.1 340 09:38 23.01.2020
4164 Rain 7 1018 93 1400 2.1 340 09:20 23.01.2020
4165 Rain 7 1018 93 2000 4.1 10 08:42 23.01.2020
4166 Rain 7 1017 81 9656 2.6 360 08:24 23.01.2020
4167 Rain 7 1017 81 9656 2.6 360 08:24 23.01.2020
4168 Rain 6 1017 81 9656 2.1 360 07:48 23.01.2020
4169 Rain 6 1017 87 6437 1.5 10 07:27 23.01.2020
4170 Rain 6 1017 87 4426 1.5 10 06:54 23.01.2020
4171 Rain 7 1018 93 2500 1 0 06:23 23.01.2020
4172 Rain 7 1019 87 2000 2.1 360 05:58 23.01.2020
4173 Rain 7 1019 87 2000 2.1 360 05:58 23.01.2020
4174 Rain 7 1020 81 5000 1 0 04:24 23.01.2020
4175 Rain 6 1024 81 5000 1.5 360 02:35 23.01.2020
4176 Rain 6 1023 80 8047 1.5 30 01:41 23.01.2020
4177 Rain 5 1024 81 10000 2.1 350 00:28 23.01.2020
4178 Rain 5 1024 65 10000 1 0 23:54 22.01.2020
4179 Rain 5 1024 36 10000 2.1 10 23:36 22.01.2020
4180 Rain 5 1024 42 10000 2.1 10 23:18 22.01.2020
4181 Clouds 5 1023 65 10000 2.6 30 22:41 22.01.2020
4182 Clouds 5 1023 65 10000 2.6 30 22:23 22.01.2020
4183 Clouds 5 1023 70 10000 2.6 20 21:42 22.01.2020
4184 Clouds 5 1023 70 10000 2.6 20 21:22 22.01.2020
4185 Clouds 5 1023 70 10000 3.6 20 20:59 22.01.2020
4186 Clouds 5 1023 70 10000 3.1 20 20:41 22.01.2020
4187 Clouds 5 1023 70 10000 3.1 20 20:23 22.01.2020
4188 Clouds 5 1023 70 10000 2.6 10 19:57 22.01.2020
4189 Clouds 5 1023 65 10000 2.6 30 19:39 22.01.2020
4190 Clouds 5 1024 65 10000 2.1 10 19:19 22.01.2020
4191 Clouds 5 1024 65 10000 2.1 10 18:57 22.01.2020
4192 Clouds 5 1024 47 10000 1.5 110 18:38 22.01.2020
4193 Clouds 5 1024 47 10000 1.5 110 18:20 22.01.2020
4194 Clouds 5 1024 47 10000 0.5 0 17:55 22.01.2020
4195 Clouds 5 1024 65 10000 1.5 40 17:37 22.01.2020
4196 Clouds 5 1024 65 10000 1.5 40 17:19 22.01.2020
4197 Clouds 5 1025 53 10000 2.6 320 16:43 22.01.2020
4198 Clouds 5 1025 53 10000 2.6 320 16:23 22.01.2020
4199 Clouds 5 1025 70 10000 3.1 320 15:59 22.01.2020
4200 Clouds 6 1025 53 10000 0.5 0 15:40 22.01.2020
4201 Clouds 6 1025 53 10000 0.5 0 15:22 22.01.2020
4202 Clouds 6 1025 56 10000 0.5 0 14:58 22.01.2020
4203 Clouds 6 1025 56 10000 0.5 0 14:37 22.01.2020
4204 Clouds 6 1025 56 10000 0.5 0 14:18 22.01.2020
4205 Clouds 6 1026 56 10000 1 0 13:55 22.01.2020
4206 Clouds 6 1026 56 10000 1.5 280 13:36 22.01.2020
4207 Clouds 6 1026 56 10000 1.5 280 13:36 22.01.2020
4208 Clouds 6 1026 56 10000 1.5 280 13:36 22.01.2020
4209 Clouds 6 1026 56 10000 1.5 280 13:18 22.01.2020
4210 Clouds 6 1026 56 10000 2.1 340 12:55 22.01.2020
4211 Clouds 6 1026 56 10000 2.6 320 12:37 22.01.2020
4212 Clouds 6 1026 56 10000 2.6 320 12:18 22.01.2020
4213 Clouds 6 1026 56 10000 3.1 320 11:56 22.01.2020
4214 Clouds 6 1026 56 10000 2.6 10 11:37 22.01.2020
4215 Clouds 6 1026 61 10000 2.1 290 11:18 22.01.2020
4216 Clouds 6 1026 56 10000 2.6 20 10:44 22.01.2020
4217 Clouds 6 1026 56 10000 2.6 20 10:21 22.01.2020
4218 Clouds 6 1026 56 10000 4.1 30 09:44 22.01.2020
4219 Clouds 7 1026 61 10000 3.6 30 09:26 22.01.2020
4220 Clouds 7 1026 56 10000 3.6 20 08:59 22.01.2020
4221 Clouds 7 1026 52 10000 3.1 30 08:40 22.01.2020
4222 Clouds 7 1026 52 10000 3.1 30 08:21 22.01.2020
4223 Clouds 8 1026 56 10000 3.6 30 07:58 22.01.2020
4224 Clouds 8 1026 48 10000 3.1 20 07:40 22.01.2020
4225 Clouds 8 1026 48 10000 3.1 20 07:21 22.01.2020
4226 Clouds 7 1026 56 10000 2.6 30 06:31 22.01.2020
4227 Rain 7 1027 60 10000 2.1 360 05:42 22.01.2020
4228 Clouds 6 1029 56 10000 3.6 340 04:23 22.01.2020
4229 Clouds 6 1030 52 10000 2.6 330 03:26 22.01.2020
4230 Clouds 5 1030 48 10000 2.6 360 02:38 22.01.2020
4231 Clouds 4 1031 52 10000 4.1 320 00:46 22.01.2020
4232 Clouds 4 1031 52 10000 4.1 320 00:27 22.01.2020
4233 Clouds 3 1030 48 10000 4.1 360 23:55 21.01.2020
4234 Clouds 3 1030 52 10000 4.6 20 23:36 21.01.2020
4235 Clouds 3 1030 52 10000 4.6 20 23:18 21.01.2020
4236 Clouds 3 1030 52 10000 4.6 20 23:18 21.01.2020
4237 Clouds 3 1030 52 10000 4.6 20 23:18 21.01.2020
4238 Clouds 3 1029 52 10000 4.1 10 22:40 21.01.2020
4239 Clouds 3 1029 52 10000 4.1 10 22:20 21.01.2020
4240 Clouds 3 1029 52 10000 4.6 10 21:57 21.01.2020
4241 Clouds 3 1029 52 10000 3.6 10 21:38 21.01.2020
4242 Clouds 3 1029 52 10000 3.6 10 21:20 21.01.2020
4243 Clouds 3 1028 56 10000 3.6 10 20:56 21.01.2020
4244 Clouds 2 1028 48 10000 3.1 350 20:37 21.01.2020
4245 Clouds 2 1028 48 10000 3.1 350 20:19 21.01.2020
4246 Clouds 2 1029 51 10000 3.6 350 19:56 21.01.2020
4247 Clouds 2 1028 48 10000 5.1 360 19:38 21.01.2020
4248 Clouds 3 1028 52 10000 5.7 360 19:20 21.01.2020
4249 Clouds 3 1028 52 10000 5.7 360 18:55 21.01.2020
4250 Clouds 3 1028 52 10000 6.2 10 18:37 21.01.2020
4251 Clouds 3 1028 52 10000 6.2 10 18:18 21.01.2020
4252 Clouds 3 1029 52 10000 6.2 20 17:45 21.01.2020
4253 Clouds 3 1028 52 10000 5.1 30 17:20 21.01.2020
4254 Clouds 3 1028 48 10000 6.2 20 16:59 21.01.2020
4255 Clouds 3 1028 45 10000 5.1 10 16:37 21.01.2020
4256 Clouds 3 1028 45 10000 5.1 10 16:37 21.01.2020
4257 Clouds 3 1028 45 10000 5.1 10 16:37 21.01.2020
4258 Clouds 3 1028 45 10000 5.1 10 16:19 21.01.2020
4259 Clouds 4 1028 48 10000 6.2 350 15:56 21.01.2020
4260 Clouds 4 1028 48 10000 5.1 360 15:36 21.01.2020
4261 Clouds 4 1028 48 10000 5.1 360 15:18 21.01.2020
4262 Clouds 4 1027 45 10000 6.2 330 14:38 21.01.2020
4263 Clouds 4 1027 45 10000 6.2 330 14:20 21.01.2020
4264 Clouds 5 1026 42 10000 7.7 330 13:40 21.01.2020
4265 Clouds 5 1026 42 10000 7.7 330 13:19 21.01.2020
4266 Clouds 5 1026 42 10000 8.2 340 12:56 21.01.2020
4267 Clouds 5 1025 45 10000 8.2 330 12:37 21.01.2020
4268 Clouds 6 1025 45 10000 8.2 330 12:19 21.01.2020
4269 Clouds 6 1025 39 10000 8.7 350 11:40 21.01.2020
4270 Clouds 6 1025 39 10000 8.7 350 11:21 21.01.2020
4271 Clouds 7 1024 45 10000 7.7 350 10:57 21.01.2020
4272 Clouds 7 1024 45 10000 7.7 350 10:57 21.01.2020
4273 Clouds 7 1024 39 10000 7.7 350 10:39 21.01.2020
4274 Clouds 7 1024 39 10000 7.7 350 10:20 21.01.2020
4275 Clouds 8 1023 39 10000 8.2 350 09:42 21.01.2020
4276 Clouds 8 1023 39 10000 8.2 350 09:23 21.01.2020
4277 Clouds 9 1022 34 10000 7.7 350 08:54 21.01.2020
4278 Clouds 9 1022 29 10000 5.1 330 08:36 21.01.2020
4279 Clouds 10 1022 29 10000 5.1 330 08:18 21.01.2020
4280 Clouds 10 1020 29 10000 7.2 320 07:41 21.01.2020
4281 Clouds 10 1020 29 10000 7.2 320 07:22 21.01.2020
4282 Clouds 11 1020 32 10000 8.7 340 06:49 21.01.2020
4283 Clouds 11 1020 32 10000 6.2 360 06:30 21.01.2020
4284 Clouds 11 1020 40 10000 9.8 350 05:44 21.01.2020
4285 Clouds 11 1019 34 10000 6.2 320 04:41 21.01.2020
4286 Clouds 10 1019 43 10000 9.3 350 02:58 21.01.2020
4287 Clouds 10 1019 43 10000 10.8 350 02:19 21.01.2020
4288 Clouds 9 1018 39 10000 5.1 340 01:26 21.01.2020
4289 Rain 7 1018 49 10000 11.8 340 00:38 21.01.2020
4290 Rain 7 1017 49 10000 10.3 350 23:59 20.01.2020
4291 Rain 6 1015 49 10000 11.8 340 23:41 20.01.2020
4292 Rain 6 1015 49 10000 11.8 340 23:19 20.01.2020
4293 Rain 6 1015 45 10000 9.8 330 22:58 20.01.2020
4294 Clouds 5 1014 49 10000 6.7 330 22:38 20.01.2020
4295 Clouds 5 1014 49 10000 6.7 330 22:20 20.01.2020
4296 Clouds 5 1014 49 10000 6.7 330 22:20 20.01.2020
4297 Clouds 4 1014 52 10000 5.7 320 21:58 20.01.2020
4298 Clouds 4 1013 56 10000 5.7 330 21:37 20.01.2020
4299 Clouds 4 1013 56 10000 5.7 330 21:19 20.01.2020
4300 Clouds 3 1013 70 10000 2.6 280 20:57 20.01.2020
4301 Clear 3 1012 75 10000 2.1 260 20:38 20.01.2020
4302 Clear 3 1012 75 10000 2.1 260 20:19 20.01.2020
4303 Clear 3 1011 75 10000 2.1 260 19:56 20.01.2020
4304 Clear 3 1011 75 10000 2.1 260 19:56 20.01.2020
4305 Clear 3 1011 70 10000 2.1 290 19:38 20.01.2020
4306 Clear 3 1011 70 10000 2.1 290 19:18 20.01.2020
4307 Clouds 4 1011 100 10000 1.5 290 18:44 20.01.2020
4308 Clouds 4 1012 65 10000 2.1 300 18:23 20.01.2020
4309 Clouds 4 1011 70 10000 2.6 290 17:59 20.01.2020
4310 Clouds 4 1012 75 10000 3.6 290 17:36 20.01.2020
4311 Clouds 4 1012 75 10000 3.6 290 17:36 20.01.2020
4312 Clouds 4 1012 75 10000 3.6 290 17:18 20.01.2020
4313 Clouds 5 1011 65 10000 3.6 280 16:44 20.01.2020
4314 Clouds 5 1011 65 10000 3.6 280 16:25 20.01.2020
4315 Clouds 5 1011 61 10000 3.1 290 15:58 20.01.2020
4316 Clouds 5 1011 57 10000 3.1 300 15:39 20.01.2020
4317 Clouds 6 1011 57 10000 3.1 300 15:21 20.01.2020
4318 Clouds 6 1011 65 10000 3.6 310 14:55 20.01.2020
4319 Clouds 6 1011 61 10000 2.1 320 14:36 20.01.2020
4320 Clouds 6 1011 61 10000 2.1 320 14:18 20.01.2020
4321 Clouds 6 1012 61 10000 2.1 320 13:41 20.01.2020
4322 Clouds 7 1012 61 10000 2.1 320 13:23 20.01.2020
4323 Clouds 7 1011 50 10000 2.1 190 12:56 20.01.2020
4324 Clouds 7 1012 57 10000 3.1 180 12:38 20.01.2020
4325 Clouds 7 1012 57 10000 3.1 180 12:19 20.01.2020
4326 Clear 8 1011 61 10000 2.6 150 11:43 20.01.2020
4327 Clear 8 1011 61 10000 2.6 150 11:24 20.01.2020
4328 Clear 8 1012 61 10000 2.1 140 10:57 20.01.2020
4329 Clear 9 1011 53 10000 2.6 170 10:39 20.01.2020
4330 Clear 10 1011 53 10000 2.6 170 10:19 20.01.2020
4331 Clouds 10 1011 39 10000 2.1 140 09:41 20.01.2020
4332 Clouds 10 1011 39 10000 1 160 09:41 20.01.2020
4333 Clouds 11 1011 39 10000 2.1 140 09:21 20.01.2020
4334 Clouds 12 1011 57 10000 1.5 140 08:49 20.01.2020
4335 Clouds 13 1011 46 10000 1.5 160 08:30 20.01.2020
4336 Clouds 13 1011 54 10000 1 0 07:54 20.01.2020
4337 Clouds 13 1011 58 10000 2.1 140 07:30 20.01.2020
4338 Clouds 13 1010 57 10000 1 0 06:59 20.01.2020
4339 Clouds 13 1010 57 10000 1 0 06:59 20.01.2020
4340 Clouds 13 1010 58 10000 1.5 160 06:34 20.01.2020
4341 Clouds 13 1011 62 10000 2.1 140 05:49 20.01.2020
4342 Clouds 13 1011 58 10000 3.6 140 05:30 20.01.2020
4343 Clouds 12 1011 62 10000 2.6 160 04:58 20.01.2020
4344 Clear 12 1013 57 10000 2.1 140 03:30 20.01.2020
4345 Clear 8 1013 44 10000 1 0 01:58 20.01.2020
4346 Clear 7 1013 65 10000 1.5 0 01:38 20.01.2020
4347 Clear 6 1013 45 10000 1.5 350 00:46 20.01.2020
4348 Clouds 6 1013 70 10000 2.6 320 00:26 20.01.2020
4349 Clouds 4 1013 45 10000 2.6 320 23:54 19.01.2020
4350 Clouds 3 1013 45 10000 2.6 310 23:36 19.01.2020
4351 Clouds 3 1013 53 10000 2.6 310 23:18 19.01.2020
4352 Clouds 3 1013 53 10000 2.6 310 22:54 19.01.2020
4353 Clear 3 1012 53 10000 3.1 340 22:36 19.01.2020
4354 Clear 3 1012 53 10000 3.1 340 22:18 19.01.2020
4355 Clear 3 1012 70 10000 3.1 10 21:54 19.01.2020
4356 Clear 3 1011 53 10000 2.6 320 21:36 19.01.2020
4357 Clear 3 1011 53 10000 2.6 320 21:18 19.01.2020
4358 Clear 3 1011 53 10000 2.6 310 20:54 19.01.2020
4359 Clear 3 1011 53 10000 2.6 310 20:36 19.01.2020
4360 Clear 3 1011 55 10000 2.6 310 20:18 19.01.2020
4361 Clear 4 1012 75 10000 3.1 300 19:54 19.01.2020
4362 Clear 3 1011 80 10000 3.1 300 19:36 19.01.2020
4363 Clear 4 1011 80 10000 3.1 300 19:18 19.01.2020
4364 Clear 4 1011 75 10000 3.1 300 18:54 19.01.2020
4365 Clear 4 1011 75 10000 3.1 290 18:36 19.01.2020
4366 Clear 4 1011 75 10000 3.1 290 18:36 19.01.2020
4367 Clear 4 1011 75 10000 3.1 290 18:18 19.01.2020
4368 Clear 5 1012 81 10000 3.1 290 17:55 19.01.2020
4369 Clear 5 1012 75 10000 3.6 280 17:37 19.01.2020
4370 Clear 5 1012 75 10000 3.6 280 17:18 19.01.2020
4371 Clear 6 1012 66 10000 4.1 260 16:54 19.01.2020
4372 Clear 6 1011 65 10000 5.7 240 16:36 19.01.2020
4373 Clear 6 1011 65 10000 5.7 240 16:18 19.01.2020
4374 Clouds 7 1011 81 10000 6.2 170 15:41 19.01.2020
4375 Clouds 7 1011 81 10000 6.2 170 15:22 19.01.2020
4376 Clouds 7 1012 75 10000 6.7 160 14:59 19.01.2020
4377 Clouds 7 1012 75 10000 5.1 150 14:40 19.01.2020
4378 Clouds 8 1013 75 10000 4.6 140 14:19 19.01.2020
4379 Clouds 8 1013 75 10000 4.6 140 13:58 19.01.2020
4380 Clouds 8 1013 61 10000 5.1 150 13:39 19.01.2020
4381 Clouds 8 1013 61 10000 5.1 150 13:21 19.01.2020
4382 Clouds 8 1014 61 10000 5.1 150 12:59 19.01.2020
4383 Clouds 8 1013 61 10000 5.7 150 12:40 19.01.2020
4384 Clouds 8 1013 61 10000 5.7 150 12:21 19.01.2020
4385 Clouds 8 1014 61 10000 5.7 150 11:57 19.01.2020
4386 Clouds 8 1013 57 10000 6.2 150 11:38 19.01.2020
4387 Clouds 8 1013 57 10000 6.2 150 11:18 19.01.2020
4388 Clouds 8 1014 43 10000 3.6 200 10:40 19.01.2020
4389 Clouds 8 1014 45 10000 3.6 160 10:21 19.01.2020
4390 Clouds 9 1014 45 10000 3.6 160 09:57 19.01.2020
4391 Clouds 9 1014 42 10000 2.6 170 09:38 19.01.2020
4392 Clouds 9 1014 42 10000 2.6 170 09:20 19.01.2020
4393 Clouds 9 1014 45 10000 1.5 130 08:55 19.01.2020
4394 Clouds 9 1013 45 10000 2.6 140 08:33 19.01.2020
4395 Clouds 10 1013 45 10000 3.1 110 07:58 19.01.2020
4396 Clouds 10 1013 46 10000 4.1 120 07:29 19.01.2020
4397 Clouds 10 1014 42 10000 4.1 130 06:55 19.01.2020
4398 Clouds 10 1013 49 10000 4.6 150 06:23 19.01.2020
4399 Rain 9 1015 37 10000 2.1 70 04:19 19.01.2020
4400 Clear 7 1016 56 10000 3.6 30 02:35 19.01.2020
4401 Clouds 7 1016 56 10000 4.6 20 01:45 19.01.2020
4402 Clouds 6 1016 60 10000 2.6 20 01:22 19.01.2020
4403 Clouds 5 1016 60 10000 1 0 00:45 19.01.2020
4404 Clouds 4 1015 60 10000 3.6 30 00:25 19.01.2020
4405 Clouds 3 1015 60 10000 3.6 30 23:55 18.01.2020
4406 Clouds 3 1015 65 10000 4.6 40 23:36 18.01.2020
4407 Clouds 2 1015 65 10000 4.6 40 23:18 18.01.2020
4408 Clouds 2 1015 55 10000 5.1 30 22:54 18.01.2020
4409 Clouds 2 1014 55 10000 5.1 30 22:36 18.01.2020
4410 Clouds 2 1014 55 10000 5.1 30 22:36 18.01.2020
4411 Clouds 3 1014 55 10000 4.1 30 22:18 18.01.2020
4412 Clouds 3 1014 55 10000 4.1 30 21:55 18.01.2020
4413 Clouds 3 1014 55 10000 4.6 10 21:36 18.01.2020
4414 Clouds 3 1014 55 10000 4.6 10 21:18 18.01.2020
4415 Clouds 4 1013 70 10000 5.1 20 20:41 18.01.2020
4416 Clouds 4 1014 75 10000 4.6 20 20:19 18.01.2020
4417 Clouds 4 1014 75 10000 4.6 20 19:54 18.01.2020
4418 Clouds 4 1014 56 10000 5.1 20 19:36 18.01.2020
4419 Clouds 4 1014 56 10000 5.1 20 19:18 18.01.2020
4420 Clouds 4 1013 60 10000 6.2 330 18:40 18.01.2020
4421 Clouds 4 1013 60 10000 6.2 330 18:40 18.01.2020
4422 Clouds 4 1013 60 10000 6.2 330 18:21 18.01.2020
4423 Clouds 4 1013 75 10000 5.1 340 17:41 18.01.2020
4424 Clouds 4 1013 75 10000 5.1 340 17:21 18.01.2020
4425 Clouds 4 1013 70 10000 6.2 350 16:59 18.01.2020
4426 Clouds 4 1013 75 10000 7.2 360 16:41 18.01.2020
4427 Clouds 4 1013 75 10000 7.2 360 16:22 18.01.2020
4428 Rain 4 1013 75 10000 8.2 360 15:58 18.01.2020
4429 Rain 4 1013 75 10000 8.7 360 15:40 18.01.2020
4430 Rain 4 1013 75 10000 8.7 360 15:21 18.01.2020
4431 Rain 4 1014 80 10000 9.3 350 14:44 18.01.2020
4432 Rain 4 1013 86 10000 9.3 350 14:24 18.01.2020
4433 Rain 4 1013 86 10000 8.7 340 13:59 18.01.2020
4434 Rain 4 1013 80 10000 8.7 340 13:41 18.01.2020
4435 Rain 4 1013 80 10000 8.7 340 13:21 18.01.2020
4436 Rain 4 1013 86 10000 9.3 350 12:55 18.01.2020
4437 Rain 4 1013 86 10000 9.3 350 12:55 18.01.2020
4438 Rain 4 1012 80 10000 7.7 350 12:37 18.01.2020
4439 Rain 4 1012 86 12874 3.6 310 12:19 18.01.2020
4440 Rain 4 1012 86 12874 3.6 310 11:44 18.01.2020
4441 Rain 4 1012 93 9656 4.1 320 11:21 18.01.2020
4442 Rain 3 1014 86 16093 2.1 340 10:54 18.01.2020
4443 Rain 3 1012 100 9656 3.1 320 10:36 18.01.2020
4444 Rain 3 1012 100 9656 3.1 320 10:18 18.01.2020
4445 Rain 3 1014 86 16093 3.1 350 09:42 18.01.2020
4446 Rain 3 1014 86 16093 3.1 350 09:20 18.01.2020
4447 Rain 3 1011 93 9656 3.6 320 08:55 18.01.2020
4448 Rain 3 1011 86 8000 5.1 300 08:36 18.01.2020
4449 Rain 3 1011 86 8000 5.1 300 08:18 18.01.2020
4450 Rain 2 1011 86 8000 6.2 300 07:40 18.01.2020
4451 Rain 2 1011 86 8000 6.2 300 07:21 18.01.2020
4452 Rain 2 1013 32 12874 4.1 10 06:45 18.01.2020
4453 Rain 2 1011 32 2012 4.6 320 05:55 18.01.2020
4454 Rain 2 1014 42 8047 4.1 10 04:29 18.01.2020
4455 Rain 2 1014 93 3500 5.1 20 02:50 18.01.2020
4456 Rain 3 1015 73 4000 4.6 10 01:51 18.01.2020
4457 Rain 3 1013 86 8000 4.6 10 01:20 18.01.2020
4458 Rain 3 1013 93 9000 9.8 20 00:36 18.01.2020
4459 Rain 3 1013 93 9000 9.8 20 00:18 18.01.2020
4460 Rain 4 1013 80 9000 9.3 20 23:40 17.01.2020
4461 Rain 4 1013 80 9000 9.3 20 23:19 17.01.2020
4462 Rain 5 1014 80 10000 9.3 20 22:44 17.01.2020
4463 Rain 5 1013 75 10000 8.7 10 22:21 17.01.2020
4464 Rain 5 1013 75 10000 8.2 10 21:58 17.01.2020
4465 Rain 5 1013 75 10000 8.2 10 21:58 17.01.2020
4466 Rain 5 1012 70 10000 8.7 10 21:40 17.01.2020
4467 Rain 5 1012 70 10000 8.7 10 21:22 17.01.2020
4468 Rain 6 1013 70 10000 9.3 20 20:55 17.01.2020
4469 Rain 6 1013 70 10000 8.2 10 20:37 17.01.2020
4470 Rain 6 1013 61 10000 8.7 360 20:19 17.01.2020
4471 Rain 6 1013 61 10000 8.7 360 19:55 17.01.2020
4472 Rain 6 1014 61 10000 7.2 10 19:37 17.01.2020
4473 Rain 6 1014 61 10000 7.2 10 19:18 17.01.2020
4474 Drizzle 6 1016 80 16093 4.1 10 18:45 17.01.2020
4475 Drizzle 6 1016 80 16093 4.1 10 18:27 17.01.2020
4476 Rain 6 1017 75 16093 3.6 360 17:56 17.01.2020
4477 Rain 6 1015 70 10000 7.7 40 17:38 17.01.2020
4478 Rain 7 1017 80 16093 4.1 360 17:20 17.01.2020
4479 Rain 7 1017 75 16093 4.6 10 16:42 17.01.2020
4480 Rain 6 1017 75 16093 4.6 10 16:20 17.01.2020
4481 Rain 7 1016 70 10000 7.7 40 15:49 17.01.2020
4482 Rain 7 1016 65 14484 3.6 330 15:28 17.01.2020
4483 Rain 8 1017 66 10000 7.2 50 14:59 17.01.2020
4484 Rain 8 1016 66 10000 6.7 20 14:40 17.01.2020
4485 Rain 8 1016 66 10000 6.7 20 14:22 17.01.2020
4486 Clouds 8 1017 61 10000 5.7 30 13:42 17.01.2020
4487 Clouds 8 1017 61 10000 5.7 30 13:22 17.01.2020
4488 Clouds 8 1017 61 10000 6.7 50 12:46 17.01.2020
4489 Clouds 8 1017 66 10000 6.2 50 12:23 17.01.2020
4490 Clouds 8 1017 66 10000 6.7 60 11:41 17.01.2020
4491 Clouds 8 1017 61 10000 6.7 60 11:20 17.01.2020
4492 Clouds 8 1017 61 10000 6.7 60 10:56 17.01.2020
4493 Clouds 8 1017 61 10000 6.2 70 10:38 17.01.2020
4494 Clouds 8 1017 61 10000 6.2 70 10:20 17.01.2020
4495 Clouds 9 1017 57 10000 5.1 70 09:44 17.01.2020
4496 Clouds 9 1017 57 10000 5.1 70 09:21 17.01.2020
4497 Clouds 9 1017 66 10000 5.1 70 08:58 17.01.2020
4498 Clouds 9 1017 61 10000 5.1 80 08:40 17.01.2020
4499 Clouds 9 1017 61 10000 5.1 80 08:21 17.01.2020
4500 Clouds 10 1018 61 10000 3.6 80 07:48 17.01.2020
4501 Clouds 10 1017 57 10000 4.6 80 07:29 17.01.2020
4502 Clouds 10 1017 61 10000 3.6 70 06:56 17.01.2020
4503 Clouds 10 1016 57 10000 4.1 80 06:36 17.01.2020
4504 Clouds 10 1015 63 0 0.89 12 05:19 17.01.2020
4505 Clouds 9 1017 55 0 1.34 46 03:38 17.01.2020
4506 Clouds 8 1019 62 0 0.89 311 02:42 17.01.2020
4507 Clouds 7 1019 66 0 0.89 10 01:45 17.01.2020
4508 Clouds 6 1019 67 0 0.89 45 01:27 17.01.2020
4509 Clouds 5 1019 72 0 0.45 310 00:43 17.01.2020
4510 Clouds 5 1020 56 10000 5.7 360 00:19 17.01.2020
4511 Clouds 4 1020 56 10000 5.7 360 23:41 16.01.2020
4512 Clouds 4 1020 56 10000 5.7 360 23:41 16.01.2020
4513 Clouds 4 1020 56 10000 5.7 360 23:23 16.01.2020
4514 Clouds 4 1020 45 10000 5.1 360 22:43 16.01.2020
4515 Clouds 4 1020 56 10000 5.1 10 22:22 16.01.2020
4516 Clouds 4 1020 56 10000 6.2 350 21:57 16.01.2020
4517 Clouds 4 1019 56 10000 5.7 340 21:39 16.01.2020
4518 Clouds 4 1019 56 10000 5.7 340 21:19 16.01.2020
4519 Clouds 4 1019 56 10000 4.6 330 20:59 16.01.2020
4520 Clouds 5 1019 45 10000 6.2 350 20:39 16.01.2020
4521 Clouds 5 1019 44 10000 6.2 350 20:20 16.01.2020
4522 Rain 5 1020 44 10000 6.2 10 19:57 16.01.2020
4523 Clouds 5 1019 65 10000 6.2 360 19:39 16.01.2020
4524 Clouds 5 1019 65 10000 6.2 360 19:20 16.01.2020
4525 Clouds 5 1019 65 10000 5.1 360 18:56 16.01.2020
4526 Clouds 5 1020 44 10000 4.1 360 18:37 16.01.2020
4527 Clouds 5 1020 44 10000 4.1 360 18:18 16.01.2020
4528 Clouds 5 1020 44 10000 4.1 360 18:18 16.01.2020
4529 Clouds 5 1020 44 10000 4.1 360 18:18 16.01.2020
4530 Clouds 6 1020 44 10000 4.1 360 17:56 16.01.2020
4531 Clouds 6 1019 44 10000 4.1 360 17:38 16.01.2020
4532 Clouds 6 1019 55 10000 4.1 360 17:19 16.01.2020
4533 Clouds 6 1020 55 10000 4.1 360 16:40 16.01.2020
4534 Clouds 5 1020 55 10000 4.1 360 16:21 16.01.2020
4535 Clouds 6 1020 55 10000 3.6 10 15:56 16.01.2020
4536 Clouds 6 1020 57 10000 3.1 30 15:38 16.01.2020
4537 Clouds 6 1020 57 10000 3.1 30 15:19 16.01.2020
4538 Clouds 6 1020 57 10000 3.1 80 14:42 16.01.2020
4539 Clouds 6 1020 57 10000 3.1 80 14:23 16.01.2020
4540 Clouds 6 1020 57 10000 2.6 80 13:47 16.01.2020
4541 Clouds 6 1020 57 10000 2.1 80 13:29 16.01.2020
4542 Clouds 6 1020 57 10000 2.6 100 12:59 16.01.2020
4543 Clouds 6 1020 57 10000 2.6 110 12:40 16.01.2020
4544 Clouds 6 1020 75 10000 1 0 12:21 16.01.2020
4545 Clouds 7 1021 49 10000 1.5 100 11:43 16.01.2020
4546 Clouds 7 1021 49 10000 1.5 100 11:24 16.01.2020
4547 Clouds 7 1021 45 10000 2.1 120 10:57 16.01.2020
4548 Clouds 7 1021 49 10000 2.1 150 10:38 16.01.2020
4549 Clouds 7 1021 49 10000 2.1 150 10:20 16.01.2020
4550 Clouds 8 1020 42 10000 1.5 130 09:54 16.01.2020
4551 Clouds 9 1020 45 10000 2.1 130 09:36 16.01.2020
4552 Clouds 9 1020 45 10000 3.1 130 09:18 16.01.2020
4553 Clouds 9 1020 42 10000 3.1 140 08:42 16.01.2020
4554 Clouds 9 1020 42 10000 3.1 140 08:23 16.01.2020
4555 Clouds 10 1020 45 10000 2.6 110 07:43 16.01.2020
4556 Clouds 10 1019 39 10000 3.1 140 07:25 16.01.2020
4557 Clouds 10 1020 39 10000 2.1 100 06:56 16.01.2020
4558 Clouds 10 1020 34 10000 1.5 20 06:37 16.01.2020
4559 Clouds 10 1020 39 10000 1 70 05:56 16.01.2020
4560 Clouds 10 1020 34 10000 1.5 20 05:31 16.01.2020
4561 Rain 9 1021 36 10000 3.1 40 04:37 16.01.2020
4562 Rain 9 1022 34 10000 3.6 30 03:28 16.01.2020
4563 Rain 8 1022 36 10000 5.1 330 02:36 16.01.2020
4564 Clouds 6 1023 48 10000 5.7 40 00:48 16.01.2020
4565 Clouds 5 1023 48 10000 5.7 40 00:24 16.01.2020
4566 Clouds 5 1022 42 10000 7.2 350 23:48 15.01.2020
4567 Clouds 4 1022 42 10000 7.2 350 23:23 15.01.2020
4568 Clouds 4 1021 42 10000 8.2 350 22:57 15.01.2020
4569 Clouds 4 1021 42 10000 8.2 350 22:57 15.01.2020
4570 Clouds 4 1021 42 10000 8.7 340 22:39 15.01.2020
4571 Clouds 4 1021 42 10000 8.7 340 22:19 15.01.2020
4572 Clouds 4 1021 45 10000 9.8 340 21:57 15.01.2020
4573 Clouds 4 1021 45 10000 9.8 340 21:57 15.01.2020
4574 Clouds 5 1020 45 10000 9.3 330 21:38 15.01.2020
4575 Clouds 4 1020 45 10000 9.3 330 21:20 15.01.2020
4576 Clouds 5 1021 45 10000 8.7 330 20:57 15.01.2020
4577 Clouds 5 1021 45 10000 8.7 330 20:57 15.01.2020
4578 Clouds 5 1021 45 10000 8.7 330 20:57 15.01.2020
4579 Clouds 5 1020 45 10000 7.7 330 20:39 15.01.2020
4580 Clouds 5 1020 45 10000 7.7 330 20:20 15.01.2020
4581 Clouds 4 1020 48 10000 6.7 330 19:55 15.01.2020
4582 Clouds 4 1019 48 10000 6.7 340 19:37 15.01.2020
4583 Clouds 4 1019 48 10000 6.7 340 19:19 15.01.2020
4584 Clouds 5 1019 45 10000 6.7 340 18:56 15.01.2020
4585 Clouds 5 1019 45 10000 6.7 340 18:56 15.01.2020
4586 Clouds 5 1019 48 10000 5.1 330 18:38 15.01.2020
4587 Clouds 5 1019 48 10000 5.1 330 18:20 15.01.2020
4588 Clouds 5 1019 52 10000 7.2 340 17:58 15.01.2020
4589 Clouds 5 1019 52 10000 8.7 350 17:38 15.01.2020
4590 Clear 5 1019 52 10000 8.7 350 17:20 15.01.2020
4591 Clear 6 1019 49 10000 8.2 360 16:42 15.01.2020
4592 Clear 5 1019 49 10000 8.2 360 16:23 15.01.2020
4593 Clouds 5 1019 52 10000 9.3 340 15:59 15.01.2020
4594 Clouds 6 1019 52 10000 7.7 330 15:41 15.01.2020
4595 Clouds 6 1019 52 10000 7.7 330 15:20 15.01.2020
4596 Clouds 6 1018 56 10000 6.7 330 14:44 15.01.2020
4597 Clouds 6 1018 56 10000 6.7 330 14:21 15.01.2020
4598 Clouds 7 1018 32 10000 7.2 330 13:56 15.01.2020
4599 Clouds 6 1017 32 10000 6.2 330 13:38 15.01.2020
4600 Clouds 6 1017 33 10000 6.2 330 13:20 15.01.2020
4601 Clouds 6 1018 33 10000 6.2 330 12:54 15.01.2020
4602 Clouds 6 1017 57 10000 7.7 340 12:36 15.01.2020
4603 Clouds 7 1017 57 10000 7.7 340 12:18 15.01.2020
4604 Clouds 7 1017 57 10000 7.7 340 12:18 15.01.2020
4605 Clouds 7 1017 66 10000 4.6 310 11:38 15.01.2020
4606 Clouds 7 1017 66 10000 4.6 310 11:20 15.01.2020
4607 Clouds 7 1016 66 10000 5.1 330 10:47 15.01.2020
4608 Clouds 7 1015 70 10000 5.1 330 10:28 15.01.2020
4609 Rain 7 1016 66 10000 7.7 310 09:58 15.01.2020
4610 Rain 8 1015 81 10000 3.1 360 09:39 15.01.2020
4611 Clouds 8 1014 76 10000 3.1 30 09:19 15.01.2020
4612 Clouds 9 1014 76 10000 3.1 30 08:44 15.01.2020
4613 Clouds 9 1013 70 10000 0.5 0 08:26 15.01.2020
4614 Clouds 9 1013 76 10000 2.1 30 07:54 15.01.2020
4615 Clouds 9 1013 81 10000 1.5 0 07:33 15.01.2020
4616 Clouds 9 1013 81 10000 3.1 20 06:54 15.01.2020
4617 Clouds 9 1014 76 16093 1.5 60 06:28 15.01.2020
4618 Rain 8 1013 87 10000 6.7 340 04:57 15.01.2020
4619 Rain 7 1014 93 7000 2.6 320 03:20 15.01.2020
4620 Rain 7 1017 93 3219 3.12 354 01:48 15.01.2020
4621 Rain 7 1015 93 5000 2.6 320 01:22 15.01.2020
4622 Rain 7 1016 81 6000 3.1 20 00:37 15.01.2020
4623 Rain 7 1016 81 6000 3.1 20 00:19 15.01.2020
4624 Clouds 7 1015 93 7000 3.6 10 23:46 14.01.2020
4625 Clouds 6 1015 93 6000 4.6 10 23:28 14.01.2020
4626 Rain 6 1017 100 4828 4.99 345 22:57 14.01.2020
4627 Rain 6 1016 93 5000 4.6 360 22:39 14.01.2020
4628 Rain 6 1016 93 5000 4.6 360 22:18 14.01.2020
4629 Rain 6 1016 93 5000 5.7 10 21:57 14.01.2020
4630 Rain 7 1018 100 9656 2.1 10 21:38 14.01.2020
4631 Rain 7 1018 100 9656 2.1 10 21:19 14.01.2020
4632 Rain 7 1016 93 4500 2.6 30 20:54 14.01.2020
4633 Rain 7 1017 93 5000 3.6 300 20:36 14.01.2020
4634 Rain 7 1017 93 5000 3.6 300 20:18 14.01.2020
4635 Rain 7 1017 93 5000 3.6 300 19:54 14.01.2020
4636 Rain 7 1017 93 5000 4.6 300 19:36 14.01.2020
4637 Rain 7 1017 93 5000 4.6 300 19:18 14.01.2020
4638 Rain 8 1017 87 8000 3.1 20 18:40 14.01.2020
4639 Rain 8 1017 87 8000 3.1 20 18:20 14.01.2020
4640 Rain 8 1017 87 8000 3.1 20 17:56 14.01.2020
4641 Rain 8 1017 87 10000 1.5 20 17:36 14.01.2020
4642 Rain 8 1017 87 10000 1.5 20 17:18 14.01.2020
4643 Rain 8 1017 87 10000 1.5 0 16:42 14.01.2020
4644 Clouds 8 1018 76 10000 1.5 330 16:22 14.01.2020
4645 Clouds 8 1019 71 10000 1 290 15:58 14.01.2020
4646 Clouds 8 1019 71 10000 1.5 210 15:40 14.01.2020
4647 Clouds 8 1019 71 10000 1.5 210 15:19 14.01.2020
4648 Clouds 8 1019 71 10000 1 0 14:44 14.01.2020
4649 Clouds 8 1019 66 10000 0.5 0 14:21 14.01.2020
4650 Clouds 8 1019 66 10000 1 0 13:57 14.01.2020
4651 Clouds 8 1019 71 10000 0.5 0 13:38 14.01.2020
4652 Clouds 8 1019 71 10000 0.5 0 13:18 14.01.2020
4653 Clouds 8 1019 71 10000 0.5 0 13:18 14.01.2020
4654 Clouds 8 1019 66 10000 0.5 70 12:42 14.01.2020
4655 Clouds 8 1019 66 10000 0.5 70 12:22 14.01.2020
4656 Clouds 9 1019 66 10000 1 20 11:56 14.01.2020
4657 Clouds 9 1019 62 10000 2.1 300 11:36 14.01.2020
4658 Clouds 9 1019 62 10000 2.1 300 11:18 14.01.2020
4659 Clouds 10 1019 58 10000 3.1 190 10:40 14.01.2020
4660 Clouds 10 1019 58 10000 3.1 190 10:20 14.01.2020
4661 Clouds 10 1019 66 10000 3.1 180 09:59 14.01.2020
4662 Clouds 10 1019 66 10000 4.1 180 09:40 14.01.2020
4663 Clouds 10 1019 66 10000 4.1 180 09:21 14.01.2020
4664 Clouds 11 1019 54 10000 4.1 170 08:56 14.01.2020
4665 Clouds 12 1019 62 10000 1.5 160 08:38 14.01.2020
4666 Clouds 12 1019 62 10000 1.5 160 08:19 14.01.2020
4667 Clouds 12 1018 54 10000 1.5 160 07:37 14.01.2020
4668 Clouds 13 1019 62 10000 1.5 20 06:59 14.01.2020
4669 Clouds 13 1018 54 10000 1.5 150 06:40 14.01.2020
4670 Clouds 12 1018 62 10000 2.1 140 05:35 14.01.2020
4671 Clouds 11 1019 62 10000 1.5 60 04:23 14.01.2020
4672 Clouds 11 1020 62 10000 2.6 20 03:43 14.01.2020
4673 Clouds 9 1020 66 10000 3.1 30 02:26 14.01.2020
4674 Clouds 8 1020 70 10000 1.5 360 01:18 14.01.2020
4675 Clouds 6 1020 70 10000 4.1 10 00:42 14.01.2020
4676 Clouds 6 1020 70 10000 4.1 10 00:21 14.01.2020
4677 Clouds 5 1020 75 10000 4.1 20 23:42 13.01.2020
4678 Clouds 5 1020 75 10000 4.1 20 23:18 13.01.2020
4679 Clouds 5 1020 75 10000 3.1 10 22:56 13.01.2020
4680 Clouds 5 1019 81 10000 2.6 320 22:37 13.01.2020
4681 Clouds 4 1019 81 10000 2.6 320 22:19 13.01.2020
4682 Clouds 4 1019 81 10000 2.6 350 21:54 13.01.2020
4683 Clouds 5 1018 75 10000 4.1 340 21:36 13.01.2020
4684 Clouds 5 1018 81 10000 3.1 310 21:18 13.01.2020
4685 Clouds 5 1018 81 10000 5.1 330 20:42 13.01.2020
4686 Clouds 6 1018 81 10000 5.1 330 20:23 13.01.2020
4687 Clouds 6 1018 81 10000 4.1 330 20:00 13.01.2020
4688 Clouds 6 1018 81 10000 4.1 330 19:41 13.01.2020
4689 Clouds 6 1018 81 10000 4.1 330 19:20 13.01.2020
4690 Clouds 6 1018 81 10000 6.2 340 18:58 13.01.2020
4691 Clouds 6 1017 75 10000 5.1 330 18:38 13.01.2020
4692 Clouds 6 1017 75 10000 5.1 330 18:38 13.01.2020
4693 Clouds 7 1017 75 10000 5.1 330 18:19 13.01.2020
4694 Clouds 7 1017 81 10000 5.1 340 17:58 13.01.2020
4695 Clouds 7 1017 81 10000 5.7 360 17:39 13.01.2020
4696 Clouds 7 1017 81 10000 5.7 360 17:20 13.01.2020
4697 Clear 7 1019 80 0 1.34 263 16:43 13.01.2020
4698 Clear 7 1015 90 0 0.89 12 16:24 13.01.2020
4699 Clear 7 1014 90 0 3.8 15 15:59 13.01.2020
4700 Clear 8 1014 89 0 3.8 15 15:41 13.01.2020
4701 Clear 8 1015 88 0 3.8 15 15:21 13.01.2020
4702 Clear 8 1014 86 0 0.45 225 14:54 13.01.2020
4703 Clear 8 1014 86 0 0.89 43 14:36 13.01.2020
4704 Clear 8 1014 86 0 0.89 8 14:18 13.01.2020
4705 Clear 7 1013 86 0 0.45 56 13:40 13.01.2020
4706 Clear 8 1017 79 0 0.89 121 13:22 13.01.2020
4707 Clouds 8 1014 71 10000 5.1 110 12:58 13.01.2020
4708 Clouds 8 1014 71 10000 5.1 110 12:40 13.01.2020
4709 Clouds 9 1014 71 10000 5.1 110 12:21 13.01.2020
4710 Clouds 9 1014 71 10000 5.1 110 11:54 13.01.2020
4711 Clouds 9 1014 66 10000 4.6 120 11:36 13.01.2020
4712 Clouds 9 1014 66 10000 4.6 120 11:18 13.01.2020
4713 Clouds 9 1014 66 10000 4.6 120 11:18 13.01.2020
4714 Clear 10 1014 66 10000 3.6 110 10:55 13.01.2020
4715 Clouds 10 1012 66 10000 3.1 110 10:36 13.01.2020
4716 Clouds 10 1012 66 10000 3.1 110 10:18 13.01.2020
4717 Clouds 11 1011 66 10000 3.1 100 09:40 13.01.2020
4718 Clouds 11 1011 66 10000 3.1 100 09:40 13.01.2020
4719 Clouds 11 1011 66 10000 3.1 100 09:22 13.01.2020
4720 Clouds 12 1011 58 10000 1.5 130 08:42 13.01.2020
4721 Clouds 12 1011 58 10000 1.5 130 08:21 13.01.2020
4722 Clouds 12 1012 62 10000 2.6 110 07:54 13.01.2020
4723 Clouds 12 1011 54 10000 3.1 160 07:35 13.01.2020
4724 Clouds 13 1011 58 10000 2.6 130 06:44 13.01.2020
4725 Clouds 13 1010 66 10000 4.1 160 06:22 13.01.2020
4726 Clouds 13 1009 58 10000 2.6 150 05:36 13.01.2020
4727 Clouds 12 1010 58 10000 1 0 04:25 13.01.2020
4728 Clouds 11 1010 53 10000 1 0 03:26 13.01.2020
4729 Clouds 10 1011 61 10000 1.5 20 02:47 13.01.2020
4730 Clouds 10 1010 57 10000 1.5 0 02:29 13.01.2020
4731 Clouds 8 1010 61 10000 2.1 330 01:22 13.01.2020
4732 Clouds 8 1010 61 10000 2.1 330 01:22 13.01.2020
4733 Clouds 6 1009 75 10000 2.6 320 00:42 13.01.2020
4734 Clouds 5 1009 75 10000 2.6 320 00:24 13.01.2020
4735 Clouds 5 1009 81 10000 3.1 10 23:55 12.01.2020
4736 Clouds 4 1009 75 10000 3.1 320 23:36 12.01.2020
4737 Clouds 4 1009 75 10000 3.1 320 23:18 12.01.2020
4738 Clouds 4 1009 75 10000 3.1 320 23:18 12.01.2020
4739 Clouds 4 1008 81 10000 1.5 290 22:42 12.01.2020
4740 Clouds 4 1008 81 10000 1.5 290 22:24 12.01.2020
4741 Clouds 4 1008 81 10000 1.5 290 22:24 12.01.2020
4742 Clouds 4 1008 75 10000 1.5 310 21:57 12.01.2020
4743 Clouds 4 1008 81 10000 3.1 10 21:38 12.01.2020
4744 Clouds 4 1008 81 10000 3.1 10 21:19 12.01.2020
4745 Clouds 5 1008 75 10000 2.6 20 20:57 12.01.2020
4746 Clouds 5 1008 75 10000 3.1 10 20:38 12.01.2020
4747 Clouds 5 1008 75 10000 3.1 10 20:20 12.01.2020
4748 Clouds 5 1008 75 10000 2.6 10 19:56 12.01.2020
4749 Clouds 5 1009 93 16093 1.5 260 19:38 12.01.2020
4750 Clouds 5 1009 93 16093 1.5 260 19:19 12.01.2020
4751 Clouds 5 1008 75 10000 2.1 30 18:57 12.01.2020
4752 Clouds 5 1008 75 10000 2.6 30 18:39 12.01.2020
4753 Clouds 5 1008 76 10000 2.6 30 18:21 12.01.2020
4754 Clouds 6 1008 76 10000 2.6 30 17:56 12.01.2020
4755 Clouds 6 1009 80 16093 1.5 330 17:37 12.01.2020
4756 Clouds 6 1009 80 16093 1.5 330 17:18 12.01.2020
4757 Clouds 6 1008 75 10000 2.1 20 16:55 12.01.2020
4758 Clouds 6 1008 75 10000 2.1 20 16:55 12.01.2020
4759 Clouds 6 1008 81 10000 2.6 20 16:37 12.01.2020
4760 Clouds 6 1008 81 10000 2.6 20 16:18 12.01.2020
4761 Clouds 7 1008 76 10000 2.1 60 15:42 12.01.2020
4762 Clouds 7 1008 76 10000 2.1 70 15:24 12.01.2020
4763 Clouds 7 1008 76 10000 2.1 70 15:24 12.01.2020
4764 Clouds 7 1009 76 10000 1.5 50 14:57 12.01.2020
4765 Clouds 7 1011 75 16093 2.91 13 14:38 12.01.2020
4766 Clouds 7 1011 75 16093 2.83 6 14:19 12.01.2020
4767 Clouds 8 1009 70 10000 4.1 10 13:43 12.01.2020
4768 Clouds 8 1009 70 10000 4.1 10 13:24 12.01.2020
4769 Clouds 8 1011 70 16093 2.86 347 12:58 12.01.2020
4770 Clouds 8 1009 70 10000 3.1 10 12:39 12.01.2020
4771 Clouds 8 1011 75 16093 1.5 340 12:20 12.01.2020
4772 Clouds 8 1011 75 16093 1.5 340 11:58 12.01.2020
4773 Clouds 8 1009 70 10000 2.6 30 11:38 12.01.2020
4774 Clouds 8 1009 70 10000 2.6 30 11:19 12.01.2020
4775 Clouds 8 1009 70 10000 4.1 10 10:41 12.01.2020
4776 Clouds 8 1009 70 10000 4.1 10 10:41 12.01.2020
4777 Clouds 8 1009 70 10000 4.1 10 10:22 12.01.2020
4778 Clouds 8 1011 70 16093 2.19 9 09:57 12.01.2020
4779 Clouds 8 1009 70 10000 4.1 50 09:38 12.01.2020
4780 Clouds 8 1009 70 10000 4.1 50 09:19 12.01.2020
4781 Rain 9 1009 70 10000 3.1 50 08:45 12.01.2020
4782 Rain 9 1009 66 10000 2.1 50 08:20 12.01.2020
4783 Rain 9 1009 61 10000 2.6 10 07:41 12.01.2020
4784 Rain 10 1009 61 10000 2.6 10 07:23 12.01.2020
4785 Clouds 10 1009 61 10000 4.1 20 06:48 12.01.2020
4786 Clouds 9 1009 57 10000 2.6 20 06:30 12.01.2020
4787 Clouds 9 1009 57 10000 3.1 20 05:37 12.01.2020
4788 Clouds 9 1010 57 10000 2.6 10 04:30 12.01.2020
4789 Clouds 9 1011 50 10000 2.1 340 03:27 12.01.2020
4790 Clouds 8 1013 61 10000 1.5 340 02:34 12.01.2020
4791 Clouds 7 1013 61 10000 3.1 360 01:55 12.01.2020
4792 Clouds 7 1012 65 10000 2.6 20 01:29 12.01.2020
4793 Clouds 5 1012 75 10000 3.1 330 00:42 12.01.2020
4794 Clouds 4 1012 75 10000 3.1 330 00:20 12.01.2020
4795 Clouds 4 1013 75 10000 3.6 310 23:55 11.01.2020
4796 Clouds 4 1012 75 10000 3.6 310 23:37 11.01.2020
4797 Clouds 3 1012 75 10000 3.6 310 23:18 11.01.2020
4798 Clouds 3 1012 80 10000 2.6 290 22:55 11.01.2020
4799 Clouds 3 1012 75 10000 2.1 300 22:37 11.01.2020
4800 Clouds 3 1012 75 10000 2.1 300 22:18 11.01.2020
4801 Clouds 3 1012 80 10000 3.1 320 21:42 11.01.2020
4802 Clouds 3 1012 80 10000 3.1 320 21:18 11.01.2020
4803 Clouds 3 1012 80 10000 3.1 300 20:55 11.01.2020
4804 Clouds 3 1011 80 10000 3.1 310 20:37 11.01.2020
4805 Clouds 3 1011 80 10000 3.1 310 20:18 11.01.2020
4806 Clouds 3 1012 75 10000 3.6 350 19:54 11.01.2020
4807 Clouds 4 1013 70 10000 4.1 360 19:36 11.01.2020
4808 Clouds 4 1013 70 10000 4.1 360 19:18 11.01.2020
4809 Clouds 4 1012 70 10000 3.6 350 18:54 11.01.2020
4810 Clouds 4 1012 70 10000 3.6 10 18:36 11.01.2020
4811 Clouds 4 1013 75 10000 3.6 10 18:18 11.01.2020
4812 Clouds 4 1013 75 10000 3.6 10 17:54 11.01.2020
4813 Clouds 4 1012 75 10000 5.1 20 17:36 11.01.2020
4814 Clouds 4 1012 75 10000 5.1 20 17:18 11.01.2020
4815 Clouds 5 1012 70 10000 5.1 20 16:41 11.01.2020
4816 Clouds 5 1012 70 10000 5.1 20 16:22 11.01.2020
4817 Clouds 5 1012 70 10000 5.1 20 16:22 11.01.2020
4818 Clouds 6 1012 65 10000 4.1 360 15:42 11.01.2020
4819 Clouds 6 1013 61 10000 3.6 10 15:24 11.01.2020
4820 Clouds 6 1013 66 10000 3.1 10 14:58 11.01.2020
4821 Clouds 6 1013 70 10000 4.1 360 14:40 11.01.2020
4822 Clouds 6 1013 70 10000 4.1 360 14:22 11.01.2020
4823 Clouds 6 1012 66 10000 4.1 360 13:55 11.01.2020
4824 Clouds 7 1012 66 10000 4.6 10 13:37 11.01.2020
4825 Clouds 7 1012 66 10000 4.6 10 13:18 11.01.2020
4826 Clouds 7 1012 70 10000 5.7 10 12:44 11.01.2020
4827 Clouds 8 1012 70 10000 5.7 10 12:26 11.01.2020
4828 Clouds 8 1012 70 10000 5.7 20 11:55 11.01.2020
4829 Clouds 8 1012 70 10000 4.6 20 11:37 11.01.2020
4830 Clouds 9 1012 70 10000 4.6 340 11:18 11.01.2020
4831 Clouds 8 1012 70 10000 4.6 20 11:18 11.01.2020
4832 Clouds 9 1012 71 10000 2.1 50 10:43 11.01.2020
4833 Clouds 9 1012 71 10000 2.1 50 10:24 11.01.2020
4834 Clouds 9 1012 66 10000 1 0 09:40 11.01.2020
4835 Clouds 9 1012 66 10000 1 0 09:21 11.01.2020
4836 Clouds 10 1012 70 10000 1.5 50 08:43 11.01.2020
4837 Clouds 11 1011 61 10000 2.1 100 08:23 11.01.2020
4838 Clouds 11 1012 61 10000 2.6 150 07:45 11.01.2020
4839 Clouds 11 1012 61 10000 2.6 150 07:26 11.01.2020
4840 Clouds 12 1013 66 10000 2.6 80 06:56 11.01.2020
4841 Clouds 12 1012 57 10000 1 0 06:28 11.01.2020
4842 Clouds 10 1013 57 10000 2.1 30 05:18 11.01.2020
4843 Clouds 9 1014 57 10000 1.5 10 04:37 11.01.2020
4844 Clouds 9 1014 57 10000 1.5 10 04:19 11.01.2020
4845 Clouds 8 1017 65 10000 2.1 30 02:45 11.01.2020
4846 Clouds 7 1017 61 10000 1.5 20 01:45 11.01.2020
4847 Clouds 6 1017 69 10000 1 0 01:21 11.01.2020
4848 Clouds 6 1017 69 10000 1.5 350 00:50 11.01.2020
4849 Clouds 6 1017 69 10000 3.1 20 00:21 11.01.2020
4850 Clouds 6 1017 69 10000 3.6 20 23:56 10.01.2020
4851 Clouds 5 1017 69 10000 3.6 20 23:38 10.01.2020
4852 Clouds 5 1017 73 10000 3.6 20 23:20 10.01.2020
4853 Clouds 6 1018 73 10000 4.1 20 22:41 10.01.2020
4854 Clouds 6 1018 73 10000 4.1 20 22:22 10.01.2020
4855 Clouds 6 1017 73 10000 3.6 10 21:58 10.01.2020
4856 Clouds 6 1017 65 10000 4.6 10 21:40 10.01.2020
4857 Clouds 6 1017 65 10000 4.6 10 21:20 10.01.2020
4858 Clouds 6 1017 65 10000 5.1 20 20:56 10.01.2020
4859 Clouds 6 1017 65 10000 5.7 20 20:38 10.01.2020
4860 Clouds 6 1017 65 10000 5.7 20 20:19 10.01.2020
4861 Clouds 6 1017 70 10000 4.6 20 19:40 10.01.2020
4862 Clouds 6 1017 70 10000 4.6 20 19:40 10.01.2020
4863 Clouds 6 1017 70 10000 4.6 20 19:20 10.01.2020
4864 Clouds 6 1018 70 10000 5.1 20 18:55 10.01.2020
4865 Clouds 6 1018 75 10000 5.1 20 18:36 10.01.2020
4866 Clouds 6 1018 75 10000 5.1 20 18:18 10.01.2020
4867 Clouds 6 1019 75 10000 6.2 20 17:56 10.01.2020
4868 Clouds 6 1018 75 10000 4.1 10 17:37 10.01.2020
4869 Clouds 6 1018 75 10000 4.1 10 17:19 10.01.2020
4870 Clouds 6 1017 70 10000 3.1 50 16:41 10.01.2020
4871 Clouds 6 1017 70 10000 3.1 50 16:21 10.01.2020
4872 Clouds 6 1018 70 10000 4.1 60 15:56 10.01.2020
4873 Clouds 6 1018 70 10000 4.1 80 15:38 10.01.2020
4874 Clouds 6 1018 70 10000 4.6 80 15:19 10.01.2020
4875 Clouds 6 1018 70 10000 4.6 80 14:58 10.01.2020
4876 Clouds 6 1018 70 10000 4.6 80 14:40 10.01.2020
4877 Clouds 6 1018 70 10000 4.6 80 14:19 10.01.2020
4878 Clouds 6 1018 70 10000 5.1 80 13:56 10.01.2020
4879 Clouds 7 1017 70 10000 6.7 80 13:37 10.01.2020
4880 Clouds 7 1017 70 10000 6.7 80 13:18 10.01.2020
4881 Clouds 7 1018 70 10000 5.7 70 12:56 10.01.2020
4882 Clouds 7 1017 70 10000 6.2 60 12:38 10.01.2020
4883 Clouds 7 1017 70 10000 6.2 60 12:18 10.01.2020
4884 Clouds 8 1017 70 10000 7.2 70 11:42 10.01.2020
4885 Clouds 8 1017 70 10000 7.2 70 11:22 10.01.2020
4886 Clouds 8 1017 66 10000 7.2 70 10:59 10.01.2020
4887 Clouds 9 1017 66 10000 6.7 60 10:39 10.01.2020
4888 Clouds 9 1017 66 10000 6.7 60 10:21 10.01.2020
4889 Clouds 9 1017 66 10000 7.2 60 09:56 10.01.2020
4890 Clouds 10 1016 66 10000 6.7 60 09:37 10.01.2020
4891 Clouds 10 1016 66 10000 6.7 60 09:19 10.01.2020
4892 Clouds 10 1016 62 10000 7.2 70 09:19 10.01.2020
4893 Clouds 11 1015 53 10000 7.2 80 08:40 10.01.2020
4894 Clouds 11 1015 53 10000 7.2 80 08:22 10.01.2020
4895 Clouds 12 1015 57 10000 7.7 60 07:44 10.01.2020
4896 Clouds 12 1015 46 10000 4.6 40 07:23 10.01.2020
4897 Clouds 12 1015 46 10000 3.6 40 06:45 10.01.2020
4898 Clouds 12 1015 46 10000 3.6 40 06:25 10.01.2020
4899 Clouds 12 1015 50 10000 4.1 40 05:46 10.01.2020
4900 Clouds 11 1016 47 10000 3.6 30 03:37 10.01.2020
4901 Clouds 11 1016 47 10000 3.6 30 03:18 10.01.2020
4902 Clouds 9 1016 57 10000 3.1 40 02:39 10.01.2020
4903 Clouds 8 1016 55 10000 3.6 20 01:38 10.01.2020
4904 Clouds 8 1016 59 10000 3.6 20 01:19 10.01.2020
4905 Clouds 6 1015 65 10000 6.2 350 00:39 10.01.2020
4906 Clouds 6 1015 61 10000 7.2 360 23:58 09.01.2020
4907 Clouds 6 1015 61 10000 7.2 350 23:38 09.01.2020
4908 Clouds 6 1015 61 10000 7.2 350 23:20 09.01.2020
4909 Clouds 6 1014 65 10000 6.2 360 22:57 09.01.2020
4910 Clouds 6 1013 61 10000 5.7 360 22:39 09.01.2020
4911 Clouds 6 1014 61 10000 6.7 350 22:19 09.01.2020
4912 Clouds 6 1014 61 10000 6.7 350 21:57 09.01.2020
4913 Clouds 6 1013 61 10000 5.1 350 21:38 09.01.2020
4914 Clouds 6 1012 65 10000 4.6 360 21:19 09.01.2020
4915 Clouds 6 1012 65 10000 4.6 360 20:57 09.01.2020
4916 Clouds 6 1012 57 10000 5.1 360 20:39 09.01.2020
4917 Clouds 6 1012 57 10000 5.1 360 20:19 09.01.2020
4918 Clouds 6 1012 57 10000 4.6 10 19:57 09.01.2020
4919 Clouds 7 1012 57 10000 5.1 10 19:38 09.01.2020
4920 Clouds 7 1012 57 10000 5.1 10 19:19 09.01.2020
4921 Clouds 7 1012 61 10000 5.7 360 18:55 09.01.2020
4922 Clouds 7 1012 61 10000 5.7 360 18:36 09.01.2020
4923 Clouds 7 1012 61 10000 5.7 360 18:18 09.01.2020
4924 Rain 8 1012 61 10000 5.1 10 17:41 09.01.2020
4925 Rain 8 1012 61 10000 4.6 10 17:18 09.01.2020
4926 Rain 8 1012 53 10000 3.6 10 16:49 09.01.2020
4927 Rain 8 1012 57 10000 4.1 20 16:24 09.01.2020
4928 Rain 9 1012 53 10000 4.6 40 15:59 09.01.2020
4929 Rain 9 1012 53 10000 4.6 40 15:40 09.01.2020
4930 Clouds 9 1012 53 10000 4.6 50 15:19 09.01.2020
4931 Clouds 9 1012 57 10000 4.6 40 14:43 09.01.2020
4932 Clouds 9 1012 57 10000 3.6 60 14:22 09.01.2020
4933 Rain 9 1012 57 10000 5.1 70 13:57 09.01.2020
4934 Rain 9 1012 62 10000 4.6 70 13:39 09.01.2020
4935 Rain 10 1012 62 10000 4.6 70 13:21 09.01.2020
4936 Clouds 10 1012 53 10000 5.7 60 12:59 09.01.2020
4937 Clouds 10 1012 36 10000 5.7 30 12:40 09.01.2020
4938 Clouds 10 1012 36 10000 5.7 30 12:22 09.01.2020
4939 Clouds 11 1012 36 10000 6.2 30 11:57 09.01.2020
4940 Clouds 11 1012 36 10000 6.2 30 11:38 09.01.2020
4941 Clouds 11 1012 32 10000 6.2 350 11:20 09.01.2020
4942 Clouds 11 1012 40 10000 6.2 350 10:44 09.01.2020
4943 Clouds 11 1011 40 10000 7.7 350 10:22 09.01.2020
4944 Clouds 11 1012 32 10000 7.2 340 09:59 09.01.2020
4945 Clouds 12 1011 40 10000 7.2 340 09:39 09.01.2020
4946 Clouds 12 1011 40 10000 7.2 340 09:21 09.01.2020
4947 Clouds 12 1011 40 10000 7.2 340 09:21 09.01.2020
4948 Clouds 12 1011 32 10000 6.2 330 08:55 09.01.2020
4949 Clouds 13 1011 32 10000 6.2 330 08:37 09.01.2020
4950 Clouds 13 1010 28 10000 4.1 310 08:19 09.01.2020
4951 Clouds 14 1010 33 10000 7.2 340 07:42 09.01.2020
4952 Clouds 14 1010 33 10000 7.2 340 07:42 09.01.2020
4953 Clouds 14 1009 26 10000 5.1 330 07:23 09.01.2020
4954 Clouds 15 1009 28 10000 3.6 330 06:39 09.01.2020
4955 Clouds 14 1009 28 10000 3.6 330 06:20 09.01.2020
4956 Clouds 15 1009 25 10000 9.3 350 05:49 09.01.2020
4957 Clouds 15 1009 28 10000 4.6 330 04:44 09.01.2020
4958 Clouds 14 1010 33 10000 4.6 310 03:38 09.01.2020
4959 Clouds 14 1009 33 10000 9.3 320 02:54 09.01.2020
4960 Clouds 13 1010 35 10000 6.2 290 02:28 09.01.2020
4961 Clouds 12 1010 40 10000 6.2 340 01:39 09.01.2020
4962 Clouds 11 1008 43 10000 1 0 00:43 09.01.2020
4963 Clouds 10 1008 40 10000 4.1 330 00:21 09.01.2020
4964 Clouds 9 1008 40 10000 3.6 330 23:55 08.01.2020
4965 Clouds 9 1007 40 10000 2.6 290 23:37 08.01.2020
4966 Clouds 8 1007 40 10000 2.6 290 23:18 08.01.2020
4967 Clouds 9 1006 43 10000 3.1 290 22:39 08.01.2020
4968 Clear 9 1005 46 10000 3.6 260 22:21 08.01.2020
4969 Clear 9 1005 43 10000 4.6 290 21:58 08.01.2020
4970 Clear 9 1005 43 10000 4.6 290 21:38 08.01.2020
4971 Clouds 9 1004 43 10000 8.7 300 21:20 08.01.2020
4972 Clouds 9 1004 43 10000 8.7 300 21:20 08.01.2020
4973 Clear 9 1004 40 10000 11.3 320 20:58 08.01.2020
4974 Clear 10 1004 40 10000 11.3 320 20:40 08.01.2020
4975 Clouds 9 1003 64 10000 12.3 330 20:20 08.01.2020
4976 Clear 10 1003 64 10000 10.3 320 19:56 08.01.2020
4977 Clear 10 1003 64 10000 10.3 320 19:37 08.01.2020
4978 Rain 9 1002 46 10000 11.3 320 19:19 08.01.2020
4979 Rain 9 1001 61 10000 4.6 290 18:56 08.01.2020
4980 Rain 9 1001 87 10000 3.1 290 18:37 08.01.2020
4981 Rain 8 1001 87 10000 3.1 290 18:18 08.01.2020
4982 Rain 8 1000 81 10000 2.6 270 17:55 08.01.2020
4983 Clear 7 1001 100 16093 2.1 280 17:36 08.01.2020
4984 Clear 6 1001 100 16093 2.1 280 17:18 08.01.2020
4985 Clear 6 999 93 10000 2.1 310 16:54 08.01.2020
4986 Clear 5 998 93 8000 1 0 16:36 08.01.2020
4987 Clear 5 998 93 8000 1 0 16:18 08.01.2020
4988 Clear 6 998 93 8000 3.1 330 15:40 08.01.2020
4989 Clouds 6 997 93 8000 2.1 230 15:20 08.01.2020
4990 Clouds 6 997 100 9000 1.5 230 14:56 08.01.2020
4991 Clouds 6 996 87 8000 1.5 190 14:38 08.01.2020
4992 Clouds 6 996 87 8000 1.5 190 14:19 08.01.2020
4993 Clouds 6 997 100 9000 1.5 280 13:40 08.01.2020
4994 Clouds 6 997 93 9000 2.6 300 13:19 08.01.2020
4995 Clouds 6 996 93 10000 2.6 310 12:42 08.01.2020
4996 Clouds 7 996 93 10000 0.5 0 12:19 08.01.2020
4997 Clouds 7 996 93 9000 0.5 0 11:55 08.01.2020
4998 Clouds 7 996 93 9000 3.6 360 11:37 08.01.2020
4999 Clouds 7 996 93 9000 3.6 360 11:19 08.01.2020
5000 Clouds 7 996 93 10000 4.1 20 10:55 08.01.2020
5001 Clouds 7 996 87 10000 4.6 10 10:37 08.01.2020
5002 Clouds 7 996 87 10000 4.6 10 10:18 08.01.2020
5003 Rain 7 996 87 10000 4.6 20 09:41 08.01.2020
5004 Rain 7 996 87 10000 2.6 360 09:19 08.01.2020
5005 Clouds 8 995 93 10000 0.5 0 08:56 08.01.2020
5006 Clouds 8 995 93 10000 0.5 0 08:37 08.01.2020
5007 Clouds 8 995 87 10000 1 0 08:19 08.01.2020
5008 Clouds 8 995 87 10000 1.5 360 07:48 08.01.2020
5009 Clouds 8 996 87 10000 1.5 320 07:29 08.01.2020
5010 Clouds 8 996 93 10000 1.5 10 06:45 08.01.2020
5011 Clouds 7 996 87 10000 2.6 290 06:24 08.01.2020
5012 Rain 7 997 93 10000 4.6 330 05:41 08.01.2020
5013 Rain 6 997 93 10000 7.7 20 04:57 08.01.2020
5014 Rain 5 1000 93 2000 4.6 330 04:25 08.01.2020
5015 Rain 5 1005 93 2500 2.6 330 02:45 08.01.2020
5016 Rain 5 1005 93 2500 2.6 330 02:22 08.01.2020
5017 Rain 5 1006 93 4000 3.1 360 01:48 08.01.2020
5018 Mist 5 1006 93 3000 1.5 10 01:19 08.01.2020
5019 Mist 5 1007 93 3000 1.5 20 00:38 08.01.2020
5020 Rain 4 1008 93 4000 1 0 00:20 08.01.2020
5021 Rain 4 1009 93 4000 2.1 360 23:43 07.01.2020
5022 Rain 4 1009 93 4500 2.1 350 23:20 07.01.2020
5023 Rain 4 1009 93 4500 2.1 350 23:20 07.01.2020
5024 Mist 4 1010 100 4000 1.5 320 22:40 07.01.2020
5025 Mist 4 1010 100 4000 1.5 320 22:20 07.01.2020
5026 Rain 4 1011 93 3500 1.5 320 21:57 07.01.2020
5027 Rain 4 1011 93 2800 0.5 300 21:38 07.01.2020
5028 Rain 4 1011 93 2800 0.5 300 21:38 07.01.2020
5029 Rain 4 1011 93 2800 0.5 300 21:20 07.01.2020
5030 Rain 4 1013 93 3800 2.1 310 20:56 07.01.2020
5031 Rain 4 1013 93 3800 2.1 310 20:38 07.01.2020
5032 Rain 4 1013 93 4000 2.6 300 20:19 07.01.2020
5033 Rain 4 1014 93 4000 2.6 310 19:55 07.01.2020
5034 Rain 4 1015 93 4500 3.1 330 19:36 07.01.2020
5035 Rain 4 1015 93 4500 3.1 330 19:18 07.01.2020
5036 Rain 4 1015 93 4500 3.6 350 18:55 07.01.2020
5037 Rain 4 1015 93 4500 3.6 350 18:36 07.01.2020
5038 Rain 4 1016 93 7000 3.1 350 18:18 07.01.2020
5039 Rain 4 1017 93 7000 4.1 350 17:40 07.01.2020
5040 Rain 4 1017 100 6000 5.1 10 17:22 07.01.2020
5041 Rain 4 1017 100 4500 4.1 350 16:57 07.01.2020
5042 Rain 4 1018 100 4000 4.6 340 16:38 07.01.2020
5043 Rain 4 1018 100 4000 4.6 340 16:19 07.01.2020
5044 Rain 4 1019 100 4000 4.1 340 15:59 07.01.2020
5045 Rain 4 1020 100 4000 4.6 350 15:40 07.01.2020
5046 Rain 4 1020 100 4000 4.6 350 15:22 07.01.2020
5047 Rain 4 1021 100 4000 5.1 350 14:55 07.01.2020
5048 Rain 4 1020 100 2500 4.6 340 14:37 07.01.2020
5049 Rain 5 1021 93 4800 5.1 360 14:18 07.01.2020
5050 Rain 5 1021 93 4500 5.1 360 13:40 07.01.2020
5051 Rain 5 1022 93 4500 5.1 360 13:19 07.01.2020
5052 Rain 5 1023 93 4500 4.6 360 12:42 07.01.2020
5053 Rain 5 1023 93 4500 4.6 360 12:21 07.01.2020
5054 Rain 6 1023 87 4500 4.6 10 11:59 07.01.2020
5055 Rain 6 1023 87 4500 4.6 10 11:40 07.01.2020
5056 Rain 6 1023 87 10000 5.1 10 11:21 07.01.2020
5057 Rain 6 1023 87 10000 5.1 10 10:42 07.01.2020
5058 Rain 6 1023 87 10000 5.1 10 10:42 07.01.2020
5059 Rain 6 1023 87 10000 4.6 10 10:24 07.01.2020
5060 Rain 6 1024 87 10000 4.6 10 09:59 07.01.2020
5061 Rain 7 1024 87 10000 4.6 10 09:38 07.01.2020
5062 Rain 6 1024 81 10000 4.1 10 09:20 07.01.2020
5063 Rain 7 1024 81 10000 4.6 10 08:47 07.01.2020
5064 Rain 7 1024 81 8000 1.5 10 08:27 07.01.2020
5065 Rain 8 1024 70 10000 4.1 10 07:55 07.01.2020
5066 Rain 8 1024 70 10000 2.6 30 07:34 07.01.2020
5067 Rain 8 1024 70 10000 3.6 10 06:54 07.01.2020
5068 Rain 8 1024 65 10000 1.5 350 06:35 07.01.2020
5069 Rain 8 1024 65 10000 4.1 360 05:58 07.01.2020
5070 Clouds 9 1024 52 10000 2.6 10 05:38 07.01.2020
5071 Clouds 8 1025 43 10000 4.6 10 03:44 07.01.2020
5072 Clouds 7 1027 48 10000 2.6 360 02:25 07.01.2020
5073 Clouds 7 1027 52 10000 5.1 340 01:59 07.01.2020
5074 Clouds 7 1026 48 10000 2.6 360 01:35 07.01.2020
5075 Clouds 6 1026 48 10000 2.1 10 00:51 07.01.2020
5076 Clouds 6 1027 52 10000 4.1 320 00:20 07.01.2020
5077 Clouds 5 1026 56 10000 4.1 330 23:56 06.01.2020
5078 Clouds 5 1026 52 10000 4.1 320 23:37 06.01.2020
5079 Clouds 5 1026 52 10000 4.1 320 23:19 06.01.2020
5080 Clouds 5 1026 52 10000 4.1 330 22:43 06.01.2020
5081 Clouds 5 1025 56 10000 4.6 340 22:24 06.01.2020
5082 Clouds 5 1025 56 10000 4.6 340 22:24 06.01.2020
5083 Clouds 5 1025 52 10000 5.1 360 21:58 06.01.2020
5084 Clouds 5 1025 52 10000 5.1 360 21:58 06.01.2020
5085 Clouds 5 1025 56 10000 5.7 360 21:39 06.01.2020
5086 Clouds 5 1025 56 10000 5.7 360 21:20 06.01.2020
5087 Clouds 5 1025 56 10000 5.7 360 21:20 06.01.2020
5088 Clouds 5 1025 56 10000 5.7 360 21:20 06.01.2020
5089 Clouds 5 1025 52 10000 5.7 360 20:57 06.01.2020
5090 Clouds 5 1026 56 10000 6.7 360 20:38 06.01.2020
5091 Clouds 5 1026 56 10000 6.7 360 20:20 06.01.2020
5092 Clouds 5 1026 56 10000 6.7 20 19:57 06.01.2020
5093 Clouds 6 1026 56 10000 5.7 10 19:38 06.01.2020
5094 Clouds 6 1026 56 10000 5.7 10 19:20 06.01.2020
5095 Clouds 6 1026 56 10000 5.1 10 18:48 06.01.2020
5096 Clouds 6 1026 56 10000 6.2 20 18:23 06.01.2020
5097 Clouds 6 1026 45 10000 6.2 20 17:59 06.01.2020
5098 Clouds 6 1026 52 10000 5.7 30 17:38 06.01.2020
5099 Clouds 7 1026 52 10000 5.7 30 17:19 06.01.2020
5100 Clouds 6 1025 52 10000 5.7 10 16:47 06.01.2020
5101 Clouds 6 1025 52 10000 5.7 10 16:27 06.01.2020
5102 Clouds 7 1026 52 10000 7.2 360 15:59 06.01.2020
5103 Clouds 7 1026 52 10000 7.2 360 15:41 06.01.2020
5104 Clouds 7 1025 45 10000 5.7 20 15:20 06.01.2020
5105 Clouds 7 1025 45 10000 5.1 20 14:58 06.01.2020
5106 Clouds 8 1025 45 10000 5.1 20 14:40 06.01.2020
5107 Clouds 8 1025 45 10000 5.7 10 14:20 06.01.2020
5108 Clouds 8 1025 49 10000 7.2 350 13:57 06.01.2020
5109 Clouds 8 1025 49 10000 6.7 350 13:37 06.01.2020
5110 Clouds 8 1025 49 10000 6.7 350 13:19 06.01.2020
5111 Clouds 8 1025 45 10000 5.1 330 12:43 06.01.2020
5112 Clouds 8 1025 45 10000 5.1 330 12:21 06.01.2020
5113 Clouds 8 1025 45 10000 4.6 330 11:58 06.01.2020
5114 Clouds 8 1025 45 10000 4.6 330 11:39 06.01.2020
5115 Clouds 8 1025 43 10000 4.1 330 11:21 06.01.2020
5116 Clouds 8 1024 46 10000 5.7 340 10:57 06.01.2020
5117 Clouds 9 1024 46 10000 5.1 360 10:39 06.01.2020
5118 Clouds 9 1024 46 10000 5.1 360 10:20 06.01.2020
5119 Clouds 10 1024 46 10000 3.6 330 09:38 06.01.2020
5120 Clouds 10 1023 43 10000 4.6 340 09:19 06.01.2020
5121 Clouds 11 1024 43 10000 4.6 340 08:46 06.01.2020
5122 Clouds 11 1023 34 10000 2.6 310 08:26 06.01.2020
5123 Clouds 11 1024 40 10000 4.1 350 07:53 06.01.2020
5124 Clouds 11 1023 30 10000 3.6 300 07:32 06.01.2020
5125 Clouds 12 1024 30 10000 4.1 330 06:46 06.01.2020
5126 Clouds 12 1023 30 10000 4.1 290 06:23 06.01.2020
5127 Clouds 12 1023 34 10000 5.1 340 05:45 06.01.2020
5128 Clouds 11 1024 40 10000 4.6 350 04:52 06.01.2020
5129 Clouds 11 1024 32 10000 4.6 310 04:19 06.01.2020
5130 Clouds 9 1025 43 10000 5.1 350 02:56 06.01.2020
5131 Clouds 8 1026 39 10000 4.1 340 02:24 06.01.2020
5132 Clouds 7 1026 45 10000 7.2 340 01:45 06.01.2020
5133 Clouds 6 1026 52 10000 1.5 360 01:26 06.01.2020
5134 Clouds 6 1026 52 10000 2.1 20 00:42 06.01.2020
5135 Clouds 4 1026 56 10000 5.1 20 00:23 06.01.2020
5136 Clouds 2 1025 45 10000 9.3 350 23:43 05.01.2020
5137 Clouds 2 1025 45 10000 9.3 350 23:23 05.01.2020
5138 Clouds 2 1025 45 10000 10.8 340 22:57 05.01.2020
5139 Clouds 2 1025 45 10000 10.8 340 22:38 05.01.2020
5140 Clouds 2 1025 42 10000 9.8 340 22:20 05.01.2020
5141 Clear 2 1025 39 10000 8.7 330 21:55 05.01.2020
5142 Clear 2 1025 39 10000 7.7 320 21:37 05.01.2020
5143 Clear 2 1025 39 10000 7.7 320 21:19 05.01.2020
5144 Clear 2 1025 39 10000 7.7 320 21:19 05.01.2020
5145 Clear 2 1025 39 10000 6.2 320 20:55 05.01.2020
5146 Clear 3 1025 41 10000 6.7 330 20:37 05.01.2020
5147 Clear 2 1025 41 10000 6.7 330 20:19 05.01.2020
5148 Clear 3 1025 39 10000 9.8 340 19:56 05.01.2020
5149 Clear 2 1025 39 10000 8.7 330 19:37 05.01.2020
5150 Clear 3 1025 39 10000 8.7 330 19:19 05.01.2020
5151 Clear 2 1026 51 10000 5.1 290 18:54 05.01.2020
5152 Clear 2 1026 51 10000 5.1 290 18:36 05.01.2020
5153 Clear 2 1025 52 10000 5.7 280 18:18 05.01.2020
5154 Clear 3 1025 39 10000 7.2 310 17:55 05.01.2020
5155 Clear 3 1025 39 10000 7.2 310 17:55 05.01.2020
5156 Clear 3 1025 42 10000 8.2 330 17:37 05.01.2020
5157 Clear 3 1025 42 10000 8.2 330 17:18 05.01.2020
5158 Clouds 3 1025 39 10000 6.2 320 16:55 05.01.2020
5159 Clouds 3 1025 45 10000 5.7 330 16:36 05.01.2020
5160 Clouds 3 1025 45 10000 5.7 330 16:18 05.01.2020
5161 Clouds 4 1025 45 10000 5.7 320 15:36 05.01.2020
5162 Clouds 4 1025 45 10000 5.7 320 15:36 05.01.2020
5163 Clear 4 1025 42 10000 6.7 340 15:18 05.01.2020
5164 Clear 3 1025 48 10000 7.7 350 14:54 05.01.2020
5165 Clouds 4 1025 45 10000 6.2 330 14:36 05.01.2020
5166 Clouds 4 1025 45 10000 6.2 330 14:18 05.01.2020
5167 Clouds 5 1025 48 10000 7.7 340 13:40 05.01.2020
5168 Clouds 5 1025 52 10000 7.2 350 13:21 05.01.2020
5169 Clouds 4 1025 48 10000 6.2 350 12:57 05.01.2020
5170 Clouds 5 1025 48 10000 6.2 350 12:39 05.01.2020
5171 Clouds 5 1024 52 10000 5.1 10 12:21 05.01.2020
5172 Clouds 6 1024 48 10000 6.7 360 11:55 05.01.2020
5173 Clouds 6 1023 52 10000 7.7 350 11:37 05.01.2020
5174 Clouds 6 1023 52 10000 7.7 350 11:19 05.01.2020
5175 Clouds 6 1024 49 10000 6.2 20 10:56 05.01.2020
5176 Clouds 6 1023 52 10000 7.2 10 10:36 05.01.2020
5177 Clouds 6 1023 52 10000 7.2 10 10:36 05.01.2020
5178 Clouds 6 1023 52 10000 7.2 10 10:18 05.01.2020
5179 Clouds 8 1022 42 10000 7.2 360 09:41 05.01.2020
5180 Clouds 8 1022 42 10000 7.2 360 09:21 05.01.2020
5181 Clouds 8 1022 42 10000 10.8 350 08:46 05.01.2020
5182 Clouds 9 1022 34 10000 4.1 320 08:27 05.01.2020
5183 Clouds 10 1021 39 10000 6.2 350 07:55 05.01.2020
5184 Clouds 10 1021 39 10000 6.2 350 07:36 05.01.2020
5185 Clouds 10 1021 34 10000 7.7 350 06:59 05.01.2020
5186 Clouds 10 1020 37 10000 8.2 340 05:58 05.01.2020
5187 Clouds 10 1020 34 10000 6.7 320 05:30 05.01.2020
5188 Rain 9 1020 43 10000 8.7 350 04:43 05.01.2020
5189 Rain 9 1021 36 10000 6.2 340 03:52 05.01.2020
5190 Clouds 8 1022 42 10000 6.7 340 02:46 05.01.2020
5191 Clouds 7 1021 48 10000 5.7 300 02:23 05.01.2020
5192 Clouds 6 1022 52 10000 6.2 330 01:48 05.01.2020
5193 Clouds 6 1021 56 10000 4.1 310 01:18 05.01.2020
5194 Clouds 4 1020 65 10000 5.1 320 00:41 05.01.2020
5195 Clouds 4 1020 65 10000 5.1 320 00:23 05.01.2020
5196 Clouds 3 1020 65 10000 5.7 330 23:59 04.01.2020
5197 Clouds 3 1020 65 10000 5.7 330 23:59 04.01.2020
5198 Clouds 2 1019 64 10000 6.2 330 23:39 04.01.2020
5199 Clouds 2 1019 64 10000 6.2 330 23:19 04.01.2020
5200 Clouds 2 1018 65 10000 7.2 330 22:40 04.01.2020
5201 Clouds 2 1018 42 10000 1.5 280 22:40 04.01.2020
5202 Clouds 2 1018 65 10000 7.2 330 22:21 04.01.2020
5203 Clouds 2 1017 65 10000 7.2 330 21:57 04.01.2020
5204 Clouds 2 1017 65 10000 7.2 330 21:57 04.01.2020
5205 Clouds 2 1017 69 10000 6.2 330 21:39 04.01.2020
5206 Clouds 2 1017 69 10000 6.2 330 21:20 04.01.2020
5207 Clouds 2 1017 69 10000 6.2 330 21:20 04.01.2020
5208 Clouds 2 1017 65 10000 7.7 330 20:58 04.01.2020
5209 Clouds 2 1016 42 10000 8.7 330 20:39 04.01.2020
5210 Clouds 2 1016 61 10000 8.7 330 20:21 04.01.2020
5211 Clouds 2 1016 65 10000 5.1 350 19:56 04.01.2020
5212 Clouds 2 1016 80 10000 3.1 10 19:38 04.01.2020
5213 Clouds 2 1016 80 10000 3.1 10 19:19 04.01.2020
5214 Rain 3 1015 80 10000 4.6 360 18:54 04.01.2020
5215 Rain 3 1016 80 10000 4.1 10 18:36 04.01.2020
5216 Rain 3 1016 80 10000 4.1 10 18:18 04.01.2020
5217 Clouds 3 1016 86 10000 6.7 360 17:41 04.01.2020
5218 Rain 3 1015 86 10000 7.7 10 17:23 04.01.2020
5219 Rain 3 1015 86 10000 10.3 360 16:57 04.01.2020
5220 Rain 4 1015 80 10000 11.3 360 16:39 04.01.2020
5221 Rain 4 1015 80 10000 11.3 360 16:21 04.01.2020
5222 Rain 5 1014 60 10000 10.3 360 15:43 04.01.2020
5223 Clouds 6 1012 57 10000 7.2 10 15:20 04.01.2020
5224 Rain 6 1013 75 10000 3.6 20 14:59 04.01.2020
5225 Clouds 6 1012 57 10000 2.1 120 14:41 04.01.2020
5226 Clouds 6 1012 46 10000 3.1 140 14:20 04.01.2020
5227 Clouds 6 1013 46 10000 4.1 140 13:59 04.01.2020
5228 Clouds 6 1013 46 10000 4.1 140 13:38 04.01.2020
5229 Clouds 6 1012 61 10000 4.1 140 13:19 04.01.2020
5230 Clouds 6 1012 48 10000 5.7 150 12:57 04.01.2020
5231 Rain 6 1012 52 10000 4.6 140 12:38 04.01.2020
5232 Rain 7 1012 52 10000 4.6 140 12:18 04.01.2020
5233 Rain 7 1013 43 10000 2.6 100 11:55 04.01.2020
5234 Rain 8 1012 49 10000 2.6 120 11:36 04.01.2020
5235 Rain 8 1012 49 10000 2.6 120 11:18 04.01.2020
5236 Rain 9 1012 40 10000 2.6 110 10:40 04.01.2020
5237 Rain 9 1012 40 10000 2.6 110 10:21 04.01.2020
5238 Rain 9 1013 40 10000 2.6 70 09:47 04.01.2020
5239 Rain 10 1013 40 10000 4.1 50 09:26 04.01.2020
5240 Rain 10 1013 40 10000 2.6 20 08:49 04.01.2020
5241 Clouds 10 1012 34 10000 1.5 10 08:29 04.01.2020
5242 Clouds 11 1013 40 10000 4.1 30 07:57 04.01.2020
5243 Clouds 11 1013 40 10000 4.1 30 07:38 04.01.2020
5244 Clouds 11 1013 43 10000 4.1 20 06:44 04.01.2020
5245 Clouds 12 1012 37 10000 3.6 360 05:59 04.01.2020
5246 Clouds 11 1013 40 10000 5.1 360 04:52 04.01.2020
5247 Clouds 11 1013 34 10000 4.6 330 04:31 04.01.2020
5248 Clouds 10 1014 37 10000 4.1 330 03:30 04.01.2020
5249 Clouds 9 1015 46 10000 8.7 350 02:52 04.01.2020
5250 Clouds 8 1015 39 10000 5.1 320 02:18 04.01.2020
5251 Clouds 7 1015 48 10000 9.8 350 01:45 04.01.2020
5252 Clouds 7 1015 45 10000 4.6 320 01:27 04.01.2020
5253 Clouds 6 1015 52 10000 3.6 330 00:29 04.01.2020
5254 Clouds 4 1015 52 10000 5.7 340 23:59 03.01.2020
5255 Clouds 3 1014 56 10000 6.2 330 23:37 03.01.2020
5256 Clouds 4 1014 56 10000 6.2 330 23:19 03.01.2020
5257 Clouds 3 1015 56 10000 6.2 340 22:41 03.01.2020
5258 Clouds 3 1015 54 10000 5.7 350 22:19 03.01.2020
5259 Clear 3 1014 60 10000 4.1 320 21:58 03.01.2020
5260 Clear 3 1014 60 10000 4.1 320 21:38 03.01.2020
5261 Clear 3 1014 60 10000 4.1 320 21:19 03.01.2020
5262 Clear 3 1014 54 10000 4.6 350 20:57 03.01.2020
5263 Clear 3 1014 54 10000 2.6 10 20:39 03.01.2020
5264 Clear 3 1014 54 10000 2.6 10 20:18 03.01.2020
5265 Clear 3 1014 55 10000 2.6 20 19:55 03.01.2020
5266 Clear 3 1014 55 10000 2.6 20 19:55 03.01.2020
5267 Clear 3 1014 70 10000 3.1 20 19:37 03.01.2020
5268 Clear 3 1014 70 10000 3.1 20 19:18 03.01.2020
5269 Clear 4 1014 75 10000 4.1 20 18:43 03.01.2020
5270 Clear 4 1014 65 10000 4.1 10 18:24 03.01.2020
5271 Clouds 5 1014 65 10000 6.2 340 17:55 03.01.2020
5272 Clouds 4 1014 61 10000 3.1 10 17:36 03.01.2020
5273 Clouds 4 1014 61 10000 3.1 10 17:18 03.01.2020
5274 Clouds 5 1014 57 10000 4.6 350 16:42 03.01.2020
5275 Clouds 4 1014 55 10000 2.6 310 16:22 03.01.2020
5276 Clear 5 1014 65 10000 2.1 290 15:44 03.01.2020
5277 Clear 5 1015 70 10000 3.1 310 15:19 03.01.2020
5278 Clear 5 1014 65 10000 3.6 310 14:59 03.01.2020
5279 Clouds 5 1014 70 10000 3.1 310 14:38 03.01.2020
5280 Clouds 5 1014 70 10000 3.1 310 14:19 03.01.2020
5281 Clear 5 1014 61 10000 3.1 310 13:44 03.01.2020
5282 Clouds 5 1014 61 10000 2.1 310 13:24 03.01.2020
5283 Clouds 6 1014 66 10000 2.1 280 12:59 03.01.2020
5284 Clouds 6 1014 66 10000 2.1 280 12:39 03.01.2020
5285 Clouds 6 1014 66 10000 1.5 240 12:21 03.01.2020
5286 Clouds 7 1014 66 10000 1.5 140 11:45 03.01.2020
5287 Clouds 6 1014 66 10000 1 130 11:23 03.01.2020
5288 Clouds 7 1014 70 10000 1.5 110 10:46 03.01.2020
5289 Clouds 8 1014 70 10000 1.5 120 10:27 03.01.2020
5290 Clouds 8 1015 61 10000 0.5 0 09:58 03.01.2020
5291 Clouds 9 1015 61 10000 0.5 0 09:40 03.01.2020
5292 Clouds 9 1014 42 10000 0.5 50 09:22 03.01.2020
5293 Clouds 11 1014 53 10000 1 350 08:57 03.01.2020
5294 Clouds 11 1014 57 10000 1 160 08:38 03.01.2020
5295 Clouds 11 1014 57 10000 1 160 08:19 03.01.2020
5296 Clouds 12 1014 57 10000 1 0 07:40 03.01.2020
5297 Clouds 11 1014 46 10000 1.5 0 07:19 03.01.2020
5298 Clouds 11 1014 57 10000 1 0 06:51 03.01.2020
5299 Clouds 12 1014 53 10000 2.1 130 06:33 03.01.2020
5300 Clouds 11 1014 37 10000 1.5 50 05:46 03.01.2020
5301 Clouds 11 1015 49 10000 1.5 50 04:27 03.01.2020
5302 Clouds 9 1017 40 10000 2.6 20 02:59 03.01.2020
5303 Clouds 9 1017 40 10000 2.6 20 02:41 03.01.2020
5304 Clouds 6 1018 65 10000 1.5 20 01:45 03.01.2020
5305 Clouds 5 1018 65 10000 1 0 00:53 03.01.2020
5306 Clouds 4 1018 46 10000 2.1 310 00:31 03.01.2020
5307 Clouds 2 1018 69 10000 2.1 20 23:57 02.01.2020
5308 Clouds 1 1018 69 10000 2.1 20 23:38 02.01.2020
5309 Clouds 1 1017 69 10000 2.6 30 23:19 02.01.2020
5310 Clouds 1 1018 69 10000 2.6 30 22:57 02.01.2020
5311 Clouds 1 1017 65 10000 3.1 10 22:39 02.01.2020
5312 Clouds 1 1017 65 10000 3.1 10 22:18 02.01.2020
5313 Clouds 1 1017 69 10000 2.1 310 21:42 02.01.2020
5314 Clouds 1 1017 69 10000 2.1 300 21:23 02.01.2020
5315 Clouds 1 1018 69 10000 2.1 280 21:00 02.01.2020
5316 Clouds 1 1018 69 10000 2.1 280 21:00 02.01.2020
5317 Clouds 2 1018 69 10000 2.1 280 20:40 02.01.2020
5318 Clouds 2 1017 69 10000 1.5 300 20:21 02.01.2020
5319 Clouds 2 1018 69 10000 0.5 0 19:56 02.01.2020
5320 Clouds 2 1018 69 10000 0.5 0 19:38 02.01.2020
5321 Clouds 3 1018 48 10000 1 0 19:19 02.01.2020
5322 Clouds 3 1019 48 10000 1.5 320 18:58 02.01.2020
5323 Clouds 3 1019 48 10000 1.5 320 18:40 02.01.2020
5324 Clouds 3 1018 48 10000 2.1 330 18:22 02.01.2020
5325 Clouds 3 1018 48 10000 2.1 330 18:22 02.01.2020
5326 Clouds 4 1018 48 10000 3.1 10 17:57 02.01.2020
5327 Clouds 4 1019 65 10000 3.6 360 17:37 02.01.2020
5328 Clouds 4 1019 65 10000 3.6 360 17:19 02.01.2020
5329 Clouds 4 1019 46 10000 3.6 320 16:57 02.01.2020
5330 Clouds 4 1019 46 10000 3.6 320 16:38 02.01.2020
5331 Clouds 4 1019 46 10000 3.6 320 16:38 02.01.2020
5332 Clouds 5 1019 46 10000 3.1 300 16:20 02.01.2020
5333 Clouds 5 1019 56 10000 3.6 310 15:56 02.01.2020
5334 Clouds 5 1019 65 10000 3.6 310 15:37 02.01.2020
5335 Clouds 5 1019 46 10000 3.1 310 15:19 02.01.2020
5336 Clouds 5 1019 46 10000 3.1 310 14:55 02.01.2020
5337 Clouds 5 1019 70 10000 3.6 310 14:36 02.01.2020
5338 Clouds 5 1019 70 10000 3.6 310 14:18 02.01.2020
5339 Clouds 4 1019 65 10000 2.1 0 13:47 02.01.2020
5340 Clouds 5 1019 53 10000 1.33 17 13:29 02.01.2020
5341 Clouds 5 1020 54 10000 1 120 12:45 02.01.2020
5342 Clouds 6 1020 54 10000 1 130 12:25 02.01.2020
5343 Clouds 6 1020 54 10000 1 130 12:25 02.01.2020
5344 Clouds 7 1020 61 10000 2.6 160 11:44 02.01.2020
5345 Clouds 7 1020 61 10000 2.6 160 11:26 02.01.2020
5346 Clouds 6 1020 57 10000 2.1 130 10:58 02.01.2020
5347 Clouds 7 1019 52 10000 2.1 110 10:39 02.01.2020
5348 Clouds 8 1019 52 10000 2.1 110 10:19 02.01.2020
5349 Clouds 9 1019 53 10000 2.1 90 09:42 02.01.2020
5350 Clouds 9 1019 53 10000 2.1 90 09:24 02.01.2020
5351 Clouds 10 1020 53 10000 1.5 90 08:45 02.01.2020
5352 Clouds 10 1020 53 10000 1.5 90 08:45 02.01.2020
5353 Clouds 11 1019 42 10000 3.1 140 08:27 02.01.2020
5354 Clouds 11 1020 41 10000 3.1 80 07:50 02.01.2020
5355 Clouds 11 1019 40 10000 2.1 50 07:30 02.01.2020
5356 Clouds 11 1020 41 10000 2.6 60 06:45 02.01.2020
5357 Clouds 11 1019 43 10000 2.6 60 06:26 02.01.2020
5358 Clouds 10 1020 49 10000 3.6 10 04:53 02.01.2020
5359 Clouds 10 1021 49 10000 2.1 40 04:30 02.01.2020
5360 Clouds 8 1022 45 10000 2.6 360 02:37 02.01.2020
5361 Clouds 7 1023 47 10000 4.1 10 01:58 02.01.2020
5362 Clouds 7 1022 52 10000 3.6 360 01:33 02.01.2020
5363 Clouds 7 1022 52 10000 3.6 360 01:33 02.01.2020
5364 Clouds 6 1022 56 10000 3.1 10 00:57 02.01.2020
5365 Clouds 4 1022 65 10000 3.6 30 00:33 02.01.2020
5366 Clouds 2 1022 65 10000 3.1 30 23:49 01.01.2020
5367 Clouds 1 1022 60 10000 3.6 20 23:27 01.01.2020
5368 Clouds 1 1022 51 10000 4.1 20 22:56 01.01.2020
5369 Clouds 1 1022 51 10000 4.1 20 22:38 01.01.2020
5370 Clouds 1 1021 60 10000 2.6 30 22:19 01.01.2020
5371 Clouds 1 1022 56 10000 2.1 30 21:56 01.01.2020
5372 Clouds 1 1022 56 10000 2.1 30 21:37 01.01.2020
5373 Clouds 2 1021 51 10000 3.6 30 21:18 01.01.2020
5374 Clouds 1 1021 51 10000 4.6 20 20:54 01.01.2020
5375 Clouds 1 1021 51 10000 4.1 30 20:36 01.01.2020
5376 Clouds 1 1021 42 10000 4.1 30 20:18 01.01.2020
5377 Clouds 1 1021 60 10000 3.1 20 19:54 01.01.2020
5378 Clouds 2 1021 56 10000 4.1 360 19:36 01.01.2020
5379 Clouds 2 1021 56 10000 4.1 360 19:18 01.01.2020
5380 Clouds 2 1021 56 10000 5.7 360 18:54 01.01.2020
5381 Clouds 2 1021 65 10000 3.6 330 18:36 01.01.2020
5382 Clouds 2 1021 65 10000 3.6 330 18:18 01.01.2020
5383 Clouds 2 1021 42 10000 2.6 300 17:55 01.01.2020
5384 Clouds 2 1021 60 10000 3.1 310 17:36 01.01.2020
5385 Clouds 3 1021 60 10000 3.1 310 17:18 01.01.2020
5386 Clouds 3 1021 45 10000 2.6 330 16:39 01.01.2020
5387 Clouds 3 1021 45 10000 2.6 330 16:20 01.01.2020
5388 Clouds 3 1021 70 10000 3.1 310 15:57 01.01.2020
5389 Clouds 3 1021 70 10000 3.1 310 15:38 01.01.2020
5390 Clouds 3 1020 70 10000 2.6 290 15:20 01.01.2020
5391 Clouds 3 1021 75 10000 1.5 290 14:56 01.01.2020
5392 Clouds 3 1021 75 10000 1.5 290 14:38 01.01.2020
5393 Clouds 4 1021 62 10000 1 0 14:20 01.01.2020
5394 Clouds 4 1021 61 10000 1 340 13:55 01.01.2020
5395 Clouds 4 1021 65 10000 1.5 330 13:37 01.01.2020
5396 Clouds 4 1021 65 10000 1.5 330 13:37 01.01.2020
5397 Clouds 4 1021 65 10000 1.5 330 13:18 01.01.2020
5398 Clouds 5 1021 65 10000 1.5 350 12:55 01.01.2020
5399 Clouds 4 1020 61 10000 0.5 0 12:37 01.01.2020
5400 Clouds 5 1020 61 10000 0.5 0 12:18 01.01.2020
5401 Clouds 5 1020 57 10000 2.1 200 11:43 01.01.2020
5402 Clouds 6 1020 58 10000 2.6 200 11:21 01.01.2020
5403 Clouds 6 1020 52 10000 2.6 210 10:58 01.01.2020
5404 Clouds 6 1020 49 10000 1 0 10:39 01.01.2020
5405 Clouds 7 1020 49 10000 1 0 10:20 01.01.2020
5406 Clouds 7 1020 52 10000 0.5 0 09:55 01.01.2020
5407 Clouds 7 1020 45 10000 1 0 09:36 01.01.2020
5408 Clouds 8 1020 45 10000 1 0 09:18 01.01.2020
5409 Clouds 8 1020 48 10000 1.5 130 08:54 01.01.2020
5410 Clouds 8 1020 48 10000 1.5 130 08:36 01.01.2020
5411 Clouds 9 1019 42 10000 2.6 140 08:18 01.01.2020
5412 Clouds 10 1020 45 10000 1.5 120 07:42 01.01.2020
5413 Clouds 9 1019 42 10000 3.1 150 07:24 01.01.2020
5414 Clouds 10 1020 39 10000 1.5 80 06:44 01.01.2020
5415 Clouds 10 1019 39 10000 1 0 06:19 01.01.2020
5416 Clouds 9 1020 45 10000 2.6 60 04:38 01.01.2020
5417 Clouds 8 1022 45 10000 3.1 40 03:41 01.01.2020
5418 Clouds 8 1022 42 10000 2.6 50 03:22 01.01.2020
5419 Clouds 8 1023 42 10000 2.6 40 02:55 01.01.2020
5420 Clouds 7 1023 45 10000 2.6 40 02:32 01.01.2020
5421 Clouds 6 1023 48 10000 4.1 30 01:45 01.01.2020
5422 Clouds 6 1022 44 10000 2.6 30 01:24 01.01.2020
5423 Clouds 5 1022 48 10000 2.6 20 00:56 01.01.2020
5424 Clouds 5 1022 45 10000 6.2 20 00:37 01.01.2020
5425 Clouds 4 1022 45 10000 6.2 20 00:18 01.01.2020
5426 Clouds 4 1021 52 10000 7.2 350 23:39 31.12.2019
5427 Clouds 3 1021 52 10000 7.2 350 23:19 31.12.2019
5428 Clouds 3 1022 48 10000 10.3 350 22:57 31.12.2019
5429 Clouds 4 1021 44 10000 8.7 340 22:38 31.12.2019
5430 Clouds 4 1021 44 10000 8.7 340 22:18 31.12.2019
5431 Clouds 4 1021 44 10000 9.3 330 21:54 31.12.2019
5432 Clouds 4 1020 41 10000 9.8 340 21:36 31.12.2019
5433 Clouds 4 1020 41 10000 9.8 340 21:18 31.12.2019
5434 Clouds 4 1019 44 10000 10.8 340 20:40 31.12.2019
5435 Clouds 3 1019 44 10000 10.8 340 20:21 31.12.2019
5436 Clouds 3 1020 44 10000 10.3 340 19:59 31.12.2019
5437 Clouds 3 1020 44 10000 10.3 340 19:40 31.12.2019
5438 Clouds 3 1019 44 10000 10.8 340 19:22 31.12.2019
5439 Clouds 3 1020 44 10000 10.3 340 18:58 31.12.2019
5440 Clouds 3 1019 48 10000 10.8 350 18:40 31.12.2019
5441 Clouds 3 1019 48 10000 10.8 350 18:19 31.12.2019
5442 Clouds 3 1019 48 10000 12.9 340 17:56 31.12.2019
5443 Clouds 3 1018 44 10000 11.8 340 17:38 31.12.2019
5444 Clouds 4 1018 44 10000 11.8 340 17:19 31.12.2019
5445 Clouds 3 1018 44 10000 11.8 330 16:57 31.12.2019
5446 Clouds 3 1018 44 10000 11.8 330 16:38 31.12.2019
5447 Clouds 4 1018 38 10000 12.3 330 16:19 31.12.2019
5448 Clear 4 1018 38 10000 11.8 330 15:56 31.12.2019
5449 Clear 4 1017 38 10000 13.9 330 15:38 31.12.2019
5450 Clear 4 1017 38 10000 13.9 330 15:38 31.12.2019
5451 Clear 4 1017 38 10000 13.9 330 15:20 31.12.2019
5452 Clear 4 1017 38 10000 14.9 330 14:57 31.12.2019
5453 Clear 4 1017 38 10000 14.9 330 14:38 31.12.2019
5454 Clouds 4 1017 44 10000 12.9 340 14:19 31.12.2019
5455 Clouds 4 1017 44 10000 12.9 340 14:19 31.12.2019
5456 Clouds 4 1017 41 10000 13.4 340 13:57 31.12.2019
5457 Clouds 4 1016 48 10000 17 340 13:39 31.12.2019
5458 Clouds 5 1016 48 10000 17 340 13:20 31.12.2019
5459 Clouds 5 1015 41 10000 14.4 340 12:56 31.12.2019
5460 Clouds 5 1015 41 10000 16.5 340 12:38 31.12.2019
5461 Clouds 5 1015 41 10000 16.5 340 12:20 31.12.2019
5462 Clouds 6 1015 41 10000 13.9 340 11:56 31.12.2019
5463 Clouds 6 1015 41 10000 13.9 340 11:38 31.12.2019
5464 Rain 7 1014 39 10000 15.9 330 11:20 31.12.2019
5465 Clouds 8 1013 42 10000 13.9 340 10:57 31.12.2019
5466 Rain 8 1013 39 10000 15.4 340 10:38 31.12.2019
5467 Rain 8 1013 39 10000 15.4 340 10:38 31.12.2019
5468 Rain 8 1013 39 10000 15.4 340 10:20 31.12.2019
5469 Rain 9 1012 42 10000 15.4 350 09:58 31.12.2019
5470 Rain 9 1012 39 10000 10.3 350 09:39 31.12.2019
5471 Rain 9 1011 45 10000 16.5 350 09:20 31.12.2019
5472 Rain 10 1011 39 10000 15.4 340 08:57 31.12.2019
5473 Rain 10 1011 39 10000 15.4 340 08:37 31.12.2019
5474 Rain 12 1010 32 10000 10.3 310 08:19 31.12.2019
5475 Rain 14 1009 34 10000 15.4 350 07:43 31.12.2019
5476 Rain 14 1008 33 10000 7.2 330 07:20 31.12.2019
5477 Clouds 17 1007 38 10000 12.3 340 06:50 31.12.2019
5478 Rain 17 1005 67 10000 5.1 10 05:57 31.12.2019
5479 Clouds 16 1005 58 10000 2.1 320 04:28 31.12.2019
5480 Clear 15 1006 66 10000 1.5 20 03:28 31.12.2019
5481 Clouds 15 1007 71 10000 3.1 60 02:54 31.12.2019
5482 Clouds 15 1007 71 10000 3.1 60 02:54 31.12.2019
5483 Clouds 12 1007 71 10000 1.5 360 02:18 31.12.2019
5484 Clouds 10 1009 76 10000 1.5 20 01:42 31.12.2019
5485 Clouds 10 1009 76 8000 1 0 01:23 31.12.2019
5486 Clouds 7 1009 75 8000 1 0 00:46 31.12.2019
5487 Clouds 7 1009 81 9000 0.5 0 00:22 31.12.2019
5488 Clouds 6 1010 81 10000 1.5 10 23:56 30.12.2019
5489 Clouds 5 1010 81 10000 2.1 10 23:38 30.12.2019
5490 Clouds 5 1010 81 10000 2.1 10 23:20 30.12.2019
5491 Clouds 5 1010 81 10000 1.5 360 22:57 30.12.2019
5492 Clouds 5 1011 87 10000 1.5 40 22:38 30.12.2019
5493 Clouds 6 1011 87 10000 1.5 40 22:20 30.12.2019
5494 Clouds 6 1011 81 10000 1 0 21:56 30.12.2019
5495 Clouds 5 1011 81 10000 1.5 70 21:38 30.12.2019
5496 Clouds 5 1011 81 10000 1.5 70 21:18 30.12.2019
5497 Clouds 6 1012 81 10000 0.5 0 20:56 30.12.2019
5498 Clouds 6 1012 81 10000 0.5 0 20:38 30.12.2019
5499 Clouds 6 1012 81 10000 1.5 320 20:20 30.12.2019
5500 Clouds 6 1013 75 10000 3.1 310 19:57 30.12.2019
5501 Clouds 6 1013 75 10000 2.6 340 19:37 30.12.2019
5502 Clouds 6 1013 75 10000 2.6 340 19:19 30.12.2019
5503 Clouds 6 1013 75 10000 2.6 340 19:19 30.12.2019
5504 Clouds 6 1013 76 10000 3.6 20 18:56 30.12.2019
5505 Clouds 6 1013 76 10000 3.6 20 18:38 30.12.2019
5506 Clouds 6 1013 76 10000 3.6 20 18:20 30.12.2019
5507 Clouds 6 1014 81 10000 4.1 10 17:55 30.12.2019
5508 Clouds 7 1014 81 10000 3.6 20 17:37 30.12.2019
5509 Clouds 6 1014 81 10000 3.6 20 17:18 30.12.2019
5510 Clouds 6 1014 81 10000 1 0 16:57 30.12.2019
5511 Rain 6 1015 87 10000 2.1 10 16:36 30.12.2019
5512 Rain 6 1015 87 10000 2.1 10 16:18 30.12.2019
5513 Rain 7 1016 87 10000 2.1 350 15:55 30.12.2019
5514 Clouds 7 1016 81 10000 2.1 10 15:37 30.12.2019
5515 Clouds 7 1016 81 10000 2.1 10 15:18 30.12.2019
5516 Clouds 7 1017 87 10000 3.1 20 14:42 30.12.2019
5517 Clouds 7 1017 87 10000 1.5 20 14:20 30.12.2019
5518 Clouds 7 1018 93 10000 2.6 10 13:57 30.12.2019
5519 Clouds 7 1018 87 10000 1.5 100 13:39 30.12.2019
5520 Clouds 7 1018 87 10000 1.5 100 13:21 30.12.2019
5521 Clouds 7 1018 87 10000 1 90 12:56 30.12.2019
5522 Clouds 7 1018 87 10000 1.5 100 12:36 30.12.2019
5523 Clouds 6 1018 87 10000 1.5 100 12:18 30.12.2019
5524 Clouds 7 1019 81 10000 2.1 130 11:40 30.12.2019
5525 Clouds 6 1020 81 10000 2.1 120 11:19 30.12.2019
5526 Clouds 7 1020 76 10000 2.6 140 10:58 30.12.2019
5527 Clouds 7 1020 75 10000 2.1 160 10:40 30.12.2019
5528 Clouds 7 1020 75 10000 2.1 160 10:18 30.12.2019
5529 Clouds 7 1020 70 10000 1.5 140 09:42 30.12.2019
5530 Clouds 7 1020 70 10000 1 0 09:20 30.12.2019
5531 Clouds 8 1021 66 10000 1 0 08:56 30.12.2019
5532 Clouds 8 1021 70 10000 1 0 08:37 30.12.2019
5533 Clouds 8 1021 70 10000 1 0 08:18 30.12.2019
5534 Clouds 9 1021 66 10000 1 0 07:41 30.12.2019
5535 Clouds 9 1022 66 10000 1.5 90 06:59 30.12.2019
5536 Clouds 9 1022 70 8000 1.5 320 06:24 30.12.2019
5537 Rain 8 1024 75 10000 2.6 330 04:23 30.12.2019
5538 Rain 7 1024 75 10000 4.6 340 03:42 30.12.2019
5539 Rain 7 1026 65 10000 5.1 340 02:41 30.12.2019
5540 Rain 7 1027 65 10000 4.1 310 02:21 30.12.2019
5541 Rain 7 1027 41 10000 4.1 310 01:27 30.12.2019
5542 Rain 6 1027 52 10000 3.6 300 00:51 30.12.2019
5543 Rain 7 1027 56 10000 3.6 330 00:28 30.12.2019
5544 Clouds 6 1028 56 10000 4.6 320 23:40 29.12.2019
5545 Clouds 6 1027 42 10000 4.1 330 23:22 29.12.2019
5546 Clouds 6 1028 42 10000 3.6 340 22:57 29.12.2019
5547 Clouds 6 1027 61 10000 4.1 340 22:38 29.12.2019
5548 Clouds 6 1027 61 10000 4.1 340 22:20 29.12.2019
5549 Clouds 6 1028 42 10000 4.1 330 21:55 29.12.2019
5550 Clouds 6 1028 42 10000 4.1 330 21:37 29.12.2019
5551 Clouds 6 1028 52 10000 4.6 340 21:18 29.12.2019
5552 Clouds 6 1028 42 10000 5.1 340 20:55 29.12.2019
5553 Clouds 6 1028 42 10000 5.1 340 20:55 29.12.2019
5554 Clouds 6 1028 52 10000 4.6 340 20:37 29.12.2019
5555 Clouds 6 1028 52 10000 4.6 340 20:18 29.12.2019
5556 Clouds 6 1028 52 10000 4.1 340 19:55 29.12.2019
5557 Clouds 6 1028 61 10000 4.1 360 19:37 29.12.2019
5558 Clouds 6 1028 61 10000 4.1 360 19:18 29.12.2019
5559 Clouds 6 1029 61 10000 4.6 340 18:54 29.12.2019
5560 Clouds 7 1029 61 10000 3.1 320 18:36 29.12.2019
5561 Clouds 7 1029 61 10000 3.1 320 18:18 29.12.2019
5562 Clouds 7 1029 53 10000 3.1 360 17:55 29.12.2019
5563 Clouds 7 1028 39 10000 3.1 20 17:36 29.12.2019
5564 Clouds 7 1028 37 10000 3.1 20 17:18 29.12.2019
5565 Clouds 7 1029 37 10000 3.1 20 16:54 29.12.2019
5566 Clouds 7 1029 37 10000 3.1 360 16:36 29.12.2019
5567 Clouds 7 1029 37 10000 3.1 360 16:18 29.12.2019
5568 Clouds 8 1030 37 10000 2.6 10 15:55 29.12.2019
5569 Clouds 8 1030 53 10000 3.1 20 15:37 29.12.2019
5570 Clouds 8 1030 53 10000 3.1 20 15:18 29.12.2019
5571 Clouds 8 1030 57 10000 3.6 10 14:55 29.12.2019
5572 Clouds 8 1030 57 10000 3.6 10 14:37 29.12.2019
5573 Clouds 8 1030 53 10000 3.1 40 14:18 29.12.2019
5574 Clouds 8 1030 53 10000 4.1 50 13:40 29.12.2019
5575 Clouds 8 1030 53 10000 4.1 50 13:40 29.12.2019
5576 Clouds 8 1030 61 10000 3.6 60 13:22 29.12.2019
5577 Clouds 8 1030 61 10000 3.6 60 12:59 29.12.2019
5578 Clouds 9 1030 61 10000 3.6 60 12:41 29.12.2019
5579 Clouds 9 1030 61 10000 3.1 90 12:22 29.12.2019
5580 Clouds 9 1030 57 10000 3.6 90 11:54 29.12.2019
5581 Clouds 9 1030 53 10000 4.1 100 11:36 29.12.2019
5582 Clouds 9 1030 53 10000 4.1 100 11:18 29.12.2019
5583 Clouds 9 1030 57 10000 4.1 120 10:41 29.12.2019
5584 Clouds 9 1030 57 10000 4.1 120 10:21 29.12.2019
5585 Clouds 9 1029 53 10000 4.6 120 09:54 29.12.2019
5586 Clouds 9 1029 39 10000 3.6 130 09:36 29.12.2019
5587 Clouds 9 1029 39 10000 3.6 130 09:18 29.12.2019
5588 Clouds 10 1029 43 10000 1 60 08:46 29.12.2019
5589 Clouds 10 1028 39 10000 1.5 110 08:24 29.12.2019
5590 Clouds 10 1028 43 10000 1 0 07:54 29.12.2019
5591 Clouds 10 1028 43 10000 1 0 07:54 29.12.2019
5592 Clouds 10 1028 37 10000 1.5 120 07:27 29.12.2019
5593 Clouds 11 1028 42 10000 1.5 20 06:53 29.12.2019
5594 Clouds 10 1028 37 10000 2.6 140 06:23 29.12.2019
5595 Clouds 11 1027 43 10000 2.1 60 05:50 29.12.2019
5596 Clouds 10 1028 34 10000 3.6 60 04:35 29.12.2019
5597 Clouds 9 1029 42 10000 4.1 80 03:40 29.12.2019
5598 Clouds 9 1029 42 10000 4.1 80 03:19 29.12.2019
5599 Clouds 8 1030 42 10000 1.5 40 02:20 29.12.2019
5600 Clouds 6 1030 45 10000 2.6 10 01:31 29.12.2019
5601 Clouds 6 1030 45 10000 2.6 10 01:31 29.12.2019
5602 Clouds 5 1030 52 10000 2.6 20 00:55 29.12.2019
5603 Clouds 4 1030 52 10000 5.7 10 00:36 29.12.2019
5604 Clouds 3 1030 52 10000 5.7 10 00:18 29.12.2019
5605 Clouds 3 1030 52 10000 5.1 360 23:41 28.12.2019
5606 Clouds 2 1029 56 10000 6.2 10 23:18 28.12.2019
5607 Clouds 2 1029 56 10000 6.2 10 23:18 28.12.2019
5608 Clouds 2 1029 56 10000 5.1 20 22:39 28.12.2019
5609 Clouds 2 1029 56 10000 5.1 20 22:20 28.12.2019
5610 Clouds 2 1029 56 10000 5.7 10 21:58 28.12.2019
5611 Clouds 2 1028 52 10000 5.1 10 21:39 28.12.2019
5612 Clouds 2 1028 52 10000 5.1 10 21:20 28.12.2019
5613 Clouds 2 1028 56 10000 4.6 20 20:56 28.12.2019
5614 Clouds 2 1028 52 10000 5.1 20 20:37 28.12.2019
5615 Clouds 2 1028 52 10000 5.1 20 20:19 28.12.2019
5616 Clouds 3 1028 56 10000 6.7 10 19:55 28.12.2019
5617 Clouds 3 1028 52 10000 5.1 10 19:37 28.12.2019
5618 Clouds 3 1028 52 10000 5.1 10 19:18 28.12.2019
5619 Clouds 3 1028 52 10000 5.7 10 18:56 28.12.2019
5620 Clouds 3 1028 52 10000 5.7 10 18:38 28.12.2019
5621 Clouds 3 1028 48 10000 5.7 20 18:18 28.12.2019
5622 Clouds 4 1028 48 10000 5.1 20 17:54 28.12.2019
5623 Clouds 4 1027 48 10000 5.7 10 17:36 28.12.2019
5624 Clouds 4 1027 48 10000 5.7 10 17:18 28.12.2019
5625 Clouds 4 1027 48 10000 7.7 360 16:45 28.12.2019
5626 Clouds 4 1027 45 10000 6.2 360 16:24 28.12.2019
5627 Clouds 4 1027 52 10000 7.2 350 15:44 28.12.2019
5628 Clouds 5 1027 48 10000 6.7 360 15:24 28.12.2019
5629 Clouds 5 1027 52 10000 7.2 360 14:58 28.12.2019
5630 Clouds 5 1027 52 10000 7.2 360 14:38 28.12.2019
5631 Clouds 5 1027 48 10000 6.2 10 14:20 28.12.2019
5632 Clouds 5 1027 52 10000 7.2 10 13:43 28.12.2019
5633 Clouds 5 1026 49 10000 7.7 360 13:23 28.12.2019
5634 Clouds 6 1026 49 10000 8.7 350 12:59 28.12.2019
5635 Clouds 6 1026 49 10000 8.7 350 12:41 28.12.2019
5636 Clouds 6 1026 42 10000 8.2 350 12:23 28.12.2019
5637 Clouds 6 1026 42 10000 7.7 350 11:56 28.12.2019
5638 Clouds 6 1026 42 10000 7.7 350 11:37 28.12.2019
5639 Clouds 6 1026 42 10000 7.7 350 11:18 28.12.2019
5640 Clouds 7 1025 39 10000 6.7 350 10:43 28.12.2019
5641 Clouds 7 1025 42 10000 6.7 350 10:21 28.12.2019
5642 Clouds 7 1024 39 10000 7.7 350 09:57 28.12.2019
5643 Clouds 8 1024 39 10000 7.7 350 09:39 28.12.2019
5644 Clouds 8 1024 36 10000 6.7 360 09:19 28.12.2019
5645 Clouds 9 1024 39 10000 7.7 350 08:44 28.12.2019
5646 Clouds 9 1023 31 10000 4.6 320 08:26 28.12.2019
5647 Clouds 10 1023 43 10000 8.2 350 07:49 28.12.2019
5648 Clouds 10 1022 31 10000 4.1 330 07:27 28.12.2019
5649 Clouds 11 1021 29 10000 5.7 320 06:27 28.12.2019
5650 Clouds 10 1021 29 10000 5.1 330 04:36 28.12.2019
5651 Clouds 10 1022 31 10000 11.3 340 03:39 28.12.2019
5652 Clouds 9 1022 34 10000 10.3 340 02:48 28.12.2019
5653 Clouds 8 1022 36 10000 9.8 340 01:59 28.12.2019
5654 Clouds 7 1022 36 10000 5.1 310 01:30 28.12.2019
5655 Clouds 6 1022 33 10000 5.1 300 00:58 28.12.2019
5656 Clouds 6 1022 52 10000 5.7 320 00:38 28.12.2019
5657 Clouds 5 1021 39 10000 10.8 340 00:19 28.12.2019
5658 Clouds 5 1020 41 10000 10.3 330 23:43 27.12.2019
5659 Clouds 4 1020 45 10000 10.8 330 23:20 27.12.2019
5660 Clouds 5 1020 41 10000 10.3 330 22:58 27.12.2019
5661 Clouds 5 1020 41 10000 10.3 330 22:38 27.12.2019
5662 Clouds 5 1019 41 10000 10.3 330 22:20 27.12.2019
5663 Clouds 5 1019 41 10000 10.3 330 22:20 27.12.2019
5664 Clouds 4 1019 45 10000 9.8 330 21:56 27.12.2019
5665 Clouds 5 1018 45 10000 9.3 330 21:37 27.12.2019
5666 Clouds 5 1018 45 10000 9.3 330 21:19 27.12.2019
5667 Clouds 5 1018 45 10000 7.7 330 20:42 27.12.2019
5668 Clouds 4 1018 48 10000 7.7 330 20:23 27.12.2019
5669 Clouds 4 1018 52 10000 8.7 340 19:43 27.12.2019
5670 Clouds 3 1017 52 10000 9.3 340 19:21 27.12.2019
5671 Clear 4 1017 52 10000 8.7 350 18:59 27.12.2019
5672 Clear 4 1017 52 10000 8.7 350 18:40 27.12.2019
5673 Clear 4 1017 56 10000 9.3 10 18:21 27.12.2019
5674 Clear 3 1017 38 10000 7.2 10 17:58 27.12.2019
5675 Clear 4 1017 38 10000 6.7 360 17:40 27.12.2019
5676 Clear 3 1017 37 10000 6.7 360 17:19 27.12.2019
5677 Clear 4 1017 37 10000 6.7 350 16:59 27.12.2019
5678 Clear 4 1016 37 10000 8.2 360 16:39 27.12.2019
5679 Clear 4 1016 37 10000 8.2 360 16:20 27.12.2019
5680 Clear 4 1016 37 10000 6.7 350 15:45 27.12.2019
5681 Clear 4 1016 37 10000 5.1 350 15:23 27.12.2019
5682 Clear 5 1016 56 10000 4.6 320 14:58 27.12.2019
5683 Clear 5 1015 56 10000 7.2 350 14:40 27.12.2019
5684 Clear 5 1015 56 10000 7.2 350 14:21 27.12.2019
5685 Clouds 5 1015 35 10000 7.2 350 13:57 27.12.2019
5686 Clouds 5 1015 35 10000 7.2 350 13:39 27.12.2019
5687 Clouds 5 1014 52 10000 8.2 350 13:39 27.12.2019
5688 Clouds 5 1014 52 10000 8.2 350 13:39 27.12.2019
5689 Clouds 5 1014 52 10000 8.2 350 13:21 27.12.2019
5690 Clouds 6 1014 52 10000 7.2 350 12:44 27.12.2019
5691 Clouds 6 1014 52 10000 7.2 350 12:25 27.12.2019
5692 Clouds 7 1013 34 10000 10.3 350 11:55 27.12.2019
5693 Clouds 7 1012 49 10000 10.3 340 11:37 27.12.2019
5694 Clouds 7 1012 49 10000 10.3 340 11:18 27.12.2019
5695 Clouds 8 1011 49 10000 9.8 330 10:41 27.12.2019
5696 Clouds 8 1011 49 10000 9.8 330 10:23 27.12.2019
5697 Clouds 9 1009 49 10000 10.8 330 09:49 27.12.2019
5698 Rain 9 1008 45 10000 11.8 330 09:22 27.12.2019
5699 Rain 10 1007 46 10000 12.9 340 08:59 27.12.2019
5700 Rain 10 1007 46 10000 12.9 340 08:40 27.12.2019
5701 Rain 11 1006 40 10000 8.7 310 08:22 27.12.2019
5702 Rain 12 1005 43 10000 15.4 340 07:38 27.12.2019
5703 Rain 12 1003 40 10000 17 340 06:59 27.12.2019
5704 Rain 12 1002 40 10000 13.9 310 06:23 27.12.2019
5705 Rain 13 1000 47 10000 13.9 330 04:37 27.12.2019
5706 Rain 13 997 62 10000 4.6 310 02:28 27.12.2019
5707 Rain 11 998 66 10000 4.6 330 01:44 27.12.2019
5708 Clouds 10 996 71 10000 3.1 300 01:21 27.12.2019
5709 Clouds 9 996 76 10000 2.1 290 00:47 27.12.2019
5710 Clouds 8 996 87 10000 3.6 320 00:25 27.12.2019
5711 Clouds 8 996 87 10000 6.2 340 23:56 26.12.2019
5712 Clouds 8 995 87 10000 6.7 350 23:37 26.12.2019
5713 Clouds 8 995 87 10000 6.7 350 23:19 26.12.2019
5714 Clouds 8 996 87 10000 7.7 340 22:40 26.12.2019
5715 Rain 8 996 93 9000 9.3 340 22:18 26.12.2019
5716 Rain 8 996 93 7000 6.7 340 21:40 26.12.2019
5717 Rain 8 996 93 9000 7.2 340 21:21 26.12.2019
5718 Rain 8 997 87 9000 4.6 330 20:58 26.12.2019
5719 Rain 8 997 87 9000 4.6 330 20:39 26.12.2019
5720 Rain 8 997 87 9000 4.6 330 20:39 26.12.2019
5721 Rain 8 998 87 5000 5.1 350 20:21 26.12.2019
5722 Rain 8 999 87 10000 5.1 360 19:56 26.12.2019
5723 Rain 8 999 81 10000 4.6 10 19:38 26.12.2019
5724 Clouds 8 999 81 10000 4.6 10 19:20 26.12.2019
5725 Clouds 9 1000 81 10000 3.6 10 18:57 26.12.2019
5726 Clouds 9 1001 81 10000 3.1 20 18:37 26.12.2019
5727 Clouds 9 1001 81 10000 3.1 20 18:18 26.12.2019
5728 Clouds 9 1002 81 10000 2.1 40 17:42 26.12.2019
5729 Clouds 9 1002 76 10000 1 0 17:22 26.12.2019
5730 Clouds 9 1003 76 10000 2.1 30 16:51 26.12.2019
5731 Clouds 9 1004 71 10000 3.1 10 16:29 26.12.2019
5732 Clouds 9 1005 71 10000 3.1 360 15:59 26.12.2019
5733 Clouds 9 1005 71 10000 3.1 360 15:40 26.12.2019
5734 Clouds 9 1005 76 10000 3.1 350 15:19 26.12.2019
5735 Clouds 9 1007 71 10000 3.6 330 14:43 26.12.2019
5736 Clouds 9 1007 71 10000 3.1 320 14:24 26.12.2019
5737 Clouds 9 1007 71 10000 3.1 320 14:24 26.12.2019
5738 Clouds 9 1007 71 10000 3.1 320 14:24 26.12.2019
5739 Clouds 10 1007 71 10000 2.6 330 13:58 26.12.2019
5740 Clouds 10 1007 71 10000 2.6 330 13:40 26.12.2019
5741 Clouds 10 1008 71 10000 3.1 310 13:19 26.12.2019
5742 Clouds 10 1008 66 10000 1.5 340 12:56 26.12.2019
5743 Clouds 10 1008 71 10000 2.6 340 12:37 26.12.2019
5744 Clouds 10 1008 71 10000 2.6 340 12:18 26.12.2019
5745 Clouds 10 1009 71 10000 3.1 330 11:42 26.12.2019
5746 Clouds 10 1010 71 10000 4.1 330 11:23 26.12.2019
5747 Clouds 10 1011 66 10000 4.1 340 10:57 26.12.2019
5748 Clouds 10 1010 81 10000 4.1 30 10:39 26.12.2019
5749 Clouds 10 1010 71 10000 3.6 340 10:18 26.12.2019
5750 Clouds 10 1011 66 10000 4.1 340 09:42 26.12.2019
5751 Clouds 10 1011 66 10000 4.1 340 09:24 26.12.2019
5752 Clouds 11 1011 66 10000 4.6 350 08:42 26.12.2019
5753 Clouds 11 1011 61 8000 4.6 300 08:23 26.12.2019
5754 Clouds 11 1012 66 10000 4.6 340 07:50 26.12.2019
5755 Clouds 11 1011 62 8000 2.6 350 07:26 26.12.2019
5756 Clouds 11 1011 71 10000 5.1 350 06:48 26.12.2019
5757 Clouds 11 1011 62 10000 2.6 360 06:30 26.12.2019
5758 Clouds 11 1012 66 10000 3.6 10 05:45 26.12.2019
5759 Clouds 11 1012 62 10000 4.1 20 04:48 26.12.2019
5760 Clouds 11 1012 57 10000 3.1 20 04:29 26.12.2019
5761 Clouds 9 1014 70 10000 4.6 20 02:54 26.12.2019
5762 Clouds 8 1014 61 10000 3.6 30 02:32 26.12.2019
5763 Clouds 7 1015 75 10000 5.1 40 01:46 26.12.2019
5764 Clouds 7 1015 70 10000 2.6 30 01:27 26.12.2019
5765 Clouds 7 1014 70 10000 3.1 20 00:48 26.12.2019
5766 Clouds 6 1014 75 10000 2.1 350 00:25 26.12.2019
5767 Clouds 6 1015 70 10000 2.6 350 23:58 25.12.2019
5768 Clouds 5 1015 65 10000 0.5 0 23:38 25.12.2019
5769 Clouds 5 1015 65 10000 0.5 0 23:20 25.12.2019
5770 Clouds 5 1015 65 10000 1 0 22:58 25.12.2019
5771 Clouds 5 1015 65 10000 1.5 270 22:38 25.12.2019
5772 Clouds 5 1015 65 10000 1.5 270 22:20 25.12.2019
5773 Clouds 5 1015 41 10000 2.6 270 21:58 25.12.2019
5774 Clouds 5 1015 70 10000 3.6 270 21:39 25.12.2019
5775 Clouds 4 1015 70 10000 3.6 270 21:20 25.12.2019
5776 Clouds 4 1014 70 10000 1.5 240 20:54 25.12.2019
5777 Clouds 5 1014 70 10000 0.5 0 20:36 25.12.2019
5778 Clouds 5 1014 70 10000 0.5 0 20:36 25.12.2019
5779 Clouds 5 1014 70 10000 0.5 0 20:18 25.12.2019
5780 Clouds 5 1016 70 10000 2.1 290 19:42 25.12.2019
5781 Clouds 5 1016 70 10000 1 0 19:23 25.12.2019
5782 Clouds 5 1016 70 10000 1 0 18:58 25.12.2019
5783 Clouds 5 1017 44 10000 2.1 280 18:36 25.12.2019
5784 Clouds 5 1017 44 10000 2.1 280 18:18 25.12.2019
5785 Clouds 4 1018 44 10000 2.6 310 17:41 25.12.2019
5786 Clouds 5 1017 70 10000 3.1 320 17:19 25.12.2019
5787 Clouds 5 1017 46 10000 3.1 300 16:57 25.12.2019
5788 Clouds 5 1018 46 10000 2.6 280 16:37 25.12.2019
5789 Clouds 5 1018 46 10000 2.6 280 16:18 25.12.2019
5790 Clouds 4 1018 46 10000 3.1 290 15:57 25.12.2019
5791 Clouds 4 1018 46 10000 3.1 290 15:38 25.12.2019
5792 Clouds 4 1018 46 10000 2.6 300 15:20 25.12.2019
5793 Clouds 5 1019 46 10000 3.1 310 14:56 25.12.2019
5794 Clouds 4 1019 46 10000 3.1 310 14:37 25.12.2019
5795 Clouds 4 1019 52 10000 3.1 310 14:19 25.12.2019
5796 Clouds 4 1019 60 10000 2.1 300 13:44 25.12.2019
5797 Clouds 5 1019 56 10000 2.6 290 13:21 25.12.2019
5798 Clouds 5 1020 56 10000 2.6 280 12:56 25.12.2019
5799 Clouds 5 1021 51 10000 3.6 310 12:38 25.12.2019
5800 Clouds 5 1021 51 10000 3.6 310 12:38 25.12.2019
5801 Clouds 5 1021 51 10000 3.6 310 12:19 25.12.2019
5802 Clouds 6 1021 61 10000 3.1 360 11:43 25.12.2019
5803 Clouds 6 1021 61 10000 3.6 10 11:22 25.12.2019
5804 Clouds 6 1022 57 10000 2.6 10 10:59 25.12.2019
5805 Clouds 6 1022 57 10000 2.6 10 10:36 25.12.2019
5806 Clouds 6 1021 61 10000 2.6 350 10:18 25.12.2019
5807 Clouds 7 1022 61 10000 2.6 360 09:44 25.12.2019
5808 Clouds 8 1022 59 10000 3.1 30 09:26 25.12.2019
5809 Clouds 8 1022 61 10000 3.1 40 08:46 25.12.2019
5810 Clouds 9 1022 44 10000 2.1 40 08:26 25.12.2019
5811 Clouds 9 1023 39 10000 3.6 60 07:48 25.12.2019
5812 Clouds 9 1022 49 10000 3.1 60 07:29 25.12.2019
5813 Clouds 9 1023 39 10000 4.1 40 06:49 25.12.2019
5814 Clouds 9 1023 42 10000 3.1 20 06:22 25.12.2019
5815 Clouds 8 1024 32 10000 3.6 10 04:50 25.12.2019
5816 Clouds 8 1025 45 10000 2.6 360 04:26 25.12.2019
5817 Clouds 7 1026 45 10000 2.6 360 03:58 25.12.2019
5818 Clouds 7 1026 45 10000 2.6 360 03:40 25.12.2019
5819 Clouds 7 1027 52 10000 3.1 10 02:39 25.12.2019
5820 Rain 6 1028 45 10000 2.6 10 01:59 25.12.2019
5821 Clouds 6 1028 48 10000 1.5 10 01:25 25.12.2019
5822 Clouds 5 1027 48 10000 2.6 10 00:50 25.12.2019
5823 Clouds 5 1028 42 10000 3.1 20 00:29 25.12.2019
5824 Clouds 4 1028 45 10000 3.6 30 23:56 24.12.2019
5825 Clouds 4 1027 52 10000 3.1 10 23:37 24.12.2019
5826 Clouds 4 1027 52 10000 3.1 10 23:19 24.12.2019
5827 Clouds 4 1027 48 10000 4.1 340 22:40 24.12.2019
5828 Clouds 4 1027 52 10000 6.2 340 22:21 24.12.2019
5829 Clouds 4 1027 48 10000 6.7 350 21:43 24.12.2019
5830 Clouds 4 1027 48 10000 5.7 350 21:22 24.12.2019
5831 Clouds 4 1027 48 10000 6.2 360 20:54 24.12.2019
5832 Clouds 4 1027 48 10000 5.1 360 20:36 24.12.2019
5833 Clouds 4 1027 48 10000 5.1 360 20:18 24.12.2019
5834 Clouds 4 1027 48 10000 5.1 360 20:18 24.12.2019
5835 Clouds 4 1026 48 10000 5.7 20 19:43 24.12.2019
5836 Clouds 4 1026 48 10000 5.7 20 19:19 24.12.2019
5837 Clouds 4 1027 52 10000 5.7 360 18:43 24.12.2019
5838 Clouds 4 1027 48 10000 6.2 10 18:24 24.12.2019
5839 Clouds 4 1026 56 10000 5.1 30 17:58 24.12.2019
5840 Clouds 4 1026 56 10000 5.1 30 17:38 24.12.2019
5841 Clouds 4 1026 52 10000 5.7 30 17:20 24.12.2019
5842 Clouds 4 1026 48 10000 5.7 30 16:55 24.12.2019
5843 Clouds 4 1026 45 10000 5.7 10 16:37 24.12.2019
5844 Clouds 4 1026 45 10000 5.7 10 16:19 24.12.2019
5845 Clouds 5 1026 45 10000 7.2 350 15:54 24.12.2019
5846 Clouds 5 1026 45 10000 9.3 350 15:36 24.12.2019
5847 Clouds 5 1026 45 10000 9.3 350 15:18 24.12.2019
5848 Clouds 5 1026 45 10000 7.7 350 14:55 24.12.2019
5849 Clouds 5 1026 49 10000 7.2 350 14:36 24.12.2019
5850 Clouds 5 1026 49 10000 7.2 350 14:18 24.12.2019
5851 Clouds 5 1026 52 10000 7.7 350 13:55 24.12.2019
5852 Clouds 5 1026 49 10000 8.2 350 13:37 24.12.2019
5853 Clouds 5 1026 49 10000 8.2 350 13:18 24.12.2019
5854 Clouds 6 1026 45 10000 8.7 350 12:55 24.12.2019
5855 Clouds 6 1025 42 10000 6.7 330 12:36 24.12.2019
5856 Clouds 6 1025 42 10000 6.7 330 12:18 24.12.2019
5857 Clouds 7 1025 45 10000 8.7 340 11:54 24.12.2019
5858 Clouds 7 1025 49 10000 7.7 350 11:36 24.12.2019
5859 Clouds 7 1025 45 10000 8.7 340 11:36 24.12.2019
5860 Clouds 7 1025 49 10000 7.7 350 11:18 24.12.2019
5861 Clouds 7 1024 42 10000 8.7 350 10:55 24.12.2019
5862 Clouds 8 1024 49 10000 9.8 350 10:36 24.12.2019
5863 Clouds 8 1024 49 10000 9.8 350 10:18 24.12.2019
5864 Clouds 8 1024 46 10000 8.7 350 09:54 24.12.2019
5865 Clouds 9 1023 39 10000 7.7 350 09:36 24.12.2019
5866 Clouds 9 1023 39 10000 7.7 350 09:18 24.12.2019
5867 Clouds 10 1023 43 10000 7.7 360 08:42 24.12.2019
5868 Clouds 10 1022 37 10000 5.1 330 08:19 24.12.2019
5869 Clouds 11 1022 33 10000 7.2 340 07:45 24.12.2019
5870 Clouds 12 1022 34 10000 5.7 310 07:23 24.12.2019
5871 Clouds 12 1022 40 10000 7.7 350 06:44 24.12.2019
5872 Clouds 12 1021 37 10000 4.6 320 06:22 24.12.2019
5873 Clouds 12 1021 46 10000 6.2 10 05:57 24.12.2019
5874 Clouds 12 1020 37 10000 4.6 330 05:20 24.12.2019
5875 Clouds 12 1020 34 10000 3.6 330 04:36 24.12.2019
5876 Clouds 12 1021 35 10000 6.7 10 03:50 24.12.2019
5877 Clouds 12 1022 35 10000 6.7 350 02:59 24.12.2019
5878 Clouds 10 1021 40 10000 5.7 310 02:21 24.12.2019
5879 Clouds 10 1021 43 10000 7.2 340 01:50 24.12.2019
5880 Clouds 9 1021 40 10000 1 0 01:20 24.12.2019
5881 Clouds 8 1020 40 10000 2.1 30 00:43 24.12.2019
5882 Clouds 7 1020 40 10000 5.7 20 00:23 24.12.2019
5883 Clouds 7 1020 40 10000 5.7 10 23:56 23.12.2019
5884 Clouds 6 1019 57 10000 5.1 10 23:37 23.12.2019
5885 Clouds 5 1019 57 10000 5.1 10 23:19 23.12.2019
5886 Clouds 5 1019 61 10000 5.7 10 22:56 23.12.2019
5887 Clouds 5 1018 61 10000 6.2 10 22:36 23.12.2019
5888 Clouds 5 1018 61 10000 6.2 10 22:18 23.12.2019
5889 Clouds 6 1018 66 10000 7.2 10 21:55 23.12.2019
5890 Clouds 6 1017 70 10000 7.7 350 21:36 23.12.2019
5891 Clouds 6 1017 70 10000 7.7 350 21:18 23.12.2019
5892 Clouds 5 1016 66 10000 11.8 340 20:56 23.12.2019
5893 Clouds 5 1016 66 10000 11.8 340 20:38 23.12.2019
5894 Clouds 5 1016 61 10000 10.3 330 20:18 23.12.2019
5895 Clouds 5 1015 61 10000 9.8 330 19:55 23.12.2019
5896 Clouds 5 1015 61 10000 9.8 330 19:37 23.12.2019
5897 Clouds 5 1015 76 10000 4.1 330 19:19 23.12.2019
5898 Clouds 5 1015 76 10000 6.7 350 18:57 23.12.2019
5899 Clouds 5 1015 81 10000 5.7 330 18:38 23.12.2019
5900 Clouds 5 1015 81 10000 5.7 330 18:20 23.12.2019
5901 Clouds 5 1015 87 10000 4.1 310 17:56 23.12.2019
5902 Clouds 5 1015 87 10000 4.1 310 17:37 23.12.2019
5903 Clouds 5 1015 87 10000 4.1 310 17:19 23.12.2019
5904 Clouds 5 1015 87 10000 4.1 300 16:54 23.12.2019
5905 Clouds 5 1015 87 10000 2.1 290 16:36 23.12.2019
5906 Clouds 5 1015 87 10000 2.1 290 16:18 23.12.2019
5907 Clouds 5 1015 81 10000 1.5 310 15:55 23.12.2019
5908 Clouds 5 1015 81 10000 1.5 230 15:36 23.12.2019
5909 Clouds 5 1015 81 10000 1.5 230 15:18 23.12.2019
5910 Clouds 6 1015 71 10000 3.6 170 14:42 23.12.2019
5911 Clouds 6 1015 81 10000 4.1 160 14:24 23.12.2019
5912 Clouds 6 1015 76 10000 1.5 140 13:59 23.12.2019
5913 Clouds 6 1015 76 10000 1.5 140 13:59 23.12.2019
5914 Clouds 6 1015 76 10000 1.5 140 13:40 23.12.2019
5915 Clouds 6 1015 81 10000 2.6 140 13:22 23.12.2019
5916 Clouds 6 1015 81 10000 2.6 140 13:22 23.12.2019
5917 Clouds 7 1016 76 10000 3.1 140 12:58 23.12.2019
5918 Clouds 7 1016 76 10000 3.1 140 12:58 23.12.2019
5919 Clouds 7 1015 76 10000 3.1 150 12:39 23.12.2019
5920 Clouds 6 1015 76 10000 3.1 150 12:20 23.12.2019
5921 Clouds 7 1016 76 10000 2.6 190 11:55 23.12.2019
5922 Clouds 7 1016 76 10000 2.6 190 11:37 23.12.2019
5923 Clouds 7 1016 76 10000 2.6 190 11:18 23.12.2019
5924 Clouds 7 1016 71 10000 3.1 180 10:54 23.12.2019
5925 Clouds 8 1015 70 10000 2.6 150 10:36 23.12.2019
5926 Clouds 8 1015 70 10000 2.6 150 10:18 23.12.2019
5927 Clouds 8 1016 66 10000 2.6 170 09:40 23.12.2019
5928 Clouds 9 1015 70 10000 3.1 150 09:22 23.12.2019
5929 Clouds 10 1015 70 10000 2.1 170 08:58 23.12.2019
5930 Clouds 10 1015 70 10000 2.1 170 08:40 23.12.2019
5931 Clouds 11 1014 62 10000 1.5 160 08:22 23.12.2019
5932 Clouds 11 1015 71 10000 1.5 110 07:48 23.12.2019
5933 Clouds 11 1014 57 10000 2.1 150 07:21 23.12.2019
5934 Clouds 12 1014 71 10000 1.5 100 06:57 23.12.2019
5935 Clouds 11 1014 66 10000 2.1 140 06:27 23.12.2019
5936 Clouds 11 1014 71 10000 2.6 150 05:56 23.12.2019
5937 Clouds 11 1014 71 10000 2.6 140 05:30 23.12.2019
5938 Clouds 10 1014 62 10000 1.5 20 04:39 23.12.2019
5939 Clouds 9 1015 70 10000 2.1 320 03:36 23.12.2019
5940 Clouds 8 1015 81 10000 3.1 300 02:43 23.12.2019
5941 Clouds 7 1015 75 10000 4.1 310 02:19 23.12.2019
5942 Clouds 7 1016 81 10000 3.6 320 01:45 23.12.2019
5943 Clouds 6 1015 81 10000 3.1 330 01:27 23.12.2019
5944 Clouds 5 1015 81 10000 2.6 340 00:45 23.12.2019
5945 Clouds 5 1014 93 10000 5.7 330 00:24 23.12.2019
5946 Clouds 5 1014 93 10000 5.7 330 00:24 23.12.2019
5947 Clouds 5 1015 93 10000 6.2 330 23:56 22.12.2019
5948 Clouds 4 1014 93 10000 6.2 320 23:37 22.12.2019
5949 Clouds 4 1014 93 10000 6.2 320 23:18 22.12.2019
5950 Rain 4 1014 93 10000 5.7 320 22:41 22.12.2019
5951 Rain 4 1013 93 10000 5.1 320 22:22 22.12.2019
5952 Rain 4 1013 93 10000 6.2 320 21:59 22.12.2019
5953 Rain 4 1013 93 10000 6.2 320 21:40 22.12.2019
5954 Rain 4 1013 93 10000 7.7 330 21:21 22.12.2019
5955 Rain 4 1013 93 10000 7.7 330 21:21 22.12.2019
5956 Rain 4 1013 93 10000 7.2 340 20:59 22.12.2019
5957 Rain 4 1013 93 10000 7.2 340 20:39 22.12.2019
5958 Rain 4 1012 93 10000 8.7 340 20:19 22.12.2019
5959 Rain 4 1013 93 10000 9.3 350 19:57 22.12.2019
5960 Rain 4 1013 93 10000 9.3 350 19:39 22.12.2019
5961 Rain 4 1012 93 10000 9.3 360 19:20 22.12.2019
5962 Rain 4 1012 93 8000 8.2 360 18:43 22.12.2019
5963 Rain 4 1013 93 10000 8.2 360 18:25 22.12.2019
5964 Rain 4 1012 87 8000 10.8 360 17:57 22.12.2019
5965 Rain 5 1011 87 6000 10.8 350 17:39 22.12.2019
5966 Rain 5 1011 87 6000 10.8 350 17:19 22.12.2019
5967 Rain 5 1011 87 6000 10.8 350 17:19 22.12.2019
5968 Rain 5 1011 93 6000 10.3 360 16:59 22.12.2019
5969 Rain 5 1011 93 6000 10.3 360 16:41 22.12.2019
5970 Rain 5 1011 93 7000 9.3 10 16:22 22.12.2019
5971 Rain 5 1012 93 6000 9.8 10 15:57 22.12.2019
5972 Rain 6 1013 93 7000 9.3 10 15:39 22.12.2019
5973 Rain 6 1013 93 7000 9.3 10 15:20 22.12.2019
5974 Rain 6 1014 93 7000 8.2 10 14:56 22.12.2019
5975 Rain 6 1014 93 7000 8.2 10 14:38 22.12.2019
5976 Rain 6 1014 87 8000 9.3 10 14:19 22.12.2019
5977 Rain 6 1014 87 8000 9.3 10 14:19 22.12.2019
5978 Rain 6 1014 87 10000 8.7 20 13:55 22.12.2019
5979 Rain 6 1015 87 10000 9.3 10 13:37 22.12.2019
5980 Rain 6 1015 87 10000 9.3 10 13:19 22.12.2019
5981 Rain 6 1015 87 10000 9.3 10 13:19 22.12.2019
5982 Rain 6 1015 87 10000 9.3 10 13:19 22.12.2019
5983 Rain 7 1015 87 8000 8.2 10 12:56 22.12.2019
5984 Rain 7 1016 93 8000 8.7 10 12:38 22.12.2019
5985 Rain 7 1016 93 8000 8.7 10 12:19 22.12.2019
5986 Rain 7 1016 93 8000 8.2 360 11:56 22.12.2019
5987 Rain 7 1016 93 8000 8.2 360 11:38 22.12.2019
5988 Rain 7 1015 93 7000 7.7 10 11:19 22.12.2019
5989 Rain 7 1016 93 5000 7.7 360 10:56 22.12.2019
5990 Rain 7 1017 93 6000 6.7 360 10:38 22.12.2019
5991 Rain 7 1017 93 6000 6.7 360 10:19 22.12.2019
5992 Rain 8 1016 87 6000 8.2 10 09:57 22.12.2019
5993 Rain 8 1016 87 6000 8.2 10 09:39 22.12.2019
5994 Rain 8 1016 87 7000 7.2 10 09:20 22.12.2019
5995 Rain 8 1017 81 7000 7.7 360 08:42 22.12.2019
5996 Rain 8 1017 76 8000 4.1 350 08:22 22.12.2019
5997 Rain 9 1017 81 10000 6.7 360 07:44 22.12.2019
5998 Rain 9 1017 70 10000 3.1 350 07:21 22.12.2019
5999 Rain 9 1018 76 10000 7.2 360 06:53 22.12.2019
6000 Rain 9 1018 70 10000 3.6 360 06:26 22.12.2019
6001 Rain 9 1018 70 10000 3.1 350 05:33 22.12.2019
6002 Clouds 9 1019 76 10000 6.2 360 04:46 22.12.2019
6003 Clouds 9 1019 70 10000 3.1 350 04:25 22.12.2019
6004 Clouds 8 1021 76 10000 5.1 10 02:46 22.12.2019
6005 Clouds 7 1022 75 7000 2.6 20 02:21 22.12.2019
6006 Clouds 6 1021 81 7000 1.5 0 01:31 22.12.2019
6007 Clouds 6 1021 87 8000 2.6 10 00:56 22.12.2019
6008 Clouds 6 1021 87 10000 5.7 30 00:36 22.12.2019
6009 Clouds 6 1021 87 10000 5.7 30 00:18 22.12.2019
6010 Clouds 6 1022 81 10000 5.7 30 23:41 21.12.2019
6011 Clouds 6 1021 81 10000 5.1 30 23:21 21.12.2019
6012 Clouds 5 1021 87 10000 1.5 320 22:57 21.12.2019
6013 Clouds 5 1021 87 10000 1.5 320 22:37 21.12.2019
6014 Clouds 6 1021 87 10000 3.1 280 22:18 21.12.2019
6015 Clouds 6 1020 81 10000 3.1 350 21:55 21.12.2019
6016 Clouds 6 1020 81 10000 3.1 350 21:36 21.12.2019
6017 Clouds 6 1020 81 10000 2.1 20 21:18 21.12.2019
6018 Clouds 6 1020 81 10000 1.5 360 20:57 21.12.2019
6019 Clouds 6 1020 100 10000 2.6 330 20:37 21.12.2019
6020 Clouds 6 1020 81 10000 1.5 360 20:19 21.12.2019
6021 Clouds 6 1021 81 10000 2.1 320 19:55 21.12.2019
6022 Clouds 6 1021 81 10000 1 0 19:36 21.12.2019
6023 Clouds 6 1021 81 10000 1 0 19:18 21.12.2019
6024 Clouds 6 1021 81 10000 2.6 310 18:41 21.12.2019
6025 Clouds 6 1021 87 10000 2.6 310 18:23 21.12.2019
6026 Clouds 6 1022 81 10000 2.6 340 17:56 21.12.2019
6027 Clouds 6 1021 81 10000 2.1 340 17:38 21.12.2019
6028 Clouds 6 1021 81 10000 2.1 340 17:20 21.12.2019
6029 Clouds 7 1022 81 10000 3.6 10 16:57 21.12.2019
6030 Clouds 6 1022 81 10000 3.6 10 16:39 21.12.2019
6031 Clouds 7 1021 76 10000 3.6 10 16:18 21.12.2019
6032 Clouds 7 1021 81 10000 3.1 10 15:56 21.12.2019
6033 Clouds 7 1021 81 10000 3.1 10 15:37 21.12.2019
6034 Clouds 7 1022 81 10000 3.1 330 15:18 21.12.2019
6035 Clouds 8 1022 76 10000 3.6 350 14:43 21.12.2019
6036 Clouds 8 1022 81 10000 4.6 350 14:24 21.12.2019
6037 Clouds 8 1023 76 10000 4.1 360 13:59 21.12.2019
6038 Clouds 8 1023 76 10000 4.1 360 13:40 21.12.2019
6039 Clouds 8 1023 76 10000 3.1 340 13:20 21.12.2019
6040 Clouds 8 1023 76 10000 3.1 340 13:20 21.12.2019
6041 Clouds 8 1023 81 10000 3.1 360 12:57 21.12.2019
6042 Clouds 8 1023 81 10000 3.6 360 12:39 21.12.2019
6043 Clouds 8 1023 81 10000 3.6 360 12:21 21.12.2019
6044 Clouds 8 1023 81 10000 4.1 10 11:57 21.12.2019
6045 Clouds 8 1023 81 10000 4.1 10 11:39 21.12.2019
6046 Clouds 8 1022 81 10000 4.1 10 11:21 21.12.2019
6047 Clouds 8 1023 81 10000 3.1 30 10:41 21.12.2019
6048 Clouds 8 1023 81 10000 3.6 10 10:23 21.12.2019
6049 Clouds 8 1023 81 10000 3.1 20 09:59 21.12.2019
6050 Clouds 9 1023 81 10000 3.1 20 09:41 21.12.2019
6051 Clouds 8 1022 81 10000 3.6 30 09:20 21.12.2019
6052 Clouds 8 1022 81 10000 3.6 40 08:55 21.12.2019
6053 Clouds 9 1022 76 10000 2.1 10 08:36 21.12.2019
6054 Clouds 9 1022 76 10000 2.1 10 08:18 21.12.2019
6055 Clouds 9 1022 81 10000 4.1 30 07:41 21.12.2019
6056 Clouds 9 1022 76 10000 3.1 30 07:21 21.12.2019
6057 Clouds 9 1021 76 10000 4.1 40 06:42 21.12.2019
6058 Clouds 9 1022 76 10000 2.6 20 06:24 21.12.2019
6059 Clouds 9 1022 76 10000 4.6 20 05:45 21.12.2019
6060 Clouds 9 1023 76 10000 5.7 20 04:57 21.12.2019
6061 Clouds 9 1024 70 10000 5.7 10 03:56 21.12.2019
6062 Clouds 8 1025 70 10000 6.2 360 02:40 21.12.2019
6063 Clouds 8 1025 76 10000 6.7 360 01:55 21.12.2019
6064 Clouds 8 1025 65 10000 2.6 360 01:27 21.12.2019
6065 Clouds 8 1025 65 10000 2.1 350 00:51 21.12.2019
6066 Rain 8 1025 76 10000 4.6 360 00:31 21.12.2019
6067 Rain 8 1025 76 10000 5.7 360 23:57 20.12.2019
6068 Rain 8 1025 76 10000 5.7 360 23:37 20.12.2019
6069 Rain 8 1024 75 10000 3.6 40 23:18 20.12.2019
6070 Clouds 8 1025 70 10000 6.2 360 22:40 20.12.2019
6071 Clouds 8 1025 70 10000 6.2 360 22:21 20.12.2019
6072 Clouds 8 1024 70 10000 6.7 10 21:58 20.12.2019
6073 Clouds 8 1023 76 10000 6.7 10 21:39 20.12.2019
6074 Clouds 8 1023 76 10000 6.7 10 21:20 20.12.2019
6075 Clouds 8 1023 66 10000 5.7 10 20:41 20.12.2019
6076 Clouds 9 1023 66 10000 5.7 10 20:20 20.12.2019
6077 Clouds 9 1024 66 10000 6.2 20 19:59 20.12.2019
6078 Clouds 9 1024 66 10000 5.1 10 19:40 20.12.2019
6079 Clouds 9 1024 66 10000 5.1 10 19:19 20.12.2019
6080 Clouds 9 1025 66 10000 5.7 10 18:54 20.12.2019
6081 Clouds 9 1024 66 10000 5.1 10 18:36 20.12.2019
6082 Clouds 9 1024 66 10000 5.1 10 18:18 20.12.2019
6083 Clouds 9 1023 66 10000 5.1 20 17:42 20.12.2019
6084 Clouds 9 1023 66 10000 5.1 20 17:42 20.12.2019
6085 Clouds 9 1023 66 10000 5.1 20 17:21 20.12.2019
6086 Clouds 9 1023 66 10000 5.7 10 16:59 20.12.2019
6087 Clouds 10 1023 66 10000 5.7 10 16:40 20.12.2019
6088 Clouds 9 1023 66 10000 5.1 30 16:20 20.12.2019
6089 Clouds 10 1023 66 10000 5.7 10 16:20 20.12.2019
6090 Clouds 9 1023 66 10000 5.1 30 15:57 20.12.2019
6091 Clouds 9 1023 62 10000 5.1 30 15:39 20.12.2019
6092 Clouds 9 1023 62 10000 5.1 30 15:19 20.12.2019
6093 Clouds 10 1024 66 10000 6.7 40 14:58 20.12.2019
6094 Clouds 10 1023 71 10000 8.7 70 14:39 20.12.2019
6095 Clouds 10 1023 71 10000 8.7 70 14:21 20.12.2019
6096 Clouds 10 1022 71 10000 9.3 70 13:42 20.12.2019
6097 Clouds 11 1022 71 10000 9.3 70 13:21 20.12.2019
6098 Clouds 11 1023 71 10000 8.2 70 12:59 20.12.2019
6099 Clouds 11 1022 71 10000 8.2 70 12:41 20.12.2019
6100 Clouds 11 1022 71 10000 8.2 70 12:19 20.12.2019
6101 Clouds 11 1022 76 10000 8.2 60 11:59 20.12.2019
6102 Clouds 11 1021 66 10000 7.7 80 11:40 20.12.2019
6103 Clouds 11 1021 66 10000 7.2 70 11:21 20.12.2019
6104 Clouds 11 1021 66 10000 7.2 70 10:59 20.12.2019
6105 Clouds 12 1020 50 10000 3.1 30 10:41 20.12.2019
6106 Clouds 12 1020 50 10000 3.1 30 10:20 20.12.2019
6107 Clouds 12 1019 66 10000 1 40 09:56 20.12.2019
6108 Clouds 12 1018 62 10000 0.5 70 09:38 20.12.2019
6109 Clouds 13 1018 54 10000 1 120 09:19 20.12.2019
6110 Clouds 13 1017 58 10000 2.1 140 08:43 20.12.2019
6111 Clouds 14 1017 58 10000 2.1 140 08:25 20.12.2019
6112 Clouds 14 1017 58 10000 3.1 140 07:59 20.12.2019
6113 Clouds 15 1017 58 10000 2.6 160 07:41 20.12.2019
6114 Clouds 15 1017 58 10000 2.6 160 07:20 20.12.2019
6115 Clouds 15 1017 54 10000 3.1 170 06:52 20.12.2019
6116 Clouds 15 1016 54 10000 2.6 170 06:33 20.12.2019
6117 Clouds 15 1016 58 10000 2.1 130 05:56 20.12.2019
6118 Clouds 15 1015 41 10000 3.1 50 05:37 20.12.2019
6119 Clear 15 1015 41 10000 2.6 10 04:33 20.12.2019
6120 Clear 14 1016 50 10000 1 0 03:30 20.12.2019
6121 Clouds 13 1017 58 10000 2.1 30 02:44 20.12.2019
6122 Clouds 11 1017 66 10000 2.1 10 01:54 20.12.2019
6123 Clouds 10 1016 66 10000 0.5 0 01:33 20.12.2019
6124 Clouds 9 1016 71 10000 1.5 300 00:49 20.12.2019
6125 Clouds 8 1016 76 10000 3.6 320 00:30 20.12.2019
6126 Clouds 7 1015 81 10000 2.6 310 23:56 19.12.2019
6127 Clouds 7 1015 76 10000 2.1 320 23:38 19.12.2019
6128 Clouds 7 1015 76 10000 2.1 320 23:18 19.12.2019
6129 Mist 7 1016 100 3219 1.5 200 22:38 19.12.2019
6130 Mist 7 1016 100 3219 1.5 200 22:20 19.12.2019
6131 Clouds 7 1015 87 8000 3.6 350 21:56 19.12.2019
6132 Clouds 7 1014 93 7000 3.6 350 21:37 19.12.2019
6133 Clouds 7 1014 93 7000 3.6 350 21:19 19.12.2019
6134 Clouds 7 1014 87 6000 4.1 330 20:56 19.12.2019
6135 Mist 8 1016 100 6437 3.86 0 20:37 19.12.2019
6136 Mist 8 1016 100 6437 3.66 352 20:18 19.12.2019
6137 Mist 7 1017 100 6437 1.5 340 19:57 19.12.2019
6138 Mist 7 1015 100 4023 3.66 352 19:39 19.12.2019
6139 Mist 7 1015 100 4023 3.66 352 19:19 19.12.2019
6140 Mist 8 1016 100 2816 2.1 50 18:55 19.12.2019
6141 Mist 8 1017 100 4023 2.6 30 18:37 19.12.2019
6142 Mist 8 1017 100 4023 2.6 30 18:18 19.12.2019
6143 Mist 8 1017 100 1810 2.6 50 17:54 19.12.2019
6144 Mist 8 1017 100 3219 2.1 40 17:36 19.12.2019
6145 Clouds 8 1017 87 10000 2.6 330 17:18 19.12.2019
6146 Mist 8 1018 100 3621 1.08 348 16:54 19.12.2019
6147 Mist 8 1018 100 3621 1.08 348 16:36 19.12.2019
6148 Clouds 8 1016 81 10000 3.6 360 16:18 19.12.2019
6149 Clouds 8 1016 81 10000 3.6 360 15:54 19.12.2019
6150 Rain 8 1019 93 4426 2.1 30 15:36 19.12.2019
6151 Rain 8 1019 93 4426 2.1 30 15:18 19.12.2019
6152 Mist 8 1019 100 8047 2.1 20 14:42 19.12.2019
6153 Mist 8 1019 100 8047 2.1 20 14:20 19.12.2019
6154 Clouds 8 1017 87 10000 3.6 360 13:58 19.12.2019
6155 Mist 8 1019 93 9656 2.1 20 13:38 19.12.2019
6156 Mist 8 1019 93 9656 2.1 20 13:19 19.12.2019
6157 Mist 8 1019 93 9656 2.1 20 13:19 19.12.2019
6158 Clouds 8 1018 87 10000 4.1 30 12:57 19.12.2019
6159 Mist 8 1020 100 6437 2.1 10 12:38 19.12.2019
6160 Mist 9 1020 100 6437 2.1 10 12:19 19.12.2019
6161 Mist 9 1020 100 6437 2.1 10 12:19 19.12.2019
6162 Rain 9 1019 93 10000 4.1 10 12:19 19.12.2019
6163 Rain 9 1019 93 10000 4.1 10 11:58 19.12.2019
6164 Rain 9 1020 100 4828 2.6 20 11:40 19.12.2019
6165 Rain 9 1021 100 6437 1.5 20 11:18 19.12.2019
6166 Rain 9 1021 100 6437 1.5 20 10:56 19.12.2019
6167 Rain 9 1021 100 8047 2.6 10 10:38 19.12.2019
6168 Rain 9 1021 87 9656 2.1 10 10:19 19.12.2019
6169 Rain 9 1018 87 8000 5.7 50 09:54 19.12.2019
6170 Rain 9 1018 87 8000 5.7 50 09:36 19.12.2019
6171 Rain 9 1018 87 7000 5.1 50 09:18 19.12.2019
6172 Rain 9 1018 87 7000 2.1 40 08:41 19.12.2019
6173 Rain 9 1018 87 7000 2.1 40 08:19 19.12.2019
6174 Clouds 9 1020 70 16093 2.1 30 07:59 19.12.2019
6175 Rain 9 1018 87 7000 2.6 20 07:38 19.12.2019
6176 Rain 9 1018 93 10000 4.6 20 07:20 19.12.2019
6177 Rain 9 1018 93 10000 4.6 20 06:50 19.12.2019
6178 Rain 9 1018 81 8000 2.6 20 06:32 19.12.2019
6179 Rain 9 1019 87 10000 5.1 30 05:57 19.12.2019
6180 Rain 9 1018 81 10000 3.6 30 05:39 19.12.2019
6181 Rain 9 1019 81 10000 6.2 40 04:56 19.12.2019
6182 Rain 10 1020 66 10000 2.6 10 03:46 19.12.2019
6183 Rain 10 1020 66 10000 4.1 20 02:25 19.12.2019
6184 Clouds 10 1020 61 10000 2.1 10 01:24 19.12.2019
6185 Clouds 10 1019 57 10000 5.1 10 00:44 19.12.2019
6186 Clouds 9 1019 57 10000 5.1 10 00:25 19.12.2019
6187 Clouds 9 1019 57 10000 5.1 360 23:59 18.12.2019
6188 Clouds 9 1019 53 10000 4.6 350 23:41 18.12.2019
6189 Clouds 9 1019 53 10000 5.7 350 23:19 18.12.2019
6190 Clouds 9 1019 53 10000 5.7 350 22:56 18.12.2019
6191 Clouds 9 1019 53 10000 6.2 360 22:38 18.12.2019
6192 Clouds 9 1019 53 10000 6.2 360 22:20 18.12.2019
6193 Clouds 10 1018 53 10000 5.1 360 21:58 18.12.2019
6194 Clouds 10 1018 53 10000 6.2 350 21:39 18.12.2019
6195 Clouds 10 1018 53 10000 6.2 360 21:20 18.12.2019
6196 Clouds 10 1018 53 10000 6.2 360 20:56 18.12.2019
6197 Clouds 10 1018 57 10000 5.7 20 20:38 18.12.2019
6198 Clouds 10 1018 57 10000 5.7 20 20:19 18.12.2019
6199 Clouds 10 1018 57 10000 4.6 10 19:56 18.12.2019
6200 Clouds 10 1018 57 10000 4.6 20 19:37 18.12.2019
6201 Clouds 10 1018 57 10000 4.6 20 19:18 18.12.2019
6202 Clouds 10 1017 57 10000 4.6 20 18:45 18.12.2019
6203 Clouds 10 1017 57 10000 4.6 20 18:25 18.12.2019
6204 Clouds 10 1017 54 10000 5.1 30 17:58 18.12.2019
6205 Clouds 10 1017 54 10000 5.1 30 17:40 18.12.2019
6206 Clouds 10 1017 54 10000 5.1 30 17:20 18.12.2019
6207 Clouds 10 1017 66 10000 5.1 40 16:58 18.12.2019
6208 Clouds 10 1017 66 10000 5.1 40 16:40 18.12.2019
6209 Clouds 10 1016 66 10000 4.6 40 16:22 18.12.2019
6210 Clouds 11 1017 62 10000 4.6 40 15:57 18.12.2019
6211 Clouds 10 1017 62 10000 4.6 40 15:38 18.12.2019
6212 Clouds 11 1016 62 10000 4.1 40 15:20 18.12.2019
6213 Rain 11 1017 66 10000 3.1 60 14:43 18.12.2019
6214 Rain 11 1016 66 10000 4.1 50 14:22 18.12.2019
6215 Rain 11 1016 66 10000 3.6 50 13:58 18.12.2019
6216 Rain 11 1016 66 10000 3.6 50 13:39 18.12.2019
6217 Rain 11 1017 66 10000 4.6 30 13:21 18.12.2019
6218 Rain 12 1016 66 10000 4.6 20 12:59 18.12.2019
6219 Rain 12 1016 66 10000 4.6 20 12:40 18.12.2019
6220 Rain 12 1016 66 10000 4.6 20 12:40 18.12.2019
6221 Rain 12 1015 66 10000 6.2 30 12:21 18.12.2019
6222 Rain 12 1015 62 10000 4.6 10 11:57 18.12.2019
6223 Rain 13 1014 67 10000 3.1 30 11:39 18.12.2019
6224 Rain 13 1014 67 10000 3.1 30 11:20 18.12.2019
6225 Clouds 13 1014 77 10000 4.6 50 10:58 18.12.2019
6226 Clouds 13 1014 77 10000 4.6 50 10:39 18.12.2019
6227 Clouds 14 1013 58 10000 3.6 30 10:20 18.12.2019
6228 Clouds 14 1012 63 10000 4.1 360 09:57 18.12.2019
6229 Clouds 15 1012 72 10000 3.6 30 09:20 18.12.2019
6230 Clouds 15 1011 67 10000 4.1 50 08:43 18.12.2019
6231 Clouds 16 1011 67 10000 2.1 10 08:25 18.12.2019
6232 Clouds 16 1011 67 10000 6.2 360 07:57 18.12.2019
6233 Clouds 17 1009 63 10000 3.1 360 07:39 18.12.2019
6234 Clouds 17 1009 63 10000 3.1 360 07:20 18.12.2019
6235 Clouds 17 1009 63 10000 6.7 360 06:52 18.12.2019
6236 Clouds 16 1008 59 10000 3.1 340 06:25 18.12.2019
6237 Clouds 16 1008 62 10000 3.6 310 05:36 18.12.2019
6238 Clouds 15 1008 62 8000 2.1 310 04:33 18.12.2019
6239 Clouds 13 1010 76 9000 3.1 10 02:48 18.12.2019
6240 Clouds 12 1009 76 8000 3.6 330 02:29 18.12.2019
6241 Clouds 10 1009 81 8000 3.6 10 01:46 18.12.2019
6242 Mist 10 1009 87 7000 1 0 01:27 18.12.2019
6243 Mist 9 1009 93 7000 2.6 40 00:55 18.12.2019
6244 Clouds 8 1009 93 9000 1 0 00:37 18.12.2019
6245 Clouds 8 1009 93 9000 1 0 00:19 18.12.2019
6246 Clouds 7 1009 93 9000 0.5 0 23:43 17.12.2019
6247 Clouds 7 1009 93 9000 0.5 0 23:43 17.12.2019
6248 Clouds 7 1008 100 9000 0.5 0 23:24 17.12.2019
6249 Clouds 7 1008 100 9000 0.5 0 23:24 17.12.2019
6250 Clouds 6 1009 93 7000 1.5 270 22:57 17.12.2019
6251 Clouds 6 1009 93 7000 1.5 270 22:39 17.12.2019
6252 Clouds 7 1009 93 8000 1.5 280 22:20 17.12.2019
6253 Clouds 7 1009 93 8000 2.1 300 21:57 17.12.2019
6254 Fog 7 1008 100 200 1.5 330 21:39 17.12.2019
6255 Clouds 7 1009 93 7000 1.5 340 21:20 17.12.2019
6256 Clouds 7 1009 93 7000 2.1 30 20:59 17.12.2019
6257 Fog 7 1008 100 200 0.5 0 20:40 17.12.2019
6258 Clouds 8 1008 93 7000 2.1 20 20:19 17.12.2019
6259 Clouds 8 1008 87 6000 3.6 30 19:59 17.12.2019
6260 Clouds 8 1008 87 6000 3.6 30 19:41 17.12.2019
6261 Clouds 8 1009 93 6000 2.1 60 19:20 17.12.2019
6262 Clouds 8 1009 93 6000 3.1 20 18:58 17.12.2019
6263 Fog 8 1010 100 300 0.5 0 18:39 17.12.2019
6264 Fog 8 1010 100 300 0.5 0 18:21 17.12.2019
6265 Clouds 8 1010 93 6000 3.1 10 17:55 17.12.2019
6266 Clouds 8 1010 93 6000 2.6 340 17:37 17.12.2019
6267 Clouds 8 1010 93 6000 2.6 340 17:18 17.12.2019
6268 Clouds 8 1010 93 6000 0.5 0 16:55 17.12.2019
6269 Fog 8 1010 100 200 0.5 0 16:37 17.12.2019
6270 Clouds 8 1010 93 7000 1 10 16:18 17.12.2019
6271 Clouds 9 1011 93 7000 0.5 0 15:54 17.12.2019
6272 Rain 9 1011 93 7000 0.5 110 15:36 17.12.2019
6273 Rain 9 1011 93 7000 0.5 110 15:18 17.12.2019
6274 Clouds 9 1012 93 7000 0.5 40 14:54 17.12.2019
6275 Clouds 9 1012 87 8000 1.39 354 14:36 17.12.2019
6276 Clouds 9 1012 87 8000 1.12 348 14:18 17.12.2019
6277 Clouds 9 1012 87 8000 0.5 0 13:41 17.12.2019
6278 Clouds 9 1012 87 9000 1 0 13:20 17.12.2019
6279 Mist 9 1014 100 2012 1.97 341 12:59 17.12.2019
6280 Mist 9 1014 100 2012 1.97 341 12:59 17.12.2019
6281 Clouds 9 1013 87 9000 1.5 130 12:39 17.12.2019
6282 Clouds 9 1013 87 9000 1.5 130 12:18 17.12.2019
6283 Clouds 9 1013 100 11265 1.97 341 12:18 17.12.2019
6284 Clouds 9 1013 100 11265 1.97 341 11:58 17.12.2019
6285 Mist 9 1013 93 9656 1.97 341 11:37 17.12.2019
6286 Mist 9 1013 93 9656 0.52 68 11:19 17.12.2019
6287 Clouds 9 1014 87 9000 0.5 0 10:58 17.12.2019
6288 Clouds 9 1014 81 9000 1.5 310 10:40 17.12.2019
6289 Clouds 9 1014 81 9000 1.5 310 10:21 17.12.2019
6290 Clouds 9 1014 87 9000 2.6 320 09:59 17.12.2019
6291 Clouds 9 1014 87 9000 2.6 320 09:40 17.12.2019
6292 Clouds 10 1014 87 9000 2.1 300 09:19 17.12.2019
6293 Clouds 10 1014 81 8000 1.5 340 08:56 17.12.2019
6294 Mist 10 1014 87 5000 0.5 0 08:38 17.12.2019
6295 Mist 10 1014 87 5000 0.5 0 08:19 17.12.2019
6296 Rain 10 1014 81 7000 2.6 330 07:45 17.12.2019
6297 Rain 10 1014 87 5000 2.1 320 07:26 17.12.2019
6298 Clouds 10 1015 87 7000 3.1 340 06:56 17.12.2019
6299 Mist 10 1015 87 5000 1.5 320 06:34 17.12.2019
6300 Mist 10 1016 87 4500 4.1 300 05:52 17.12.2019
6301 Mist 9 1016 81 5000 3.6 300 05:34 17.12.2019
6302 Clouds 9 1017 87 6000 2.6 320 04:30 17.12.2019
6303 Rain 8 1021 70 6000 5.1 300 02:34 17.12.2019
6304 Rain 8 1021 70 6000 5.1 300 02:34 17.12.2019
6305 Rain 8 1022 93 4000 1.5 310 01:55 17.12.2019
6306 Rain 8 1022 70 10000 1.5 360 00:58 17.12.2019
6307 Rain 7 1024 93 4426 1.5 20 00:37 17.12.2019
6308 Rain 7 1024 93 4426 1.5 20 00:19 17.12.2019
6309 Rain 7 1022 93 4426 2.6 320 23:41 16.12.2019
6310 Rain 7 1023 81 10000 1.5 330 23:19 16.12.2019
6311 Rain 7 1023 81 10000 1.5 330 23:19 16.12.2019
6312 Rain 7 1023 81 10000 2.6 320 22:56 16.12.2019
6313 Rain 7 1023 75 10000 1.5 340 22:37 16.12.2019
6314 Rain 7 1023 75 10000 1.5 340 22:19 16.12.2019
6315 Rain 7 1023 75 10000 2.1 10 21:55 16.12.2019
6316 Rain 7 1023 75 10000 2.1 10 21:37 16.12.2019
6317 Rain 7 1023 70 10000 3.1 20 21:19 16.12.2019
6318 Rain 7 1024 66 10000 2.1 320 20:57 16.12.2019
6319 Rain 8 1024 66 10000 3.1 360 20:37 16.12.2019
6320 Rain 8 1024 66 10000 3.1 360 20:19 16.12.2019
6321 Rain 8 1023 61 10000 2.6 10 19:55 16.12.2019
6322 Rain 8 1024 61 10000 3.6 360 19:37 16.12.2019
6323 Rain 8 1024 61 10000 3.6 360 19:18 16.12.2019
6324 Rain 8 1025 61 10000 4.6 350 18:56 16.12.2019
6325 Rain 8 1025 66 10000 4.1 320 18:37 16.12.2019
6326 Rain 8 1025 66 10000 4.1 320 18:19 16.12.2019
6327 Rain 8 1025 66 10000 4.1 320 18:19 16.12.2019
6328 Clouds 9 1025 61 10000 4.1 340 17:57 16.12.2019
6329 Clouds 9 1025 66 10000 4.1 340 17:37 16.12.2019
6330 Clouds 9 1025 66 10000 4.1 340 17:37 16.12.2019
6331 Clouds 9 1025 66 10000 4.1 340 17:19 16.12.2019
6332 Clouds 9 1025 62 10000 4.1 360 16:55 16.12.2019
6333 Clouds 9 1025 66 10000 3.6 360 16:37 16.12.2019
6334 Clouds 9 1025 66 10000 3.6 360 16:18 16.12.2019
6335 Clouds 9 1025 71 10000 5.1 360 15:57 16.12.2019
6336 Clouds 9 1025 66 10000 4.1 10 15:38 16.12.2019
6337 Clouds 9 1025 66 10000 4.1 10 15:38 16.12.2019
6338 Clouds 9 1025 66 10000 4.1 10 15:19 16.12.2019
6339 Clouds 10 1026 71 10000 4.1 10 14:55 16.12.2019
6340 Clouds 9 1026 71 10000 4.1 360 14:36 16.12.2019
6341 Clouds 9 1026 71 10000 4.1 360 14:18 16.12.2019
6342 Clouds 10 1027 71 10000 3.6 10 13:55 16.12.2019
6343 Clouds 10 1026 71 10000 4.6 10 13:37 16.12.2019
6344 Clouds 9 1026 71 10000 4.6 10 13:19 16.12.2019
6345 Clouds 9 1027 66 10000 4.6 10 12:56 16.12.2019
6346 Clouds 10 1027 66 10000 4.6 20 12:38 16.12.2019
6347 Clouds 10 1027 66 10000 4.6 20 12:18 16.12.2019
6348 Clouds 10 1027 71 10000 4.6 10 11:57 16.12.2019
6349 Clouds 9 1027 71 10000 4.6 20 11:38 16.12.2019
6350 Clouds 9 1027 71 10000 4.6 20 11:19 16.12.2019
6351 Clouds 10 1027 62 10000 3.1 30 10:54 16.12.2019
6352 Clouds 9 1026 62 10000 2.6 20 10:36 16.12.2019
6353 Clouds 9 1026 62 10000 2.6 20 10:18 16.12.2019
6354 Clouds 10 1026 58 10000 3.1 10 09:43 16.12.2019
6355 Clouds 10 1026 62 10000 3.1 20 09:24 16.12.2019
6356 Clouds 11 1026 54 10000 1.5 20 08:40 16.12.2019
6357 Clouds 12 1026 54 10000 1.5 20 08:20 16.12.2019
6358 Clouds 12 1026 54 10000 1.5 20 08:20 16.12.2019
6359 Clouds 12 1026 58 10000 3.1 40 07:53 16.12.2019
6360 Clouds 12 1026 47 10000 1.5 0 07:31 16.12.2019
6361 Clouds 13 1026 58 10000 2.6 40 06:58 16.12.2019
6362 Clouds 13 1026 50 10000 1.5 100 06:40 16.12.2019
6363 Clouds 13 1026 50 10000 1.5 100 06:20 16.12.2019
6364 Clouds 12 1026 50 10000 1.5 0 05:41 16.12.2019
6365 Clouds 12 1026 50 10000 1.5 0 05:22 16.12.2019
6366 Clouds 11 1028 41 10000 2.6 20 03:28 16.12.2019
6367 Clouds 7 1029 42 10000 3.6 340 01:51 16.12.2019
6368 Clouds 7 1029 56 10000 3.1 330 01:33 16.12.2019
6369 Clouds 5 1029 44 10000 4.6 330 00:39 16.12.2019
6370 Clouds 5 1029 44 10000 4.6 330 00:20 16.12.2019
6371 Clouds 5 1029 44 10000 3.6 340 23:57 15.12.2019
6372 Clouds 4 1029 69 10000 4.1 320 23:37 15.12.2019
6373 Clouds 2 1029 69 10000 4.1 320 23:19 15.12.2019
6374 Clouds 2 1028 65 10000 3.6 310 22:54 15.12.2019
6375 Clouds 3 1028 65 10000 3.6 310 22:36 15.12.2019
6376 Clouds 3 1028 65 10000 3.6 310 22:18 15.12.2019
6377 Clouds 3 1028 65 10000 3.1 320 21:54 15.12.2019
6378 Clouds 4 1028 60 10000 3.6 350 21:36 15.12.2019
6379 Clouds 4 1028 60 10000 3.6 350 21:18 15.12.2019
6380 Clouds 3 1028 46 10000 3.6 340 20:54 15.12.2019
6381 Clouds 4 1028 60 10000 4.6 340 20:36 15.12.2019
6382 Clouds 4 1028 60 10000 4.6 340 20:18 15.12.2019
6383 Clouds 4 1029 50 10000 5.1 350 19:54 15.12.2019
6384 Clouds 4 1028 50 10000 5.7 360 19:36 15.12.2019
6385 Clouds 4 1028 50 10000 5.7 360 19:18 15.12.2019
6386 Clouds 4 1029 54 10000 5.1 360 18:54 15.12.2019
6387 Clouds 5 1028 52 10000 5.1 10 18:36 15.12.2019
6388 Clouds 5 1028 52 10000 5.1 10 18:18 15.12.2019
6389 Clouds 5 1028 54 10000 5.7 360 17:54 15.12.2019
6390 Clouds 5 1028 54 10000 5.1 360 17:36 15.12.2019
6391 Clouds 5 1028 61 10000 4.6 10 17:18 15.12.2019
6392 Clouds 5 1028 61 10000 4.1 10 16:42 15.12.2019
6393 Clouds 5 1028 61 10000 4.1 10 16:22 15.12.2019
6394 Clouds 5 1028 53 10000 3.6 10 15:57 15.12.2019
6395 Clouds 5 1028 55 10000 3.6 10 15:57 15.12.2019
6396 Clouds 5 1028 55 10000 3.6 10 15:38 15.12.2019
6397 Clouds 5 1028 57 10000 4.6 10 15:19 15.12.2019
6398 Clouds 5 1028 57 10000 4.6 10 15:19 15.12.2019
6399 Clouds 5 1028 57 10000 4.6 10 15:19 15.12.2019
6400 Clouds 6 1029 53 10000 4.6 10 14:56 15.12.2019
6401 Clouds 6 1028 57 10000 5.1 10 14:37 15.12.2019
6402 Clouds 5 1028 57 10000 5.1 10 14:18 15.12.2019
6403 Clouds 6 1028 66 10000 7.2 80 13:58 15.12.2019
6404 Clouds 6 1028 61 10000 6.2 80 13:38 15.12.2019
6405 Clouds 7 1028 61 10000 6.2 80 13:19 15.12.2019
6406 Clouds 7 1028 57 10000 7.2 80 12:57 15.12.2019
6407 Clouds 7 1028 53 10000 6.2 80 12:39 15.12.2019
6408 Clouds 7 1028 53 10000 6.2 80 12:39 15.12.2019
6409 Clouds 7 1028 53 10000 6.2 80 12:20 15.12.2019
6410 Clouds 7 1028 50 10000 4.6 70 11:56 15.12.2019
6411 Clouds 8 1028 47 10000 5.1 80 11:37 15.12.2019
6412 Clouds 8 1028 29 10000 5.1 80 11:18 15.12.2019
6413 Clouds 8 1027 50 10000 6.2 70 10:55 15.12.2019
6414 Clouds 8 1027 50 10000 5.1 70 10:37 15.12.2019
6415 Clouds 9 1027 50 10000 5.1 70 10:18 15.12.2019
6416 Clouds 9 1027 53 10000 6.2 70 09:41 15.12.2019
6417 Clouds 10 1027 50 10000 6.2 70 09:20 15.12.2019
6418 Clouds 10 1026 50 10000 5.1 80 08:58 15.12.2019
6419 Clouds 11 1026 29 10000 5.7 70 08:39 15.12.2019
6420 Clouds 11 1026 29 10000 5.7 70 08:21 15.12.2019
6421 Clouds 12 1026 53 10000 5.7 70 07:56 15.12.2019
6422 Clouds 12 1025 37 10000 4.1 60 07:34 15.12.2019
6423 Clouds 12 1025 46 10000 5.7 50 06:51 15.12.2019
6424 Clouds 12 1025 37 10000 4.6 40 06:20 15.12.2019
6425 Clouds 12 1025 37 10000 5.1 360 05:26 15.12.2019
6426 Clouds 12 1025 32 10000 7.7 360 04:47 15.12.2019
6427 Clouds 11 1025 37 10000 4.6 350 03:31 15.12.2019
6428 Clouds 10 1025 37 10000 4.6 340 02:34 15.12.2019
6429 Clouds 9 1025 43 10000 8.7 350 01:47 15.12.2019
6430 Clouds 9 1025 39 10000 4.1 340 01:28 15.12.2019
6431 Clouds 8 1024 36 10000 4.1 340 00:58 15.12.2019
6432 Clouds 8 1023 43 10000 9.3 340 00:40 15.12.2019
6433 Clouds 8 1024 36 10000 6.7 320 00:21 15.12.2019
6434 Clouds 8 1023 39 10000 6.7 330 23:40 14.12.2019
6435 Clouds 8 1023 39 10000 6.7 330 23:40 14.12.2019
6436 Clouds 8 1023 39 10000 6.7 330 23:21 14.12.2019
6437 Clouds 7 1023 42 10000 8.7 320 22:58 14.12.2019
6438 Clouds 7 1023 42 10000 8.7 320 22:58 14.12.2019
6439 Clouds 7 1022 42 10000 7.7 330 22:40 14.12.2019
6440 Clouds 7 1022 42 10000 7.7 330 22:21 14.12.2019
6441 Clouds 7 1022 42 10000 11.3 330 21:56 14.12.2019
6442 Clouds 7 1023 52 10000 4.1 300 21:37 14.12.2019
6443 Clouds 7 1022 42 10000 11.3 330 21:19 14.12.2019
6444 Clouds 7 1022 42 10000 11.3 330 21:19 14.12.2019
6445 Clouds 7 1022 42 10000 10.8 330 20:56 14.12.2019
6446 Clouds 7 1021 42 10000 12.3 330 20:38 14.12.2019
6447 Clouds 7 1021 42 10000 12.3 330 20:19 14.12.2019
6448 Clouds 7 1020 45 10000 12.9 330 19:55 14.12.2019
6449 Clouds 7 1020 45 10000 12.3 330 19:36 14.12.2019
6450 Clouds 7 1020 45 10000 12.3 330 19:18 14.12.2019
6451 Clouds 8 1021 42 10000 11.3 330 18:55 14.12.2019
6452 Clouds 8 1020 45 10000 10.8 330 18:36 14.12.2019
6453 Clouds 8 1020 45 10000 10.8 330 18:18 14.12.2019
6454 Clouds 8 1020 48 10000 9.3 330 17:42 14.12.2019
6455 Clouds 8 1020 45 10000 9.3 330 17:22 14.12.2019
6456 Clouds 8 1019 46 10000 9.8 330 16:56 14.12.2019
6457 Clouds 8 1019 46 10000 9.8 330 16:38 14.12.2019
6458 Clouds 9 1019 53 10000 11.3 350 16:18 14.12.2019
6459 Clouds 9 1019 50 10000 10.8 350 15:42 14.12.2019
6460 Clouds 9 1018 50 10000 10.8 340 15:21 14.12.2019
6461 Clouds 9 1018 50 10000 10.8 340 15:21 14.12.2019
6462 Clouds 9 1018 45 10000 6.7 330 14:58 14.12.2019
6463 Clouds 10 1018 46 10000 9.3 350 14:38 14.12.2019
6464 Clear 10 1018 46 10000 9.3 350 14:19 14.12.2019
6465 Clear 10 1018 46 10000 9.3 350 14:19 14.12.2019
6466 Clear 11 1017 46 10000 8.2 330 13:45 14.12.2019
6467 Clouds 11 1017 46 10000 5.7 330 13:21 14.12.2019
6468 Clouds 11 1017 46 10000 5.7 330 13:21 14.12.2019
6469 Clouds 11 1016 50 10000 8.2 350 12:59 14.12.2019
6470 Clouds 11 1016 47 10000 6.2 350 12:41 14.12.2019
6471 Clouds 11 1016 47 10000 6.2 350 12:21 14.12.2019
6472 Clouds 11 1016 47 10000 6.2 350 12:21 14.12.2019
6473 Clouds 11 1016 43 10000 7.2 340 11:59 14.12.2019
6474 Clouds 12 1015 54 10000 4.6 320 11:40 14.12.2019
6475 Clouds 12 1015 54 10000 4.6 320 11:20 14.12.2019
6476 Clouds 11 1015 54 10000 4.1 360 10:59 14.12.2019
6477 Clouds 12 1014 54 10000 4.1 310 10:40 14.12.2019
6478 Clouds 12 1014 54 10000 4.1 310 10:22 14.12.2019
6479 Clouds 12 1013 47 10000 7.2 250 09:59 14.12.2019
6480 Clouds 13 1012 41 10000 8.7 220 09:40 14.12.2019
6481 Clouds 14 1012 41 10000 8.7 220 09:20 14.12.2019
6482 Clouds 15 1012 41 10000 8.7 220 08:43 14.12.2019
6483 Clouds 16 1012 39 10000 9.3 220 08:20 14.12.2019
6484 Clouds 16 1013 36 10000 9.3 230 07:55 14.12.2019
6485 Clouds 17 1012 39 10000 7.2 240 07:36 14.12.2019
6486 Clouds 17 1012 39 10000 7.2 240 07:18 14.12.2019
6487 Clouds 17 1013 44 10000 6.2 240 06:39 14.12.2019
6488 Clouds 16 1014 39 10000 8.2 220 06:18 14.12.2019
6489 Clouds 15 1014 44 10000 3.1 250 05:20 14.12.2019
6490 Clouds 11 1019 61 10000 2.1 60 02:49 14.12.2019
6491 Clouds 10 1020 55 10000 2.1 60 02:22 14.12.2019
6492 Clouds 8 1021 61 10000 1.5 50 01:43 14.12.2019
6493 Clear 6 1021 60 10000 0.5 0 00:50 14.12.2019
6494 Clouds 5 1021 65 10000 1.5 50 00:29 14.12.2019
6495 Clouds 5 1022 54 10000 1 0 23:58 13.12.2019
6496 Clouds 4 1022 65 10000 1 0 23:39 13.12.2019
6497 Clouds 4 1022 65 10000 1.5 280 23:19 13.12.2019
6498 Clouds 3 1022 65 10000 1.5 280 22:55 13.12.2019
6499 Clouds 4 1022 65 10000 2.1 270 22:36 13.12.2019
6500 Clouds 3 1022 65 10000 2.1 270 22:36 13.12.2019
6501 Clouds 4 1022 65 10000 2.1 270 22:18 13.12.2019
6502 Clouds 4 1022 65 10000 2.6 300 21:39 13.12.2019
6503 Clouds 4 1022 65 10000 2.6 300 21:21 13.12.2019
6504 Clouds 5 1023 60 10000 3.1 310 20:57 13.12.2019
6505 Clouds 5 1023 47 10000 3.1 320 20:38 13.12.2019
6506 Clouds 5 1023 49 10000 3.1 320 20:19 13.12.2019
6507 Clouds 5 1023 49 10000 3.1 320 19:56 13.12.2019
6508 Clouds 5 1024 49 10000 3.1 330 19:37 13.12.2019
6509 Clouds 5 1024 49 10000 3.1 330 19:18 13.12.2019
6510 Clouds 6 1024 61 10000 4.1 360 18:42 13.12.2019
6511 Clouds 6 1024 61 10000 4.1 360 18:20 13.12.2019
6512 Clouds 6 1024 61 10000 4.1 360 18:20 13.12.2019
6513 Clouds 6 1024 57 10000 3.6 360 17:59 13.12.2019
6514 Clouds 6 1024 61 10000 3.6 10 17:39 13.12.2019
6515 Clouds 7 1024 61 10000 3.6 10 17:18 13.12.2019
6516 Clouds 7 1024 61 10000 3.6 10 17:18 13.12.2019
6517 Clouds 7 1025 61 10000 3.6 360 16:56 13.12.2019
6518 Clouds 7 1025 66 10000 3.1 10 16:38 13.12.2019
6519 Clouds 7 1025 66 10000 3.1 10 16:19 13.12.2019
6520 Clouds 7 1026 66 10000 3.6 20 15:42 13.12.2019
6521 Clouds 7 1026 66 10000 3.6 20 15:21 13.12.2019
6522 Clouds 7 1026 66 10000 2.6 20 14:57 13.12.2019
6523 Clouds 7 1026 66 10000 2.6 40 14:37 13.12.2019
6524 Clouds 7 1026 66 10000 2.6 40 14:18 13.12.2019
6525 Clouds 7 1026 66 10000 3.1 10 13:43 13.12.2019
6526 Clouds 7 1026 66 10000 3.1 10 13:24 13.12.2019
6527 Clouds 7 1026 66 10000 3.1 10 13:24 13.12.2019
6528 Clouds 8 1026 66 10000 3.1 40 12:57 13.12.2019
6529 Clouds 8 1026 66 10000 4.1 40 12:39 13.12.2019
6530 Clouds 8 1026 66 10000 4.1 40 12:18 13.12.2019
6531 Clouds 8 1027 66 10000 4.6 40 11:43 13.12.2019
6532 Clouds 8 1027 66 10000 4.6 40 11:25 13.12.2019
6533 Clouds 8 1026 66 10000 4.6 60 10:57 13.12.2019
6534 Clouds 8 1026 66 10000 5.1 60 10:39 13.12.2019
6535 Clouds 8 1026 66 10000 5.1 60 10:21 13.12.2019
6536 Clouds 8 1026 61 10000 4.6 60 09:42 13.12.2019
6537 Clouds 8 1026 61 10000 4.6 60 09:21 13.12.2019
6538 Clouds 8 1026 57 10000 3.1 80 08:55 13.12.2019
6539 Clouds 8 1026 57 10000 3.1 80 08:36 13.12.2019
6540 Clouds 9 1026 57 10000 3.1 80 08:18 13.12.2019
6541 Clouds 9 1026 49 10000 3.1 70 07:42 13.12.2019
6542 Clouds 9 1026 49 10000 3.1 70 07:19 13.12.2019
6543 Clouds 9 1026 42 10000 2.1 30 06:45 13.12.2019
6544 Clouds 9 1026 42 10000 2.1 30 06:25 13.12.2019
6545 Clouds 9 1025 42 10000 3.1 40 05:38 13.12.2019
6546 Clouds 9 1026 45 10000 4.1 350 05:20 13.12.2019
6547 Clouds 9 1026 45 10000 2.1 20 04:29 13.12.2019
6548 Clouds 8 1027 52 10000 3.6 20 02:56 13.12.2019
6549 Clouds 8 1027 45 10000 1 0 02:30 13.12.2019
6550 Clouds 8 1027 48 10000 2.6 30 01:38 13.12.2019
6551 Clouds 7 1027 48 10000 4.1 30 00:51 13.12.2019
6552 Clouds 7 1026 52 10000 8.2 20 00:28 13.12.2019
6553 Clouds 7 1025 35 10000 8.2 20 23:44 12.12.2019
6554 Clouds 7 1025 35 10000 8.2 20 23:26 12.12.2019
6555 Clouds 7 1024 49 10000 7.2 20 22:57 12.12.2019
6556 Clouds 7 1024 49 10000 7.7 10 22:39 12.12.2019
6557 Clouds 7 1024 49 10000 7.7 10 22:39 12.12.2019
6558 Clouds 7 1024 49 10000 7.7 10 22:21 12.12.2019
6559 Clouds 7 1024 49 10000 7.2 360 21:56 12.12.2019
6560 Clouds 7 1024 52 10000 7.7 360 21:37 12.12.2019
6561 Clouds 7 1024 52 10000 7.7 360 21:19 12.12.2019
6562 Clouds 7 1024 52 10000 7.7 360 21:19 12.12.2019
6563 Clouds 7 1023 37 10000 9.8 350 20:59 12.12.2019
6564 Clouds 7 1023 37 10000 8.7 360 20:40 12.12.2019
6565 Clouds 7 1023 39 10000 8.7 360 20:22 12.12.2019
6566 Clouds 7 1023 49 10000 9.8 350 19:56 12.12.2019
6567 Clouds 7 1022 45 10000 10.8 350 19:38 12.12.2019
6568 Clouds 7 1022 45 10000 10.8 350 19:20 12.12.2019
6569 Clouds 7 1023 45 10000 9.8 340 18:56 12.12.2019
6570 Clouds 7 1023 45 10000 9.8 340 18:56 12.12.2019
6571 Clouds 7 1022 45 10000 8.7 350 18:38 12.12.2019
6572 Clouds 7 1022 45 10000 8.7 350 18:19 12.12.2019
6573 Clouds 7 1022 42 10000 10.3 340 17:57 12.12.2019
6574 Clouds 8 1021 42 10000 9.8 340 17:38 12.12.2019
6575 Clouds 8 1021 42 10000 9.8 340 17:19 12.12.2019
6576 Clouds 8 1021 45 10000 11.3 330 16:55 12.12.2019
6577 Clouds 8 1021 42 10000 10.8 330 16:37 12.12.2019
6578 Clouds 8 1021 42 10000 10.8 330 16:18 12.12.2019
6579 Clouds 8 1020 42 10000 11.3 330 15:54 12.12.2019
6580 Clouds 8 1020 42 10000 11.3 330 15:54 12.12.2019
6581 Clouds 8 1021 45 10000 10.8 330 15:36 12.12.2019
6582 Clouds 8 1021 45 10000 10.8 330 15:18 12.12.2019
6583 Clouds 8 1021 45 10000 10.8 330 15:18 12.12.2019
6584 Clouds 9 1020 43 10000 11.3 340 14:38 12.12.2019
6585 Clouds 9 1020 43 10000 11.3 340 14:20 12.12.2019
6586 Clouds 9 1020 43 10000 11.3 340 13:57 12.12.2019
6587 Clouds 9 1018 46 10000 12.3 340 13:39 12.12.2019
6588 Clouds 9 1018 46 10000 12.3 340 13:21 12.12.2019
6589 Clouds 9 1018 43 10000 11.3 340 12:57 12.12.2019
6590 Clouds 10 1017 40 10000 13.4 340 12:38 12.12.2019
6591 Clouds 10 1017 40 10000 13.4 340 12:38 12.12.2019
6592 Clouds 10 1017 40 10000 13.4 340 12:20 12.12.2019
6593 Clouds 10 1017 35 10000 10.8 350 11:55 12.12.2019
6594 Clouds 10 1017 35 10000 10.8 350 11:55 12.12.2019
6595 Clouds 11 1016 37 10000 8.7 340 11:37 12.12.2019
6596 Clouds 11 1016 37 10000 8.7 340 11:19 12.12.2019
6597 Clouds 11 1016 37 10000 10.3 350 10:54 12.12.2019
6598 Clouds 11 1015 43 10000 10.8 350 10:36 12.12.2019
6599 Clouds 12 1015 43 10000 10.8 350 10:18 12.12.2019
6600 Clouds 12 1015 43 10000 10.8 350 10:18 12.12.2019
6601 Clouds 13 1013 44 10000 9.8 360 09:41 12.12.2019
6602 Clouds 14 1013 44 10000 9.8 360 09:23 12.12.2019
6603 Clouds 14 1012 41 10000 9.3 10 08:56 12.12.2019
6604 Clouds 15 1012 32 10000 5.1 20 08:38 12.12.2019
6605 Clouds 15 1012 32 10000 5.1 20 08:20 12.12.2019
6606 Clouds 17 1010 45 10000 6.7 20 07:43 12.12.2019
6607 Clouds 17 1010 45 10000 6.7 20 07:24 12.12.2019
6608 Clouds 18 1008 34 10000 1.5 70 06:50 12.12.2019
6609 Clouds 18 1008 34 10000 1.5 70 06:32 12.12.2019
6610 Clouds 19 1008 34 10000 3.6 30 05:39 12.12.2019
6611 Clear 18 1008 42 10000 2.6 260 04:52 12.12.2019
6612 Clear 18 1008 42 10000 2.6 260 04:52 12.12.2019
6613 Clear 17 1008 48 10000 4.6 260 03:31 12.12.2019
6614 Clear 16 1009 51 10000 5.7 240 02:38 12.12.2019
6615 Clear 16 1009 51 10000 5.7 240 02:20 12.12.2019
6616 Clear 14 1009 67 10000 3.6 260 01:40 12.12.2019
6617 Clear 13 1009 67 10000 3.6 260 01:22 12.12.2019
6618 Clear 12 1009 71 10000 4.1 240 00:46 12.12.2019
6619 Clouds 11 1009 87 10000 2.1 310 00:20 12.12.2019
6620 Clouds 9 1009 93 10000 1.5 10 23:44 11.12.2019
6621 Clouds 8 1009 93 10000 1.5 10 23:21 11.12.2019
6622 Clouds 8 1009 93 10000 1.5 0 22:57 11.12.2019
6623 Clouds 8 1009 93 10000 1 0 22:39 11.12.2019
6624 Clouds 8 1009 93 10000 1 0 22:20 11.12.2019
6625 Clear 9 1009 93 9000 2.1 270 21:57 11.12.2019
6626 Clear 9 1008 93 9000 1.5 250 21:38 11.12.2019
6627 Clear 9 1008 93 9000 1.5 250 21:19 11.12.2019
6628 Clouds 9 1008 93 9000 1 0 20:56 11.12.2019
6629 Clouds 9 1008 93 10000 1.5 290 20:37 11.12.2019
6630 Clouds 9 1008 93 9000 1 270 20:19 11.12.2019
6631 Clouds 9 1008 93 9000 1 270 19:57 11.12.2019
6632 Clouds 9 1008 93 10000 2.1 320 19:39 11.12.2019
6633 Clouds 9 1008 93 10000 2.1 320 19:39 11.12.2019
6634 Clouds 9 1008 93 10000 2.1 320 19:19 11.12.2019
6635 Clouds 10 1008 87 10000 0.5 20 18:42 11.12.2019
6636 Clouds 10 1008 87 10000 0.5 20 18:21 11.12.2019
6637 Clouds 10 1008 87 10000 0.5 0 17:57 11.12.2019
6638 Clouds 10 1008 87 10000 0.5 0 17:57 11.12.2019
6639 Clouds 10 1008 87 10000 0.5 0 17:39 11.12.2019
6640 Clouds 10 1008 87 10000 0.5 0 17:19 11.12.2019
6641 Clouds 11 1008 87 10000 2.6 310 16:57 11.12.2019
6642 Clouds 11 1009 87 10000 3.6 290 16:39 11.12.2019
6643 Clouds 11 1009 87 10000 3.6 290 16:21 11.12.2019
6644 Clouds 11 1009 82 10000 4.1 290 15:59 11.12.2019
6645 Clouds 11 1009 87 10000 2.1 280 15:40 11.12.2019
6646 Clouds 11 1009 87 10000 2.1 280 15:22 11.12.2019
6647 Clouds 11 1009 87 10000 2.1 280 15:22 11.12.2019
6648 Clouds 11 1009 93 10000 1.5 290 14:56 11.12.2019
6649 Clouds 12 1010 87 10000 1.5 250 14:38 11.12.2019
6650 Clouds 12 1010 87 10000 1.5 250 14:19 11.12.2019
6651 Clouds 12 1010 87 10000 1.5 270 13:55 11.12.2019
6652 Clouds 12 1010 93 10000 2.6 320 13:37 11.12.2019
6653 Clouds 12 1011 87 10000 1.5 330 13:18 11.12.2019
6654 Rain 13 1011 93 10000 2.6 280 12:55 11.12.2019
6655 Rain 13 1011 93 10000 2.6 280 12:37 11.12.2019
6656 Rain 13 1011 87 10000 3.1 350 12:18 11.12.2019
6657 Rain 13 1011 87 10000 3.1 350 12:18 11.12.2019
6658 Rain 13 1011 87 10000 3.1 350 11:57 11.12.2019
6659 Rain 13 1011 87 10000 3.1 350 11:57 11.12.2019
6660 Rain 13 1011 87 10000 4.1 30 11:38 11.12.2019
6661 Rain 13 1011 87 10000 4.1 30 11:38 11.12.2019
6662 Rain 13 1011 87 10000 4.1 30 11:18 11.12.2019
6663 Rain 13 1011 87 10000 4.1 30 11:18 11.12.2019
6664 Rain 13 1013 93 9656 1.02 358 10:45 11.12.2019
6665 Rain 14 1013 93 9656 1.02 358 10:27 11.12.2019
6666 Clouds 14 1014 77 10000 2.6 330 09:59 11.12.2019
6667 Clouds 14 1013 82 12874 1.02 358 09:39 11.12.2019
6668 Clouds 14 1013 82 12874 1.02 358 09:20 11.12.2019
6669 Clouds 15 1013 77 10000 3.6 20 08:57 11.12.2019
6670 Clouds 15 1013 72 7000 2.1 360 08:38 11.12.2019
6671 Clouds 15 1013 77 10000 3.6 360 08:19 11.12.2019
6672 Clouds 15 1013 77 10000 3.6 360 07:47 11.12.2019
6673 Clouds 15 1013 72 7000 2.1 10 07:28 11.12.2019
6674 Clouds 16 1013 77 10000 2.1 30 06:59 11.12.2019
6675 Clouds 16 1014 72 7000 2.1 30 06:40 11.12.2019
6676 Clouds 16 1014 72 7000 2.1 30 06:21 11.12.2019
6677 Clouds 16 1015 72 7000 2.1 20 05:41 11.12.2019
6678 Clouds 16 1015 72 7000 2.1 20 05:19 11.12.2019
6679 Clouds 15 1016 67 8000 1.5 10 04:26 11.12.2019
6680 Clouds 14 1018 76 8000 2.1 340 02:49 11.12.2019
6681 Clouds 12 1019 76 7000 2.6 310 01:25 11.12.2019
6682 Clouds 11 1019 81 6000 2.6 330 00:47 11.12.2019
6683 Clouds 10 1019 81 10000 4.1 320 00:21 11.12.2019
6684 Clouds 10 1019 81 10000 3.6 320 23:49 10.12.2019
6685 Clouds 9 1019 81 10000 3.1 310 23:30 10.12.2019
6686 Clouds 9 1019 81 10000 3.1 350 22:59 10.12.2019
6687 Clouds 9 1019 81 10000 3.1 350 22:59 10.12.2019
6688 Clouds 9 1018 81 10000 4.6 10 22:40 10.12.2019
6689 Clouds 9 1018 81 10000 4.6 10 22:22 10.12.2019
6690 Clouds 10 1019 81 10000 4.1 10 21:57 10.12.2019
6691 Clouds 10 1018 81 10000 3.1 30 21:39 10.12.2019
6692 Clouds 10 1018 81 10000 3.1 30 21:21 10.12.2019
6693 Clouds 10 1019 76 10000 3.1 10 20:57 10.12.2019
6694 Clouds 10 1019 76 10000 5.1 350 20:37 10.12.2019
6695 Clouds 11 1019 76 10000 5.1 350 20:19 10.12.2019
6696 Clouds 11 1018 76 10000 3.6 10 19:55 10.12.2019
6697 Clouds 10 1018 82 10000 3.1 10 19:37 10.12.2019
6698 Clouds 10 1018 82 10000 3.1 10 19:18 10.12.2019
6699 Clouds 10 1019 81 10000 2.1 310 18:40 10.12.2019
6700 Clouds 11 1019 81 10000 2.1 310 18:20 10.12.2019
6701 Clouds 11 1019 81 10000 2.6 320 17:58 10.12.2019
6702 Clouds 11 1019 81 10000 2.6 310 17:40 10.12.2019